<?xml version="1.0" encoding="UTF-8" standalone="no" ?>
<gpx xmlns="http://www.topografix.com/GPX/1/1" xmlns:xsi="http://www.w3.org/2001/XMLSchema-instance" xsi:schemaLocation="http://www.topografix.com/GPX/1/1 http://www.topografix.com/GPX/1/1/gpx.xsd" version="1.1" creator="VisuGPX - https://www.visugpx.com">
  <metadata>
    <name>Marche nordique</name>
    <desc><![CDATA[Dans la forêt de Fontainebleau avec nos amis parisiens]]></desc>
  </metadata>
  <trk>
    <name><![CDATA[22/09/2013 10:10]]></name>
    <desc><![CDATA[]]></desc>
    <trkseg>
      <trkpt lat="48.24449" lon="2.73022">
        <ele>109</ele>
        <time>2013-09-22T08:10:38.432Z</time>
      </trkpt>
      <trkpt lat="48.24453" lon="2.73025">
        <ele>109</ele>
        <time>2013-09-22T08:10:44.986Z</time>
      </trkpt>
      <trkpt lat="48.24453" lon="2.73025">
        <ele>109</ele>
        <time>2013-09-22T08:10:47.959Z</time>
      </trkpt>
      <trkpt lat="48.24453" lon="2.73026">
        <ele>109</ele>
        <time>2013-09-22T08:10:50.964Z</time>
      </trkpt>
      <trkpt lat="48.24452" lon="2.73027">
        <ele>109</ele>
        <time>2013-09-22T08:10:52.974Z</time>
      </trkpt>
      <trkpt lat="48.24452" lon="2.73027">
        <ele>109</ele>
        <time>2013-09-22T08:10:54.982Z</time>
      </trkpt>
      <trkpt lat="48.24454" lon="2.73027">
        <ele>109</ele>
        <time>2013-09-22T08:10:57.953Z</time>
      </trkpt>
      <trkpt lat="48.24454" lon="2.73027">
        <ele>109</ele>
        <time>2013-09-22T08:10:59.971Z</time>
      </trkpt>
      <trkpt lat="48.24453" lon="2.73027">
        <ele>109</ele>
        <time>2013-09-22T08:11:53.986Z</time>
      </trkpt>
      <trkpt lat="48.24457" lon="2.73023">
        <ele>109</ele>
        <time>2013-09-22T08:11:56.981Z</time>
      </trkpt>
      <trkpt lat="48.24457" lon="2.73022">
        <ele>109</ele>
        <time>2013-09-22T08:11:58.987Z</time>
      </trkpt>
      <trkpt lat="48.24457" lon="2.73023">
        <ele>109</ele>
        <time>2013-09-22T08:12:01.980Z</time>
      </trkpt>
      <trkpt lat="48.24457" lon="2.73023">
        <ele>109</ele>
        <time>2013-09-22T08:14:03.000Z</time>
      </trkpt>
      <trkpt lat="48.24454" lon="2.73025">
        <ele>109</ele>
        <time>2013-09-22T08:14:05.980Z</time>
      </trkpt>
      <trkpt lat="48.24454" lon="2.73026">
        <ele>109</ele>
        <time>2013-09-22T08:14:09.000Z</time>
      </trkpt>
      <trkpt lat="48.24454" lon="2.73026">
        <ele>109</ele>
        <time>2013-09-22T08:14:13.981Z</time>
      </trkpt>
      <trkpt lat="48.24456" lon="2.73024">
        <ele>109</ele>
        <time>2013-09-22T08:14:15.982Z</time>
      </trkpt>
      <trkpt lat="48.24459" lon="2.73022">
        <ele>109</ele>
        <time>2013-09-22T08:14:20.994Z</time>
      </trkpt>
      <trkpt lat="48.24458" lon="2.73022">
        <ele>109</ele>
        <time>2013-09-22T08:14:23.978Z</time>
      </trkpt>
      <trkpt lat="48.24458" lon="2.73022">
        <ele>109</ele>
        <time>2013-09-22T08:14:28.969Z</time>
      </trkpt>
      <trkpt lat="48.24458" lon="2.73024">
        <ele>109</ele>
        <time>2013-09-22T08:14:30.980Z</time>
      </trkpt>
      <trkpt lat="48.24457" lon="2.73025">
        <ele>109</ele>
        <time>2013-09-22T08:14:32.991Z</time>
      </trkpt>
      <trkpt lat="48.24457" lon="2.73024">
        <ele>109</ele>
        <time>2013-09-22T08:14:35.971Z</time>
      </trkpt>
      <trkpt lat="48.24457" lon="2.73024">
        <ele>109</ele>
        <time>2013-09-22T08:15:16.979Z</time>
      </trkpt>
      <trkpt lat="48.24459" lon="2.73026">
        <ele>109</ele>
        <time>2013-09-22T08:15:19.976Z</time>
      </trkpt>
      <trkpt lat="48.24459" lon="2.73026">
        <ele>109</ele>
        <time>2013-09-22T08:15:22.973Z</time>
      </trkpt>
      <trkpt lat="48.24459" lon="2.73028">
        <ele>109</ele>
        <time>2013-09-22T08:15:24.976Z</time>
      </trkpt>
      <trkpt lat="48.24457" lon="2.73027">
        <ele>109</ele>
        <time>2013-09-22T08:15:28.982Z</time>
      </trkpt>
      <trkpt lat="48.24457" lon="2.73027">
        <ele>109</ele>
        <time>2013-09-22T08:15:30.997Z</time>
      </trkpt>
      <trkpt lat="48.24457" lon="2.73027">
        <ele>109</ele>
        <time>2013-09-22T08:15:36.020Z</time>
      </trkpt>
      <trkpt lat="48.24457" lon="2.73019">
        <ele>109</ele>
        <time>2013-09-22T08:15:38.996Z</time>
      </trkpt>
      <trkpt lat="48.24456" lon="2.73016">
        <ele>109</ele>
        <time>2013-09-22T08:15:41.967Z</time>
      </trkpt>
      <trkpt lat="48.24457" lon="2.73017">
        <ele>109</ele>
        <time>2013-09-22T08:15:43.970Z</time>
      </trkpt>
      <trkpt lat="48.24457" lon="2.73017">
        <ele>109</ele>
        <time>2013-09-22T08:16:41.983Z</time>
      </trkpt>
      <trkpt lat="48.24453" lon="2.73023">
        <ele>109</ele>
        <time>2013-09-22T08:16:44.995Z</time>
      </trkpt>
      <trkpt lat="48.24454" lon="2.73022">
        <ele>109</ele>
        <time>2013-09-22T08:16:46.995Z</time>
      </trkpt>
      <trkpt lat="48.24454" lon="2.73022">
        <ele>109</ele>
        <time>2013-09-22T08:17:32.986Z</time>
      </trkpt>
      <trkpt lat="48.24456" lon="2.73027">
        <ele>109</ele>
        <time>2013-09-22T08:17:34.996Z</time>
      </trkpt>
      <trkpt lat="48.24457" lon="2.73029">
        <ele>109</ele>
        <time>2013-09-22T08:17:38.983Z</time>
      </trkpt>
      <trkpt lat="48.24456" lon="2.73029">
        <ele>109</ele>
        <time>2013-09-22T08:17:40.998Z</time>
      </trkpt>
      <trkpt lat="48.24456" lon="2.73028">
        <ele>109</ele>
        <time>2013-09-22T08:18:07.976Z</time>
      </trkpt>
      <trkpt lat="48.24457" lon="2.73025">
        <ele>109</ele>
        <time>2013-09-22T08:18:10.965Z</time>
      </trkpt>
      <trkpt lat="48.2446" lon="2.7302">
        <ele>109</ele>
        <time>2013-09-22T08:18:14.994Z</time>
      </trkpt>
      <trkpt lat="48.24459" lon="2.73021">
        <ele>109</ele>
        <time>2013-09-22T08:18:17.961Z</time>
      </trkpt>
      <trkpt lat="48.24459" lon="2.73021">
        <ele>109</ele>
        <time>2013-09-22T08:23:56.996Z</time>
      </trkpt>
      <trkpt lat="48.24461" lon="2.73024">
        <ele>109</ele>
        <time>2013-09-22T08:23:58.997Z</time>
      </trkpt>
      <trkpt lat="48.24462" lon="2.73025">
        <ele>109</ele>
        <time>2013-09-22T08:24:01.980Z</time>
      </trkpt>
      <trkpt lat="48.24461" lon="2.73025">
        <ele>109</ele>
        <time>2013-09-22T08:24:04.991Z</time>
      </trkpt>
      <trkpt lat="48.24461" lon="2.73025">
        <ele>109</ele>
        <time>2013-09-22T08:25:14.999Z</time>
      </trkpt>
      <trkpt lat="48.24464" lon="2.73024">
        <ele>110</ele>
        <time>2013-09-22T08:25:17.003Z</time>
      </trkpt>
      <trkpt lat="48.24467" lon="2.73023">
        <ele>110</ele>
        <time>2013-09-22T08:25:21.044Z</time>
      </trkpt>
      <trkpt lat="48.24466" lon="2.73023">
        <ele>110</ele>
        <time>2013-09-22T08:25:23.996Z</time>
      </trkpt>
      <trkpt lat="48.24466" lon="2.73023">
        <ele>110</ele>
        <time>2013-09-22T08:25:56.025Z</time>
      </trkpt>
      <trkpt lat="48.24469" lon="2.73023">
        <ele>110</ele>
        <time>2013-09-22T08:25:59.002Z</time>
      </trkpt>
      <trkpt lat="48.24471" lon="2.73023">
        <ele>110</ele>
        <time>2013-09-22T08:26:01.982Z</time>
      </trkpt>
      <trkpt lat="48.24471" lon="2.73023">
        <ele>110</ele>
        <time>2013-09-22T08:26:03.986Z</time>
      </trkpt>
      <trkpt lat="48.24471" lon="2.73023">
        <ele>110</ele>
        <time>2013-09-22T08:27:05.970Z</time>
      </trkpt>
      <trkpt lat="48.24468" lon="2.73027">
        <ele>110</ele>
        <time>2013-09-22T08:27:08.976Z</time>
      </trkpt>
      <trkpt lat="48.24467" lon="2.73029">
        <ele>110</ele>
        <time>2013-09-22T08:27:10.992Z</time>
      </trkpt>
      <trkpt lat="48.24467" lon="2.73029">
        <ele>110</ele>
        <time>2013-09-22T08:27:13.972Z</time>
      </trkpt>
      <trkpt lat="48.24467" lon="2.73029">
        <ele>110</ele>
        <time>2013-09-22T08:27:16.031Z</time>
      </trkpt>
      <trkpt lat="48.2447" lon="2.73034">
        <ele>110</ele>
        <time>2013-09-22T08:27:18.996Z</time>
      </trkpt>
      <trkpt lat="48.24469" lon="2.73035">
        <ele>110</ele>
        <time>2013-09-22T08:27:21.030Z</time>
      </trkpt>
      <trkpt lat="48.24469" lon="2.73035">
        <ele>110</ele>
        <time>2013-09-22T08:27:23.991Z</time>
      </trkpt>
      <trkpt lat="48.24469" lon="2.73037">
        <ele>110</ele>
        <time>2013-09-22T08:27:25.994Z</time>
      </trkpt>
      <trkpt lat="48.24469" lon="2.73048">
        <ele>110</ele>
        <time>2013-09-22T08:27:33.001Z</time>
      </trkpt>
      <trkpt lat="48.24469" lon="2.73054">
        <ele>110</ele>
        <time>2013-09-22T08:27:35.983Z</time>
      </trkpt>
      <trkpt lat="48.24467" lon="2.73063">
        <ele>111</ele>
        <time>2013-09-22T08:27:40.994Z</time>
      </trkpt>
      <trkpt lat="48.24466" lon="2.73068">
        <ele>111</ele>
        <time>2013-09-22T08:27:43.978Z</time>
      </trkpt>
      <trkpt lat="48.24464" lon="2.73078">
        <ele>111</ele>
        <time>2013-09-22T08:27:48.989Z</time>
      </trkpt>
      <trkpt lat="48.24464" lon="2.73082">
        <ele>111</ele>
        <time>2013-09-22T08:27:51.034Z</time>
      </trkpt>
      <trkpt lat="48.24463" lon="2.73092">
        <ele>111</ele>
        <time>2013-09-22T08:27:56.048Z</time>
      </trkpt>
      <trkpt lat="48.24462" lon="2.73098">
        <ele>111</ele>
        <time>2013-09-22T08:27:58.983Z</time>
      </trkpt>
      <trkpt lat="48.24461" lon="2.73105">
        <ele>111</ele>
        <time>2013-09-22T08:28:02.998Z</time>
      </trkpt>
      <trkpt lat="48.24459" lon="2.73111">
        <ele>111</ele>
        <time>2013-09-22T08:28:05.994Z</time>
      </trkpt>
      <trkpt lat="48.24457" lon="2.73119">
        <ele>110</ele>
        <time>2013-09-22T08:28:10.993Z</time>
      </trkpt>
      <trkpt lat="48.24456" lon="2.73125">
        <ele>110</ele>
        <time>2013-09-22T08:28:13.977Z</time>
      </trkpt>
      <trkpt lat="48.24453" lon="2.73136">
        <ele>110</ele>
        <time>2013-09-22T08:28:21.012Z</time>
      </trkpt>
      <trkpt lat="48.24452" lon="2.73139">
        <ele>110</ele>
        <time>2013-09-22T08:28:23.000Z</time>
      </trkpt>
      <trkpt lat="48.24444" lon="2.73145">
        <ele>110</ele>
        <time>2013-09-22T08:28:31.001Z</time>
      </trkpt>
      <trkpt lat="48.24442" lon="2.73147">
        <ele>109</ele>
        <time>2013-09-22T08:28:33.981Z</time>
      </trkpt>
      <trkpt lat="48.24435" lon="2.73151">
        <ele>109</ele>
        <time>2013-09-22T08:28:40.997Z</time>
      </trkpt>
      <trkpt lat="48.24432" lon="2.73153">
        <ele>109</ele>
        <time>2013-09-22T08:28:43.984Z</time>
      </trkpt>
      <trkpt lat="48.24427" lon="2.7316">
        <ele>108</ele>
        <time>2013-09-22T08:28:51.046Z</time>
      </trkpt>
      <trkpt lat="48.24425" lon="2.73164">
        <ele>107</ele>
        <time>2013-09-22T08:28:54.014Z</time>
      </trkpt>
      <trkpt lat="48.24422" lon="2.73172">
        <ele>107</ele>
        <time>2013-09-22T08:28:58.986Z</time>
      </trkpt>
      <trkpt lat="48.2442" lon="2.73177">
        <ele>107</ele>
        <time>2013-09-22T08:29:01.985Z</time>
      </trkpt>
      <trkpt lat="48.24418" lon="2.73186">
        <ele>108</ele>
        <time>2013-09-22T08:29:07.008Z</time>
      </trkpt>
      <trkpt lat="48.24416" lon="2.73191">
        <ele>107</ele>
        <time>2013-09-22T08:29:09.992Z</time>
      </trkpt>
      <trkpt lat="48.24412" lon="2.73201">
        <ele>107</ele>
        <time>2013-09-22T08:29:17.024Z</time>
      </trkpt>
      <trkpt lat="48.24411" lon="2.73204">
        <ele>107</ele>
        <time>2013-09-22T08:29:19.041Z</time>
      </trkpt>
      <trkpt lat="48.24407" lon="2.73215">
        <ele>107</ele>
        <time>2013-09-22T08:29:26.014Z</time>
      </trkpt>
      <trkpt lat="48.24406" lon="2.73218">
        <ele>107</ele>
        <time>2013-09-22T08:29:28.019Z</time>
      </trkpt>
      <trkpt lat="48.24401" lon="2.73228">
        <ele>107</ele>
        <time>2013-09-22T08:29:33.006Z</time>
      </trkpt>
      <trkpt lat="48.24398" lon="2.73235">
        <ele>107</ele>
        <time>2013-09-22T08:29:36.053Z</time>
      </trkpt>
      <trkpt lat="48.24394" lon="2.7324">
        <ele>107</ele>
        <time>2013-09-22T08:29:39.009Z</time>
      </trkpt>
      <trkpt lat="48.2439" lon="2.73246">
        <ele>108</ele>
        <time>2013-09-22T08:29:41.993Z</time>
      </trkpt>
      <trkpt lat="48.24385" lon="2.73252">
        <ele>109</ele>
        <time>2013-09-22T08:29:46.063Z</time>
      </trkpt>
      <trkpt lat="48.24383" lon="2.73256">
        <ele>109</ele>
        <time>2013-09-22T08:29:49.020Z</time>
      </trkpt>
      <trkpt lat="48.24377" lon="2.73263">
        <ele>110</ele>
        <time>2013-09-22T08:29:56.031Z</time>
      </trkpt>
      <trkpt lat="48.24375" lon="2.73266">
        <ele>110</ele>
        <time>2013-09-22T08:29:58.982Z</time>
      </trkpt>
      <trkpt lat="48.24368" lon="2.73274">
        <ele>111</ele>
        <time>2013-09-22T08:30:07.999Z</time>
      </trkpt>
      <trkpt lat="48.24366" lon="2.73277">
        <ele>111</ele>
        <time>2013-09-22T08:30:10.999Z</time>
      </trkpt>
      <trkpt lat="48.24361" lon="2.73287">
        <ele>111</ele>
        <time>2013-09-22T08:30:19.021Z</time>
      </trkpt>
      <trkpt lat="48.2436" lon="2.7329">
        <ele>111</ele>
        <time>2013-09-22T08:30:21.087Z</time>
      </trkpt>
      <trkpt lat="48.24357" lon="2.73298">
        <ele>112</ele>
        <time>2013-09-22T08:30:26.090Z</time>
      </trkpt>
      <trkpt lat="48.24355" lon="2.73302">
        <ele>112</ele>
        <time>2013-09-22T08:30:29.054Z</time>
      </trkpt>
      <trkpt lat="48.24351" lon="2.73314">
        <ele>113</ele>
        <time>2013-09-22T08:30:36.979Z</time>
      </trkpt>
      <trkpt lat="48.2435" lon="2.73317">
        <ele>113</ele>
        <time>2013-09-22T08:30:39.026Z</time>
      </trkpt>
      <trkpt lat="48.24345" lon="2.73326">
        <ele>115</ele>
        <time>2013-09-22T08:30:47.016Z</time>
      </trkpt>
      <trkpt lat="48.24344" lon="2.73328">
        <ele>116</ele>
        <time>2013-09-22T08:30:49.039Z</time>
      </trkpt>
      <trkpt lat="48.24336" lon="2.7333">
        <ele>118</ele>
        <time>2013-09-22T08:30:59.035Z</time>
      </trkpt>
      <trkpt lat="48.24336" lon="2.7333">
        <ele>117</ele>
        <time>2013-09-22T08:31:01.990Z</time>
      </trkpt>
      <trkpt lat="48.24336" lon="2.7333">
        <ele>117</ele>
        <time>2013-09-22T08:31:25.029Z</time>
      </trkpt>
      <trkpt lat="48.24337" lon="2.73326">
        <ele>116</ele>
        <time>2013-09-22T08:31:27.031Z</time>
      </trkpt>
      <trkpt lat="48.24338" lon="2.73322">
        <ele>116</ele>
        <time>2013-09-22T08:31:29.037Z</time>
      </trkpt>
      <trkpt lat="48.24338" lon="2.73323">
        <ele>116</ele>
        <time>2013-09-22T08:31:31.994Z</time>
      </trkpt>
      <trkpt lat="48.24338" lon="2.73323">
        <ele>116</ele>
        <time>2013-09-22T08:32:26.085Z</time>
      </trkpt>
      <trkpt lat="48.24338" lon="2.73326">
        <ele>116</ele>
        <time>2013-09-22T08:32:29.035Z</time>
      </trkpt>
      <trkpt lat="48.2434" lon="2.73338">
        <ele>118</ele>
        <time>2013-09-22T08:32:38.998Z</time>
      </trkpt>
      <trkpt lat="48.24342" lon="2.73339">
        <ele>117</ele>
        <time>2013-09-22T08:32:41.008Z</time>
      </trkpt>
      <trkpt lat="48.24347" lon="2.73346">
        <ele>117</ele>
        <time>2013-09-22T08:32:48.034Z</time>
      </trkpt>
      <trkpt lat="48.24347" lon="2.73351">
        <ele>116</ele>
        <time>2013-09-22T08:32:51.058Z</time>
      </trkpt>
      <trkpt lat="48.24348" lon="2.7336">
        <ele>116</ele>
        <time>2013-09-22T08:32:56.078Z</time>
      </trkpt>
      <trkpt lat="48.24347" lon="2.73365">
        <ele>116</ele>
        <time>2013-09-22T08:32:59.044Z</time>
      </trkpt>
      <trkpt lat="48.24346" lon="2.73372">
        <ele>117</ele>
        <time>2013-09-22T08:33:01.993Z</time>
      </trkpt>
      <trkpt lat="48.24344" lon="2.7338">
        <ele>117</ele>
        <time>2013-09-22T08:33:05.020Z</time>
      </trkpt>
      <trkpt lat="48.24341" lon="2.73391">
        <ele>118</ele>
        <time>2013-09-22T08:33:11.003Z</time>
      </trkpt>
      <trkpt lat="48.2434" lon="2.73395">
        <ele>119</ele>
        <time>2013-09-22T08:33:13.016Z</time>
      </trkpt>
      <trkpt lat="48.24337" lon="2.73405">
        <ele>121</ele>
        <time>2013-09-22T08:33:19.049Z</time>
      </trkpt>
      <trkpt lat="48.24336" lon="2.73408">
        <ele>121</ele>
        <time>2013-09-22T08:33:21.093Z</time>
      </trkpt>
      <trkpt lat="48.24334" lon="2.73415">
        <ele>123</ele>
        <time>2013-09-22T08:33:26.082Z</time>
      </trkpt>
      <trkpt lat="48.24331" lon="2.7342">
        <ele>124</ele>
        <time>2013-09-22T08:33:29.092Z</time>
      </trkpt>
      <trkpt lat="48.24327" lon="2.73428">
        <ele>124</ele>
        <time>2013-09-22T08:33:34.004Z</time>
      </trkpt>
      <trkpt lat="48.24325" lon="2.73434">
        <ele>124</ele>
        <time>2013-09-22T08:33:36.996Z</time>
      </trkpt>
      <trkpt lat="48.24323" lon="2.73444">
        <ele>124</ele>
        <time>2013-09-22T08:33:44.004Z</time>
      </trkpt>
      <trkpt lat="48.24322" lon="2.73447">
        <ele>124</ele>
        <time>2013-09-22T08:33:46.101Z</time>
      </trkpt>
      <trkpt lat="48.24323" lon="2.73457">
        <ele>124</ele>
        <time>2013-09-22T08:33:51.031Z</time>
      </trkpt>
      <trkpt lat="48.24323" lon="2.73461">
        <ele>124</ele>
        <time>2013-09-22T08:33:53.036Z</time>
      </trkpt>
      <trkpt lat="48.24327" lon="2.73472">
        <ele>124</ele>
        <time>2013-09-22T08:33:59.059Z</time>
      </trkpt>
      <trkpt lat="48.24328" lon="2.73476">
        <ele>124</ele>
        <time>2013-09-22T08:34:01.994Z</time>
      </trkpt>
      <trkpt lat="48.24328" lon="2.73484">
        <ele>124</ele>
        <time>2013-09-22T08:34:06.005Z</time>
      </trkpt>
      <trkpt lat="48.24326" lon="2.73489">
        <ele>124</ele>
        <time>2013-09-22T08:34:09.002Z</time>
      </trkpt>
      <trkpt lat="48.24325" lon="2.73501">
        <ele>124</ele>
        <time>2013-09-22T08:34:16.072Z</time>
      </trkpt>
      <trkpt lat="48.24323" lon="2.73504">
        <ele>124</ele>
        <time>2013-09-22T08:34:19.049Z</time>
      </trkpt>
      <trkpt lat="48.24316" lon="2.73508">
        <ele>124</ele>
        <time>2013-09-22T08:34:26.087Z</time>
      </trkpt>
      <trkpt lat="48.24313" lon="2.73509">
        <ele>124</ele>
        <time>2013-09-22T08:34:29.050Z</time>
      </trkpt>
      <trkpt lat="48.24306" lon="2.73514">
        <ele>124</ele>
        <time>2013-09-22T08:34:39.018Z</time>
      </trkpt>
      <trkpt lat="48.24306" lon="2.73514">
        <ele>124</ele>
        <time>2013-09-22T08:34:41.989Z</time>
      </trkpt>
      <trkpt lat="48.24307" lon="2.73514">
        <ele>124</ele>
        <time>2013-09-22T08:34:46.079Z</time>
      </trkpt>
      <trkpt lat="48.24304" lon="2.73515">
        <ele>124</ele>
        <time>2013-09-22T08:34:49.034Z</time>
      </trkpt>
      <trkpt lat="48.24299" lon="2.73523">
        <ele>124</ele>
        <time>2013-09-22T08:34:54.050Z</time>
      </trkpt>
      <trkpt lat="48.24297" lon="2.73526">
        <ele>123</ele>
        <time>2013-09-22T08:34:56.068Z</time>
      </trkpt>
      <trkpt lat="48.24291" lon="2.7353">
        <ele>123</ele>
        <time>2013-09-22T08:35:01.997Z</time>
      </trkpt>
      <trkpt lat="48.24289" lon="2.7353">
        <ele>123</ele>
        <time>2013-09-22T08:35:04.004Z</time>
      </trkpt>
      <trkpt lat="48.24282" lon="2.73533">
        <ele>123</ele>
        <time>2013-09-22T08:35:09.008Z</time>
      </trkpt>
      <trkpt lat="48.24279" lon="2.73536">
        <ele>123</ele>
        <time>2013-09-22T08:35:11.997Z</time>
      </trkpt>
      <trkpt lat="48.2427" lon="2.73538">
        <ele>123</ele>
        <time>2013-09-22T08:35:19.043Z</time>
      </trkpt>
      <trkpt lat="48.24267" lon="2.73539">
        <ele>123</ele>
        <time>2013-09-22T08:35:21.128Z</time>
      </trkpt>
      <trkpt lat="48.2426" lon="2.73541">
        <ele>123</ele>
        <time>2013-09-22T08:35:27.108Z</time>
      </trkpt>
      <trkpt lat="48.24257" lon="2.73545">
        <ele>123</ele>
        <time>2013-09-22T08:35:30.048Z</time>
      </trkpt>
      <trkpt lat="48.2425" lon="2.73553">
        <ele>123</ele>
        <time>2013-09-22T08:35:36.008Z</time>
      </trkpt>
      <trkpt lat="48.24249" lon="2.73554">
        <ele>122</ele>
        <time>2013-09-22T08:35:37.005Z</time>
      </trkpt>
      <trkpt lat="48.24242" lon="2.73558">
        <ele>122</ele>
        <time>2013-09-22T08:35:41.996Z</time>
      </trkpt>
      <trkpt lat="48.24238" lon="2.73561">
        <ele>122</ele>
        <time>2013-09-22T08:35:45.017Z</time>
      </trkpt>
      <trkpt lat="48.24231" lon="2.73564">
        <ele>122</ele>
        <time>2013-09-22T08:35:50.070Z</time>
      </trkpt>
      <trkpt lat="48.24227" lon="2.73566">
        <ele>122</ele>
        <time>2013-09-22T08:35:53.048Z</time>
      </trkpt>
      <trkpt lat="48.24219" lon="2.73571">
        <ele>122</ele>
        <time>2013-09-22T08:36:00.067Z</time>
      </trkpt>
      <trkpt lat="48.24215" lon="2.73574">
        <ele>122</ele>
        <time>2013-09-22T08:36:03.022Z</time>
      </trkpt>
      <trkpt lat="48.24211" lon="2.73578">
        <ele>122</ele>
        <time>2013-09-22T08:36:06.011Z</time>
      </trkpt>
      <trkpt lat="48.24206" lon="2.73581">
        <ele>123</ele>
        <time>2013-09-22T08:36:09.016Z</time>
      </trkpt>
      <trkpt lat="48.24201" lon="2.73583">
        <ele>123</ele>
        <time>2013-09-22T08:36:12.004Z</time>
      </trkpt>
      <trkpt lat="48.24196" lon="2.73585">
        <ele>123</ele>
        <time>2013-09-22T08:36:15.017Z</time>
      </trkpt>
      <trkpt lat="48.2419" lon="2.73588">
        <ele>123</ele>
        <time>2013-09-22T08:36:19.056Z</time>
      </trkpt>
      <trkpt lat="48.24187" lon="2.7359">
        <ele>123</ele>
        <time>2013-09-22T08:36:21.056Z</time>
      </trkpt>
      <trkpt lat="48.24179" lon="2.73594">
        <ele>123</ele>
        <time>2013-09-22T08:36:26.086Z</time>
      </trkpt>
      <trkpt lat="48.24175" lon="2.73596">
        <ele>123</ele>
        <time>2013-09-22T08:36:29.037Z</time>
      </trkpt>
      <trkpt lat="48.24171" lon="2.73599">
        <ele>123</ele>
        <time>2013-09-22T08:36:32.003Z</time>
      </trkpt>
      <trkpt lat="48.24166" lon="2.73602">
        <ele>123</ele>
        <time>2013-09-22T08:36:35.002Z</time>
      </trkpt>
      <trkpt lat="48.2416" lon="2.73605">
        <ele>123</ele>
        <time>2013-09-22T08:36:39.004Z</time>
      </trkpt>
      <trkpt lat="48.24155" lon="2.73607">
        <ele>123</ele>
        <time>2013-09-22T08:36:42.006Z</time>
      </trkpt>
      <trkpt lat="48.24147" lon="2.7361">
        <ele>123</ele>
        <time>2013-09-22T08:36:47.091Z</time>
      </trkpt>
      <trkpt lat="48.24142" lon="2.73611">
        <ele>123</ele>
        <time>2013-09-22T08:36:50.080Z</time>
      </trkpt>
      <trkpt lat="48.24134" lon="2.73614">
        <ele>123</ele>
        <time>2013-09-22T08:36:59.065Z</time>
      </trkpt>
      <trkpt lat="48.24133" lon="2.73614">
        <ele>123</ele>
        <time>2013-09-22T08:37:02.003Z</time>
      </trkpt>
      <trkpt lat="48.24133" lon="2.73614">
        <ele>123</ele>
        <time>2013-09-22T08:37:04.007Z</time>
      </trkpt>
      <trkpt lat="48.24133" lon="2.73614">
        <ele>123</ele>
        <time>2013-09-22T08:37:17.046Z</time>
      </trkpt>
      <trkpt lat="48.24133" lon="2.73615">
        <ele>123</ele>
        <time>2013-09-22T08:37:20.041Z</time>
      </trkpt>
      <trkpt lat="48.24131" lon="2.73616">
        <ele>123</ele>
        <time>2013-09-22T08:37:24.136Z</time>
      </trkpt>
      <trkpt lat="48.24131" lon="2.73616">
        <ele>123</ele>
        <time>2013-09-22T08:37:26.225Z</time>
      </trkpt>
      <trkpt lat="48.24131" lon="2.73616">
        <ele>123</ele>
        <time>2013-09-22T08:39:24.101Z</time>
      </trkpt>
      <trkpt lat="48.24133" lon="2.73613">
        <ele>123</ele>
        <time>2013-09-22T08:39:26.131Z</time>
      </trkpt>
      <trkpt lat="48.24137" lon="2.7361">
        <ele>123</ele>
        <time>2013-09-22T08:39:29.104Z</time>
      </trkpt>
      <trkpt lat="48.24137" lon="2.7361">
        <ele>123</ele>
        <time>2013-09-22T08:39:32.109Z</time>
      </trkpt>
      <trkpt lat="48.24137" lon="2.7361">
        <ele>123</ele>
        <time>2013-09-22T08:40:43.170Z</time>
      </trkpt>
      <trkpt lat="48.24136" lon="2.73614">
        <ele>123</ele>
        <time>2013-09-22T08:40:45.172Z</time>
      </trkpt>
      <trkpt lat="48.24135" lon="2.73625">
        <ele>123</ele>
        <time>2013-09-22T08:40:49.181Z</time>
      </trkpt>
      <trkpt lat="48.24136" lon="2.73629">
        <ele>123</ele>
        <time>2013-09-22T08:40:51.187Z</time>
      </trkpt>
      <trkpt lat="48.2414" lon="2.73639">
        <ele>123</ele>
        <time>2013-09-22T08:40:56.232Z</time>
      </trkpt>
      <trkpt lat="48.24143" lon="2.73644">
        <ele>123</ele>
        <time>2013-09-22T08:40:59.181Z</time>
      </trkpt>
      <trkpt lat="48.24146" lon="2.7365">
        <ele>124</ele>
        <time>2013-09-22T08:41:02.186Z</time>
      </trkpt>
      <trkpt lat="48.24149" lon="2.73655">
        <ele>124</ele>
        <time>2013-09-22T08:41:05.174Z</time>
      </trkpt>
      <trkpt lat="48.24153" lon="2.73662">
        <ele>124</ele>
        <time>2013-09-22T08:41:09.181Z</time>
      </trkpt>
      <trkpt lat="48.24155" lon="2.73668">
        <ele>124</ele>
        <time>2013-09-22T08:41:12.170Z</time>
      </trkpt>
      <trkpt lat="48.2416" lon="2.73678">
        <ele>124</ele>
        <time>2013-09-22T08:41:17.191Z</time>
      </trkpt>
      <trkpt lat="48.24163" lon="2.73682">
        <ele>124</ele>
        <time>2013-09-22T08:41:20.180Z</time>
      </trkpt>
      <trkpt lat="48.24168" lon="2.73689">
        <ele>125</ele>
        <time>2013-09-22T08:41:25.171Z</time>
      </trkpt>
      <trkpt lat="48.2417" lon="2.73692">
        <ele>125</ele>
        <time>2013-09-22T08:41:27.173Z</time>
      </trkpt>
      <trkpt lat="48.24175" lon="2.73697">
        <ele>125</ele>
        <time>2013-09-22T08:41:31.176Z</time>
      </trkpt>
      <trkpt lat="48.24177" lon="2.737">
        <ele>125</ele>
        <time>2013-09-22T08:41:33.199Z</time>
      </trkpt>
      <trkpt lat="48.24183" lon="2.73706">
        <ele>125</ele>
        <time>2013-09-22T08:41:38.180Z</time>
      </trkpt>
      <trkpt lat="48.24187" lon="2.7371">
        <ele>125</ele>
        <time>2013-09-22T08:41:41.171Z</time>
      </trkpt>
      <trkpt lat="48.24194" lon="2.73716">
        <ele>125</ele>
        <time>2013-09-22T08:41:47.186Z</time>
      </trkpt>
      <trkpt lat="48.24198" lon="2.73719">
        <ele>125</ele>
        <time>2013-09-22T08:41:50.195Z</time>
      </trkpt>
      <trkpt lat="48.24202" lon="2.73723">
        <ele>125</ele>
        <time>2013-09-22T08:41:53.186Z</time>
      </trkpt>
      <trkpt lat="48.24205" lon="2.73726">
        <ele>125</ele>
        <time>2013-09-22T08:41:56.179Z</time>
      </trkpt>
      <trkpt lat="48.24212" lon="2.73733">
        <ele>125</ele>
        <time>2013-09-22T08:42:01.170Z</time>
      </trkpt>
      <trkpt lat="48.24215" lon="2.73737">
        <ele>125</ele>
        <time>2013-09-22T08:42:04.171Z</time>
      </trkpt>
      <trkpt lat="48.24219" lon="2.73744">
        <ele>125</ele>
        <time>2013-09-22T08:42:08.208Z</time>
      </trkpt>
      <trkpt lat="48.24222" lon="2.73749">
        <ele>125</ele>
        <time>2013-09-22T08:42:11.171Z</time>
      </trkpt>
      <trkpt lat="48.24227" lon="2.73758">
        <ele>127</ele>
        <time>2013-09-22T08:42:16.184Z</time>
      </trkpt>
      <trkpt lat="48.24229" lon="2.73761">
        <ele>127</ele>
        <time>2013-09-22T08:42:18.186Z</time>
      </trkpt>
      <trkpt lat="48.24234" lon="2.73769">
        <ele>127</ele>
        <time>2013-09-22T08:42:23.186Z</time>
      </trkpt>
      <trkpt lat="48.24238" lon="2.73774">
        <ele>127</ele>
        <time>2013-09-22T08:42:26.189Z</time>
      </trkpt>
      <trkpt lat="48.24244" lon="2.73779">
        <ele>127</ele>
        <time>2013-09-22T08:42:31.191Z</time>
      </trkpt>
      <trkpt lat="48.24249" lon="2.73781">
        <ele>127</ele>
        <time>2013-09-22T08:42:34.167Z</time>
      </trkpt>
      <trkpt lat="48.24255" lon="2.73784">
        <ele>127</ele>
        <time>2013-09-22T08:42:38.185Z</time>
      </trkpt>
      <trkpt lat="48.2426" lon="2.73785">
        <ele>127</ele>
        <time>2013-09-22T08:42:41.181Z</time>
      </trkpt>
      <trkpt lat="48.24267" lon="2.73788">
        <ele>127</ele>
        <time>2013-09-22T08:42:46.189Z</time>
      </trkpt>
      <trkpt lat="48.2427" lon="2.73788">
        <ele>127</ele>
        <time>2013-09-22T08:42:48.198Z</time>
      </trkpt>
      <trkpt lat="48.24279" lon="2.73788">
        <ele>127</ele>
        <time>2013-09-22T08:42:54.183Z</time>
      </trkpt>
      <trkpt lat="48.24282" lon="2.73789">
        <ele>127</ele>
        <time>2013-09-22T08:42:56.185Z</time>
      </trkpt>
      <trkpt lat="48.24287" lon="2.73791">
        <ele>127</ele>
        <time>2013-09-22T08:42:59.178Z</time>
      </trkpt>
      <trkpt lat="48.24292" lon="2.73792">
        <ele>127</ele>
        <time>2013-09-22T08:43:02.185Z</time>
      </trkpt>
      <trkpt lat="48.24299" lon="2.73792">
        <ele>127</ele>
        <time>2013-09-22T08:43:07.191Z</time>
      </trkpt>
      <trkpt lat="48.24303" lon="2.73792">
        <ele>127</ele>
        <time>2013-09-22T08:43:10.174Z</time>
      </trkpt>
      <trkpt lat="48.24311" lon="2.73792">
        <ele>127</ele>
        <time>2013-09-22T08:43:15.186Z</time>
      </trkpt>
      <trkpt lat="48.24315" lon="2.73792">
        <ele>127</ele>
        <time>2013-09-22T08:43:18.191Z</time>
      </trkpt>
      <trkpt lat="48.24323" lon="2.73793">
        <ele>127</ele>
        <time>2013-09-22T08:43:23.179Z</time>
      </trkpt>
      <trkpt lat="48.24328" lon="2.73793">
        <ele>127</ele>
        <time>2013-09-22T08:43:26.193Z</time>
      </trkpt>
      <trkpt lat="48.24332" lon="2.73793">
        <ele>127</ele>
        <time>2013-09-22T08:43:29.187Z</time>
      </trkpt>
      <trkpt lat="48.24337" lon="2.73793">
        <ele>126</ele>
        <time>2013-09-22T08:43:32.185Z</time>
      </trkpt>
      <trkpt lat="48.24343" lon="2.73793">
        <ele>126</ele>
        <time>2013-09-22T08:43:36.173Z</time>
      </trkpt>
      <trkpt lat="48.24347" lon="2.73794">
        <ele>126</ele>
        <time>2013-09-22T08:43:38.182Z</time>
      </trkpt>
      <trkpt lat="48.24353" lon="2.73793">
        <ele>126</ele>
        <time>2013-09-22T08:43:43.173Z</time>
      </trkpt>
      <trkpt lat="48.24356" lon="2.73793">
        <ele>126</ele>
        <time>2013-09-22T08:43:45.182Z</time>
      </trkpt>
      <trkpt lat="48.24363" lon="2.73794">
        <ele>126</ele>
        <time>2013-09-22T08:43:50.192Z</time>
      </trkpt>
      <trkpt lat="48.24367" lon="2.73794">
        <ele>126</ele>
        <time>2013-09-22T08:43:53.178Z</time>
      </trkpt>
      <trkpt lat="48.24375" lon="2.73793">
        <ele>126</ele>
        <time>2013-09-22T08:43:59.188Z</time>
      </trkpt>
      <trkpt lat="48.24378" lon="2.73792">
        <ele>126</ele>
        <time>2013-09-22T08:44:01.187Z</time>
      </trkpt>
      <trkpt lat="48.24384" lon="2.73792">
        <ele>126</ele>
        <time>2013-09-22T08:44:06.186Z</time>
      </trkpt>
      <trkpt lat="48.24388" lon="2.73793">
        <ele>126</ele>
        <time>2013-09-22T08:44:09.172Z</time>
      </trkpt>
      <trkpt lat="48.24395" lon="2.73795">
        <ele>126</ele>
        <time>2013-09-22T08:44:14.181Z</time>
      </trkpt>
      <trkpt lat="48.244" lon="2.73796">
        <ele>126</ele>
        <time>2013-09-22T08:44:17.182Z</time>
      </trkpt>
      <trkpt lat="48.24409" lon="2.73798">
        <ele>126</ele>
        <time>2013-09-22T08:44:23.177Z</time>
      </trkpt>
      <trkpt lat="48.24411" lon="2.73798">
        <ele>126</ele>
        <time>2013-09-22T08:44:25.178Z</time>
      </trkpt>
      <trkpt lat="48.2442" lon="2.73797">
        <ele>125</ele>
        <time>2013-09-22T08:44:32.185Z</time>
      </trkpt>
      <trkpt lat="48.24423" lon="2.73797">
        <ele>125</ele>
        <time>2013-09-22T08:44:35.173Z</time>
      </trkpt>
      <trkpt lat="48.2443" lon="2.738">
        <ele>125</ele>
        <time>2013-09-22T08:44:41.166Z</time>
      </trkpt>
      <trkpt lat="48.24432" lon="2.73801">
        <ele>125</ele>
        <time>2013-09-22T08:44:43.170Z</time>
      </trkpt>
      <trkpt lat="48.2444" lon="2.73805">
        <ele>125</ele>
        <time>2013-09-22T08:44:50.188Z</time>
      </trkpt>
      <trkpt lat="48.24442" lon="2.73807">
        <ele>125</ele>
        <time>2013-09-22T08:44:52.189Z</time>
      </trkpt>
      <trkpt lat="48.24448" lon="2.73812">
        <ele>125</ele>
        <time>2013-09-22T08:44:57.188Z</time>
      </trkpt>
      <trkpt lat="48.24452" lon="2.73815">
        <ele>125</ele>
        <time>2013-09-22T08:45:00.150Z</time>
      </trkpt>
      <trkpt lat="48.24458" lon="2.7382">
        <ele>125</ele>
        <time>2013-09-22T08:45:05.171Z</time>
      </trkpt>
      <trkpt lat="48.2446" lon="2.73822">
        <ele>125</ele>
        <time>2013-09-22T08:45:07.172Z</time>
      </trkpt>
      <trkpt lat="48.24466" lon="2.7383">
        <ele>125</ele>
        <time>2013-09-22T08:45:12.174Z</time>
      </trkpt>
      <trkpt lat="48.24468" lon="2.73832">
        <ele>125</ele>
        <time>2013-09-22T08:45:14.183Z</time>
      </trkpt>
      <trkpt lat="48.24475" lon="2.73836">
        <ele>127</ele>
        <time>2013-09-22T08:45:20.187Z</time>
      </trkpt>
      <trkpt lat="48.24477" lon="2.73837">
        <ele>127</ele>
        <time>2013-09-22T08:45:22.190Z</time>
      </trkpt>
      <trkpt lat="48.24484" lon="2.73843">
        <ele>126</ele>
        <time>2013-09-22T08:45:29.183Z</time>
      </trkpt>
      <trkpt lat="48.24487" lon="2.73847">
        <ele>126</ele>
        <time>2013-09-22T08:45:32.180Z</time>
      </trkpt>
      <trkpt lat="48.24494" lon="2.73855">
        <ele>127</ele>
        <time>2013-09-22T08:45:38.175Z</time>
      </trkpt>
      <trkpt lat="48.24496" lon="2.73858">
        <ele>127</ele>
        <time>2013-09-22T08:45:40.175Z</time>
      </trkpt>
      <trkpt lat="48.245" lon="2.73865">
        <ele>127</ele>
        <time>2013-09-22T08:45:44.188Z</time>
      </trkpt>
      <trkpt lat="48.24502" lon="2.7387">
        <ele>125</ele>
        <time>2013-09-22T08:45:47.183Z</time>
      </trkpt>
      <trkpt lat="48.2451" lon="2.73877">
        <ele>126</ele>
        <time>2013-09-22T08:45:53.184Z</time>
      </trkpt>
      <trkpt lat="48.24512" lon="2.73879">
        <ele>126</ele>
        <time>2013-09-22T08:45:55.196Z</time>
      </trkpt>
      <trkpt lat="48.24515" lon="2.73883">
        <ele>126</ele>
        <time>2013-09-22T08:45:58.180Z</time>
      </trkpt>
      <trkpt lat="48.24519" lon="2.73888">
        <ele>126</ele>
        <time>2013-09-22T08:46:01.166Z</time>
      </trkpt>
      <trkpt lat="48.24524" lon="2.73896">
        <ele>126</ele>
        <time>2013-09-22T08:46:06.172Z</time>
      </trkpt>
      <trkpt lat="48.24526" lon="2.739">
        <ele>126</ele>
        <time>2013-09-22T08:46:08.172Z</time>
      </trkpt>
      <trkpt lat="48.24529" lon="2.7391">
        <ele>126</ele>
        <time>2013-09-22T08:46:13.155Z</time>
      </trkpt>
      <trkpt lat="48.24531" lon="2.73914">
        <ele>126</ele>
        <time>2013-09-22T08:46:15.175Z</time>
      </trkpt>
      <trkpt lat="48.24534" lon="2.73923">
        <ele>127</ele>
        <time>2013-09-22T08:46:20.170Z</time>
      </trkpt>
      <trkpt lat="48.24536" lon="2.73926">
        <ele>127</ele>
        <time>2013-09-22T08:46:22.177Z</time>
      </trkpt>
      <trkpt lat="48.24539" lon="2.73931">
        <ele>127</ele>
        <time>2013-09-22T08:46:26.182Z</time>
      </trkpt>
      <trkpt lat="48.24543" lon="2.73935">
        <ele>127</ele>
        <time>2013-09-22T08:46:29.170Z</time>
      </trkpt>
      <trkpt lat="48.24551" lon="2.73941">
        <ele>127</ele>
        <time>2013-09-22T08:46:36.154Z</time>
      </trkpt>
      <trkpt lat="48.24554" lon="2.73942">
        <ele>127</ele>
        <time>2013-09-22T08:46:38.176Z</time>
      </trkpt>
      <trkpt lat="48.24561" lon="2.73943">
        <ele>127</ele>
        <time>2013-09-22T08:46:44.172Z</time>
      </trkpt>
      <trkpt lat="48.24564" lon="2.73943">
        <ele>126</ele>
        <time>2013-09-22T08:46:47.178Z</time>
      </trkpt>
      <trkpt lat="48.24571" lon="2.73941">
        <ele>126</ele>
        <time>2013-09-22T08:46:52.181Z</time>
      </trkpt>
      <trkpt lat="48.24573" lon="2.73939">
        <ele>126</ele>
        <time>2013-09-22T08:46:54.183Z</time>
      </trkpt>
      <trkpt lat="48.24579" lon="2.73936">
        <ele>126</ele>
        <time>2013-09-22T08:46:59.173Z</time>
      </trkpt>
      <trkpt lat="48.24582" lon="2.73935">
        <ele>126</ele>
        <time>2013-09-22T08:47:02.168Z</time>
      </trkpt>
      <trkpt lat="48.24588" lon="2.73933">
        <ele>125</ele>
        <time>2013-09-22T08:47:10.181Z</time>
      </trkpt>
      <trkpt lat="48.24592" lon="2.73932">
        <ele>125</ele>
        <time>2013-09-22T08:47:13.174Z</time>
      </trkpt>
      <trkpt lat="48.24598" lon="2.7393">
        <ele>125</ele>
        <time>2013-09-22T08:47:18.172Z</time>
      </trkpt>
      <trkpt lat="48.24602" lon="2.73929">
        <ele>125</ele>
        <time>2013-09-22T08:47:20.177Z</time>
      </trkpt>
      <trkpt lat="48.24608" lon="2.73929">
        <ele>125</ele>
        <time>2013-09-22T08:47:24.190Z</time>
      </trkpt>
      <trkpt lat="48.24611" lon="2.73929">
        <ele>125</ele>
        <time>2013-09-22T08:47:26.207Z</time>
      </trkpt>
      <trkpt lat="48.24618" lon="2.73932">
        <ele>125</ele>
        <time>2013-09-22T08:47:32.183Z</time>
      </trkpt>
      <trkpt lat="48.24622" lon="2.73934">
        <ele>125</ele>
        <time>2013-09-22T08:47:35.171Z</time>
      </trkpt>
      <trkpt lat="48.24629" lon="2.73932">
        <ele>125</ele>
        <time>2013-09-22T08:47:41.177Z</time>
      </trkpt>
      <trkpt lat="48.24632" lon="2.73927">
        <ele>125</ele>
        <time>2013-09-22T08:47:44.174Z</time>
      </trkpt>
      <trkpt lat="48.24637" lon="2.73917">
        <ele>125</ele>
        <time>2013-09-22T08:47:50.185Z</time>
      </trkpt>
      <trkpt lat="48.24638" lon="2.73914">
        <ele>125</ele>
        <time>2013-09-22T08:47:52.213Z</time>
      </trkpt>
      <trkpt lat="48.24644" lon="2.73906">
        <ele>125</ele>
        <time>2013-09-22T08:47:57.189Z</time>
      </trkpt>
      <trkpt lat="48.24646" lon="2.73903">
        <ele>125</ele>
        <time>2013-09-22T08:48:00.128Z</time>
      </trkpt>
      <trkpt lat="48.24651" lon="2.73897">
        <ele>125</ele>
        <time>2013-09-22T08:48:05.170Z</time>
      </trkpt>
      <trkpt lat="48.24655" lon="2.73893">
        <ele>125</ele>
        <time>2013-09-22T08:48:08.169Z</time>
      </trkpt>
      <trkpt lat="48.24661" lon="2.73886">
        <ele>125</ele>
        <time>2013-09-22T08:48:13.156Z</time>
      </trkpt>
      <trkpt lat="48.24663" lon="2.73884">
        <ele>125</ele>
        <time>2013-09-22T08:48:15.167Z</time>
      </trkpt>
      <trkpt lat="48.24668" lon="2.73876">
        <ele>126</ele>
        <time>2013-09-22T08:48:21.201Z</time>
      </trkpt>
      <trkpt lat="48.24671" lon="2.73872">
        <ele>126</ele>
        <time>2013-09-22T08:48:24.177Z</time>
      </trkpt>
      <trkpt lat="48.24676" lon="2.73865">
        <ele>126</ele>
        <time>2013-09-22T08:48:29.182Z</time>
      </trkpt>
      <trkpt lat="48.24679" lon="2.73861">
        <ele>126</ele>
        <time>2013-09-22T08:48:32.204Z</time>
      </trkpt>
      <trkpt lat="48.24685" lon="2.73857">
        <ele>126</ele>
        <time>2013-09-22T08:48:38.224Z</time>
      </trkpt>
      <trkpt lat="48.24689" lon="2.73855">
        <ele>126</ele>
        <time>2013-09-22T08:48:41.171Z</time>
      </trkpt>
      <trkpt lat="48.24697" lon="2.73853">
        <ele>126</ele>
        <time>2013-09-22T08:48:46.189Z</time>
      </trkpt>
      <trkpt lat="48.247" lon="2.73852">
        <ele>126</ele>
        <time>2013-09-22T08:48:48.193Z</time>
      </trkpt>
      <trkpt lat="48.24708" lon="2.73853">
        <ele>126</ele>
        <time>2013-09-22T08:48:54.187Z</time>
      </trkpt>
      <trkpt lat="48.24711" lon="2.73853">
        <ele>126</ele>
        <time>2013-09-22T08:48:56.187Z</time>
      </trkpt>
      <trkpt lat="48.24717" lon="2.73854">
        <ele>126</ele>
        <time>2013-09-22T08:49:01.204Z</time>
      </trkpt>
      <trkpt lat="48.2472" lon="2.73855">
        <ele>126</ele>
        <time>2013-09-22T08:49:04.164Z</time>
      </trkpt>
      <trkpt lat="48.24727" lon="2.73855">
        <ele>126</ele>
        <time>2013-09-22T08:49:11.179Z</time>
      </trkpt>
      <trkpt lat="48.2473" lon="2.73857">
        <ele>126</ele>
        <time>2013-09-22T08:49:14.176Z</time>
      </trkpt>
      <trkpt lat="48.24737" lon="2.73857">
        <ele>126</ele>
        <time>2013-09-22T08:49:24.181Z</time>
      </trkpt>
      <trkpt lat="48.24739" lon="2.73858">
        <ele>126</ele>
        <time>2013-09-22T08:49:26.189Z</time>
      </trkpt>
      <trkpt lat="48.24744" lon="2.7386">
        <ele>126</ele>
        <time>2013-09-22T08:49:34.182Z</time>
      </trkpt>
      <trkpt lat="48.24744" lon="2.73859">
        <ele>126</ele>
        <time>2013-09-22T08:49:36.173Z</time>
      </trkpt>
      <trkpt lat="48.24744" lon="2.7386">
        <ele>126</ele>
        <time>2013-09-22T08:49:53.180Z</time>
      </trkpt>
      <trkpt lat="48.24748" lon="2.73858">
        <ele>126</ele>
        <time>2013-09-22T08:49:56.210Z</time>
      </trkpt>
      <trkpt lat="48.2475" lon="2.73857">
        <ele>126</ele>
        <time>2013-09-22T08:49:59.182Z</time>
      </trkpt>
      <trkpt lat="48.2475" lon="2.73857">
        <ele>126</ele>
        <time>2013-09-22T08:50:02.180Z</time>
      </trkpt>
      <trkpt lat="48.24749" lon="2.73857">
        <ele>126</ele>
        <time>2013-09-22T08:50:09.168Z</time>
      </trkpt>
      <trkpt lat="48.2475" lon="2.73861">
        <ele>126</ele>
        <time>2013-09-22T08:50:11.172Z</time>
      </trkpt>
      <trkpt lat="48.24754" lon="2.73867">
        <ele>127</ele>
        <time>2013-09-22T08:50:18.205Z</time>
      </trkpt>
      <trkpt lat="48.24758" lon="2.73868">
        <ele>127</ele>
        <time>2013-09-22T08:50:21.195Z</time>
      </trkpt>
      <trkpt lat="48.24767" lon="2.73865">
        <ele>127</ele>
        <time>2013-09-22T08:50:28.190Z</time>
      </trkpt>
      <trkpt lat="48.24771" lon="2.73861">
        <ele>127</ele>
        <time>2013-09-22T08:50:31.171Z</time>
      </trkpt>
      <trkpt lat="48.24778" lon="2.73858">
        <ele>127</ele>
        <time>2013-09-22T08:50:38.179Z</time>
      </trkpt>
      <trkpt lat="48.2478" lon="2.73856">
        <ele>127</ele>
        <time>2013-09-22T08:50:41.174Z</time>
      </trkpt>
      <trkpt lat="48.24786" lon="2.73847">
        <ele>127</ele>
        <time>2013-09-22T08:50:48.185Z</time>
      </trkpt>
      <trkpt lat="48.24787" lon="2.73844">
        <ele>127</ele>
        <time>2013-09-22T08:50:50.185Z</time>
      </trkpt>
      <trkpt lat="48.24789" lon="2.73838">
        <ele>127</ele>
        <time>2013-09-22T08:50:53.187Z</time>
      </trkpt>
      <trkpt lat="48.2479" lon="2.73831">
        <ele>125</ele>
        <time>2013-09-22T08:50:56.200Z</time>
      </trkpt>
      <trkpt lat="48.2479" lon="2.73822">
        <ele>125</ele>
        <time>2013-09-22T08:50:59.176Z</time>
      </trkpt>
      <trkpt lat="48.24788" lon="2.73813">
        <ele>125</ele>
        <time>2013-09-22T08:51:02.176Z</time>
      </trkpt>
      <trkpt lat="48.24789" lon="2.73799">
        <ele>125</ele>
        <time>2013-09-22T08:51:07.158Z</time>
      </trkpt>
      <trkpt lat="48.24789" lon="2.73795">
        <ele>125</ele>
        <time>2013-09-22T08:51:09.170Z</time>
      </trkpt>
      <trkpt lat="48.24787" lon="2.73784">
        <ele>124</ele>
        <time>2013-09-22T08:51:14.173Z</time>
      </trkpt>
      <trkpt lat="48.24786" lon="2.73777">
        <ele>124</ele>
        <time>2013-09-22T08:51:17.176Z</time>
      </trkpt>
      <trkpt lat="48.24784" lon="2.73766">
        <ele>124</ele>
        <time>2013-09-22T08:51:21.193Z</time>
      </trkpt>
      <trkpt lat="48.24782" lon="2.7376">
        <ele>124</ele>
        <time>2013-09-22T08:51:23.197Z</time>
      </trkpt>
      <trkpt lat="48.2478" lon="2.73756">
        <ele>124</ele>
        <time>2013-09-22T08:51:25.206Z</time>
      </trkpt>
      <trkpt lat="48.24779" lon="2.73748">
        <ele>123</ele>
        <time>2013-09-22T08:51:28.184Z</time>
      </trkpt>
      <trkpt lat="48.24778" lon="2.7374">
        <ele>123</ele>
        <time>2013-09-22T08:51:31.167Z</time>
      </trkpt>
      <trkpt lat="48.24777" lon="2.73734">
        <ele>123</ele>
        <time>2013-09-22T08:51:34.151Z</time>
      </trkpt>
      <trkpt lat="48.24775" lon="2.73725">
        <ele>123</ele>
        <time>2013-09-22T08:51:38.170Z</time>
      </trkpt>
      <trkpt lat="48.24772" lon="2.73719">
        <ele>123</ele>
        <time>2013-09-22T08:51:41.158Z</time>
      </trkpt>
      <trkpt lat="48.24768" lon="2.7371">
        <ele>123</ele>
        <time>2013-09-22T08:51:46.176Z</time>
      </trkpt>
      <trkpt lat="48.24765" lon="2.73707">
        <ele>123</ele>
        <time>2013-09-22T08:51:48.176Z</time>
      </trkpt>
      <trkpt lat="48.24759" lon="2.73698">
        <ele>122</ele>
        <time>2013-09-22T08:51:53.186Z</time>
      </trkpt>
      <trkpt lat="48.24756" lon="2.73693">
        <ele>122</ele>
        <time>2013-09-22T08:51:56.179Z</time>
      </trkpt>
      <trkpt lat="48.24751" lon="2.73685">
        <ele>122</ele>
        <time>2013-09-22T08:52:01.159Z</time>
      </trkpt>
      <trkpt lat="48.24749" lon="2.73682">
        <ele>120</ele>
        <time>2013-09-22T08:52:03.168Z</time>
      </trkpt>
      <trkpt lat="48.24742" lon="2.73674">
        <ele>120</ele>
        <time>2013-09-22T08:52:08.165Z</time>
      </trkpt>
      <trkpt lat="48.24739" lon="2.7367">
        <ele>120</ele>
        <time>2013-09-22T08:52:11.146Z</time>
      </trkpt>
      <trkpt lat="48.24734" lon="2.73663">
        <ele>119</ele>
        <time>2013-09-22T08:52:15.157Z</time>
      </trkpt>
      <trkpt lat="48.24732" lon="2.7366">
        <ele>119</ele>
        <time>2013-09-22T08:52:17.172Z</time>
      </trkpt>
      <trkpt lat="48.24727" lon="2.73654">
        <ele>119</ele>
        <time>2013-09-22T08:52:21.181Z</time>
      </trkpt>
      <trkpt lat="48.24724" lon="2.73649">
        <ele>119</ele>
        <time>2013-09-22T08:52:24.179Z</time>
      </trkpt>
      <trkpt lat="48.2472" lon="2.73644">
        <ele>118</ele>
        <time>2013-09-22T08:52:28.198Z</time>
      </trkpt>
      <trkpt lat="48.24716" lon="2.73639">
        <ele>118</ele>
        <time>2013-09-22T08:52:31.170Z</time>
      </trkpt>
      <trkpt lat="48.2471" lon="2.73631">
        <ele>118</ele>
        <time>2013-09-22T08:52:36.155Z</time>
      </trkpt>
      <trkpt lat="48.24708" lon="2.73627">
        <ele>118</ele>
        <time>2013-09-22T08:52:38.168Z</time>
      </trkpt>
      <trkpt lat="48.24702" lon="2.7362">
        <ele>118</ele>
        <time>2013-09-22T08:52:43.168Z</time>
      </trkpt>
      <trkpt lat="48.24699" lon="2.73618">
        <ele>118</ele>
        <time>2013-09-22T08:52:45.171Z</time>
      </trkpt>
      <trkpt lat="48.24694" lon="2.73613">
        <ele>118</ele>
        <time>2013-09-22T08:52:49.193Z</time>
      </trkpt>
      <trkpt lat="48.24691" lon="2.73609">
        <ele>118</ele>
        <time>2013-09-22T08:52:52.187Z</time>
      </trkpt>
      <trkpt lat="48.24684" lon="2.736">
        <ele>118</ele>
        <time>2013-09-22T08:52:58.188Z</time>
      </trkpt>
      <trkpt lat="48.2468" lon="2.73596">
        <ele>117</ele>
        <time>2013-09-22T08:53:01.170Z</time>
      </trkpt>
      <trkpt lat="48.24675" lon="2.73589">
        <ele>117</ele>
        <time>2013-09-22T08:53:06.157Z</time>
      </trkpt>
      <trkpt lat="48.24672" lon="2.73586">
        <ele>117</ele>
        <time>2013-09-22T08:53:08.168Z</time>
      </trkpt>
      <trkpt lat="48.24667" lon="2.73579">
        <ele>117</ele>
        <time>2013-09-22T08:53:13.173Z</time>
      </trkpt>
      <trkpt lat="48.24665" lon="2.73576">
        <ele>116</ele>
        <time>2013-09-22T08:53:15.182Z</time>
      </trkpt>
      <trkpt lat="48.2466" lon="2.7357">
        <ele>116</ele>
        <time>2013-09-22T08:53:19.194Z</time>
      </trkpt>
      <trkpt lat="48.24656" lon="2.73566">
        <ele>116</ele>
        <time>2013-09-22T08:53:22.193Z</time>
      </trkpt>
      <trkpt lat="48.24651" lon="2.73561">
        <ele>116</ele>
        <time>2013-09-22T08:53:26.235Z</time>
      </trkpt>
      <trkpt lat="48.24648" lon="2.73557">
        <ele>116</ele>
        <time>2013-09-22T08:53:29.198Z</time>
      </trkpt>
      <trkpt lat="48.24641" lon="2.73549">
        <ele>115</ele>
        <time>2013-09-22T08:53:35.184Z</time>
      </trkpt>
      <trkpt lat="48.2464" lon="2.73548">
        <ele>115</ele>
        <time>2013-09-22T08:53:36.157Z</time>
      </trkpt>
      <trkpt lat="48.24633" lon="2.73547">
        <ele>115</ele>
        <time>2013-09-22T08:53:42.178Z</time>
      </trkpt>
      <trkpt lat="48.24631" lon="2.73548">
        <ele>115</ele>
        <time>2013-09-22T08:53:44.189Z</time>
      </trkpt>
      <trkpt lat="48.24629" lon="2.73554">
        <ele>115</ele>
        <time>2013-09-22T08:53:51.183Z</time>
      </trkpt>
      <trkpt lat="48.24629" lon="2.73554">
        <ele>115</ele>
        <time>2013-09-22T08:53:53.196Z</time>
      </trkpt>
      <trkpt lat="48.24629" lon="2.73554">
        <ele>115</ele>
        <time>2013-09-22T08:54:06.171Z</time>
      </trkpt>
      <trkpt lat="48.24627" lon="2.73561">
        <ele>115</ele>
        <time>2013-09-22T08:54:08.173Z</time>
      </trkpt>
      <trkpt lat="48.24625" lon="2.73563">
        <ele>115</ele>
        <time>2013-09-22T08:54:11.159Z</time>
      </trkpt>
      <trkpt lat="48.24626" lon="2.73562">
        <ele>115</ele>
        <time>2013-09-22T08:54:13.159Z</time>
      </trkpt>
      <trkpt lat="48.24626" lon="2.73562">
        <ele>115</ele>
        <time>2013-09-22T08:54:20.181Z</time>
      </trkpt>
      <trkpt lat="48.24624" lon="2.73566">
        <ele>115</ele>
        <time>2013-09-22T08:54:22.192Z</time>
      </trkpt>
      <trkpt lat="48.2462" lon="2.73572">
        <ele>114</ele>
        <time>2013-09-22T08:54:34.177Z</time>
      </trkpt>
      <trkpt lat="48.2462" lon="2.73571">
        <ele>114</ele>
        <time>2013-09-22T08:54:36.155Z</time>
      </trkpt>
      <trkpt lat="48.2462" lon="2.73571">
        <ele>114</ele>
        <time>2013-09-22T08:56:03.172Z</time>
      </trkpt>
      <trkpt lat="48.24617" lon="2.73571">
        <ele>114</ele>
        <time>2013-09-22T08:56:06.159Z</time>
      </trkpt>
      <trkpt lat="48.24615" lon="2.73571">
        <ele>114</ele>
        <time>2013-09-22T08:56:08.171Z</time>
      </trkpt>
      <trkpt lat="48.24615" lon="2.73571">
        <ele>114</ele>
        <time>2013-09-22T08:56:11.157Z</time>
      </trkpt>
      <trkpt lat="48.24615" lon="2.73571">
        <ele>114</ele>
        <time>2013-09-22T08:56:59.183Z</time>
      </trkpt>
      <trkpt lat="48.24613" lon="2.73569">
        <ele>114</ele>
        <time>2013-09-22T08:57:02.181Z</time>
      </trkpt>
      <trkpt lat="48.24609" lon="2.73557">
        <ele>114</ele>
        <time>2013-09-22T08:57:10.192Z</time>
      </trkpt>
      <trkpt lat="48.24606" lon="2.73554">
        <ele>114</ele>
        <time>2013-09-22T08:57:13.176Z</time>
      </trkpt>
      <trkpt lat="48.24599" lon="2.73546">
        <ele>114</ele>
        <time>2013-09-22T08:57:22.177Z</time>
      </trkpt>
      <trkpt lat="48.24597" lon="2.73544">
        <ele>113</ele>
        <time>2013-09-22T08:57:24.178Z</time>
      </trkpt>
      <trkpt lat="48.24592" lon="2.7354">
        <ele>113</ele>
        <time>2013-09-22T08:57:29.190Z</time>
      </trkpt>
      <trkpt lat="48.24589" lon="2.73535">
        <ele>113</ele>
        <time>2013-09-22T08:57:32.176Z</time>
      </trkpt>
      <trkpt lat="48.24583" lon="2.7353">
        <ele>111</ele>
        <time>2013-09-22T08:57:38.175Z</time>
      </trkpt>
      <trkpt lat="48.24578" lon="2.73528">
        <ele>111</ele>
        <time>2013-09-22T08:57:41.161Z</time>
      </trkpt>
      <trkpt lat="48.24571" lon="2.73522">
        <ele>111</ele>
        <time>2013-09-22T08:57:46.206Z</time>
      </trkpt>
      <trkpt lat="48.24568" lon="2.73518">
        <ele>111</ele>
        <time>2013-09-22T08:57:49.180Z</time>
      </trkpt>
      <trkpt lat="48.24562" lon="2.73511">
        <ele>111</ele>
        <time>2013-09-22T08:57:54.186Z</time>
      </trkpt>
      <trkpt lat="48.24558" lon="2.73507">
        <ele>111</ele>
        <time>2013-09-22T08:57:57.194Z</time>
      </trkpt>
      <trkpt lat="48.24551" lon="2.73501">
        <ele>111</ele>
        <time>2013-09-22T08:58:02.191Z</time>
      </trkpt>
      <trkpt lat="48.24548" lon="2.73496">
        <ele>111</ele>
        <time>2013-09-22T08:58:05.173Z</time>
      </trkpt>
      <trkpt lat="48.24542" lon="2.73487">
        <ele>111</ele>
        <time>2013-09-22T08:58:10.170Z</time>
      </trkpt>
      <trkpt lat="48.24539" lon="2.73482">
        <ele>111</ele>
        <time>2013-09-22T08:58:13.160Z</time>
      </trkpt>
      <trkpt lat="48.24535" lon="2.73476">
        <ele>111</ele>
        <time>2013-09-22T08:58:17.197Z</time>
      </trkpt>
      <trkpt lat="48.24531" lon="2.73471">
        <ele>110</ele>
        <time>2013-09-22T08:58:20.183Z</time>
      </trkpt>
      <trkpt lat="48.24527" lon="2.73467">
        <ele>110</ele>
        <time>2013-09-22T08:58:23.179Z</time>
      </trkpt>
      <trkpt lat="48.24523" lon="2.73463">
        <ele>110</ele>
        <time>2013-09-22T08:58:26.190Z</time>
      </trkpt>
      <trkpt lat="48.24518" lon="2.7346">
        <ele>110</ele>
        <time>2013-09-22T08:58:29.170Z</time>
      </trkpt>
      <trkpt lat="48.24514" lon="2.73455">
        <ele>110</ele>
        <time>2013-09-22T08:58:32.174Z</time>
      </trkpt>
      <trkpt lat="48.24508" lon="2.73446">
        <ele>110</ele>
        <time>2013-09-22T08:58:38.173Z</time>
      </trkpt>
      <trkpt lat="48.24506" lon="2.73441">
        <ele>109</ele>
        <time>2013-09-22T08:58:41.160Z</time>
      </trkpt>
      <trkpt lat="48.24499" lon="2.73433">
        <ele>109</ele>
        <time>2013-09-22T08:58:48.178Z</time>
      </trkpt>
      <trkpt lat="48.24498" lon="2.7343">
        <ele>109</ele>
        <time>2013-09-22T08:58:50.186Z</time>
      </trkpt>
      <trkpt lat="48.24494" lon="2.7342">
        <ele>108</ele>
        <time>2013-09-22T08:59:01.163Z</time>
      </trkpt>
      <trkpt lat="48.24492" lon="2.73416">
        <ele>107</ele>
        <time>2013-09-22T08:59:03.165Z</time>
      </trkpt>
      <trkpt lat="48.24486" lon="2.73409">
        <ele>108</ele>
        <time>2013-09-22T08:59:08.181Z</time>
      </trkpt>
      <trkpt lat="48.24483" lon="2.73405">
        <ele>108</ele>
        <time>2013-09-22T08:59:11.155Z</time>
      </trkpt>
      <trkpt lat="48.24476" lon="2.73397">
        <ele>108</ele>
        <time>2013-09-22T08:59:17.185Z</time>
      </trkpt>
      <trkpt lat="48.24472" lon="2.73393">
        <ele>108</ele>
        <time>2013-09-22T08:59:20.175Z</time>
      </trkpt>
      <trkpt lat="48.24468" lon="2.73385">
        <ele>108</ele>
        <time>2013-09-22T08:59:25.183Z</time>
      </trkpt>
      <trkpt lat="48.24465" lon="2.73379">
        <ele>108</ele>
        <time>2013-09-22T08:59:28.179Z</time>
      </trkpt>
      <trkpt lat="48.24462" lon="2.73369">
        <ele>108</ele>
        <time>2013-09-22T08:59:33.172Z</time>
      </trkpt>
      <trkpt lat="48.24461" lon="2.73366">
        <ele>108</ele>
        <time>2013-09-22T08:59:35.175Z</time>
      </trkpt>
      <trkpt lat="48.24459" lon="2.73361">
        <ele>107</ele>
        <time>2013-09-22T08:59:41.183Z</time>
      </trkpt>
      <trkpt lat="48.24459" lon="2.73361">
        <ele>107</ele>
        <time>2013-09-22T08:59:44.177Z</time>
      </trkpt>
      <trkpt lat="48.24459" lon="2.73361">
        <ele>107</ele>
        <time>2013-09-22T08:59:58.187Z</time>
      </trkpt>
      <trkpt lat="48.24458" lon="2.73359">
        <ele>107</ele>
        <time>2013-09-22T09:00:01.159Z</time>
      </trkpt>
      <trkpt lat="48.24455" lon="2.73357">
        <ele>107</ele>
        <time>2013-09-22T09:00:06.163Z</time>
      </trkpt>
      <trkpt lat="48.24455" lon="2.73357">
        <ele>107</ele>
        <time>2013-09-22T09:00:08.176Z</time>
      </trkpt>
      <trkpt lat="48.24455" lon="2.73357">
        <ele>107</ele>
        <time>2013-09-22T09:01:00.150Z</time>
      </trkpt>
      <trkpt lat="48.24453" lon="2.73354">
        <ele>107</ele>
        <time>2013-09-22T09:01:02.186Z</time>
      </trkpt>
      <trkpt lat="48.24449" lon="2.73345">
        <ele>107</ele>
        <time>2013-09-22T09:01:05.168Z</time>
      </trkpt>
      <trkpt lat="48.24445" lon="2.73336">
        <ele>106</ele>
        <time>2013-09-22T09:01:08.186Z</time>
      </trkpt>
      <trkpt lat="48.24441" lon="2.7333">
        <ele>106</ele>
        <time>2013-09-22T09:01:14.181Z</time>
      </trkpt>
      <trkpt lat="48.24441" lon="2.7333">
        <ele>106</ele>
        <time>2013-09-22T09:01:17.182Z</time>
      </trkpt>
      <trkpt lat="48.2444" lon="2.73328">
        <ele>106</ele>
        <time>2013-09-22T09:01:20.228Z</time>
      </trkpt>
      <trkpt lat="48.24435" lon="2.73317">
        <ele>106</ele>
        <time>2013-09-22T09:01:26.175Z</time>
      </trkpt>
      <trkpt lat="48.24434" lon="2.73313">
        <ele>106</ele>
        <time>2013-09-22T09:01:28.175Z</time>
      </trkpt>
      <trkpt lat="48.24431" lon="2.73305">
        <ele>106</ele>
        <time>2013-09-22T09:01:33.172Z</time>
      </trkpt>
      <trkpt lat="48.2443" lon="2.733">
        <ele>106</ele>
        <time>2013-09-22T09:01:36.147Z</time>
      </trkpt>
      <trkpt lat="48.24426" lon="2.73294">
        <ele>106</ele>
        <time>2013-09-22T09:01:40.189Z</time>
      </trkpt>
      <trkpt lat="48.24423" lon="2.73291">
        <ele>106</ele>
        <time>2013-09-22T09:01:43.161Z</time>
      </trkpt>
      <trkpt lat="48.24417" lon="2.73281">
        <ele>107</ele>
        <time>2013-09-22T09:01:50.181Z</time>
      </trkpt>
      <trkpt lat="48.24415" lon="2.73277">
        <ele>108</ele>
        <time>2013-09-22T09:01:53.178Z</time>
      </trkpt>
      <trkpt lat="48.24411" lon="2.73267">
        <ele>108</ele>
        <time>2013-09-22T09:01:59.165Z</time>
      </trkpt>
      <trkpt lat="48.2441" lon="2.73261">
        <ele>108</ele>
        <time>2013-09-22T09:02:02.174Z</time>
      </trkpt>
      <trkpt lat="48.24405" lon="2.7325">
        <ele>107</ele>
        <time>2013-09-22T09:02:10.185Z</time>
      </trkpt>
      <trkpt lat="48.24403" lon="2.73245">
        <ele>107</ele>
        <time>2013-09-22T09:02:13.174Z</time>
      </trkpt>
      <trkpt lat="48.24399" lon="2.73237">
        <ele>107</ele>
        <time>2013-09-22T09:02:18.205Z</time>
      </trkpt>
      <trkpt lat="48.24397" lon="2.73232">
        <ele>107</ele>
        <time>2013-09-22T09:02:21.173Z</time>
      </trkpt>
      <trkpt lat="48.24393" lon="2.73224">
        <ele>107</ele>
        <time>2013-09-22T09:02:26.198Z</time>
      </trkpt>
      <trkpt lat="48.24391" lon="2.73219">
        <ele>108</ele>
        <time>2013-09-22T09:02:29.178Z</time>
      </trkpt>
      <trkpt lat="48.24384" lon="2.7321">
        <ele>108</ele>
        <time>2013-09-22T09:02:35.187Z</time>
      </trkpt>
      <trkpt lat="48.24384" lon="2.73209">
        <ele>108</ele>
        <time>2013-09-22T09:02:36.148Z</time>
      </trkpt>
      <trkpt lat="48.24379" lon="2.732">
        <ele>108</ele>
        <time>2013-09-22T09:02:42.176Z</time>
      </trkpt>
      <trkpt lat="48.24376" lon="2.73198">
        <ele>108</ele>
        <time>2013-09-22T09:02:44.175Z</time>
      </trkpt>
      <trkpt lat="48.24372" lon="2.73191">
        <ele>107</ele>
        <time>2013-09-22T09:02:49.182Z</time>
      </trkpt>
      <trkpt lat="48.2437" lon="2.73187">
        <ele>107</ele>
        <time>2013-09-22T09:02:51.201Z</time>
      </trkpt>
      <trkpt lat="48.24364" lon="2.73178">
        <ele>107</ele>
        <time>2013-09-22T09:02:57.175Z</time>
      </trkpt>
      <trkpt lat="48.24362" lon="2.73175">
        <ele>107</ele>
        <time>2013-09-22T09:02:59.194Z</time>
      </trkpt>
      <trkpt lat="48.24359" lon="2.7317">
        <ele>107</ele>
        <time>2013-09-22T09:03:02.189Z</time>
      </trkpt>
      <trkpt lat="48.24356" lon="2.73166">
        <ele>107</ele>
        <time>2013-09-22T09:03:05.167Z</time>
      </trkpt>
      <trkpt lat="48.24351" lon="2.73156">
        <ele>107</ele>
        <time>2013-09-22T09:03:10.187Z</time>
      </trkpt>
      <trkpt lat="48.24349" lon="2.73151">
        <ele>107</ele>
        <time>2013-09-22T09:03:13.167Z</time>
      </trkpt>
      <trkpt lat="48.24346" lon="2.73143">
        <ele>107</ele>
        <time>2013-09-22T09:03:17.194Z</time>
      </trkpt>
      <trkpt lat="48.24344" lon="2.73138">
        <ele>107</ele>
        <time>2013-09-22T09:03:20.205Z</time>
      </trkpt>
      <trkpt lat="48.2434" lon="2.73128">
        <ele>107</ele>
        <time>2013-09-22T09:03:25.187Z</time>
      </trkpt>
      <trkpt lat="48.24338" lon="2.73123">
        <ele>107</ele>
        <time>2013-09-22T09:03:28.196Z</time>
      </trkpt>
      <trkpt lat="48.24333" lon="2.73113">
        <ele>108</ele>
        <time>2013-09-22T09:03:34.170Z</time>
      </trkpt>
      <trkpt lat="48.24332" lon="2.7311">
        <ele>109</ele>
        <time>2013-09-22T09:03:36.173Z</time>
      </trkpt>
      <trkpt lat="48.24328" lon="2.73102">
        <ele>108</ele>
        <time>2013-09-22T09:03:41.164Z</time>
      </trkpt>
      <trkpt lat="48.24327" lon="2.73098">
        <ele>108</ele>
        <time>2013-09-22T09:03:44.177Z</time>
      </trkpt>
      <trkpt lat="48.24324" lon="2.73087">
        <ele>108</ele>
        <time>2013-09-22T09:03:51.179Z</time>
      </trkpt>
      <trkpt lat="48.24324" lon="2.73082">
        <ele>108</ele>
        <time>2013-09-22T09:03:54.181Z</time>
      </trkpt>
      <trkpt lat="48.24331" lon="2.73076">
        <ele>108</ele>
        <time>2013-09-22T09:04:01.166Z</time>
      </trkpt>
      <trkpt lat="48.24334" lon="2.73076">
        <ele>108</ele>
        <time>2013-09-22T09:04:03.174Z</time>
      </trkpt>
      <trkpt lat="48.24342" lon="2.73076">
        <ele>108</ele>
        <time>2013-09-22T09:04:11.164Z</time>
      </trkpt>
      <trkpt lat="48.24345" lon="2.73075">
        <ele>108</ele>
        <time>2013-09-22T09:04:13.173Z</time>
      </trkpt>
      <trkpt lat="48.24352" lon="2.73075">
        <ele>108</ele>
        <time>2013-09-22T09:04:20.188Z</time>
      </trkpt>
      <trkpt lat="48.24354" lon="2.73075">
        <ele>108</ele>
        <time>2013-09-22T09:04:23.172Z</time>
      </trkpt>
      <trkpt lat="48.24361" lon="2.73078">
        <ele>108</ele>
        <time>2013-09-22T09:04:34.177Z</time>
      </trkpt>
      <trkpt lat="48.24363" lon="2.73079">
        <ele>108</ele>
        <time>2013-09-22T09:04:36.155Z</time>
      </trkpt>
      <trkpt lat="48.24364" lon="2.73079">
        <ele>108</ele>
        <time>2013-09-22T09:04:38.183Z</time>
      </trkpt>
      <trkpt lat="48.24363" lon="2.73079">
        <ele>108</ele>
        <time>2013-09-22T09:04:41.171Z</time>
      </trkpt>
      <trkpt lat="48.24363" lon="2.73079">
        <ele>108</ele>
        <time>2013-09-22T09:05:19.218Z</time>
      </trkpt>
      <trkpt lat="48.24363" lon="2.73086">
        <ele>107</ele>
        <time>2013-09-22T09:05:22.202Z</time>
      </trkpt>
      <trkpt lat="48.24363" lon="2.73086">
        <ele>107</ele>
        <time>2013-09-22T09:05:25.176Z</time>
      </trkpt>
      <trkpt lat="48.24363" lon="2.73086">
        <ele>107</ele>
        <time>2013-09-22T09:05:51.183Z</time>
      </trkpt>
      <trkpt lat="48.24363" lon="2.73083">
        <ele>108</ele>
        <time>2013-09-22T09:05:53.191Z</time>
      </trkpt>
      <trkpt lat="48.24364" lon="2.73074">
        <ele>108</ele>
        <time>2013-09-22T09:05:57.213Z</time>
      </trkpt>
      <trkpt lat="48.24365" lon="2.7307">
        <ele>108</ele>
        <time>2013-09-22T09:06:00.161Z</time>
      </trkpt>
      <trkpt lat="48.24369" lon="2.73059">
        <ele>108</ele>
        <time>2013-09-22T09:06:10.181Z</time>
      </trkpt>
      <trkpt lat="48.2437" lon="2.73055">
        <ele>108</ele>
        <time>2013-09-22T09:06:13.168Z</time>
      </trkpt>
      <trkpt lat="48.24376" lon="2.73047">
        <ele>108</ele>
        <time>2013-09-22T09:06:23.204Z</time>
      </trkpt>
      <trkpt lat="48.24379" lon="2.73044">
        <ele>108</ele>
        <time>2013-09-22T09:06:26.182Z</time>
      </trkpt>
      <trkpt lat="48.24385" lon="2.73038">
        <ele>108</ele>
        <time>2013-09-22T09:06:34.161Z</time>
      </trkpt>
      <trkpt lat="48.24385" lon="2.73038">
        <ele>108</ele>
        <time>2013-09-22T09:06:36.148Z</time>
      </trkpt>
      <trkpt lat="48.24385" lon="2.73038">
        <ele>108</ele>
        <time>2013-09-22T09:06:38.178Z</time>
      </trkpt>
      <trkpt lat="48.24387" lon="2.7303">
        <ele>108</ele>
        <time>2013-09-22T09:06:41.156Z</time>
      </trkpt>
      <trkpt lat="48.2439" lon="2.73018">
        <ele>108</ele>
        <time>2013-09-22T09:06:48.171Z</time>
      </trkpt>
      <trkpt lat="48.24391" lon="2.73016">
        <ele>108</ele>
        <time>2013-09-22T09:06:50.182Z</time>
      </trkpt>
      <trkpt lat="48.24396" lon="2.73005">
        <ele>108</ele>
        <time>2013-09-22T09:07:00.189Z</time>
      </trkpt>
      <trkpt lat="48.24397" lon="2.73">
        <ele>108</ele>
        <time>2013-09-22T09:07:03.162Z</time>
      </trkpt>
      <trkpt lat="48.24401" lon="2.72989">
        <ele>108</ele>
        <time>2013-09-22T09:07:10.205Z</time>
      </trkpt>
      <trkpt lat="48.24403" lon="2.72986">
        <ele>108</ele>
        <time>2013-09-22T09:07:13.167Z</time>
      </trkpt>
      <trkpt lat="48.24403" lon="2.72974">
        <ele>108</ele>
        <time>2013-09-22T09:07:23.185Z</time>
      </trkpt>
      <trkpt lat="48.24404" lon="2.7297">
        <ele>108</ele>
        <time>2013-09-22T09:07:26.190Z</time>
      </trkpt>
      <trkpt lat="48.24404" lon="2.72959">
        <ele>109</ele>
        <time>2013-09-22T09:07:36.154Z</time>
      </trkpt>
      <trkpt lat="48.24404" lon="2.72959">
        <ele>109</ele>
        <time>2013-09-22T09:07:38.176Z</time>
      </trkpt>
      <trkpt lat="48.24404" lon="2.7296">
        <ele>109</ele>
        <time>2013-09-22T09:07:41.169Z</time>
      </trkpt>
      <trkpt lat="48.24405" lon="2.72953">
        <ele>109</ele>
        <time>2013-09-22T09:07:44.178Z</time>
      </trkpt>
      <trkpt lat="48.24406" lon="2.72951">
        <ele>109</ele>
        <time>2013-09-22T09:07:46.180Z</time>
      </trkpt>
      <trkpt lat="48.24406" lon="2.72951">
        <ele>109</ele>
        <time>2013-09-22T09:07:49.176Z</time>
      </trkpt>
      <trkpt lat="48.24406" lon="2.72951">
        <ele>109</ele>
        <time>2013-09-22T09:08:16.196Z</time>
      </trkpt>
      <trkpt lat="48.24408" lon="2.72946">
        <ele>109</ele>
        <time>2013-09-22T09:08:19.165Z</time>
      </trkpt>
      <trkpt lat="48.24409" lon="2.72944">
        <ele>109</ele>
        <time>2013-09-22T09:08:21.167Z</time>
      </trkpt>
      <trkpt lat="48.24408" lon="2.72944">
        <ele>109</ele>
        <time>2013-09-22T09:08:23.181Z</time>
      </trkpt>
      <trkpt lat="48.24408" lon="2.72945">
        <ele>109</ele>
        <time>2013-09-22T09:08:29.180Z</time>
      </trkpt>
      <trkpt lat="48.24413" lon="2.72944">
        <ele>109</ele>
        <time>2013-09-22T09:08:32.171Z</time>
      </trkpt>
      <trkpt lat="48.24421" lon="2.72945">
        <ele>108</ele>
        <time>2013-09-22T09:08:43.161Z</time>
      </trkpt>
      <trkpt lat="48.24422" lon="2.72944">
        <ele>108</ele>
        <time>2013-09-22T09:08:45.164Z</time>
      </trkpt>
      <trkpt lat="48.24429" lon="2.72944">
        <ele>108</ele>
        <time>2013-09-22T09:08:53.186Z</time>
      </trkpt>
      <trkpt lat="48.24432" lon="2.72941">
        <ele>108</ele>
        <time>2013-09-22T09:08:56.169Z</time>
      </trkpt>
      <trkpt lat="48.24436" lon="2.72938">
        <ele>108</ele>
        <time>2013-09-22T09:09:01.148Z</time>
      </trkpt>
      <trkpt lat="48.24436" lon="2.72938">
        <ele>108</ele>
        <time>2013-09-22T09:09:03.157Z</time>
      </trkpt>
      <trkpt lat="48.24437" lon="2.72937">
        <ele>108</ele>
        <time>2013-09-22T09:09:05.166Z</time>
      </trkpt>
      <trkpt lat="48.24446" lon="2.72937">
        <ele>108</ele>
        <time>2013-09-22T09:09:11.166Z</time>
      </trkpt>
      <trkpt lat="48.24448" lon="2.72937">
        <ele>108</ele>
        <time>2013-09-22T09:09:13.169Z</time>
      </trkpt>
      <trkpt lat="48.24455" lon="2.7294">
        <ele>108</ele>
        <time>2013-09-22T09:09:18.183Z</time>
      </trkpt>
      <trkpt lat="48.24457" lon="2.7294">
        <ele>108</ele>
        <time>2013-09-22T09:09:20.185Z</time>
      </trkpt>
      <trkpt lat="48.24466" lon="2.72939">
        <ele>108</ele>
        <time>2013-09-22T09:09:27.185Z</time>
      </trkpt>
      <trkpt lat="48.24469" lon="2.72938">
        <ele>108</ele>
        <time>2013-09-22T09:09:30.167Z</time>
      </trkpt>
      <trkpt lat="48.24477" lon="2.7294">
        <ele>108</ele>
        <time>2013-09-22T09:09:38.174Z</time>
      </trkpt>
      <trkpt lat="48.2448" lon="2.7294">
        <ele>108</ele>
        <time>2013-09-22T09:09:41.158Z</time>
      </trkpt>
      <trkpt lat="48.24486" lon="2.7294">
        <ele>108</ele>
        <time>2013-09-22T09:09:46.172Z</time>
      </trkpt>
      <trkpt lat="48.2449" lon="2.7294">
        <ele>108</ele>
        <time>2013-09-22T09:09:49.179Z</time>
      </trkpt>
      <trkpt lat="48.24495" lon="2.72939">
        <ele>108</ele>
        <time>2013-09-22T09:09:52.169Z</time>
      </trkpt>
      <trkpt lat="48.245" lon="2.72938">
        <ele>108</ele>
        <time>2013-09-22T09:09:54.175Z</time>
      </trkpt>
      <trkpt lat="48.24507" lon="2.72936">
        <ele>111</ele>
        <time>2013-09-22T09:09:58.185Z</time>
      </trkpt>
      <trkpt lat="48.24512" lon="2.72935">
        <ele>112</ele>
        <time>2013-09-22T09:10:01.160Z</time>
      </trkpt>
      <trkpt lat="48.24519" lon="2.72933">
        <ele>112</ele>
        <time>2013-09-22T09:10:07.171Z</time>
      </trkpt>
      <trkpt lat="48.24521" lon="2.72933">
        <ele>112</ele>
        <time>2013-09-22T09:10:09.173Z</time>
      </trkpt>
      <trkpt lat="48.24525" lon="2.72931">
        <ele>112</ele>
        <time>2013-09-22T09:10:16.179Z</time>
      </trkpt>
      <trkpt lat="48.24525" lon="2.72931">
        <ele>112</ele>
        <time>2013-09-22T09:10:18.187Z</time>
      </trkpt>
      <trkpt lat="48.24525" lon="2.72931">
        <ele>112</ele>
        <time>2013-09-22T09:10:26.197Z</time>
      </trkpt>
      <trkpt lat="48.24529" lon="2.72926">
        <ele>113</ele>
        <time>2013-09-22T09:10:29.206Z</time>
      </trkpt>
      <trkpt lat="48.24529" lon="2.72925">
        <ele>113</ele>
        <time>2013-09-22T09:10:32.166Z</time>
      </trkpt>
      <trkpt lat="48.24529" lon="2.72925">
        <ele>113</ele>
        <time>2013-09-22T09:10:34.165Z</time>
      </trkpt>
      <trkpt lat="48.24529" lon="2.72925">
        <ele>113</ele>
        <time>2013-09-22T09:10:36.151Z</time>
      </trkpt>
      <trkpt lat="48.2453" lon="2.72923">
        <ele>113</ele>
        <time>2013-09-22T09:10:38.181Z</time>
      </trkpt>
      <trkpt lat="48.24533" lon="2.72921">
        <ele>113</ele>
        <time>2013-09-22T09:10:43.174Z</time>
      </trkpt>
      <trkpt lat="48.24532" lon="2.72921">
        <ele>113</ele>
        <time>2013-09-22T09:10:46.181Z</time>
      </trkpt>
      <trkpt lat="48.24536" lon="2.72921">
        <ele>113</ele>
        <time>2013-09-22T09:10:49.169Z</time>
      </trkpt>
      <trkpt lat="48.24541" lon="2.7292">
        <ele>114</ele>
        <time>2013-09-22T09:10:57.169Z</time>
      </trkpt>
      <trkpt lat="48.24545" lon="2.72919">
        <ele>114</ele>
        <time>2013-09-22T09:11:00.139Z</time>
      </trkpt>
      <trkpt lat="48.24547" lon="2.72918">
        <ele>114</ele>
        <time>2013-09-22T09:11:02.174Z</time>
      </trkpt>
      <trkpt lat="48.24546" lon="2.72918">
        <ele>114</ele>
        <time>2013-09-22T09:11:05.169Z</time>
      </trkpt>
      <trkpt lat="48.24546" lon="2.72918">
        <ele>114</ele>
        <time>2013-09-22T09:11:43.185Z</time>
      </trkpt>
      <trkpt lat="48.24549" lon="2.72917">
        <ele>114</ele>
        <time>2013-09-22T09:11:46.191Z</time>
      </trkpt>
      <trkpt lat="48.24554" lon="2.72916">
        <ele>114</ele>
        <time>2013-09-22T09:11:51.187Z</time>
      </trkpt>
      <trkpt lat="48.24553" lon="2.72916">
        <ele>114</ele>
        <time>2013-09-22T09:11:54.183Z</time>
      </trkpt>
      <trkpt lat="48.24555" lon="2.72917">
        <ele>115</ele>
        <time>2013-09-22T09:11:56.188Z</time>
      </trkpt>
      <trkpt lat="48.24562" lon="2.7292">
        <ele>115</ele>
        <time>2013-09-22T09:12:02.164Z</time>
      </trkpt>
      <trkpt lat="48.24565" lon="2.72919">
        <ele>116</ele>
        <time>2013-09-22T09:12:04.167Z</time>
      </trkpt>
      <trkpt lat="48.24572" lon="2.72915">
        <ele>116</ele>
        <time>2013-09-22T09:12:15.183Z</time>
      </trkpt>
      <trkpt lat="48.24572" lon="2.72915">
        <ele>116</ele>
        <time>2013-09-22T09:12:18.181Z</time>
      </trkpt>
      <trkpt lat="48.24572" lon="2.72915">
        <ele>116</ele>
        <time>2013-09-22T09:12:23.179Z</time>
      </trkpt>
      <trkpt lat="48.24577" lon="2.72912">
        <ele>116</ele>
        <time>2013-09-22T09:12:26.189Z</time>
      </trkpt>
      <trkpt lat="48.24583" lon="2.72915">
        <ele>117</ele>
        <time>2013-09-22T09:12:32.176Z</time>
      </trkpt>
      <trkpt lat="48.24587" lon="2.72915">
        <ele>117</ele>
        <time>2013-09-22T09:12:35.159Z</time>
      </trkpt>
      <trkpt lat="48.24594" lon="2.72909">
        <ele>118</ele>
        <time>2013-09-22T09:12:41.168Z</time>
      </trkpt>
      <trkpt lat="48.24597" lon="2.72907">
        <ele>118</ele>
        <time>2013-09-22T09:12:44.189Z</time>
      </trkpt>
      <trkpt lat="48.24604" lon="2.72901">
        <ele>118</ele>
        <time>2013-09-22T09:12:52.206Z</time>
      </trkpt>
      <trkpt lat="48.24606" lon="2.72898">
        <ele>119</ele>
        <time>2013-09-22T09:12:55.197Z</time>
      </trkpt>
      <trkpt lat="48.24613" lon="2.72892">
        <ele>119</ele>
        <time>2013-09-22T09:13:02.177Z</time>
      </trkpt>
      <trkpt lat="48.24615" lon="2.72889">
        <ele>119</ele>
        <time>2013-09-22T09:13:04.209Z</time>
      </trkpt>
      <trkpt lat="48.24621" lon="2.72884">
        <ele>119</ele>
        <time>2013-09-22T09:13:12.163Z</time>
      </trkpt>
      <trkpt lat="48.24623" lon="2.72882">
        <ele>119</ele>
        <time>2013-09-22T09:13:14.175Z</time>
      </trkpt>
      <trkpt lat="48.24628" lon="2.72874">
        <ele>119</ele>
        <time>2013-09-22T09:13:23.206Z</time>
      </trkpt>
      <trkpt lat="48.24629" lon="2.72872">
        <ele>119</ele>
        <time>2013-09-22T09:13:25.245Z</time>
      </trkpt>
      <trkpt lat="48.24636" lon="2.72865">
        <ele>119</ele>
        <time>2013-09-22T09:13:34.169Z</time>
      </trkpt>
      <trkpt lat="48.24638" lon="2.72863">
        <ele>119</ele>
        <time>2013-09-22T09:13:36.180Z</time>
      </trkpt>
      <trkpt lat="48.24643" lon="2.72858">
        <ele>119</ele>
        <time>2013-09-22T09:13:41.167Z</time>
      </trkpt>
      <trkpt lat="48.24646" lon="2.72856">
        <ele>119</ele>
        <time>2013-09-22T09:13:44.173Z</time>
      </trkpt>
      <trkpt lat="48.24653" lon="2.7285">
        <ele>119</ele>
        <time>2013-09-22T09:13:50.263Z</time>
      </trkpt>
      <trkpt lat="48.24654" lon="2.72848">
        <ele>119</ele>
        <time>2013-09-22T09:13:53.201Z</time>
      </trkpt>
      <trkpt lat="48.24654" lon="2.72848">
        <ele>119</ele>
        <time>2013-09-22T09:13:55.237Z</time>
      </trkpt>
      <trkpt lat="48.24657" lon="2.72845">
        <ele>119</ele>
        <time>2013-09-22T09:13:58.218Z</time>
      </trkpt>
      <trkpt lat="48.24658" lon="2.72843">
        <ele>119</ele>
        <time>2013-09-22T09:14:01.178Z</time>
      </trkpt>
      <trkpt lat="48.24658" lon="2.72843">
        <ele>119</ele>
        <time>2013-09-22T09:14:04.165Z</time>
      </trkpt>
      <trkpt lat="48.24658" lon="2.72843">
        <ele>119</ele>
        <time>2013-09-22T09:14:13.182Z</time>
      </trkpt>
      <trkpt lat="48.24661" lon="2.7284">
        <ele>119</ele>
        <time>2013-09-22T09:14:15.241Z</time>
      </trkpt>
      <trkpt lat="48.24662" lon="2.7284">
        <ele>119</ele>
        <time>2013-09-22T09:14:18.222Z</time>
      </trkpt>
      <trkpt lat="48.24662" lon="2.7284">
        <ele>119</ele>
        <time>2013-09-22T09:14:20.265Z</time>
      </trkpt>
      <trkpt lat="48.24661" lon="2.7284">
        <ele>119</ele>
        <time>2013-09-22T09:14:23.194Z</time>
      </trkpt>
      <trkpt lat="48.24665" lon="2.7284">
        <ele>119</ele>
        <time>2013-09-22T09:14:25.237Z</time>
      </trkpt>
      <trkpt lat="48.24672" lon="2.72838">
        <ele>120</ele>
        <time>2013-09-22T09:14:34.165Z</time>
      </trkpt>
      <trkpt lat="48.24671" lon="2.72838">
        <ele>120</ele>
        <time>2013-09-22T09:14:36.175Z</time>
      </trkpt>
      <trkpt lat="48.24671" lon="2.72838">
        <ele>120</ele>
        <time>2013-09-22T09:14:38.180Z</time>
      </trkpt>
      <trkpt lat="48.24673" lon="2.72836">
        <ele>120</ele>
        <time>2013-09-22T09:14:40.194Z</time>
      </trkpt>
      <trkpt lat="48.24676" lon="2.72834">
        <ele>120</ele>
        <time>2013-09-22T09:14:43.166Z</time>
      </trkpt>
      <trkpt lat="48.24676" lon="2.72834">
        <ele>120</ele>
        <time>2013-09-22T09:14:45.255Z</time>
      </trkpt>
      <trkpt lat="48.24676" lon="2.72835">
        <ele>120</ele>
        <time>2013-09-22T09:14:50.254Z</time>
      </trkpt>
      <trkpt lat="48.2468" lon="2.7283">
        <ele>119</ele>
        <time>2013-09-22T09:14:53.206Z</time>
      </trkpt>
      <trkpt lat="48.24682" lon="2.72827">
        <ele>119</ele>
        <time>2013-09-22T09:14:58.216Z</time>
      </trkpt>
      <trkpt lat="48.24681" lon="2.72828">
        <ele>119</ele>
        <time>2013-09-22T09:15:01.172Z</time>
      </trkpt>
      <trkpt lat="48.24683" lon="2.72825">
        <ele>119</ele>
        <time>2013-09-22T09:15:04.155Z</time>
      </trkpt>
      <trkpt lat="48.24691" lon="2.72819">
        <ele>119</ele>
        <time>2013-09-22T09:15:13.165Z</time>
      </trkpt>
      <trkpt lat="48.24692" lon="2.72818">
        <ele>119</ele>
        <time>2013-09-22T09:15:15.220Z</time>
      </trkpt>
      <trkpt lat="48.247" lon="2.72813">
        <ele>119</ele>
        <time>2013-09-22T09:15:23.205Z</time>
      </trkpt>
      <trkpt lat="48.24704" lon="2.72811">
        <ele>119</ele>
        <time>2013-09-22T09:15:26.197Z</time>
      </trkpt>
      <trkpt lat="48.24712" lon="2.72809">
        <ele>119</ele>
        <time>2013-09-22T09:15:33.167Z</time>
      </trkpt>
      <trkpt lat="48.24715" lon="2.72809">
        <ele>119</ele>
        <time>2013-09-22T09:15:36.163Z</time>
      </trkpt>
      <trkpt lat="48.2472" lon="2.72808">
        <ele>119</ele>
        <time>2013-09-22T09:15:45.247Z</time>
      </trkpt>
      <trkpt lat="48.24724" lon="2.72808">
        <ele>119</ele>
        <time>2013-09-22T09:15:48.226Z</time>
      </trkpt>
      <trkpt lat="48.24726" lon="2.72809">
        <ele>119</ele>
        <time>2013-09-22T09:15:51.148Z</time>
      </trkpt>
      <trkpt lat="48.24726" lon="2.72809">
        <ele>119</ele>
        <time>2013-09-22T09:15:54.159Z</time>
      </trkpt>
      <trkpt lat="48.24729" lon="2.72811">
        <ele>120</ele>
        <time>2013-09-22T09:15:57.150Z</time>
      </trkpt>
      <trkpt lat="48.24736" lon="2.72812">
        <ele>120</ele>
        <time>2013-09-22T09:16:05.192Z</time>
      </trkpt>
      <trkpt lat="48.24739" lon="2.72813">
        <ele>120</ele>
        <time>2013-09-22T09:16:08.168Z</time>
      </trkpt>
      <trkpt lat="48.24747" lon="2.72817">
        <ele>120</ele>
        <time>2013-09-22T09:16:18.187Z</time>
      </trkpt>
      <trkpt lat="48.24748" lon="2.72819">
        <ele>121</ele>
        <time>2013-09-22T09:16:20.246Z</time>
      </trkpt>
      <trkpt lat="48.24754" lon="2.72824">
        <ele>120</ele>
        <time>2013-09-22T09:16:28.192Z</time>
      </trkpt>
      <trkpt lat="48.24757" lon="2.72827">
        <ele>120</ele>
        <time>2013-09-22T09:16:31.167Z</time>
      </trkpt>
      <trkpt lat="48.24763" lon="2.72834">
        <ele>122</ele>
        <time>2013-09-22T09:16:40.178Z</time>
      </trkpt>
      <trkpt lat="48.24765" lon="2.72836">
        <ele>121</ele>
        <time>2013-09-22T09:16:43.165Z</time>
      </trkpt>
      <trkpt lat="48.24769" lon="2.72841">
        <ele>121</ele>
        <time>2013-09-22T09:16:51.199Z</time>
      </trkpt>
      <trkpt lat="48.24769" lon="2.72841">
        <ele>121</ele>
        <time>2013-09-22T09:16:53.203Z</time>
      </trkpt>
      <trkpt lat="48.24771" lon="2.72843">
        <ele>121</ele>
        <time>2013-09-22T09:16:55.213Z</time>
      </trkpt>
      <trkpt lat="48.24778" lon="2.72851">
        <ele>121</ele>
        <time>2013-09-22T09:17:05.162Z</time>
      </trkpt>
      <trkpt lat="48.2478" lon="2.72853">
        <ele>121</ele>
        <time>2013-09-22T09:17:08.176Z</time>
      </trkpt>
      <trkpt lat="48.24788" lon="2.7286">
        <ele>121</ele>
        <time>2013-09-22T09:17:18.205Z</time>
      </trkpt>
      <trkpt lat="48.24789" lon="2.72861">
        <ele>121</ele>
        <time>2013-09-22T09:17:20.207Z</time>
      </trkpt>
      <trkpt lat="48.24794" lon="2.72869">
        <ele>121</ele>
        <time>2013-09-22T09:17:28.196Z</time>
      </trkpt>
      <trkpt lat="48.24796" lon="2.72872">
        <ele>121</ele>
        <time>2013-09-22T09:17:31.163Z</time>
      </trkpt>
      <trkpt lat="48.248" lon="2.72882">
        <ele>121</ele>
        <time>2013-09-22T09:17:43.166Z</time>
      </trkpt>
      <trkpt lat="48.248" lon="2.72882">
        <ele>121</ele>
        <time>2013-09-22T09:17:45.201Z</time>
      </trkpt>
      <trkpt lat="48.24803" lon="2.72887">
        <ele>121</ele>
        <time>2013-09-22T09:17:48.195Z</time>
      </trkpt>
      <trkpt lat="48.24809" lon="2.72893">
        <ele>121</ele>
        <time>2013-09-22T09:17:55.216Z</time>
      </trkpt>
      <trkpt lat="48.24812" lon="2.72896">
        <ele>121</ele>
        <time>2013-09-22T09:17:58.197Z</time>
      </trkpt>
      <trkpt lat="48.24816" lon="2.72902">
        <ele>122</ele>
        <time>2013-09-22T09:18:03.165Z</time>
      </trkpt>
      <trkpt lat="48.24818" lon="2.72907">
        <ele>122</ele>
        <time>2013-09-22T09:18:06.162Z</time>
      </trkpt>
      <trkpt lat="48.24822" lon="2.72913">
        <ele>122</ele>
        <time>2013-09-22T09:18:13.175Z</time>
      </trkpt>
      <trkpt lat="48.24825" lon="2.72916">
        <ele>122</ele>
        <time>2013-09-22T09:18:15.262Z</time>
      </trkpt>
      <trkpt lat="48.24831" lon="2.7292">
        <ele>123</ele>
        <time>2013-09-22T09:18:25.217Z</time>
      </trkpt>
      <trkpt lat="48.24831" lon="2.7292">
        <ele>123</ele>
        <time>2013-09-22T09:18:28.229Z</time>
      </trkpt>
      <trkpt lat="48.24835" lon="2.72924">
        <ele>123</ele>
        <time>2013-09-22T09:18:31.173Z</time>
      </trkpt>
      <trkpt lat="48.2484" lon="2.7292">
        <ele>123</ele>
        <time>2013-09-22T09:18:38.192Z</time>
      </trkpt>
      <trkpt lat="48.24842" lon="2.72917">
        <ele>121</ele>
        <time>2013-09-22T09:18:41.171Z</time>
      </trkpt>
      <trkpt lat="48.24851" lon="2.72912">
        <ele>121</ele>
        <time>2013-09-22T09:18:48.225Z</time>
      </trkpt>
      <trkpt lat="48.24852" lon="2.72911">
        <ele>121</ele>
        <time>2013-09-22T09:18:50.259Z</time>
      </trkpt>
      <trkpt lat="48.24856" lon="2.72899">
        <ele>121</ele>
        <time>2013-09-22T09:18:58.221Z</time>
      </trkpt>
      <trkpt lat="48.24858" lon="2.72896">
        <ele>121</ele>
        <time>2013-09-22T09:19:01.168Z</time>
      </trkpt>
      <trkpt lat="48.24865" lon="2.72891">
        <ele>120</ele>
        <time>2013-09-22T09:19:11.161Z</time>
      </trkpt>
      <trkpt lat="48.24867" lon="2.7289">
        <ele>120</ele>
        <time>2013-09-22T09:19:13.167Z</time>
      </trkpt>
      <trkpt lat="48.24868" lon="2.72881">
        <ele>120</ele>
        <time>2013-09-22T09:19:20.292Z</time>
      </trkpt>
      <trkpt lat="48.24868" lon="2.72876">
        <ele>120</ele>
        <time>2013-09-22T09:19:23.217Z</time>
      </trkpt>
      <trkpt lat="48.2487" lon="2.72868">
        <ele>120</ele>
        <time>2013-09-22T09:19:28.229Z</time>
      </trkpt>
      <trkpt lat="48.24872" lon="2.72863">
        <ele>120</ele>
        <time>2013-09-22T09:19:31.172Z</time>
      </trkpt>
      <trkpt lat="48.24877" lon="2.72854">
        <ele>119</ele>
        <time>2013-09-22T09:19:38.167Z</time>
      </trkpt>
      <trkpt lat="48.24878" lon="2.72852">
        <ele>119</ele>
        <time>2013-09-22T09:19:40.170Z</time>
      </trkpt>
      <trkpt lat="48.24879" lon="2.72849">
        <ele>119</ele>
        <time>2013-09-22T09:19:45.246Z</time>
      </trkpt>
      <trkpt lat="48.24879" lon="2.72849">
        <ele>119</ele>
        <time>2013-09-22T09:19:48.189Z</time>
      </trkpt>
      <trkpt lat="48.24879" lon="2.7285">
        <ele>119</ele>
        <time>2013-09-22T09:19:50.197Z</time>
      </trkpt>
      <trkpt lat="48.24879" lon="2.72846">
        <ele>119</ele>
        <time>2013-09-22T09:19:53.208Z</time>
      </trkpt>
      <trkpt lat="48.24878" lon="2.72834">
        <ele>119</ele>
        <time>2013-09-22T09:20:01.160Z</time>
      </trkpt>
      <trkpt lat="48.24878" lon="2.72834">
        <ele>119</ele>
        <time>2013-09-22T09:20:03.163Z</time>
      </trkpt>
      <trkpt lat="48.24878" lon="2.72834">
        <ele>119</ele>
        <time>2013-09-22T09:20:15.229Z</time>
      </trkpt>
      <trkpt lat="48.24879" lon="2.72826">
        <ele>117</ele>
        <time>2013-09-22T09:20:18.192Z</time>
      </trkpt>
      <trkpt lat="48.24879" lon="2.72826">
        <ele>117</ele>
        <time>2013-09-22T09:20:20.287Z</time>
      </trkpt>
      <trkpt lat="48.24879" lon="2.72827">
        <ele>117</ele>
        <time>2013-09-22T09:20:23.206Z</time>
      </trkpt>
      <trkpt lat="48.24879" lon="2.72827">
        <ele>117</ele>
        <time>2013-09-22T09:20:52.215Z</time>
      </trkpt>
      <trkpt lat="48.24881" lon="2.72822">
        <ele>117</ele>
        <time>2013-09-22T09:20:54.219Z</time>
      </trkpt>
      <trkpt lat="48.24882" lon="2.7282">
        <ele>117</ele>
        <time>2013-09-22T09:20:57.210Z</time>
      </trkpt>
      <trkpt lat="48.24881" lon="2.72821">
        <ele>117</ele>
        <time>2013-09-22T09:21:00.127Z</time>
      </trkpt>
      <trkpt lat="48.24881" lon="2.72821">
        <ele>117</ele>
        <time>2013-09-22T09:21:20.276Z</time>
      </trkpt>
      <trkpt lat="48.24883" lon="2.72819">
        <ele>117</ele>
        <time>2013-09-22T09:21:23.206Z</time>
      </trkpt>
      <trkpt lat="48.24881" lon="2.7283">
        <ele>117</ele>
        <time>2013-09-22T09:21:36.165Z</time>
      </trkpt>
      <trkpt lat="48.24881" lon="2.72832">
        <ele>117</ele>
        <time>2013-09-22T09:21:38.179Z</time>
      </trkpt>
      <trkpt lat="48.24879" lon="2.72836">
        <ele>119</ele>
        <time>2013-09-22T09:21:43.173Z</time>
      </trkpt>
      <trkpt lat="48.24879" lon="2.72835">
        <ele>119</ele>
        <time>2013-09-22T09:21:45.260Z</time>
      </trkpt>
      <trkpt lat="48.2488" lon="2.72835">
        <ele>119</ele>
        <time>2013-09-22T09:23:20.262Z</time>
      </trkpt>
      <trkpt lat="48.24881" lon="2.72839">
        <ele>119</ele>
        <time>2013-09-22T09:23:23.189Z</time>
      </trkpt>
      <trkpt lat="48.24874" lon="2.72843">
        <ele>119</ele>
        <time>2013-09-22T09:23:28.213Z</time>
      </trkpt>
      <trkpt lat="48.24869" lon="2.72845">
        <ele>119</ele>
        <time>2013-09-22T09:23:31.158Z</time>
      </trkpt>
      <trkpt lat="48.24865" lon="2.72845">
        <ele>119</ele>
        <time>2013-09-22T09:23:36.152Z</time>
      </trkpt>
      <trkpt lat="48.24865" lon="2.72845">
        <ele>119</ele>
        <time>2013-09-22T09:23:38.163Z</time>
      </trkpt>
      <trkpt lat="48.24866" lon="2.72845">
        <ele>119</ele>
        <time>2013-09-22T09:24:29.199Z</time>
      </trkpt>
      <trkpt lat="48.24868" lon="2.72838">
        <ele>119</ele>
        <time>2013-09-22T09:24:32.172Z</time>
      </trkpt>
      <trkpt lat="48.24875" lon="2.72832">
        <ele>117</ele>
        <time>2013-09-22T09:24:38.176Z</time>
      </trkpt>
      <trkpt lat="48.24878" lon="2.72831">
        <ele>117</ele>
        <time>2013-09-22T09:24:41.162Z</time>
      </trkpt>
      <trkpt lat="48.24886" lon="2.72825">
        <ele>117</ele>
        <time>2013-09-22T09:24:48.235Z</time>
      </trkpt>
      <trkpt lat="48.24889" lon="2.72822">
        <ele>117</ele>
        <time>2013-09-22T09:24:51.196Z</time>
      </trkpt>
      <trkpt lat="48.24885" lon="2.72832">
        <ele>117</ele>
        <time>2013-09-22T09:24:59.199Z</time>
      </trkpt>
      <trkpt lat="48.24881" lon="2.72837">
        <ele>119</ele>
        <time>2013-09-22T09:25:02.171Z</time>
      </trkpt>
      <trkpt lat="48.24876" lon="2.72841">
        <ele>119</ele>
        <time>2013-09-22T09:25:05.166Z</time>
      </trkpt>
      <trkpt lat="48.24873" lon="2.72843">
        <ele>119</ele>
        <time>2013-09-22T09:25:07.167Z</time>
      </trkpt>
      <trkpt lat="48.24872" lon="2.72842">
        <ele>119</ele>
        <time>2013-09-22T09:25:10.156Z</time>
      </trkpt>
      <trkpt lat="48.24873" lon="2.72842">
        <ele>119</ele>
        <time>2013-09-22T09:25:12.167Z</time>
      </trkpt>
      <trkpt lat="48.24873" lon="2.72842">
        <ele>119</ele>
        <time>2013-09-22T09:25:19.169Z</time>
      </trkpt>
      <trkpt lat="48.24872" lon="2.72833">
        <ele>117</ele>
        <time>2013-09-22T09:25:22.161Z</time>
      </trkpt>
      <trkpt lat="48.24876" lon="2.72823">
        <ele>117</ele>
        <time>2013-09-22T09:25:34.169Z</time>
      </trkpt>
      <trkpt lat="48.24875" lon="2.72824">
        <ele>117</ele>
        <time>2013-09-22T09:25:36.174Z</time>
      </trkpt>
      <trkpt lat="48.24875" lon="2.72824">
        <ele>117</ele>
        <time>2013-09-22T09:25:41.166Z</time>
      </trkpt>
      <trkpt lat="48.24876" lon="2.72821">
        <ele>117</ele>
        <time>2013-09-22T09:25:44.167Z</time>
      </trkpt>
      <trkpt lat="48.2487" lon="2.72828">
        <ele>117</ele>
        <time>2013-09-22T09:25:54.166Z</time>
      </trkpt>
      <trkpt lat="48.24869" lon="2.7283">
        <ele>117</ele>
        <time>2013-09-22T09:25:56.177Z</time>
      </trkpt>
      <trkpt lat="48.24869" lon="2.72831">
        <ele>117</ele>
        <time>2013-09-22T09:25:58.178Z</time>
      </trkpt>
      <trkpt lat="48.24869" lon="2.72831">
        <ele>117</ele>
        <time>2013-09-22T09:26:01.158Z</time>
      </trkpt>
      <trkpt lat="48.24869" lon="2.72831">
        <ele>117</ele>
        <time>2013-09-22T09:26:11.157Z</time>
      </trkpt>
      <trkpt lat="48.2487" lon="2.72829">
        <ele>117</ele>
        <time>2013-09-22T09:26:13.159Z</time>
      </trkpt>
      <trkpt lat="48.2487" lon="2.7283">
        <ele>117</ele>
        <time>2013-09-22T09:26:16.166Z</time>
      </trkpt>
      <trkpt lat="48.24869" lon="2.7283">
        <ele>117</ele>
        <time>2013-09-22T09:26:45.167Z</time>
      </trkpt>
      <trkpt lat="48.24873" lon="2.72825">
        <ele>117</ele>
        <time>2013-09-22T09:26:48.176Z</time>
      </trkpt>
      <trkpt lat="48.24876" lon="2.72813">
        <ele>117</ele>
        <time>2013-09-22T09:26:58.175Z</time>
      </trkpt>
      <trkpt lat="48.24876" lon="2.7281">
        <ele>117</ele>
        <time>2013-09-22T09:27:01.162Z</time>
      </trkpt>
      <trkpt lat="48.24878" lon="2.72799">
        <ele>117</ele>
        <time>2013-09-22T09:27:10.178Z</time>
      </trkpt>
      <trkpt lat="48.24879" lon="2.72795">
        <ele>117</ele>
        <time>2013-09-22T09:27:13.161Z</time>
      </trkpt>
      <trkpt lat="48.24882" lon="2.72782">
        <ele>117</ele>
        <time>2013-09-22T09:27:23.167Z</time>
      </trkpt>
      <trkpt lat="48.24882" lon="2.72779">
        <ele>117</ele>
        <time>2013-09-22T09:27:26.182Z</time>
      </trkpt>
      <trkpt lat="48.24882" lon="2.72766">
        <ele>117</ele>
        <time>2013-09-22T09:27:36.154Z</time>
      </trkpt>
      <trkpt lat="48.24881" lon="2.72765">
        <ele>117</ele>
        <time>2013-09-22T09:27:38.176Z</time>
      </trkpt>
      <trkpt lat="48.24877" lon="2.72752">
        <ele>117</ele>
        <time>2013-09-22T09:27:48.160Z</time>
      </trkpt>
      <trkpt lat="48.24877" lon="2.72748">
        <ele>117</ele>
        <time>2013-09-22T09:27:50.172Z</time>
      </trkpt>
      <trkpt lat="48.24875" lon="2.72738">
        <ele>116</ele>
        <time>2013-09-22T09:27:55.166Z</time>
      </trkpt>
      <trkpt lat="48.24874" lon="2.72735">
        <ele>116</ele>
        <time>2013-09-22T09:27:57.193Z</time>
      </trkpt>
      <trkpt lat="48.2487" lon="2.72724">
        <ele>116</ele>
        <time>2013-09-22T09:28:07.161Z</time>
      </trkpt>
      <trkpt lat="48.24868" lon="2.7272">
        <ele>116</ele>
        <time>2013-09-22T09:28:10.163Z</time>
      </trkpt>
      <trkpt lat="48.24863" lon="2.72711">
        <ele>116</ele>
        <time>2013-09-22T09:28:20.179Z</time>
      </trkpt>
      <trkpt lat="48.24862" lon="2.72708">
        <ele>116</ele>
        <time>2013-09-22T09:28:23.163Z</time>
      </trkpt>
      <trkpt lat="48.24861" lon="2.72698">
        <ele>116</ele>
        <time>2013-09-22T09:28:30.159Z</time>
      </trkpt>
      <trkpt lat="48.24861" lon="2.72694">
        <ele>116</ele>
        <time>2013-09-22T09:28:32.191Z</time>
      </trkpt>
      <trkpt lat="48.24861" lon="2.72683">
        <ele>116</ele>
        <time>2013-09-22T09:28:38.166Z</time>
      </trkpt>
      <trkpt lat="48.24861" lon="2.72679">
        <ele>116</ele>
        <time>2013-09-22T09:28:41.168Z</time>
      </trkpt>
      <trkpt lat="48.2486" lon="2.72667">
        <ele>116</ele>
        <time>2013-09-22T09:28:49.164Z</time>
      </trkpt>
      <trkpt lat="48.24859" lon="2.72664">
        <ele>115</ele>
        <time>2013-09-22T09:28:51.175Z</time>
      </trkpt>
      <trkpt lat="48.24859" lon="2.72651">
        <ele>116</ele>
        <time>2013-09-22T09:28:59.156Z</time>
      </trkpt>
      <trkpt lat="48.24859" lon="2.72648">
        <ele>116</ele>
        <time>2013-09-22T09:29:01.174Z</time>
      </trkpt>
      <trkpt lat="48.24857" lon="2.72637">
        <ele>116</ele>
        <time>2013-09-22T09:29:06.162Z</time>
      </trkpt>
      <trkpt lat="48.24855" lon="2.72633">
        <ele>116</ele>
        <time>2013-09-22T09:29:08.167Z</time>
      </trkpt>
      <trkpt lat="48.24849" lon="2.72627">
        <ele>116</ele>
        <time>2013-09-22T09:29:13.189Z</time>
      </trkpt>
      <trkpt lat="48.24848" lon="2.72623">
        <ele>116</ele>
        <time>2013-09-22T09:29:16.141Z</time>
      </trkpt>
      <trkpt lat="48.24849" lon="2.72615">
        <ele>116</ele>
        <time>2013-09-22T09:29:20.186Z</time>
      </trkpt>
      <trkpt lat="48.24847" lon="2.72609">
        <ele>116</ele>
        <time>2013-09-22T09:29:23.165Z</time>
      </trkpt>
      <trkpt lat="48.24848" lon="2.72598">
        <ele>116</ele>
        <time>2013-09-22T09:29:30.159Z</time>
      </trkpt>
      <trkpt lat="48.24849" lon="2.72595">
        <ele>116</ele>
        <time>2013-09-22T09:29:32.168Z</time>
      </trkpt>
      <trkpt lat="48.24851" lon="2.72584">
        <ele>116</ele>
        <time>2013-09-22T09:29:43.152Z</time>
      </trkpt>
      <trkpt lat="48.24851" lon="2.72581">
        <ele>115</ele>
        <time>2013-09-22T09:29:45.161Z</time>
      </trkpt>
      <trkpt lat="48.24854" lon="2.72572">
        <ele>115</ele>
        <time>2013-09-22T09:29:53.156Z</time>
      </trkpt>
      <trkpt lat="48.24855" lon="2.72568">
        <ele>115</ele>
        <time>2013-09-22T09:29:56.166Z</time>
      </trkpt>
      <trkpt lat="48.24858" lon="2.72555">
        <ele>115</ele>
        <time>2013-09-22T09:30:05.161Z</time>
      </trkpt>
      <trkpt lat="48.24858" lon="2.7255">
        <ele>115</ele>
        <time>2013-09-22T09:30:08.175Z</time>
      </trkpt>
      <trkpt lat="48.24859" lon="2.72539">
        <ele>115</ele>
        <time>2013-09-22T09:30:15.182Z</time>
      </trkpt>
      <trkpt lat="48.2486" lon="2.72535">
        <ele>115</ele>
        <time>2013-09-22T09:30:18.177Z</time>
      </trkpt>
      <trkpt lat="48.24861" lon="2.72524">
        <ele>114</ele>
        <time>2013-09-22T09:30:29.177Z</time>
      </trkpt>
      <trkpt lat="48.2486" lon="2.7252">
        <ele>114</ele>
        <time>2013-09-22T09:30:32.174Z</time>
      </trkpt>
      <trkpt lat="48.24859" lon="2.72519">
        <ele>114</ele>
        <time>2013-09-22T09:30:35.174Z</time>
      </trkpt>
      <trkpt lat="48.24859" lon="2.72519">
        <ele>114</ele>
        <time>2013-09-22T09:30:36.157Z</time>
      </trkpt>
      <trkpt lat="48.24859" lon="2.7252">
        <ele>114</ele>
        <time>2013-09-22T09:30:38.181Z</time>
      </trkpt>
      <trkpt lat="48.24857" lon="2.72513">
        <ele>114</ele>
        <time>2013-09-22T09:30:41.170Z</time>
      </trkpt>
      <trkpt lat="48.24856" lon="2.72511">
        <ele>114</ele>
        <time>2013-09-22T09:30:44.176Z</time>
      </trkpt>
      <trkpt lat="48.24856" lon="2.72512">
        <ele>114</ele>
        <time>2013-09-22T09:30:47.166Z</time>
      </trkpt>
      <trkpt lat="48.24852" lon="2.72507">
        <ele>114</ele>
        <time>2013-09-22T09:30:49.167Z</time>
      </trkpt>
      <trkpt lat="48.2485" lon="2.72499">
        <ele>112</ele>
        <time>2013-09-22T09:30:56.198Z</time>
      </trkpt>
      <trkpt lat="48.2485" lon="2.72499">
        <ele>112</ele>
        <time>2013-09-22T09:30:59.165Z</time>
      </trkpt>
      <trkpt lat="48.2485" lon="2.72499">
        <ele>112</ele>
        <time>2013-09-22T09:31:02.182Z</time>
      </trkpt>
      <trkpt lat="48.24846" lon="2.72495">
        <ele>112</ele>
        <time>2013-09-22T09:31:05.169Z</time>
      </trkpt>
      <trkpt lat="48.24844" lon="2.72493">
        <ele>112</ele>
        <time>2013-09-22T09:31:08.175Z</time>
      </trkpt>
      <trkpt lat="48.24845" lon="2.72493">
        <ele>112</ele>
        <time>2013-09-22T09:31:11.165Z</time>
      </trkpt>
      <trkpt lat="48.24842" lon="2.72486">
        <ele>111</ele>
        <time>2013-09-22T09:31:14.181Z</time>
      </trkpt>
      <trkpt lat="48.24843" lon="2.7248">
        <ele>111</ele>
        <time>2013-09-22T09:31:19.187Z</time>
      </trkpt>
      <trkpt lat="48.24843" lon="2.7248">
        <ele>111</ele>
        <time>2013-09-22T09:31:21.183Z</time>
      </trkpt>
      <trkpt lat="48.24843" lon="2.72481">
        <ele>111</ele>
        <time>2013-09-22T09:31:24.165Z</time>
      </trkpt>
      <trkpt lat="48.24843" lon="2.72477">
        <ele>111</ele>
        <time>2013-09-22T09:31:26.174Z</time>
      </trkpt>
      <trkpt lat="48.24843" lon="2.72467">
        <ele>111</ele>
        <time>2013-09-22T09:31:32.183Z</time>
      </trkpt>
      <trkpt lat="48.24842" lon="2.72463">
        <ele>110</ele>
        <time>2013-09-22T09:31:35.168Z</time>
      </trkpt>
      <trkpt lat="48.24838" lon="2.72452">
        <ele>110</ele>
        <time>2013-09-22T09:31:44.180Z</time>
      </trkpt>
      <trkpt lat="48.24836" lon="2.72451">
        <ele>110</ele>
        <time>2013-09-22T09:31:46.188Z</time>
      </trkpt>
      <trkpt lat="48.24828" lon="2.72449">
        <ele>107</ele>
        <time>2013-09-22T09:31:53.182Z</time>
      </trkpt>
      <trkpt lat="48.24825" lon="2.72451">
        <ele>107</ele>
        <time>2013-09-22T09:31:55.185Z</time>
      </trkpt>
      <trkpt lat="48.24816" lon="2.7245">
        <ele>106</ele>
        <time>2013-09-22T09:32:02.183Z</time>
      </trkpt>
      <trkpt lat="48.24813" lon="2.72448">
        <ele>106</ele>
        <time>2013-09-22T09:32:05.175Z</time>
      </trkpt>
      <trkpt lat="48.24807" lon="2.72445">
        <ele>106</ele>
        <time>2013-09-22T09:32:10.182Z</time>
      </trkpt>
      <trkpt lat="48.24804" lon="2.72442">
        <ele>106</ele>
        <time>2013-09-22T09:32:13.174Z</time>
      </trkpt>
      <trkpt lat="48.24799" lon="2.72433">
        <ele>106</ele>
        <time>2013-09-22T09:32:20.183Z</time>
      </trkpt>
      <trkpt lat="48.24797" lon="2.72428">
        <ele>105</ele>
        <time>2013-09-22T09:32:23.169Z</time>
      </trkpt>
      <trkpt lat="48.24789" lon="2.72423">
        <ele>105</ele>
        <time>2013-09-22T09:32:32.172Z</time>
      </trkpt>
      <trkpt lat="48.24786" lon="2.72419">
        <ele>105</ele>
        <time>2013-09-22T09:32:35.169Z</time>
      </trkpt>
      <trkpt lat="48.24786" lon="2.72417">
        <ele>104</ele>
        <time>2013-09-22T09:32:38.178Z</time>
      </trkpt>
      <trkpt lat="48.24786" lon="2.72416">
        <ele>104</ele>
        <time>2013-09-22T09:32:41.169Z</time>
      </trkpt>
      <trkpt lat="48.24786" lon="2.72412">
        <ele>104</ele>
        <time>2013-09-22T09:32:44.180Z</time>
      </trkpt>
      <trkpt lat="48.24784" lon="2.724">
        <ele>104</ele>
        <time>2013-09-22T09:32:50.190Z</time>
      </trkpt>
      <trkpt lat="48.24784" lon="2.72398">
        <ele>104</ele>
        <time>2013-09-22T09:32:52.192Z</time>
      </trkpt>
      <trkpt lat="48.24784" lon="2.72386">
        <ele>104</ele>
        <time>2013-09-22T09:33:02.188Z</time>
      </trkpt>
      <trkpt lat="48.24783" lon="2.72378">
        <ele>104</ele>
        <time>2013-09-22T09:33:05.163Z</time>
      </trkpt>
      <trkpt lat="48.24781" lon="2.72371">
        <ele>104</ele>
        <time>2013-09-22T09:33:11.162Z</time>
      </trkpt>
      <trkpt lat="48.24781" lon="2.72364">
        <ele>104</ele>
        <time>2013-09-22T09:33:13.175Z</time>
      </trkpt>
      <trkpt lat="48.24785" lon="2.72354">
        <ele>104</ele>
        <time>2013-09-22T09:33:23.171Z</time>
      </trkpt>
      <trkpt lat="48.24785" lon="2.72354">
        <ele>104</ele>
        <time>2013-09-22T09:33:26.189Z</time>
      </trkpt>
      <trkpt lat="48.24785" lon="2.72354">
        <ele>104</ele>
        <time>2013-09-22T09:33:29.175Z</time>
      </trkpt>
      <trkpt lat="48.24789" lon="2.7235">
        <ele>104</ele>
        <time>2013-09-22T09:33:32.176Z</time>
      </trkpt>
      <trkpt lat="48.24796" lon="2.72343">
        <ele>104</ele>
        <time>2013-09-22T09:33:43.179Z</time>
      </trkpt>
      <trkpt lat="48.24796" lon="2.72343">
        <ele>104</ele>
        <time>2013-09-22T09:33:45.186Z</time>
      </trkpt>
      <trkpt lat="48.24796" lon="2.72343">
        <ele>104</ele>
        <time>2013-09-22T09:34:01.165Z</time>
      </trkpt>
      <trkpt lat="48.24798" lon="2.72339">
        <ele>104</ele>
        <time>2013-09-22T09:34:04.161Z</time>
      </trkpt>
      <trkpt lat="48.24798" lon="2.7234">
        <ele>104</ele>
        <time>2013-09-22T09:34:06.163Z</time>
      </trkpt>
      <trkpt lat="48.24798" lon="2.7234">
        <ele>104</ele>
        <time>2013-09-22T09:34:08.177Z</time>
      </trkpt>
      <trkpt lat="48.24798" lon="2.7234">
        <ele>104</ele>
        <time>2013-09-22T09:34:15.180Z</time>
      </trkpt>
      <trkpt lat="48.24797" lon="2.72331">
        <ele>105</ele>
        <time>2013-09-22T09:34:18.168Z</time>
      </trkpt>
      <trkpt lat="48.24795" lon="2.7233">
        <ele>105</ele>
        <time>2013-09-22T09:34:20.183Z</time>
      </trkpt>
      <trkpt lat="48.24795" lon="2.72331">
        <ele>105</ele>
        <time>2013-09-22T09:34:23.174Z</time>
      </trkpt>
      <trkpt lat="48.24795" lon="2.72331">
        <ele>105</ele>
        <time>2013-09-22T09:34:26.197Z</time>
      </trkpt>
      <trkpt lat="48.24794" lon="2.72329">
        <ele>105</ele>
        <time>2013-09-22T09:34:29.183Z</time>
      </trkpt>
      <trkpt lat="48.24793" lon="2.72321">
        <ele>105</ele>
        <time>2013-09-22T09:34:35.165Z</time>
      </trkpt>
      <trkpt lat="48.24793" lon="2.72322">
        <ele>105</ele>
        <time>2013-09-22T09:34:36.154Z</time>
      </trkpt>
      <trkpt lat="48.24793" lon="2.72322">
        <ele>105</ele>
        <time>2013-09-22T09:34:41.171Z</time>
      </trkpt>
      <trkpt lat="48.24794" lon="2.72315">
        <ele>105</ele>
        <time>2013-09-22T09:34:44.192Z</time>
      </trkpt>
      <trkpt lat="48.24795" lon="2.72312">
        <ele>105</ele>
        <time>2013-09-22T09:34:47.188Z</time>
      </trkpt>
      <trkpt lat="48.24795" lon="2.72313">
        <ele>105</ele>
        <time>2013-09-22T09:34:49.190Z</time>
      </trkpt>
      <trkpt lat="48.24795" lon="2.72313">
        <ele>105</ele>
        <time>2013-09-22T09:34:54.192Z</time>
      </trkpt>
      <trkpt lat="48.24797" lon="2.72309">
        <ele>105</ele>
        <time>2013-09-22T09:34:56.191Z</time>
      </trkpt>
      <trkpt lat="48.24804" lon="2.72302">
        <ele>106</ele>
        <time>2013-09-22T09:35:08.198Z</time>
      </trkpt>
      <trkpt lat="48.24805" lon="2.72303">
        <ele>106</ele>
        <time>2013-09-22T09:35:11.179Z</time>
      </trkpt>
      <trkpt lat="48.24807" lon="2.72303">
        <ele>106</ele>
        <time>2013-09-22T09:35:14.190Z</time>
      </trkpt>
      <trkpt lat="48.24808" lon="2.72302">
        <ele>106</ele>
        <time>2013-09-22T09:35:17.197Z</time>
      </trkpt>
      <trkpt lat="48.24808" lon="2.72302">
        <ele>106</ele>
        <time>2013-09-22T09:35:20.211Z</time>
      </trkpt>
      <trkpt lat="48.24809" lon="2.72301">
        <ele>106</ele>
        <time>2013-09-22T09:35:23.196Z</time>
      </trkpt>
      <trkpt lat="48.24817" lon="2.723">
        <ele>105</ele>
        <time>2013-09-22T09:35:31.189Z</time>
      </trkpt>
      <trkpt lat="48.24817" lon="2.723">
        <ele>105</ele>
        <time>2013-09-22T09:35:34.202Z</time>
      </trkpt>
      <trkpt lat="48.24817" lon="2.723">
        <ele>105</ele>
        <time>2013-09-22T09:35:50.195Z</time>
      </trkpt>
      <trkpt lat="48.24822" lon="2.72298">
        <ele>105</ele>
        <time>2013-09-22T09:35:53.195Z</time>
      </trkpt>
      <trkpt lat="48.24822" lon="2.72297">
        <ele>105</ele>
        <time>2013-09-22T09:35:55.196Z</time>
      </trkpt>
      <trkpt lat="48.24821" lon="2.72297">
        <ele>105</ele>
        <time>2013-09-22T09:35:58.190Z</time>
      </trkpt>
      <trkpt lat="48.24821" lon="2.72297">
        <ele>105</ele>
        <time>2013-09-22T09:36:01.184Z</time>
      </trkpt>
      <trkpt lat="48.24822" lon="2.72286">
        <ele>106</ele>
        <time>2013-09-22T09:36:04.199Z</time>
      </trkpt>
      <trkpt lat="48.24822" lon="2.72283">
        <ele>106</ele>
        <time>2013-09-22T09:36:08.209Z</time>
      </trkpt>
      <trkpt lat="48.24822" lon="2.72284">
        <ele>106</ele>
        <time>2013-09-22T09:36:11.179Z</time>
      </trkpt>
      <trkpt lat="48.24821" lon="2.72277">
        <ele>106</ele>
        <time>2013-09-22T09:36:14.184Z</time>
      </trkpt>
      <trkpt lat="48.24819" lon="2.72272">
        <ele>106</ele>
        <time>2013-09-22T09:36:19.216Z</time>
      </trkpt>
      <trkpt lat="48.24819" lon="2.72272">
        <ele>106</ele>
        <time>2013-09-22T09:36:22.210Z</time>
      </trkpt>
      <trkpt lat="48.24816" lon="2.72265">
        <ele>106</ele>
        <time>2013-09-22T09:36:25.181Z</time>
      </trkpt>
      <trkpt lat="48.24816" lon="2.72256">
        <ele>106</ele>
        <time>2013-09-22T09:36:31.199Z</time>
      </trkpt>
      <trkpt lat="48.24817" lon="2.72256">
        <ele>106</ele>
        <time>2013-09-22T09:36:34.195Z</time>
      </trkpt>
      <trkpt lat="48.24816" lon="2.72256">
        <ele>106</ele>
        <time>2013-09-22T09:36:36.163Z</time>
      </trkpt>
      <trkpt lat="48.24817" lon="2.72252">
        <ele>106</ele>
        <time>2013-09-22T09:36:38.202Z</time>
      </trkpt>
      <trkpt lat="48.24818" lon="2.72245">
        <ele>107</ele>
        <time>2013-09-22T09:36:41.191Z</time>
      </trkpt>
      <trkpt lat="48.24818" lon="2.72245">
        <ele>107</ele>
        <time>2013-09-22T09:36:44.194Z</time>
      </trkpt>
      <trkpt lat="48.2482" lon="2.72242">
        <ele>107</ele>
        <time>2013-09-22T09:36:46.195Z</time>
      </trkpt>
      <trkpt lat="48.24821" lon="2.72236">
        <ele>107</ele>
        <time>2013-09-22T09:36:51.188Z</time>
      </trkpt>
      <trkpt lat="48.24821" lon="2.72237">
        <ele>107</ele>
        <time>2013-09-22T09:36:54.199Z</time>
      </trkpt>
      <trkpt lat="48.24821" lon="2.7223">
        <ele>107</ele>
        <time>2013-09-22T09:36:56.204Z</time>
      </trkpt>
      <trkpt lat="48.24822" lon="2.72217">
        <ele>108</ele>
        <time>2013-09-22T09:37:06.190Z</time>
      </trkpt>
      <trkpt lat="48.24823" lon="2.72215">
        <ele>108</ele>
        <time>2013-09-22T09:37:08.200Z</time>
      </trkpt>
      <trkpt lat="48.24824" lon="2.72203">
        <ele>108</ele>
        <time>2013-09-22T09:37:14.200Z</time>
      </trkpt>
      <trkpt lat="48.24824" lon="2.72198">
        <ele>108</ele>
        <time>2013-09-22T09:37:17.188Z</time>
      </trkpt>
      <trkpt lat="48.24824" lon="2.72196">
        <ele>108</ele>
        <time>2013-09-22T09:37:20.192Z</time>
      </trkpt>
      <trkpt lat="48.24824" lon="2.72196">
        <ele>108</ele>
        <time>2013-09-22T09:37:23.191Z</time>
      </trkpt>
      <trkpt lat="48.24822" lon="2.7219">
        <ele>108</ele>
        <time>2013-09-22T09:37:25.201Z</time>
      </trkpt>
      <trkpt lat="48.24821" lon="2.72187">
        <ele>108</ele>
        <time>2013-09-22T09:37:28.185Z</time>
      </trkpt>
      <trkpt lat="48.24822" lon="2.72188">
        <ele>108</ele>
        <time>2013-09-22T09:37:31.169Z</time>
      </trkpt>
      <trkpt lat="48.24822" lon="2.72188">
        <ele>108</ele>
        <time>2013-09-22T09:37:33.182Z</time>
      </trkpt>
      <trkpt lat="48.24821" lon="2.72181">
        <ele>108</ele>
        <time>2013-09-22T09:37:36.164Z</time>
      </trkpt>
      <trkpt lat="48.24819" lon="2.72172">
        <ele>107</ele>
        <time>2013-09-22T09:37:41.190Z</time>
      </trkpt>
      <trkpt lat="48.24819" lon="2.72167">
        <ele>107</ele>
        <time>2013-09-22T09:37:44.194Z</time>
      </trkpt>
      <trkpt lat="48.2482" lon="2.72158">
        <ele>108</ele>
        <time>2013-09-22T09:37:50.254Z</time>
      </trkpt>
      <trkpt lat="48.24822" lon="2.72152">
        <ele>108</ele>
        <time>2013-09-22T09:37:53.214Z</time>
      </trkpt>
      <trkpt lat="48.2482" lon="2.72146">
        <ele>108</ele>
        <time>2013-09-22T09:37:56.202Z</time>
      </trkpt>
      <trkpt lat="48.24818" lon="2.72136">
        <ele>108</ele>
        <time>2013-09-22T09:37:59.184Z</time>
      </trkpt>
      <trkpt lat="48.24815" lon="2.72124">
        <ele>108</ele>
        <time>2013-09-22T09:38:06.170Z</time>
      </trkpt>
      <trkpt lat="48.24815" lon="2.7212">
        <ele>108</ele>
        <time>2013-09-22T09:38:08.175Z</time>
      </trkpt>
      <trkpt lat="48.24817" lon="2.7211">
        <ele>108</ele>
        <time>2013-09-22T09:38:15.173Z</time>
      </trkpt>
      <trkpt lat="48.24817" lon="2.72107">
        <ele>108</ele>
        <time>2013-09-22T09:38:17.182Z</time>
      </trkpt>
      <trkpt lat="48.24817" lon="2.72096">
        <ele>108</ele>
        <time>2013-09-22T09:38:22.190Z</time>
      </trkpt>
      <trkpt lat="48.24817" lon="2.7209">
        <ele>108</ele>
        <time>2013-09-22T09:38:25.181Z</time>
      </trkpt>
      <trkpt lat="48.24818" lon="2.72079">
        <ele>108</ele>
        <time>2013-09-22T09:38:32.193Z</time>
      </trkpt>
      <trkpt lat="48.24818" lon="2.72079">
        <ele>108</ele>
        <time>2013-09-22T09:38:35.177Z</time>
      </trkpt>
      <trkpt lat="48.24818" lon="2.72079">
        <ele>108</ele>
        <time>2013-09-22T09:38:38.190Z</time>
      </trkpt>
      <trkpt lat="48.24818" lon="2.72075">
        <ele>108</ele>
        <time>2013-09-22T09:38:41.176Z</time>
      </trkpt>
      <trkpt lat="48.24817" lon="2.7207">
        <ele>109</ele>
        <time>2013-09-22T09:38:44.178Z</time>
      </trkpt>
      <trkpt lat="48.24817" lon="2.72071">
        <ele>109</ele>
        <time>2013-09-22T09:38:46.182Z</time>
      </trkpt>
      <trkpt lat="48.24817" lon="2.72072">
        <ele>108</ele>
        <time>2013-09-22T09:38:51.182Z</time>
      </trkpt>
      <trkpt lat="48.24817" lon="2.72068">
        <ele>109</ele>
        <time>2013-09-22T09:38:53.185Z</time>
      </trkpt>
      <trkpt lat="48.24818" lon="2.72063">
        <ele>109</ele>
        <time>2013-09-22T09:38:56.170Z</time>
      </trkpt>
      <trkpt lat="48.24818" lon="2.72064">
        <ele>109</ele>
        <time>2013-09-22T09:38:58.179Z</time>
      </trkpt>
      <trkpt lat="48.24818" lon="2.72064">
        <ele>109</ele>
        <time>2013-09-22T09:39:42.187Z</time>
      </trkpt>
      <trkpt lat="48.24817" lon="2.72057">
        <ele>109</ele>
        <time>2013-09-22T09:39:44.190Z</time>
      </trkpt>
      <trkpt lat="48.24817" lon="2.72054">
        <ele>110</ele>
        <time>2013-09-22T09:39:47.196Z</time>
      </trkpt>
      <trkpt lat="48.24817" lon="2.72054">
        <ele>109</ele>
        <time>2013-09-22T09:39:50.197Z</time>
      </trkpt>
      <trkpt lat="48.24817" lon="2.72055">
        <ele>109</ele>
        <time>2013-09-22T09:40:02.187Z</time>
      </trkpt>
      <trkpt lat="48.24818" lon="2.72051">
        <ele>110</ele>
        <time>2013-09-22T09:40:05.169Z</time>
      </trkpt>
      <trkpt lat="48.24819" lon="2.72045">
        <ele>110</ele>
        <time>2013-09-22T09:40:10.179Z</time>
      </trkpt>
      <trkpt lat="48.24819" lon="2.72046">
        <ele>110</ele>
        <time>2013-09-22T09:40:13.168Z</time>
      </trkpt>
      <trkpt lat="48.2482" lon="2.72044">
        <ele>110</ele>
        <time>2013-09-22T09:40:15.197Z</time>
      </trkpt>
      <trkpt lat="48.24823" lon="2.72038">
        <ele>110</ele>
        <time>2013-09-22T09:40:20.203Z</time>
      </trkpt>
      <trkpt lat="48.24823" lon="2.72038">
        <ele>110</ele>
        <time>2013-09-22T09:40:23.184Z</time>
      </trkpt>
      <trkpt lat="48.24823" lon="2.72034">
        <ele>110</ele>
        <time>2013-09-22T09:40:26.207Z</time>
      </trkpt>
      <trkpt lat="48.24824" lon="2.72029">
        <ele>111</ele>
        <time>2013-09-22T09:40:31.170Z</time>
      </trkpt>
      <trkpt lat="48.24824" lon="2.72029">
        <ele>111</ele>
        <time>2013-09-22T09:40:34.161Z</time>
      </trkpt>
      <trkpt lat="48.24824" lon="2.72029">
        <ele>111</ele>
        <time>2013-09-22T09:40:36.162Z</time>
      </trkpt>
      <trkpt lat="48.24826" lon="2.72026">
        <ele>111</ele>
        <time>2013-09-22T09:40:38.188Z</time>
      </trkpt>
      <trkpt lat="48.24828" lon="2.72021">
        <ele>111</ele>
        <time>2013-09-22T09:40:41.176Z</time>
      </trkpt>
      <trkpt lat="48.24828" lon="2.72021">
        <ele>111</ele>
        <time>2013-09-22T09:40:44.176Z</time>
      </trkpt>
      <trkpt lat="48.24828" lon="2.72022">
        <ele>111</ele>
        <time>2013-09-22T09:40:52.184Z</time>
      </trkpt>
      <trkpt lat="48.24829" lon="2.72019">
        <ele>111</ele>
        <time>2013-09-22T09:40:55.190Z</time>
      </trkpt>
      <trkpt lat="48.24832" lon="2.72013">
        <ele>111</ele>
        <time>2013-09-22T09:40:58.158Z</time>
      </trkpt>
      <trkpt lat="48.24832" lon="2.72014">
        <ele>111</ele>
        <time>2013-09-22T09:41:01.168Z</time>
      </trkpt>
      <trkpt lat="48.24832" lon="2.72014">
        <ele>111</ele>
        <time>2013-09-22T09:41:05.194Z</time>
      </trkpt>
      <trkpt lat="48.24839" lon="2.72011">
        <ele>111</ele>
        <time>2013-09-22T09:41:08.192Z</time>
      </trkpt>
      <trkpt lat="48.24845" lon="2.72007">
        <ele>111</ele>
        <time>2013-09-22T09:41:16.192Z</time>
      </trkpt>
      <trkpt lat="48.24847" lon="2.72004">
        <ele>111</ele>
        <time>2013-09-22T09:41:19.189Z</time>
      </trkpt>
      <trkpt lat="48.24849" lon="2.72">
        <ele>114</ele>
        <time>2013-09-22T09:41:25.173Z</time>
      </trkpt>
      <trkpt lat="48.24849" lon="2.72">
        <ele>114</ele>
        <time>2013-09-22T09:41:27.173Z</time>
      </trkpt>
      <trkpt lat="48.24849" lon="2.71996">
        <ele>114</ele>
        <time>2013-09-22T09:41:30.171Z</time>
      </trkpt>
      <trkpt lat="48.24851" lon="2.71988">
        <ele>115</ele>
        <time>2013-09-22T09:41:36.159Z</time>
      </trkpt>
      <trkpt lat="48.24851" lon="2.71989">
        <ele>115</ele>
        <time>2013-09-22T09:41:38.176Z</time>
      </trkpt>
      <trkpt lat="48.24852" lon="2.71985">
        <ele>115</ele>
        <time>2013-09-22T09:41:41.167Z</time>
      </trkpt>
      <trkpt lat="48.24854" lon="2.71979">
        <ele>115</ele>
        <time>2013-09-22T09:41:46.176Z</time>
      </trkpt>
      <trkpt lat="48.24853" lon="2.71979">
        <ele>115</ele>
        <time>2013-09-22T09:41:48.179Z</time>
      </trkpt>
      <trkpt lat="48.24856" lon="2.71976">
        <ele>115</ele>
        <time>2013-09-22T09:41:50.183Z</time>
      </trkpt>
      <trkpt lat="48.24858" lon="2.71974">
        <ele>116</ele>
        <time>2013-09-22T09:41:57.192Z</time>
      </trkpt>
      <trkpt lat="48.24858" lon="2.71974">
        <ele>116</ele>
        <time>2013-09-22T09:42:00.147Z</time>
      </trkpt>
      <trkpt lat="48.24858" lon="2.71974">
        <ele>116</ele>
        <time>2013-09-22T09:42:08.182Z</time>
      </trkpt>
      <trkpt lat="48.24861" lon="2.71967">
        <ele>116</ele>
        <time>2013-09-22T09:42:11.178Z</time>
      </trkpt>
      <trkpt lat="48.24862" lon="2.71965">
        <ele>116</ele>
        <time>2013-09-22T09:42:13.184Z</time>
      </trkpt>
      <trkpt lat="48.24862" lon="2.71965">
        <ele>116</ele>
        <time>2013-09-22T09:42:16.186Z</time>
      </trkpt>
      <trkpt lat="48.24862" lon="2.71965">
        <ele>116</ele>
        <time>2013-09-22T09:42:18.186Z</time>
      </trkpt>
      <trkpt lat="48.24863" lon="2.71962">
        <ele>116</ele>
        <time>2013-09-22T09:42:20.205Z</time>
      </trkpt>
      <trkpt lat="48.2487" lon="2.71956">
        <ele>117</ele>
        <time>2013-09-22T09:42:28.890Z</time>
      </trkpt>
      <trkpt lat="48.24872" lon="2.71956">
        <ele>117</ele>
        <time>2013-09-22T09:42:31.807Z</time>
      </trkpt>
      <trkpt lat="48.24878" lon="2.71949">
        <ele>117</ele>
        <time>2013-09-22T09:42:45.831Z</time>
      </trkpt>
      <trkpt lat="48.24879" lon="2.71947">
        <ele>117</ele>
        <time>2013-09-22T09:42:48.830Z</time>
      </trkpt>
      <trkpt lat="48.2488" lon="2.71945">
        <ele>117</ele>
        <time>2013-09-22T09:42:50.863Z</time>
      </trkpt>
      <trkpt lat="48.24881" lon="2.71945">
        <ele>117</ele>
        <time>2013-09-22T09:42:53.828Z</time>
      </trkpt>
      <trkpt lat="48.2488" lon="2.71945">
        <ele>117</ele>
        <time>2013-09-22T09:42:58.825Z</time>
      </trkpt>
      <trkpt lat="48.24882" lon="2.71938">
        <ele>117</ele>
        <time>2013-09-22T09:43:01.727Z</time>
      </trkpt>
      <trkpt lat="48.24884" lon="2.71931">
        <ele>118</ele>
        <time>2013-09-22T09:43:08.739Z</time>
      </trkpt>
      <trkpt lat="48.24884" lon="2.71931">
        <ele>118</ele>
        <time>2013-09-22T09:43:10.744Z</time>
      </trkpt>
      <trkpt lat="48.24884" lon="2.71931">
        <ele>118</ele>
        <time>2013-09-22T09:43:27.762Z</time>
      </trkpt>
      <trkpt lat="48.24885" lon="2.71924">
        <ele>118</ele>
        <time>2013-09-22T09:43:30.743Z</time>
      </trkpt>
      <trkpt lat="48.24886" lon="2.71922">
        <ele>118</ele>
        <time>2013-09-22T09:43:32.761Z</time>
      </trkpt>
      <trkpt lat="48.24885" lon="2.71923">
        <ele>118</ele>
        <time>2013-09-22T09:43:35.750Z</time>
      </trkpt>
      <trkpt lat="48.24885" lon="2.71923">
        <ele>118</ele>
        <time>2013-09-22T09:43:50.759Z</time>
      </trkpt>
      <trkpt lat="48.24885" lon="2.7192">
        <ele>118</ele>
        <time>2013-09-22T09:43:53.750Z</time>
      </trkpt>
      <trkpt lat="48.24884" lon="2.71913">
        <ele>122</ele>
        <time>2013-09-22T09:43:58.764Z</time>
      </trkpt>
      <trkpt lat="48.24884" lon="2.71913">
        <ele>122</ele>
        <time>2013-09-22T09:44:01.750Z</time>
      </trkpt>
      <trkpt lat="48.24884" lon="2.71913">
        <ele>122</ele>
        <time>2013-09-22T09:44:11.746Z</time>
      </trkpt>
      <trkpt lat="48.24887" lon="2.71909">
        <ele>122</ele>
        <time>2013-09-22T09:44:14.747Z</time>
      </trkpt>
      <trkpt lat="48.24888" lon="2.71908">
        <ele>122</ele>
        <time>2013-09-22T09:44:17.741Z</time>
      </trkpt>
      <trkpt lat="48.24887" lon="2.71908">
        <ele>122</ele>
        <time>2013-09-22T09:44:19.742Z</time>
      </trkpt>
      <trkpt lat="48.24887" lon="2.71909">
        <ele>122</ele>
        <time>2013-09-22T09:44:29.752Z</time>
      </trkpt>
      <trkpt lat="48.24889" lon="2.71905">
        <ele>122</ele>
        <time>2013-09-22T09:44:32.757Z</time>
      </trkpt>
      <trkpt lat="48.2489" lon="2.719">
        <ele>122</ele>
        <time>2013-09-22T09:44:36.730Z</time>
      </trkpt>
      <trkpt lat="48.2489" lon="2.71901">
        <ele>122</ele>
        <time>2013-09-22T09:44:38.761Z</time>
      </trkpt>
      <trkpt lat="48.2489" lon="2.71901">
        <ele>122</ele>
        <time>2013-09-22T09:44:41.754Z</time>
      </trkpt>
      <trkpt lat="48.24894" lon="2.71904">
        <ele>122</ele>
        <time>2013-09-22T09:44:44.755Z</time>
      </trkpt>
      <trkpt lat="48.24898" lon="2.71895">
        <ele>122</ele>
        <time>2013-09-22T09:44:53.751Z</time>
      </trkpt>
      <trkpt lat="48.24899" lon="2.71892">
        <ele>122</ele>
        <time>2013-09-22T09:44:56.751Z</time>
      </trkpt>
      <trkpt lat="48.24899" lon="2.71879">
        <ele>122</ele>
        <time>2013-09-22T09:45:08.760Z</time>
      </trkpt>
      <trkpt lat="48.24899" lon="2.71879">
        <ele>122</ele>
        <time>2013-09-22T09:45:11.742Z</time>
      </trkpt>
      <trkpt lat="48.24899" lon="2.71879">
        <ele>122</ele>
        <time>2013-09-22T09:45:14.762Z</time>
      </trkpt>
      <trkpt lat="48.24899" lon="2.71869">
        <ele>123</ele>
        <time>2013-09-22T09:45:17.744Z</time>
      </trkpt>
      <trkpt lat="48.24901" lon="2.71859">
        <ele>123</ele>
        <time>2013-09-22T09:45:25.745Z</time>
      </trkpt>
      <trkpt lat="48.24902" lon="2.71855">
        <ele>123</ele>
        <time>2013-09-22T09:45:28.738Z</time>
      </trkpt>
      <trkpt lat="48.24903" lon="2.71843">
        <ele>124</ele>
        <time>2013-09-22T09:45:36.726Z</time>
      </trkpt>
      <trkpt lat="48.24903" lon="2.7184">
        <ele>124</ele>
        <time>2013-09-22T09:45:38.748Z</time>
      </trkpt>
      <trkpt lat="48.24904" lon="2.71828">
        <ele>125</ele>
        <time>2013-09-22T09:45:47.757Z</time>
      </trkpt>
      <trkpt lat="48.24905" lon="2.71823">
        <ele>125</ele>
        <time>2013-09-22T09:45:50.753Z</time>
      </trkpt>
      <trkpt lat="48.24909" lon="2.71811">
        <ele>124</ele>
        <time>2013-09-22T09:45:58.732Z</time>
      </trkpt>
      <trkpt lat="48.2491" lon="2.71808">
        <ele>124</ele>
        <time>2013-09-22T09:46:00.734Z</time>
      </trkpt>
      <trkpt lat="48.24913" lon="2.71797">
        <ele>124</ele>
        <time>2013-09-22T09:46:08.745Z</time>
      </trkpt>
      <trkpt lat="48.24913" lon="2.71795">
        <ele>124</ele>
        <time>2013-09-22T09:46:10.757Z</time>
      </trkpt>
      <trkpt lat="48.24914" lon="2.71782">
        <ele>124</ele>
        <time>2013-09-22T09:46:19.742Z</time>
      </trkpt>
      <trkpt lat="48.24914" lon="2.71777">
        <ele>124</ele>
        <time>2013-09-22T09:46:22.745Z</time>
      </trkpt>
      <trkpt lat="48.24912" lon="2.71766">
        <ele>124</ele>
        <time>2013-09-22T09:46:30.732Z</time>
      </trkpt>
      <trkpt lat="48.24912" lon="2.71763">
        <ele>123</ele>
        <time>2013-09-22T09:46:32.747Z</time>
      </trkpt>
      <trkpt lat="48.24911" lon="2.71756">
        <ele>123</ele>
        <time>2013-09-22T09:46:38.748Z</time>
      </trkpt>
      <trkpt lat="48.24911" lon="2.7175">
        <ele>123</ele>
        <time>2013-09-22T09:46:41.741Z</time>
      </trkpt>
      <trkpt lat="48.24912" lon="2.71738">
        <ele>123</ele>
        <time>2013-09-22T09:46:47.743Z</time>
      </trkpt>
      <trkpt lat="48.24912" lon="2.71732">
        <ele>123</ele>
        <time>2013-09-22T09:46:50.748Z</time>
      </trkpt>
      <trkpt lat="48.24911" lon="2.71721">
        <ele>123</ele>
        <time>2013-09-22T09:46:55.732Z</time>
      </trkpt>
      <trkpt lat="48.2491" lon="2.71714">
        <ele>123</ele>
        <time>2013-09-22T09:46:57.739Z</time>
      </trkpt>
      <trkpt lat="48.24908" lon="2.71705">
        <ele>123</ele>
        <time>2013-09-22T09:47:02.747Z</time>
      </trkpt>
      <trkpt lat="48.24907" lon="2.71699">
        <ele>123</ele>
        <time>2013-09-22T09:47:05.736Z</time>
      </trkpt>
      <trkpt lat="48.24903" lon="2.71688">
        <ele>123</ele>
        <time>2013-09-22T09:47:13.736Z</time>
      </trkpt>
      <trkpt lat="48.24901" lon="2.71685">
        <ele>123</ele>
        <time>2013-09-22T09:47:15.750Z</time>
      </trkpt>
      <trkpt lat="48.24899" lon="2.71677">
        <ele>123</ele>
        <time>2013-09-22T09:47:20.741Z</time>
      </trkpt>
      <trkpt lat="48.24898" lon="2.71672">
        <ele>123</ele>
        <time>2013-09-22T09:47:22.750Z</time>
      </trkpt>
      <trkpt lat="48.24898" lon="2.71661">
        <ele>123</ele>
        <time>2013-09-22T09:47:27.728Z</time>
      </trkpt>
      <trkpt lat="48.24897" lon="2.71658">
        <ele>123</ele>
        <time>2013-09-22T09:47:29.736Z</time>
      </trkpt>
      <trkpt lat="48.24897" lon="2.71648">
        <ele>122</ele>
        <time>2013-09-22T09:47:38.742Z</time>
      </trkpt>
      <trkpt lat="48.24898" lon="2.71644">
        <ele>122</ele>
        <time>2013-09-22T09:47:41.728Z</time>
      </trkpt>
      <trkpt lat="48.24898" lon="2.71634">
        <ele>122</ele>
        <time>2013-09-22T09:47:44.731Z</time>
      </trkpt>
      <trkpt lat="48.24898" lon="2.71628">
        <ele>122</ele>
        <time>2013-09-22T09:47:46.731Z</time>
      </trkpt>
      <trkpt lat="48.24903" lon="2.71617">
        <ele>122</ele>
        <time>2013-09-22T09:47:55.742Z</time>
      </trkpt>
      <trkpt lat="48.24905" lon="2.71612">
        <ele>123</ele>
        <time>2013-09-22T09:47:58.731Z</time>
      </trkpt>
      <trkpt lat="48.24908" lon="2.71602">
        <ele>123</ele>
        <time>2013-09-22T09:48:06.725Z</time>
      </trkpt>
      <trkpt lat="48.2491" lon="2.716">
        <ele>123</ele>
        <time>2013-09-22T09:48:08.743Z</time>
      </trkpt>
      <trkpt lat="48.24915" lon="2.71589">
        <ele>123</ele>
        <time>2013-09-22T09:48:15.764Z</time>
      </trkpt>
      <trkpt lat="48.24917" lon="2.71584">
        <ele>123</ele>
        <time>2013-09-22T09:48:18.740Z</time>
      </trkpt>
      <trkpt lat="48.24921" lon="2.71575">
        <ele>122</ele>
        <time>2013-09-22T09:48:23.738Z</time>
      </trkpt>
      <trkpt lat="48.24923" lon="2.71571">
        <ele>122</ele>
        <time>2013-09-22T09:48:26.759Z</time>
      </trkpt>
      <trkpt lat="48.24923" lon="2.71558">
        <ele>122</ele>
        <time>2013-09-22T09:48:32.748Z</time>
      </trkpt>
      <trkpt lat="48.24923" lon="2.71554">
        <ele>122</ele>
        <time>2013-09-22T09:48:35.722Z</time>
      </trkpt>
      <trkpt lat="48.24922" lon="2.71543">
        <ele>122</ele>
        <time>2013-09-22T09:48:41.729Z</time>
      </trkpt>
      <trkpt lat="48.2492" lon="2.71539">
        <ele>122</ele>
        <time>2013-09-22T09:48:44.733Z</time>
      </trkpt>
      <trkpt lat="48.24921" lon="2.71531">
        <ele>122</ele>
        <time>2013-09-22T09:48:49.779Z</time>
      </trkpt>
      <trkpt lat="48.24921" lon="2.71526">
        <ele>122</ele>
        <time>2013-09-22T09:48:52.734Z</time>
      </trkpt>
      <trkpt lat="48.24924" lon="2.71514">
        <ele>122</ele>
        <time>2013-09-22T09:48:59.740Z</time>
      </trkpt>
      <trkpt lat="48.24926" lon="2.7151">
        <ele>122</ele>
        <time>2013-09-22T09:49:02.750Z</time>
      </trkpt>
      <trkpt lat="48.24927" lon="2.71499">
        <ele>122</ele>
        <time>2013-09-22T09:49:07.734Z</time>
      </trkpt>
      <trkpt lat="48.24928" lon="2.71495">
        <ele>122</ele>
        <time>2013-09-22T09:49:09.740Z</time>
      </trkpt>
      <trkpt lat="48.24929" lon="2.71487">
        <ele>122</ele>
        <time>2013-09-22T09:49:14.742Z</time>
      </trkpt>
      <trkpt lat="48.24929" lon="2.7148">
        <ele>122</ele>
        <time>2013-09-22T09:49:17.786Z</time>
      </trkpt>
      <trkpt lat="48.24928" lon="2.71469">
        <ele>123</ele>
        <time>2013-09-22T09:49:23.742Z</time>
      </trkpt>
      <trkpt lat="48.24928" lon="2.71465">
        <ele>123</ele>
        <time>2013-09-22T09:49:26.757Z</time>
      </trkpt>
      <trkpt lat="48.24928" lon="2.71458">
        <ele>123</ele>
        <time>2013-09-22T09:49:29.741Z</time>
      </trkpt>
      <trkpt lat="48.24927" lon="2.7145">
        <ele>123</ele>
        <time>2013-09-22T09:49:32.737Z</time>
      </trkpt>
      <trkpt lat="48.24924" lon="2.71441">
        <ele>123</ele>
        <time>2013-09-22T09:49:36.735Z</time>
      </trkpt>
      <trkpt lat="48.24923" lon="2.71437">
        <ele>124</ele>
        <time>2013-09-22T09:49:38.750Z</time>
      </trkpt>
      <trkpt lat="48.24923" lon="2.71426">
        <ele>124</ele>
        <time>2013-09-22T09:49:43.732Z</time>
      </trkpt>
      <trkpt lat="48.24923" lon="2.71422">
        <ele>124</ele>
        <time>2013-09-22T09:49:45.742Z</time>
      </trkpt>
      <trkpt lat="48.24921" lon="2.71409">
        <ele>125</ele>
        <time>2013-09-22T09:49:52.768Z</time>
      </trkpt>
      <trkpt lat="48.2492" lon="2.71403">
        <ele>125</ele>
        <time>2013-09-22T09:49:55.733Z</time>
      </trkpt>
      <trkpt lat="48.24919" lon="2.71395">
        <ele>125</ele>
        <time>2013-09-22T09:49:59.740Z</time>
      </trkpt>
      <trkpt lat="48.24917" lon="2.71389">
        <ele>125</ele>
        <time>2013-09-22T09:50:02.744Z</time>
      </trkpt>
      <trkpt lat="48.24912" lon="2.71382">
        <ele>125</ele>
        <time>2013-09-22T09:50:07.733Z</time>
      </trkpt>
      <trkpt lat="48.2491" lon="2.7138">
        <ele>125</ele>
        <time>2013-09-22T09:50:10.733Z</time>
      </trkpt>
      <trkpt lat="48.24904" lon="2.71379">
        <ele>125</ele>
        <time>2013-09-22T09:50:15.753Z</time>
      </trkpt>
      <trkpt lat="48.249" lon="2.71377">
        <ele>125</ele>
        <time>2013-09-22T09:50:18.740Z</time>
      </trkpt>
      <trkpt lat="48.24893" lon="2.71373">
        <ele>125</ele>
        <time>2013-09-22T09:50:25.738Z</time>
      </trkpt>
      <trkpt lat="48.24889" lon="2.7137">
        <ele>125</ele>
        <time>2013-09-22T09:50:28.737Z</time>
      </trkpt>
      <trkpt lat="48.24886" lon="2.7136">
        <ele>125</ele>
        <time>2013-09-22T09:50:34.733Z</time>
      </trkpt>
      <trkpt lat="48.24885" lon="2.71356">
        <ele>125</ele>
        <time>2013-09-22T09:50:36.724Z</time>
      </trkpt>
      <trkpt lat="48.24885" lon="2.71348">
        <ele>125</ele>
        <time>2013-09-22T09:50:45.748Z</time>
      </trkpt>
      <trkpt lat="48.24885" lon="2.71349">
        <ele>125</ele>
        <time>2013-09-22T09:50:48.755Z</time>
      </trkpt>
      <trkpt lat="48.24885" lon="2.71349">
        <ele>125</ele>
        <time>2013-09-22T09:50:59.737Z</time>
      </trkpt>
      <trkpt lat="48.24887" lon="2.7134">
        <ele>125</ele>
        <time>2013-09-22T09:51:02.742Z</time>
      </trkpt>
      <trkpt lat="48.24887" lon="2.71337">
        <ele>125</ele>
        <time>2013-09-22T09:51:05.731Z</time>
      </trkpt>
      <trkpt lat="48.24887" lon="2.71338">
        <ele>125</ele>
        <time>2013-09-22T09:51:08.735Z</time>
      </trkpt>
      <trkpt lat="48.24886" lon="2.71333">
        <ele>125</ele>
        <time>2013-09-22T09:51:11.717Z</time>
      </trkpt>
      <trkpt lat="48.24882" lon="2.71321">
        <ele>125</ele>
        <time>2013-09-22T09:51:16.753Z</time>
      </trkpt>
      <trkpt lat="48.24879" lon="2.71317">
        <ele>125</ele>
        <time>2013-09-22T09:51:19.740Z</time>
      </trkpt>
      <trkpt lat="48.24874" lon="2.7131">
        <ele>125</ele>
        <time>2013-09-22T09:51:22.741Z</time>
      </trkpt>
      <trkpt lat="48.24872" lon="2.71304">
        <ele>125</ele>
        <time>2013-09-22T09:51:24.753Z</time>
      </trkpt>
      <trkpt lat="48.24869" lon="2.71298">
        <ele>125</ele>
        <time>2013-09-22T09:51:26.766Z</time>
      </trkpt>
      <trkpt lat="48.24866" lon="2.7129">
        <ele>125</ele>
        <time>2013-09-22T09:51:29.758Z</time>
      </trkpt>
      <trkpt lat="48.24861" lon="2.71281">
        <ele>125</ele>
        <time>2013-09-22T09:51:35.741Z</time>
      </trkpt>
      <trkpt lat="48.2486" lon="2.71279">
        <ele>125</ele>
        <time>2013-09-22T09:51:36.731Z</time>
      </trkpt>
      <trkpt lat="48.24857" lon="2.7127">
        <ele>125</ele>
        <time>2013-09-22T09:51:40.738Z</time>
      </trkpt>
      <trkpt lat="48.24854" lon="2.71266">
        <ele>125</ele>
        <time>2013-09-22T09:51:43.732Z</time>
      </trkpt>
      <trkpt lat="48.24849" lon="2.71257">
        <ele>125</ele>
        <time>2013-09-22T09:51:48.757Z</time>
      </trkpt>
      <trkpt lat="48.24847" lon="2.71255">
        <ele>125</ele>
        <time>2013-09-22T09:51:50.807Z</time>
      </trkpt>
      <trkpt lat="48.24841" lon="2.71248">
        <ele>125</ele>
        <time>2013-09-22T09:51:55.812Z</time>
      </trkpt>
      <trkpt lat="48.24837" lon="2.71241">
        <ele>125</ele>
        <time>2013-09-22T09:51:58.793Z</time>
      </trkpt>
      <trkpt lat="48.24833" lon="2.71234">
        <ele>124</ele>
        <time>2013-09-22T09:52:01.729Z</time>
      </trkpt>
      <trkpt lat="48.24829" lon="2.7123">
        <ele>124</ele>
        <time>2013-09-22T09:52:04.760Z</time>
      </trkpt>
      <trkpt lat="48.24823" lon="2.71225">
        <ele>124</ele>
        <time>2013-09-22T09:52:09.744Z</time>
      </trkpt>
      <trkpt lat="48.24818" lon="2.71221">
        <ele>124</ele>
        <time>2013-09-22T09:52:12.721Z</time>
      </trkpt>
      <trkpt lat="48.24813" lon="2.71215">
        <ele>124</ele>
        <time>2013-09-22T09:52:16.764Z</time>
      </trkpt>
      <trkpt lat="48.24811" lon="2.71212">
        <ele>124</ele>
        <time>2013-09-22T09:52:18.767Z</time>
      </trkpt>
      <trkpt lat="48.24806" lon="2.71203">
        <ele>123</ele>
        <time>2013-09-22T09:52:23.750Z</time>
      </trkpt>
      <trkpt lat="48.24805" lon="2.712">
        <ele>123</ele>
        <time>2013-09-22T09:52:25.792Z</time>
      </trkpt>
      <trkpt lat="48.248" lon="2.71193">
        <ele>123</ele>
        <time>2013-09-22T09:52:30.760Z</time>
      </trkpt>
      <trkpt lat="48.24798" lon="2.7119">
        <ele>123</ele>
        <time>2013-09-22T09:52:33.728Z</time>
      </trkpt>
      <trkpt lat="48.2479" lon="2.71186">
        <ele>123</ele>
        <time>2013-09-22T09:52:42.750Z</time>
      </trkpt>
      <trkpt lat="48.24788" lon="2.71185">
        <ele>123</ele>
        <time>2013-09-22T09:52:45.751Z</time>
      </trkpt>
      <trkpt lat="48.24783" lon="2.71181">
        <ele>123</ele>
        <time>2013-09-22T09:52:50.796Z</time>
      </trkpt>
      <trkpt lat="48.2478" lon="2.71177">
        <ele>123</ele>
        <time>2013-09-22T09:52:53.746Z</time>
      </trkpt>
      <trkpt lat="48.24776" lon="2.71171">
        <ele>123</ele>
        <time>2013-09-22T09:52:58.782Z</time>
      </trkpt>
      <trkpt lat="48.24777" lon="2.71172">
        <ele>123</ele>
        <time>2013-09-22T09:53:01.740Z</time>
      </trkpt>
      <trkpt lat="48.24777" lon="2.71172">
        <ele>123</ele>
        <time>2013-09-22T09:53:45.749Z</time>
      </trkpt>
      <trkpt lat="48.24775" lon="2.71169">
        <ele>123</ele>
        <time>2013-09-22T09:53:47.752Z</time>
      </trkpt>
      <trkpt lat="48.24773" lon="2.71163">
        <ele>123</ele>
        <time>2013-09-22T09:53:50.758Z</time>
      </trkpt>
      <trkpt lat="48.24773" lon="2.71164">
        <ele>123</ele>
        <time>2013-09-22T09:53:53.745Z</time>
      </trkpt>
      <trkpt lat="48.24773" lon="2.71164">
        <ele>123</ele>
        <time>2013-09-22T09:54:00.741Z</time>
      </trkpt>
      <trkpt lat="48.24768" lon="2.7116">
        <ele>123</ele>
        <time>2013-09-22T09:54:03.736Z</time>
      </trkpt>
      <trkpt lat="48.2476" lon="2.7116">
        <ele>122</ele>
        <time>2013-09-22T09:54:10.736Z</time>
      </trkpt>
      <trkpt lat="48.24758" lon="2.71164">
        <ele>122</ele>
        <time>2013-09-22T09:54:13.725Z</time>
      </trkpt>
      <trkpt lat="48.24752" lon="2.71172">
        <ele>122</ele>
        <time>2013-09-22T09:54:21.755Z</time>
      </trkpt>
      <trkpt lat="48.24752" lon="2.71174">
        <ele>122</ele>
        <time>2013-09-22T09:54:23.756Z</time>
      </trkpt>
      <trkpt lat="48.24748" lon="2.71185">
        <ele>122</ele>
        <time>2013-09-22T09:54:31.735Z</time>
      </trkpt>
      <trkpt lat="48.24747" lon="2.71188">
        <ele>123</ele>
        <time>2013-09-22T09:54:33.738Z</time>
      </trkpt>
      <trkpt lat="48.24744" lon="2.71198">
        <ele>123</ele>
        <time>2013-09-22T09:54:39.727Z</time>
      </trkpt>
      <trkpt lat="48.24742" lon="2.71202">
        <ele>123</ele>
        <time>2013-09-22T09:54:42.737Z</time>
      </trkpt>
      <trkpt lat="48.2474" lon="2.71214">
        <ele>123</ele>
        <time>2013-09-22T09:54:51.758Z</time>
      </trkpt>
      <trkpt lat="48.2474" lon="2.71217">
        <ele>123</ele>
        <time>2013-09-22T09:54:54.766Z</time>
      </trkpt>
      <trkpt lat="48.24736" lon="2.71228">
        <ele>123</ele>
        <time>2013-09-22T09:55:11.739Z</time>
      </trkpt>
      <trkpt lat="48.24734" lon="2.71231">
        <ele>123</ele>
        <time>2013-09-22T09:55:14.752Z</time>
      </trkpt>
      <trkpt lat="48.24729" lon="2.71242">
        <ele>123</ele>
        <time>2013-09-22T09:55:22.739Z</time>
      </trkpt>
      <trkpt lat="48.24728" lon="2.71245">
        <ele>123</ele>
        <time>2013-09-22T09:55:24.765Z</time>
      </trkpt>
      <trkpt lat="48.24723" lon="2.71255">
        <ele>122</ele>
        <time>2013-09-22T09:55:31.736Z</time>
      </trkpt>
      <trkpt lat="48.24722" lon="2.71257">
        <ele>122</ele>
        <time>2013-09-22T09:55:33.741Z</time>
      </trkpt>
      <trkpt lat="48.24717" lon="2.71267">
        <ele>122</ele>
        <time>2013-09-22T09:55:41.743Z</time>
      </trkpt>
      <trkpt lat="48.24715" lon="2.7127">
        <ele>122</ele>
        <time>2013-09-22T09:55:44.748Z</time>
      </trkpt>
      <trkpt lat="48.24709" lon="2.71277">
        <ele>122</ele>
        <time>2013-09-22T09:55:51.772Z</time>
      </trkpt>
      <trkpt lat="48.24706" lon="2.71278">
        <ele>122</ele>
        <time>2013-09-22T09:55:54.732Z</time>
      </trkpt>
      <trkpt lat="48.24698" lon="2.71282">
        <ele>122</ele>
        <time>2013-09-22T09:56:00.706Z</time>
      </trkpt>
      <trkpt lat="48.24695" lon="2.71283">
        <ele>122</ele>
        <time>2013-09-22T09:56:02.714Z</time>
      </trkpt>
      <trkpt lat="48.24689" lon="2.71287">
        <ele>122</ele>
        <time>2013-09-22T09:56:08.740Z</time>
      </trkpt>
      <trkpt lat="48.24686" lon="2.71292">
        <ele>122</ele>
        <time>2013-09-22T09:56:11.727Z</time>
      </trkpt>
      <trkpt lat="48.24684" lon="2.713">
        <ele>122</ele>
        <time>2013-09-22T09:56:15.807Z</time>
      </trkpt>
      <trkpt lat="48.24682" lon="2.71306">
        <ele>121</ele>
        <time>2013-09-22T09:56:18.751Z</time>
      </trkpt>
      <trkpt lat="48.24679" lon="2.71318">
        <ele>121</ele>
        <time>2013-09-22T09:56:25.770Z</time>
      </trkpt>
      <trkpt lat="48.24677" lon="2.71319">
        <ele>121</ele>
        <time>2013-09-22T09:56:28.748Z</time>
      </trkpt>
      <trkpt lat="48.24678" lon="2.71319">
        <ele>121</ele>
        <time>2013-09-22T09:56:31.740Z</time>
      </trkpt>
      <trkpt lat="48.24677" lon="2.7132">
        <ele>121</ele>
        <time>2013-09-22T09:56:34.729Z</time>
      </trkpt>
      <trkpt lat="48.24671" lon="2.71329">
        <ele>120</ele>
        <time>2013-09-22T09:56:41.750Z</time>
      </trkpt>
      <trkpt lat="48.2467" lon="2.71332">
        <ele>120</ele>
        <time>2013-09-22T09:56:44.745Z</time>
      </trkpt>
      <trkpt lat="48.24664" lon="2.71342">
        <ele>120</ele>
        <time>2013-09-22T09:56:54.768Z</time>
      </trkpt>
      <trkpt lat="48.24662" lon="2.71346">
        <ele>120</ele>
        <time>2013-09-22T09:56:57.762Z</time>
      </trkpt>
      <trkpt lat="48.24659" lon="2.71358">
        <ele>120</ele>
        <time>2013-09-22T09:57:04.750Z</time>
      </trkpt>
      <trkpt lat="48.24659" lon="2.71361">
        <ele>120</ele>
        <time>2013-09-22T09:57:06.752Z</time>
      </trkpt>
      <trkpt lat="48.24656" lon="2.7137">
        <ele>120</ele>
        <time>2013-09-22T09:57:11.746Z</time>
      </trkpt>
      <trkpt lat="48.24654" lon="2.71374">
        <ele>120</ele>
        <time>2013-09-22T09:57:14.751Z</time>
      </trkpt>
      <trkpt lat="48.24648" lon="2.71383">
        <ele>120</ele>
        <time>2013-09-22T09:57:20.774Z</time>
      </trkpt>
      <trkpt lat="48.24646" lon="2.71387">
        <ele>120</ele>
        <time>2013-09-22T09:57:23.762Z</time>
      </trkpt>
      <trkpt lat="48.2464" lon="2.71394">
        <ele>120</ele>
        <time>2013-09-22T09:57:30.746Z</time>
      </trkpt>
      <trkpt lat="48.24637" lon="2.71395">
        <ele>120</ele>
        <time>2013-09-22T09:57:33.738Z</time>
      </trkpt>
      <trkpt lat="48.24629" lon="2.71397">
        <ele>120</ele>
        <time>2013-09-22T09:57:40.750Z</time>
      </trkpt>
      <trkpt lat="48.24625" lon="2.71399">
        <ele>120</ele>
        <time>2013-09-22T09:57:43.726Z</time>
      </trkpt>
      <trkpt lat="48.2462" lon="2.71407">
        <ele>120</ele>
        <time>2013-09-22T09:57:48.766Z</time>
      </trkpt>
      <trkpt lat="48.24617" lon="2.71411">
        <ele>120</ele>
        <time>2013-09-22T09:57:51.753Z</time>
      </trkpt>
      <trkpt lat="48.24614" lon="2.71421">
        <ele>120</ele>
        <time>2013-09-22T09:57:56.764Z</time>
      </trkpt>
      <trkpt lat="48.24615" lon="2.71424">
        <ele>120</ele>
        <time>2013-09-22T09:57:58.767Z</time>
      </trkpt>
      <trkpt lat="48.24615" lon="2.71437">
        <ele>120</ele>
        <time>2013-09-22T09:58:04.740Z</time>
      </trkpt>
      <trkpt lat="48.24613" lon="2.71441">
        <ele>120</ele>
        <time>2013-09-22T09:58:06.742Z</time>
      </trkpt>
      <trkpt lat="48.24607" lon="2.71448">
        <ele>120</ele>
        <time>2013-09-22T09:58:11.745Z</time>
      </trkpt>
      <trkpt lat="48.24604" lon="2.71451">
        <ele>120</ele>
        <time>2013-09-22T09:58:14.748Z</time>
      </trkpt>
      <trkpt lat="48.24601" lon="2.7146">
        <ele>120</ele>
        <time>2013-09-22T09:58:19.737Z</time>
      </trkpt>
      <trkpt lat="48.246" lon="2.71464">
        <ele>120</ele>
        <time>2013-09-22T09:58:21.737Z</time>
      </trkpt>
      <trkpt lat="48.24598" lon="2.71472">
        <ele>120</ele>
        <time>2013-09-22T09:58:25.753Z</time>
      </trkpt>
      <trkpt lat="48.24597" lon="2.71478">
        <ele>120</ele>
        <time>2013-09-22T09:58:28.749Z</time>
      </trkpt>
      <trkpt lat="48.24592" lon="2.71486">
        <ele>121</ele>
        <time>2013-09-22T09:58:34.736Z</time>
      </trkpt>
      <trkpt lat="48.24589" lon="2.71488">
        <ele>121</ele>
        <time>2013-09-22T09:58:36.740Z</time>
      </trkpt>
      <trkpt lat="48.24586" lon="2.71497">
        <ele>121</ele>
        <time>2013-09-22T09:58:41.734Z</time>
      </trkpt>
      <trkpt lat="48.24586" lon="2.71501">
        <ele>121</ele>
        <time>2013-09-22T09:58:43.745Z</time>
      </trkpt>
      <trkpt lat="48.24583" lon="2.71511">
        <ele>121</ele>
        <time>2013-09-22T09:58:48.738Z</time>
      </trkpt>
      <trkpt lat="48.24582" lon="2.71515">
        <ele>121</ele>
        <time>2013-09-22T09:58:50.753Z</time>
      </trkpt>
      <trkpt lat="48.2458" lon="2.71524">
        <ele>121</ele>
        <time>2013-09-22T09:58:55.748Z</time>
      </trkpt>
      <trkpt lat="48.24579" lon="2.71528">
        <ele>121</ele>
        <time>2013-09-22T09:58:57.753Z</time>
      </trkpt>
      <trkpt lat="48.24577" lon="2.71541">
        <ele>121</ele>
        <time>2013-09-22T09:59:02.748Z</time>
      </trkpt>
      <trkpt lat="48.24574" lon="2.71548">
        <ele>121</ele>
        <time>2013-09-22T09:59:05.737Z</time>
      </trkpt>
      <trkpt lat="48.24571" lon="2.71555">
        <ele>121</ele>
        <time>2013-09-22T09:59:08.741Z</time>
      </trkpt>
      <trkpt lat="48.24568" lon="2.71565">
        <ele>121</ele>
        <time>2013-09-22T09:59:11.732Z</time>
      </trkpt>
      <trkpt lat="48.24566" lon="2.71571">
        <ele>121</ele>
        <time>2013-09-22T09:59:13.735Z</time>
      </trkpt>
      <trkpt lat="48.24562" lon="2.71576">
        <ele>121</ele>
        <time>2013-09-22T09:59:15.776Z</time>
      </trkpt>
      <trkpt lat="48.24557" lon="2.71582">
        <ele>121</ele>
        <time>2013-09-22T09:59:18.737Z</time>
      </trkpt>
      <trkpt lat="48.24554" lon="2.71584">
        <ele>121</ele>
        <time>2013-09-22T09:59:20.766Z</time>
      </trkpt>
      <trkpt lat="48.24549" lon="2.71587">
        <ele>121</ele>
        <time>2013-09-22T09:59:23.744Z</time>
      </trkpt>
      <trkpt lat="48.24545" lon="2.7159">
        <ele>121</ele>
        <time>2013-09-22T09:59:26.758Z</time>
      </trkpt>
      <trkpt lat="48.24537" lon="2.71596">
        <ele>121</ele>
        <time>2013-09-22T09:59:31.759Z</time>
      </trkpt>
      <trkpt lat="48.24534" lon="2.716">
        <ele>121</ele>
        <time>2013-09-22T09:59:34.729Z</time>
      </trkpt>
      <trkpt lat="48.24531" lon="2.71609">
        <ele>121</ele>
        <time>2013-09-22T09:59:38.764Z</time>
      </trkpt>
      <trkpt lat="48.24529" lon="2.71614">
        <ele>121</ele>
        <time>2013-09-22T09:59:41.728Z</time>
      </trkpt>
      <trkpt lat="48.24523" lon="2.7162">
        <ele>121</ele>
        <time>2013-09-22T09:59:48.748Z</time>
      </trkpt>
      <trkpt lat="48.24521" lon="2.71621">
        <ele>121</ele>
        <time>2013-09-22T09:59:50.758Z</time>
      </trkpt>
      <trkpt lat="48.24513" lon="2.71625">
        <ele>121</ele>
        <time>2013-09-22T09:59:59.743Z</time>
      </trkpt>
      <trkpt lat="48.2451" lon="2.71626">
        <ele>122</ele>
        <time>2013-09-22T10:00:02.732Z</time>
      </trkpt>
      <trkpt lat="48.24504" lon="2.71633">
        <ele>122</ele>
        <time>2013-09-22T10:00:10.732Z</time>
      </trkpt>
      <trkpt lat="48.24502" lon="2.71635">
        <ele>122</ele>
        <time>2013-09-22T10:00:12.736Z</time>
      </trkpt>
      <trkpt lat="48.24495" lon="2.71644">
        <ele>123</ele>
        <time>2013-09-22T10:00:19.748Z</time>
      </trkpt>
      <trkpt lat="48.24492" lon="2.7165">
        <ele>123</ele>
        <time>2013-09-22T10:00:22.741Z</time>
      </trkpt>
      <trkpt lat="48.24488" lon="2.71655">
        <ele>123</ele>
        <time>2013-09-22T10:00:24.745Z</time>
      </trkpt>
      <trkpt lat="48.24485" lon="2.7166">
        <ele>123</ele>
        <time>2013-09-22T10:00:26.763Z</time>
      </trkpt>
      <trkpt lat="48.2448" lon="2.71663">
        <ele>123</ele>
        <time>2013-09-22T10:00:29.740Z</time>
      </trkpt>
      <trkpt lat="48.24476" lon="2.71665">
        <ele>123</ele>
        <time>2013-09-22T10:00:31.743Z</time>
      </trkpt>
      <trkpt lat="48.2447" lon="2.71672">
        <ele>124</ele>
        <time>2013-09-22T10:00:36.732Z</time>
      </trkpt>
      <trkpt lat="48.24467" lon="2.71675">
        <ele>124</ele>
        <time>2013-09-22T10:00:38.745Z</time>
      </trkpt>
      <trkpt lat="48.24462" lon="2.71683">
        <ele>124</ele>
        <time>2013-09-22T10:00:46.758Z</time>
      </trkpt>
      <trkpt lat="48.24459" lon="2.71689">
        <ele>124</ele>
        <time>2013-09-22T10:00:49.751Z</time>
      </trkpt>
      <trkpt lat="48.24451" lon="2.71696">
        <ele>124</ele>
        <time>2013-09-22T10:00:56.744Z</time>
      </trkpt>
      <trkpt lat="48.24447" lon="2.71696">
        <ele>124</ele>
        <time>2013-09-22T10:00:58.747Z</time>
      </trkpt>
      <trkpt lat="48.2444" lon="2.71701">
        <ele>124</ele>
        <time>2013-09-22T10:01:04.734Z</time>
      </trkpt>
      <trkpt lat="48.24438" lon="2.71703">
        <ele>124</ele>
        <time>2013-09-22T10:01:06.757Z</time>
      </trkpt>
      <trkpt lat="48.24432" lon="2.71708">
        <ele>124</ele>
        <time>2013-09-22T10:01:11.738Z</time>
      </trkpt>
      <trkpt lat="48.24429" lon="2.7171">
        <ele>124</ele>
        <time>2013-09-22T10:01:14.743Z</time>
      </trkpt>
      <trkpt lat="48.24425" lon="2.7172">
        <ele>124</ele>
        <time>2013-09-22T10:01:21.742Z</time>
      </trkpt>
      <trkpt lat="48.24423" lon="2.71722">
        <ele>124</ele>
        <time>2013-09-22T10:01:23.753Z</time>
      </trkpt>
      <trkpt lat="48.24418" lon="2.71728">
        <ele>124</ele>
        <time>2013-09-22T10:01:28.758Z</time>
      </trkpt>
      <trkpt lat="48.24415" lon="2.71731">
        <ele>124</ele>
        <time>2013-09-22T10:01:31.737Z</time>
      </trkpt>
      <trkpt lat="48.24407" lon="2.71735">
        <ele>124</ele>
        <time>2013-09-22T10:01:36.742Z</time>
      </trkpt>
      <trkpt lat="48.24404" lon="2.71739">
        <ele>124</ele>
        <time>2013-09-22T10:01:38.747Z</time>
      </trkpt>
      <trkpt lat="48.24401" lon="2.71751">
        <ele>124</ele>
        <time>2013-09-22T10:01:46.761Z</time>
      </trkpt>
      <trkpt lat="48.24401" lon="2.71754">
        <ele>124</ele>
        <time>2013-09-22T10:01:49.745Z</time>
      </trkpt>
      <trkpt lat="48.24401" lon="2.71767">
        <ele>124</ele>
        <time>2013-09-22T10:01:56.754Z</time>
      </trkpt>
      <trkpt lat="48.24399" lon="2.71773">
        <ele>124</ele>
        <time>2013-09-22T10:01:59.746Z</time>
      </trkpt>
      <trkpt lat="48.24397" lon="2.71785">
        <ele>124</ele>
        <time>2013-09-22T10:02:05.732Z</time>
      </trkpt>
      <trkpt lat="48.24396" lon="2.71789">
        <ele>124</ele>
        <time>2013-09-22T10:02:07.737Z</time>
      </trkpt>
      <trkpt lat="48.24391" lon="2.71796">
        <ele>124</ele>
        <time>2013-09-22T10:02:13.729Z</time>
      </trkpt>
      <trkpt lat="48.2439" lon="2.718">
        <ele>124</ele>
        <time>2013-09-22T10:02:15.735Z</time>
      </trkpt>
      <trkpt lat="48.24385" lon="2.71811">
        <ele>124</ele>
        <time>2013-09-22T10:02:20.749Z</time>
      </trkpt>
      <trkpt lat="48.24384" lon="2.71815">
        <ele>124</ele>
        <time>2013-09-22T10:02:22.753Z</time>
      </trkpt>
      <trkpt lat="48.24379" lon="2.71821">
        <ele>124</ele>
        <time>2013-09-22T10:02:27.734Z</time>
      </trkpt>
      <trkpt lat="48.24375" lon="2.71823">
        <ele>124</ele>
        <time>2013-09-22T10:02:30.734Z</time>
      </trkpt>
      <trkpt lat="48.24369" lon="2.71828">
        <ele>124</ele>
        <time>2013-09-22T10:02:34.735Z</time>
      </trkpt>
      <trkpt lat="48.24366" lon="2.71831">
        <ele>124</ele>
        <time>2013-09-22T10:02:36.712Z</time>
      </trkpt>
      <trkpt lat="48.24359" lon="2.71835">
        <ele>124</ele>
        <time>2013-09-22T10:02:41.743Z</time>
      </trkpt>
      <trkpt lat="48.24356" lon="2.71838">
        <ele>124</ele>
        <time>2013-09-22T10:02:44.746Z</time>
      </trkpt>
      <trkpt lat="48.2435" lon="2.71841">
        <ele>124</ele>
        <time>2013-09-22T10:02:49.737Z</time>
      </trkpt>
      <trkpt lat="48.24347" lon="2.71843">
        <ele>124</ele>
        <time>2013-09-22T10:02:51.762Z</time>
      </trkpt>
      <trkpt lat="48.24342" lon="2.71845">
        <ele>124</ele>
        <time>2013-09-22T10:02:54.755Z</time>
      </trkpt>
      <trkpt lat="48.24338" lon="2.71846">
        <ele>124</ele>
        <time>2013-09-22T10:02:57.742Z</time>
      </trkpt>
      <trkpt lat="48.24331" lon="2.71847">
        <ele>124</ele>
        <time>2013-09-22T10:03:02.738Z</time>
      </trkpt>
      <trkpt lat="48.24327" lon="2.71847">
        <ele>124</ele>
        <time>2013-09-22T10:03:05.742Z</time>
      </trkpt>
      <trkpt lat="48.2432" lon="2.71847">
        <ele>124</ele>
        <time>2013-09-22T10:03:10.739Z</time>
      </trkpt>
      <trkpt lat="48.24318" lon="2.71846">
        <ele>124</ele>
        <time>2013-09-22T10:03:12.739Z</time>
      </trkpt>
      <trkpt lat="48.2431" lon="2.71841">
        <ele>124</ele>
        <time>2013-09-22T10:03:18.758Z</time>
      </trkpt>
      <trkpt lat="48.24308" lon="2.71839">
        <ele>124</ele>
        <time>2013-09-22T10:03:20.758Z</time>
      </trkpt>
      <trkpt lat="48.24303" lon="2.71835">
        <ele>124</ele>
        <time>2013-09-22T10:03:25.781Z</time>
      </trkpt>
      <trkpt lat="48.243" lon="2.71831">
        <ele>123</ele>
        <time>2013-09-22T10:03:28.764Z</time>
      </trkpt>
      <trkpt lat="48.24291" lon="2.71828">
        <ele>123</ele>
        <time>2013-09-22T10:03:36.712Z</time>
      </trkpt>
      <trkpt lat="48.24288" lon="2.71829">
        <ele>123</ele>
        <time>2013-09-22T10:03:38.730Z</time>
      </trkpt>
      <trkpt lat="48.24285" lon="2.7183">
        <ele>123</ele>
        <time>2013-09-22T10:03:40.733Z</time>
      </trkpt>
      <trkpt lat="48.24279" lon="2.71832">
        <ele>123</ele>
        <time>2013-09-22T10:03:43.728Z</time>
      </trkpt>
      <trkpt lat="48.24271" lon="2.71834">
        <ele>123</ele>
        <time>2013-09-22T10:03:47.736Z</time>
      </trkpt>
      <trkpt lat="48.24268" lon="2.71834">
        <ele>123</ele>
        <time>2013-09-22T10:03:49.738Z</time>
      </trkpt>
      <trkpt lat="48.24264" lon="2.71836">
        <ele>123</ele>
        <time>2013-09-22T10:03:52.749Z</time>
      </trkpt>
      <trkpt lat="48.24258" lon="2.71836">
        <ele>123</ele>
        <time>2013-09-22T10:03:55.729Z</time>
      </trkpt>
      <trkpt lat="48.2425" lon="2.71836">
        <ele>123</ele>
        <time>2013-09-22T10:04:00.732Z</time>
      </trkpt>
      <trkpt lat="48.24247" lon="2.71837">
        <ele>123</ele>
        <time>2013-09-22T10:04:02.745Z</time>
      </trkpt>
      <trkpt lat="48.24239" lon="2.71838">
        <ele>122</ele>
        <time>2013-09-22T10:04:07.728Z</time>
      </trkpt>
      <trkpt lat="48.24236" lon="2.71838">
        <ele>122</ele>
        <time>2013-09-22T10:04:09.742Z</time>
      </trkpt>
      <trkpt lat="48.24228" lon="2.71841">
        <ele>122</ele>
        <time>2013-09-22T10:04:15.757Z</time>
      </trkpt>
      <trkpt lat="48.24223" lon="2.71843">
        <ele>122</ele>
        <time>2013-09-22T10:04:18.740Z</time>
      </trkpt>
      <trkpt lat="48.24216" lon="2.71843">
        <ele>122</ele>
        <time>2013-09-22T10:04:22.746Z</time>
      </trkpt>
      <trkpt lat="48.24213" lon="2.71843">
        <ele>122</ele>
        <time>2013-09-22T10:04:24.746Z</time>
      </trkpt>
      <trkpt lat="48.24205" lon="2.71839">
        <ele>121</ele>
        <time>2013-09-22T10:04:31.739Z</time>
      </trkpt>
      <trkpt lat="48.242" lon="2.71836">
        <ele>121</ele>
        <time>2013-09-22T10:04:34.727Z</time>
      </trkpt>
      <trkpt lat="48.24196" lon="2.7183">
        <ele>122</ele>
        <time>2013-09-22T10:04:38.741Z</time>
      </trkpt>
      <trkpt lat="48.24194" lon="2.71825">
        <ele>122</ele>
        <time>2013-09-22T10:04:41.733Z</time>
      </trkpt>
      <trkpt lat="48.24191" lon="2.71818">
        <ele>122</ele>
        <time>2013-09-22T10:04:46.748Z</time>
      </trkpt>
      <trkpt lat="48.24189" lon="2.71813">
        <ele>122</ele>
        <time>2013-09-22T10:04:49.724Z</time>
      </trkpt>
      <trkpt lat="48.24183" lon="2.71806">
        <ele>122</ele>
        <time>2013-09-22T10:04:53.735Z</time>
      </trkpt>
      <trkpt lat="48.24179" lon="2.71802">
        <ele>122</ele>
        <time>2013-09-22T10:04:56.733Z</time>
      </trkpt>
      <trkpt lat="48.24174" lon="2.71796">
        <ele>122</ele>
        <time>2013-09-22T10:05:00.738Z</time>
      </trkpt>
      <trkpt lat="48.24172" lon="2.71792">
        <ele>122</ele>
        <time>2013-09-22T10:05:02.738Z</time>
      </trkpt>
      <trkpt lat="48.24167" lon="2.71786">
        <ele>122</ele>
        <time>2013-09-22T10:05:05.721Z</time>
      </trkpt>
      <trkpt lat="48.24165" lon="2.71783">
        <ele>120</ele>
        <time>2013-09-22T10:05:07.730Z</time>
      </trkpt>
      <trkpt lat="48.24159" lon="2.71774">
        <ele>121</ele>
        <time>2013-09-22T10:05:12.723Z</time>
      </trkpt>
      <trkpt lat="48.24154" lon="2.71768">
        <ele>121</ele>
        <time>2013-09-22T10:05:15.738Z</time>
      </trkpt>
      <trkpt lat="48.24148" lon="2.71761">
        <ele>121</ele>
        <time>2013-09-22T10:05:19.753Z</time>
      </trkpt>
      <trkpt lat="48.24143" lon="2.71758">
        <ele>121</ele>
        <time>2013-09-22T10:05:22.741Z</time>
      </trkpt>
      <trkpt lat="48.24137" lon="2.71755">
        <ele>120</ele>
        <time>2013-09-22T10:05:26.749Z</time>
      </trkpt>
      <trkpt lat="48.24133" lon="2.71754">
        <ele>120</ele>
        <time>2013-09-22T10:05:28.750Z</time>
      </trkpt>
      <trkpt lat="48.24126" lon="2.71751">
        <ele>120</ele>
        <time>2013-09-22T10:05:33.753Z</time>
      </trkpt>
      <trkpt lat="48.24124" lon="2.71751">
        <ele>120</ele>
        <time>2013-09-22T10:05:36.724Z</time>
      </trkpt>
      <trkpt lat="48.24122" lon="2.71751">
        <ele>120</ele>
        <time>2013-09-22T10:05:38.752Z</time>
      </trkpt>
      <trkpt lat="48.24122" lon="2.71751">
        <ele>120</ele>
        <time>2013-09-22T10:05:41.738Z</time>
      </trkpt>
      <trkpt lat="48.24122" lon="2.71751">
        <ele>120</ele>
        <time>2013-09-22T10:06:16.763Z</time>
      </trkpt>
      <trkpt lat="48.24121" lon="2.71751">
        <ele>120</ele>
        <time>2013-09-22T10:06:19.770Z</time>
      </trkpt>
      <trkpt lat="48.2412" lon="2.71751">
        <ele>120</ele>
        <time>2013-09-22T10:06:22.755Z</time>
      </trkpt>
      <trkpt lat="48.2412" lon="2.71751">
        <ele>120</ele>
        <time>2013-09-22T10:06:24.755Z</time>
      </trkpt>
      <trkpt lat="48.2412" lon="2.71751">
        <ele>120</ele>
        <time>2013-09-22T10:06:45.755Z</time>
      </trkpt>
      <trkpt lat="48.24118" lon="2.7175">
        <ele>120</ele>
        <time>2013-09-22T10:06:47.761Z</time>
      </trkpt>
      <trkpt lat="48.24112" lon="2.71743">
        <ele>119</ele>
        <time>2013-09-22T10:06:53.753Z</time>
      </trkpt>
      <trkpt lat="48.2411" lon="2.71738">
        <ele>119</ele>
        <time>2013-09-22T10:06:56.768Z</time>
      </trkpt>
      <trkpt lat="48.24109" lon="2.71729">
        <ele>119</ele>
        <time>2013-09-22T10:07:03.740Z</time>
      </trkpt>
      <trkpt lat="48.24109" lon="2.71725">
        <ele>119</ele>
        <time>2013-09-22T10:07:06.738Z</time>
      </trkpt>
      <trkpt lat="48.24108" lon="2.71713">
        <ele>119</ele>
        <time>2013-09-22T10:07:14.751Z</time>
      </trkpt>
      <trkpt lat="48.24108" lon="2.7171">
        <ele>119</ele>
        <time>2013-09-22T10:07:16.755Z</time>
      </trkpt>
      <trkpt lat="48.2411" lon="2.71698">
        <ele>119</ele>
        <time>2013-09-22T10:07:28.763Z</time>
      </trkpt>
      <trkpt lat="48.24111" lon="2.71695">
        <ele>119</ele>
        <time>2013-09-22T10:07:31.733Z</time>
      </trkpt>
      <trkpt lat="48.24108" lon="2.71683">
        <ele>118</ele>
        <time>2013-09-22T10:07:38.741Z</time>
      </trkpt>
      <trkpt lat="48.24107" lon="2.71677">
        <ele>118</ele>
        <time>2013-09-22T10:07:41.733Z</time>
      </trkpt>
      <trkpt lat="48.24109" lon="2.71666">
        <ele>115</ele>
        <time>2013-09-22T10:07:49.750Z</time>
      </trkpt>
      <trkpt lat="48.2411" lon="2.71664">
        <ele>115</ele>
        <time>2013-09-22T10:07:51.760Z</time>
      </trkpt>
      <trkpt lat="48.24106" lon="2.71653">
        <ele>115</ele>
        <time>2013-09-22T10:08:01.741Z</time>
      </trkpt>
      <trkpt lat="48.24103" lon="2.71648">
        <ele>115</ele>
        <time>2013-09-22T10:08:04.740Z</time>
      </trkpt>
      <trkpt lat="48.24101" lon="2.71636">
        <ele>115</ele>
        <time>2013-09-22T10:08:09.730Z</time>
      </trkpt>
      <trkpt lat="48.24098" lon="2.71629">
        <ele>114</ele>
        <time>2013-09-22T10:08:12.733Z</time>
      </trkpt>
      <trkpt lat="48.24095" lon="2.71622">
        <ele>114</ele>
        <time>2013-09-22T10:08:15.736Z</time>
      </trkpt>
      <trkpt lat="48.24091" lon="2.71615">
        <ele>114</ele>
        <time>2013-09-22T10:08:18.735Z</time>
      </trkpt>
      <trkpt lat="48.24087" lon="2.71609">
        <ele>114</ele>
        <time>2013-09-22T10:08:22.764Z</time>
      </trkpt>
      <trkpt lat="48.24083" lon="2.71606">
        <ele>113</ele>
        <time>2013-09-22T10:08:25.748Z</time>
      </trkpt>
      <trkpt lat="48.24077" lon="2.71606">
        <ele>113</ele>
        <time>2013-09-22T10:08:29.757Z</time>
      </trkpt>
      <trkpt lat="48.24073" lon="2.71606">
        <ele>112</ele>
        <time>2013-09-22T10:08:32.729Z</time>
      </trkpt>
      <trkpt lat="48.24067" lon="2.71605">
        <ele>112</ele>
        <time>2013-09-22T10:08:36.710Z</time>
      </trkpt>
      <trkpt lat="48.24064" lon="2.71604">
        <ele>112</ele>
        <time>2013-09-22T10:08:38.714Z</time>
      </trkpt>
      <trkpt lat="48.24057" lon="2.71605">
        <ele>112</ele>
        <time>2013-09-22T10:08:42.720Z</time>
      </trkpt>
      <trkpt lat="48.24054" lon="2.71605">
        <ele>112</ele>
        <time>2013-09-22T10:08:44.736Z</time>
      </trkpt>
      <trkpt lat="48.24046" lon="2.71608">
        <ele>112</ele>
        <time>2013-09-22T10:08:49.770Z</time>
      </trkpt>
      <trkpt lat="48.24041" lon="2.7161">
        <ele>111</ele>
        <time>2013-09-22T10:08:52.761Z</time>
      </trkpt>
      <trkpt lat="48.24035" lon="2.71613">
        <ele>111</ele>
        <time>2013-09-22T10:08:57.782Z</time>
      </trkpt>
      <trkpt lat="48.24032" lon="2.71613">
        <ele>111</ele>
        <time>2013-09-22T10:09:00.721Z</time>
      </trkpt>
      <trkpt lat="48.24023" lon="2.71612">
        <ele>110</ele>
        <time>2013-09-22T10:09:04.712Z</time>
      </trkpt>
      <trkpt lat="48.24018" lon="2.71611">
        <ele>110</ele>
        <time>2013-09-22T10:09:07.710Z</time>
      </trkpt>
      <trkpt lat="48.24012" lon="2.71608">
        <ele>110</ele>
        <time>2013-09-22T10:09:11.718Z</time>
      </trkpt>
      <trkpt lat="48.24008" lon="2.71606">
        <ele>109</ele>
        <time>2013-09-22T10:09:13.719Z</time>
      </trkpt>
      <trkpt lat="48.24003" lon="2.71599">
        <ele>109</ele>
        <time>2013-09-22T10:09:18.746Z</time>
      </trkpt>
      <trkpt lat="48.24002" lon="2.71595">
        <ele>108</ele>
        <time>2013-09-22T10:09:21.743Z</time>
      </trkpt>
      <trkpt lat="48.24004" lon="2.71583">
        <ele>107</ele>
        <time>2013-09-22T10:09:27.762Z</time>
      </trkpt>
      <trkpt lat="48.24003" lon="2.71576">
        <ele>107</ele>
        <time>2013-09-22T10:09:30.727Z</time>
      </trkpt>
      <trkpt lat="48.24002" lon="2.71575">
        <ele>107</ele>
        <time>2013-09-22T10:09:33.716Z</time>
      </trkpt>
      <trkpt lat="48.24002" lon="2.71575">
        <ele>107</ele>
        <time>2013-09-22T10:09:35.745Z</time>
      </trkpt>
      <trkpt lat="48.24001" lon="2.71572">
        <ele>107</ele>
        <time>2013-09-22T10:09:38.720Z</time>
      </trkpt>
      <trkpt lat="48.23996" lon="2.71563">
        <ele>107</ele>
        <time>2013-09-22T10:09:45.725Z</time>
      </trkpt>
      <trkpt lat="48.23992" lon="2.71557">
        <ele>107</ele>
        <time>2013-09-22T10:09:49.189Z</time>
      </trkpt>
      <trkpt lat="48.23991" lon="2.71553">
        <ele>107</ele>
        <time>2013-09-22T10:09:54.264Z</time>
      </trkpt>
      <trkpt lat="48.23991" lon="2.71554">
        <ele>107</ele>
        <time>2013-09-22T10:09:56.281Z</time>
      </trkpt>
      <trkpt lat="48.23988" lon="2.71548">
        <ele>107</ele>
        <time>2013-09-22T10:09:59.248Z</time>
      </trkpt>
      <trkpt lat="48.23986" lon="2.71535">
        <ele>107</ele>
        <time>2013-09-22T10:10:08.218Z</time>
      </trkpt>
      <trkpt lat="48.23987" lon="2.71534">
        <ele>107</ele>
        <time>2013-09-22T10:10:11.206Z</time>
      </trkpt>
      <trkpt lat="48.23989" lon="2.71521">
        <ele>107</ele>
        <time>2013-09-22T10:10:23.281Z</time>
      </trkpt>
      <trkpt lat="48.23989" lon="2.71522">
        <ele>107</ele>
        <time>2013-09-22T10:10:25.308Z</time>
      </trkpt>
      <trkpt lat="48.23989" lon="2.71522">
        <ele>107</ele>
        <time>2013-09-22T10:10:28.261Z</time>
      </trkpt>
      <trkpt lat="48.2399" lon="2.71519">
        <ele>107</ele>
        <time>2013-09-22T10:10:31.221Z</time>
      </trkpt>
      <trkpt lat="48.23994" lon="2.71509">
        <ele>106</ele>
        <time>2013-09-22T10:10:38.225Z</time>
      </trkpt>
      <trkpt lat="48.23994" lon="2.71507">
        <ele>106</ele>
        <time>2013-09-22T10:10:40.226Z</time>
      </trkpt>
      <trkpt lat="48.23996" lon="2.71499">
        <ele>105</ele>
        <time>2013-09-22T10:10:45.308Z</time>
      </trkpt>
      <trkpt lat="48.23997" lon="2.71492">
        <ele>105</ele>
        <time>2013-09-22T10:10:48.262Z</time>
      </trkpt>
      <trkpt lat="48.23999" lon="2.71482">
        <ele>105</ele>
        <time>2013-09-22T10:10:55.284Z</time>
      </trkpt>
      <trkpt lat="48.24" lon="2.71479">
        <ele>105</ele>
        <time>2013-09-22T10:10:58.250Z</time>
      </trkpt>
      <trkpt lat="48.24" lon="2.71466">
        <ele>104</ele>
        <time>2013-09-22T10:11:08.221Z</time>
      </trkpt>
      <trkpt lat="48.24" lon="2.71467">
        <ele>104</ele>
        <time>2013-09-22T10:11:10.221Z</time>
      </trkpt>
      <trkpt lat="48.24" lon="2.71467">
        <ele>104</ele>
        <time>2013-09-22T10:11:13.208Z</time>
      </trkpt>
      <trkpt lat="48.23996" lon="2.71462">
        <ele>104</ele>
        <time>2013-09-22T10:11:15.281Z</time>
      </trkpt>
      <trkpt lat="48.23997" lon="2.7146">
        <ele>104</ele>
        <time>2013-09-22T10:11:18.257Z</time>
      </trkpt>
      <trkpt lat="48.23997" lon="2.71461">
        <ele>104</ele>
        <time>2013-09-22T10:11:20.303Z</time>
      </trkpt>
      <trkpt lat="48.23997" lon="2.71461">
        <ele>104</ele>
        <time>2013-09-22T10:11:23.258Z</time>
      </trkpt>
      <trkpt lat="48.23997" lon="2.71462">
        <ele>104</ele>
        <time>2013-09-22T10:11:25.300Z</time>
      </trkpt>
      <trkpt lat="48.23997" lon="2.71464">
        <ele>104</ele>
        <time>2013-09-22T10:11:28.239Z</time>
      </trkpt>
      <trkpt lat="48.23997" lon="2.71463">
        <ele>104</ele>
        <time>2013-09-22T10:11:31.208Z</time>
      </trkpt>
      <trkpt lat="48.23997" lon="2.71463">
        <ele>104</ele>
        <time>2013-09-22T10:11:40.224Z</time>
      </trkpt>
      <trkpt lat="48.24" lon="2.7146">
        <ele>104</ele>
        <time>2013-09-22T10:11:43.222Z</time>
      </trkpt>
      <trkpt lat="48.24002" lon="2.71462">
        <ele>105</ele>
        <time>2013-09-22T10:11:48.261Z</time>
      </trkpt>
      <trkpt lat="48.24002" lon="2.71462">
        <ele>105</ele>
        <time>2013-09-22T10:11:50.301Z</time>
      </trkpt>
      <trkpt lat="48.24002" lon="2.71461">
        <ele>105</ele>
        <time>2013-09-22T10:11:55.285Z</time>
      </trkpt>
      <trkpt lat="48.24004" lon="2.71454">
        <ele>105</ele>
        <time>2013-09-22T10:11:58.251Z</time>
      </trkpt>
      <trkpt lat="48.24009" lon="2.7145">
        <ele>105</ele>
        <time>2013-09-22T10:12:09.224Z</time>
      </trkpt>
      <trkpt lat="48.2401" lon="2.71451">
        <ele>105</ele>
        <time>2013-09-22T10:12:12.220Z</time>
      </trkpt>
      <trkpt lat="48.2401" lon="2.7145">
        <ele>105</ele>
        <time>2013-09-22T10:12:16.263Z</time>
      </trkpt>
      <trkpt lat="48.24012" lon="2.71452">
        <ele>105</ele>
        <time>2013-09-22T10:12:19.261Z</time>
      </trkpt>
      <trkpt lat="48.24016" lon="2.71456">
        <ele>105</ele>
        <time>2013-09-22T10:12:23.263Z</time>
      </trkpt>
      <trkpt lat="48.24015" lon="2.71456">
        <ele>105</ele>
        <time>2013-09-22T10:12:25.340Z</time>
      </trkpt>
      <trkpt lat="48.24015" lon="2.71455">
        <ele>105</ele>
        <time>2013-09-22T10:12:33.217Z</time>
      </trkpt>
      <trkpt lat="48.24017" lon="2.71458">
        <ele>106</ele>
        <time>2013-09-22T10:12:36.203Z</time>
      </trkpt>
      <trkpt lat="48.24019" lon="2.71465">
        <ele>106</ele>
        <time>2013-09-22T10:12:43.208Z</time>
      </trkpt>
      <trkpt lat="48.24019" lon="2.71465">
        <ele>106</ele>
        <time>2013-09-22T10:12:45.302Z</time>
      </trkpt>
      <trkpt lat="48.24019" lon="2.71468">
        <ele>106</ele>
        <time>2013-09-22T10:12:48.278Z</time>
      </trkpt>
      <trkpt lat="48.2402" lon="2.71473">
        <ele>106</ele>
        <time>2013-09-22T10:12:53.271Z</time>
      </trkpt>
      <trkpt lat="48.2402" lon="2.71472">
        <ele>106</ele>
        <time>2013-09-22T10:12:55.270Z</time>
      </trkpt>
      <trkpt lat="48.24022" lon="2.71479">
        <ele>106</ele>
        <time>2013-09-22T10:12:58.255Z</time>
      </trkpt>
      <trkpt lat="48.24022" lon="2.71485">
        <ele>107</ele>
        <time>2013-09-22T10:13:05.226Z</time>
      </trkpt>
      <trkpt lat="48.24022" lon="2.71484">
        <ele>107</ele>
        <time>2013-09-22T10:13:08.233Z</time>
      </trkpt>
      <trkpt lat="48.24022" lon="2.71484">
        <ele>107</ele>
        <time>2013-09-22T10:13:14.233Z</time>
      </trkpt>
      <trkpt lat="48.24024" lon="2.71487">
        <ele>107</ele>
        <time>2013-09-22T10:13:16.276Z</time>
      </trkpt>
      <trkpt lat="48.24027" lon="2.71491">
        <ele>107</ele>
        <time>2013-09-22T10:13:21.258Z</time>
      </trkpt>
      <trkpt lat="48.24026" lon="2.71491">
        <ele>107</ele>
        <time>2013-09-22T10:13:23.290Z</time>
      </trkpt>
      <trkpt lat="48.24026" lon="2.7149">
        <ele>107</ele>
        <time>2013-09-22T10:13:28.270Z</time>
      </trkpt>
      <trkpt lat="48.24031" lon="2.71492">
        <ele>107</ele>
        <time>2013-09-22T10:13:31.210Z</time>
      </trkpt>
      <trkpt lat="48.24032" lon="2.71492">
        <ele>107</ele>
        <time>2013-09-22T10:13:33.218Z</time>
      </trkpt>
      <trkpt lat="48.24032" lon="2.71492">
        <ele>107</ele>
        <time>2013-09-22T10:13:35.218Z</time>
      </trkpt>
      <trkpt lat="48.24031" lon="2.71492">
        <ele>107</ele>
        <time>2013-09-22T10:13:38.227Z</time>
      </trkpt>
      <trkpt lat="48.24035" lon="2.7149">
        <ele>107</ele>
        <time>2013-09-22T10:13:41.218Z</time>
      </trkpt>
      <trkpt lat="48.24037" lon="2.71489">
        <ele>108</ele>
        <time>2013-09-22T10:13:44.224Z</time>
      </trkpt>
      <trkpt lat="48.24037" lon="2.71489">
        <ele>108</ele>
        <time>2013-09-22T10:13:46.257Z</time>
      </trkpt>
      <trkpt lat="48.24037" lon="2.71489">
        <ele>108</ele>
        <time>2013-09-22T10:13:50.348Z</time>
      </trkpt>
      <trkpt lat="48.24041" lon="2.71489">
        <ele>108</ele>
        <time>2013-09-22T10:13:53.274Z</time>
      </trkpt>
      <trkpt lat="48.24048" lon="2.71492">
        <ele>109</ele>
        <time>2013-09-22T10:14:02.217Z</time>
      </trkpt>
      <trkpt lat="48.2405" lon="2.71494">
        <ele>109</ele>
        <time>2013-09-22T10:14:05.213Z</time>
      </trkpt>
      <trkpt lat="48.24052" lon="2.71495">
        <ele>109</ele>
        <time>2013-09-22T10:14:10.222Z</time>
      </trkpt>
      <trkpt lat="48.24052" lon="2.71495">
        <ele>109</ele>
        <time>2013-09-22T10:14:12.226Z</time>
      </trkpt>
      <trkpt lat="48.24052" lon="2.71495">
        <ele>109</ele>
        <time>2013-09-22T10:14:28.265Z</time>
      </trkpt>
      <trkpt lat="48.24053" lon="2.71501">
        <ele>111</ele>
        <time>2013-09-22T10:14:31.227Z</time>
      </trkpt>
      <trkpt lat="48.24053" lon="2.71501">
        <ele>111</ele>
        <time>2013-09-22T10:14:34.217Z</time>
      </trkpt>
      <trkpt lat="48.24053" lon="2.71501">
        <ele>111</ele>
        <time>2013-09-22T10:14:36.213Z</time>
      </trkpt>
      <trkpt lat="48.24053" lon="2.71501">
        <ele>111</ele>
        <time>2013-09-22T10:16:46.247Z</time>
      </trkpt>
      <trkpt lat="48.24056" lon="2.71495">
        <ele>110</ele>
        <time>2013-09-22T10:16:48.274Z</time>
      </trkpt>
      <trkpt lat="48.24062" lon="2.71491">
        <ele>110</ele>
        <time>2013-09-22T10:16:53.257Z</time>
      </trkpt>
      <trkpt lat="48.24064" lon="2.7149">
        <ele>110</ele>
        <time>2013-09-22T10:16:55.272Z</time>
      </trkpt>
      <trkpt lat="48.2407" lon="2.71485">
        <ele>111</ele>
        <time>2013-09-22T10:17:01.235Z</time>
      </trkpt>
      <trkpt lat="48.24073" lon="2.71482">
        <ele>111</ele>
        <time>2013-09-22T10:17:04.230Z</time>
      </trkpt>
      <trkpt lat="48.24079" lon="2.71473">
        <ele>110</ele>
        <time>2013-09-22T10:17:10.254Z</time>
      </trkpt>
      <trkpt lat="48.24081" lon="2.71468">
        <ele>110</ele>
        <time>2013-09-22T10:17:13.244Z</time>
      </trkpt>
      <trkpt lat="48.24083" lon="2.71457">
        <ele>109</ele>
        <time>2013-09-22T10:17:20.337Z</time>
      </trkpt>
      <trkpt lat="48.24084" lon="2.71453">
        <ele>110</ele>
        <time>2013-09-22T10:17:23.255Z</time>
      </trkpt>
      <trkpt lat="48.24084" lon="2.71446">
        <ele>110</ele>
        <time>2013-09-22T10:17:31.214Z</time>
      </trkpt>
      <trkpt lat="48.24084" lon="2.71446">
        <ele>110</ele>
        <time>2013-09-22T10:17:33.230Z</time>
      </trkpt>
      <trkpt lat="48.24084" lon="2.71447">
        <ele>110</ele>
        <time>2013-09-22T10:17:36.225Z</time>
      </trkpt>
      <trkpt lat="48.24087" lon="2.71442">
        <ele>109</ele>
        <time>2013-09-22T10:17:38.235Z</time>
      </trkpt>
      <trkpt lat="48.24089" lon="2.7144">
        <ele>109</ele>
        <time>2013-09-22T10:17:41.224Z</time>
      </trkpt>
      <trkpt lat="48.24089" lon="2.7144">
        <ele>109</ele>
        <time>2013-09-22T10:17:43.238Z</time>
      </trkpt>
      <trkpt lat="48.24089" lon="2.71441">
        <ele>109</ele>
        <time>2013-09-22T10:17:45.265Z</time>
      </trkpt>
      <trkpt lat="48.24089" lon="2.71437">
        <ele>109</ele>
        <time>2013-09-22T10:17:47.292Z</time>
      </trkpt>
      <trkpt lat="48.24089" lon="2.71424">
        <ele>109</ele>
        <time>2013-09-22T10:17:55.273Z</time>
      </trkpt>
      <trkpt lat="48.24089" lon="2.71419">
        <ele>109</ele>
        <time>2013-09-22T10:17:58.264Z</time>
      </trkpt>
      <trkpt lat="48.24089" lon="2.7141">
        <ele>108</ele>
        <time>2013-09-22T10:18:04.226Z</time>
      </trkpt>
      <trkpt lat="48.24089" lon="2.71405">
        <ele>107</ele>
        <time>2013-09-22T10:18:07.252Z</time>
      </trkpt>
      <trkpt lat="48.24089" lon="2.71397">
        <ele>107</ele>
        <time>2013-09-22T10:18:12.233Z</time>
      </trkpt>
      <trkpt lat="48.2409" lon="2.7139">
        <ele>106</ele>
        <time>2013-09-22T10:18:15.271Z</time>
      </trkpt>
      <trkpt lat="48.24091" lon="2.71377">
        <ele>105</ele>
        <time>2013-09-22T10:18:22.253Z</time>
      </trkpt>
      <trkpt lat="48.24091" lon="2.71374">
        <ele>105</ele>
        <time>2013-09-22T10:18:24.262Z</time>
      </trkpt>
      <trkpt lat="48.24092" lon="2.71366">
        <ele>105</ele>
        <time>2013-09-22T10:18:29.254Z</time>
      </trkpt>
      <trkpt lat="48.24092" lon="2.71366">
        <ele>105</ele>
        <time>2013-09-22T10:18:32.207Z</time>
      </trkpt>
      <trkpt lat="48.24093" lon="2.71359">
        <ele>105</ele>
        <time>2013-09-22T10:18:34.232Z</time>
      </trkpt>
      <trkpt lat="48.24095" lon="2.71348">
        <ele>104</ele>
        <time>2013-09-22T10:18:41.224Z</time>
      </trkpt>
      <trkpt lat="48.24096" lon="2.71346">
        <ele>104</ele>
        <time>2013-09-22T10:18:43.226Z</time>
      </trkpt>
      <trkpt lat="48.24096" lon="2.71347">
        <ele>104</ele>
        <time>2013-09-22T10:18:45.313Z</time>
      </trkpt>
      <trkpt lat="48.24096" lon="2.71347">
        <ele>104</ele>
        <time>2013-09-22T10:18:48.280Z</time>
      </trkpt>
      <trkpt lat="48.24099" lon="2.71343">
        <ele>104</ele>
        <time>2013-09-22T10:18:50.298Z</time>
      </trkpt>
      <trkpt lat="48.24101" lon="2.71341">
        <ele>104</ele>
        <time>2013-09-22T10:18:53.223Z</time>
      </trkpt>
      <trkpt lat="48.24101" lon="2.71341">
        <ele>104</ele>
        <time>2013-09-22T10:18:55.286Z</time>
      </trkpt>
      <trkpt lat="48.241" lon="2.71341">
        <ele>104</ele>
        <time>2013-09-22T10:18:57.304Z</time>
      </trkpt>
      <trkpt lat="48.24105" lon="2.71339">
        <ele>104</ele>
        <time>2013-09-22T10:19:00.182Z</time>
      </trkpt>
      <trkpt lat="48.24111" lon="2.71337">
        <ele>104</ele>
        <time>2013-09-22T10:19:07.242Z</time>
      </trkpt>
      <trkpt lat="48.24111" lon="2.71337">
        <ele>104</ele>
        <time>2013-09-22T10:19:10.218Z</time>
      </trkpt>
      <trkpt lat="48.24111" lon="2.71337">
        <ele>104</ele>
        <time>2013-09-22T10:19:19.256Z</time>
      </trkpt>
      <trkpt lat="48.2411" lon="2.71339">
        <ele>104</ele>
        <time>2013-09-22T10:19:21.258Z</time>
      </trkpt>
      <trkpt lat="48.24109" lon="2.71344">
        <ele>104</ele>
        <time>2013-09-22T10:19:28.252Z</time>
      </trkpt>
      <trkpt lat="48.2411" lon="2.71344">
        <ele>104</ele>
        <time>2013-09-22T10:19:31.220Z</time>
      </trkpt>
      <trkpt lat="48.2411" lon="2.71344">
        <ele>104</ele>
        <time>2013-09-22T10:19:36.224Z</time>
      </trkpt>
      <trkpt lat="48.24109" lon="2.71343">
        <ele>104</ele>
        <time>2013-09-22T10:19:38.225Z</time>
      </trkpt>
      <trkpt lat="48.24109" lon="2.71353">
        <ele>105</ele>
        <time>2013-09-22T10:19:50.285Z</time>
      </trkpt>
      <trkpt lat="48.24109" lon="2.71356">
        <ele>105</ele>
        <time>2013-09-22T10:19:53.256Z</time>
      </trkpt>
      <trkpt lat="48.24107" lon="2.71369">
        <ele>105</ele>
        <time>2013-09-22T10:20:01.226Z</time>
      </trkpt>
      <trkpt lat="48.24106" lon="2.71372">
        <ele>105</ele>
        <time>2013-09-22T10:20:03.228Z</time>
      </trkpt>
      <trkpt lat="48.24109" lon="2.71382">
        <ele>105</ele>
        <time>2013-09-22T10:20:10.230Z</time>
      </trkpt>
      <trkpt lat="48.24111" lon="2.71386">
        <ele>106</ele>
        <time>2013-09-22T10:20:13.219Z</time>
      </trkpt>
      <trkpt lat="48.24115" lon="2.71395">
        <ele>106</ele>
        <time>2013-09-22T10:20:19.280Z</time>
      </trkpt>
      <trkpt lat="48.24116" lon="2.71399">
        <ele>106</ele>
        <time>2013-09-22T10:20:22.245Z</time>
      </trkpt>
      <trkpt lat="48.24119" lon="2.71409">
        <ele>106</ele>
        <time>2013-09-22T10:20:29.255Z</time>
      </trkpt>
      <trkpt lat="48.24121" lon="2.71413">
        <ele>106</ele>
        <time>2013-09-22T10:20:32.214Z</time>
      </trkpt>
      <trkpt lat="48.24126" lon="2.71423">
        <ele>108</ele>
        <time>2013-09-22T10:20:40.223Z</time>
      </trkpt>
      <trkpt lat="48.24128" lon="2.71425">
        <ele>108</ele>
        <time>2013-09-22T10:20:43.215Z</time>
      </trkpt>
      <trkpt lat="48.24136" lon="2.71428">
        <ele>108</ele>
        <time>2013-09-22T10:20:50.250Z</time>
      </trkpt>
      <trkpt lat="48.24138" lon="2.71431">
        <ele>108</ele>
        <time>2013-09-22T10:20:53.258Z</time>
      </trkpt>
      <trkpt lat="48.24141" lon="2.71442">
        <ele>108</ele>
        <time>2013-09-22T10:21:01.222Z</time>
      </trkpt>
      <trkpt lat="48.24144" lon="2.71446">
        <ele>108</ele>
        <time>2013-09-22T10:21:04.215Z</time>
      </trkpt>
      <trkpt lat="48.24148" lon="2.71454">
        <ele>108</ele>
        <time>2013-09-22T10:21:10.245Z</time>
      </trkpt>
      <trkpt lat="48.24148" lon="2.71459">
        <ele>108</ele>
        <time>2013-09-22T10:21:13.220Z</time>
      </trkpt>
      <trkpt lat="48.24147" lon="2.71462">
        <ele>108</ele>
        <time>2013-09-22T10:21:18.224Z</time>
      </trkpt>
      <trkpt lat="48.24147" lon="2.71462">
        <ele>108</ele>
        <time>2013-09-22T10:21:20.268Z</time>
      </trkpt>
      <trkpt lat="48.24147" lon="2.71462">
        <ele>108</ele>
        <time>2013-09-22T10:21:30.230Z</time>
      </trkpt>
      <trkpt lat="48.24149" lon="2.71461">
        <ele>108</ele>
        <time>2013-09-22T10:21:33.198Z</time>
      </trkpt>
      <trkpt lat="48.24156" lon="2.71467">
        <ele>108</ele>
        <time>2013-09-22T10:21:41.223Z</time>
      </trkpt>
      <trkpt lat="48.24158" lon="2.71469">
        <ele>108</ele>
        <time>2013-09-22T10:21:44.218Z</time>
      </trkpt>
      <trkpt lat="48.24162" lon="2.7148">
        <ele>108</ele>
        <time>2013-09-22T10:21:52.248Z</time>
      </trkpt>
      <trkpt lat="48.24162" lon="2.71482">
        <ele>108</ele>
        <time>2013-09-22T10:21:54.252Z</time>
      </trkpt>
      <trkpt lat="48.2416" lon="2.71492">
        <ele>108</ele>
        <time>2013-09-22T10:22:02.216Z</time>
      </trkpt>
      <trkpt lat="48.24159" lon="2.71496">
        <ele>108</ele>
        <time>2013-09-22T10:22:04.218Z</time>
      </trkpt>
      <trkpt lat="48.24161" lon="2.71506">
        <ele>108</ele>
        <time>2013-09-22T10:22:10.219Z</time>
      </trkpt>
      <trkpt lat="48.24162" lon="2.71512">
        <ele>109</ele>
        <time>2013-09-22T10:22:13.215Z</time>
      </trkpt>
      <trkpt lat="48.24162" lon="2.71522">
        <ele>109</ele>
        <time>2013-09-22T10:22:18.257Z</time>
      </trkpt>
      <trkpt lat="48.24163" lon="2.71527">
        <ele>109</ele>
        <time>2013-09-22T10:22:20.299Z</time>
      </trkpt>
      <trkpt lat="48.24163" lon="2.71538">
        <ele>110</ele>
        <time>2013-09-22T10:22:25.284Z</time>
      </trkpt>
      <trkpt lat="48.24164" lon="2.71544">
        <ele>110</ele>
        <time>2013-09-22T10:22:28.242Z</time>
      </trkpt>
      <trkpt lat="48.24167" lon="2.71556">
        <ele>108</ele>
        <time>2013-09-22T10:22:34.217Z</time>
      </trkpt>
      <trkpt lat="48.24169" lon="2.7156">
        <ele>108</ele>
        <time>2013-09-22T10:22:36.244Z</time>
      </trkpt>
      <trkpt lat="48.24174" lon="2.71566">
        <ele>108</ele>
        <time>2013-09-22T10:22:41.226Z</time>
      </trkpt>
      <trkpt lat="48.24176" lon="2.71571">
        <ele>108</ele>
        <time>2013-09-22T10:22:44.215Z</time>
      </trkpt>
      <trkpt lat="48.24178" lon="2.71581">
        <ele>108</ele>
        <time>2013-09-22T10:22:49.250Z</time>
      </trkpt>
      <trkpt lat="48.24179" lon="2.71587">
        <ele>109</ele>
        <time>2013-09-22T10:22:52.244Z</time>
      </trkpt>
      <trkpt lat="48.24182" lon="2.71599">
        <ele>109</ele>
        <time>2013-09-22T10:23:00.178Z</time>
      </trkpt>
      <trkpt lat="48.24183" lon="2.71603">
        <ele>109</ele>
        <time>2013-09-22T10:23:02.222Z</time>
      </trkpt>
      <trkpt lat="48.24185" lon="2.71611">
        <ele>110</ele>
        <time>2013-09-22T10:23:07.227Z</time>
      </trkpt>
      <trkpt lat="48.24186" lon="2.71616">
        <ele>110</ele>
        <time>2013-09-22T10:23:10.219Z</time>
      </trkpt>
      <trkpt lat="48.24189" lon="2.71625">
        <ele>110</ele>
        <time>2013-09-22T10:23:15.254Z</time>
      </trkpt>
      <trkpt lat="48.24191" lon="2.7163">
        <ele>111</ele>
        <time>2013-09-22T10:23:18.243Z</time>
      </trkpt>
      <trkpt lat="48.24195" lon="2.71641">
        <ele>111</ele>
        <time>2013-09-22T10:23:25.306Z</time>
      </trkpt>
      <trkpt lat="48.24196" lon="2.71645">
        <ele>111</ele>
        <time>2013-09-22T10:23:28.248Z</time>
      </trkpt>
      <trkpt lat="48.24199" lon="2.71656">
        <ele>111</ele>
        <time>2013-09-22T10:23:34.201Z</time>
      </trkpt>
      <trkpt lat="48.242" lon="2.71659">
        <ele>111</ele>
        <time>2013-09-22T10:23:36.209Z</time>
      </trkpt>
      <trkpt lat="48.24205" lon="2.7167">
        <ele>116</ele>
        <time>2013-09-22T10:23:42.219Z</time>
      </trkpt>
      <trkpt lat="48.24207" lon="2.71673">
        <ele>116</ele>
        <time>2013-09-22T10:23:45.318Z</time>
      </trkpt>
      <trkpt lat="48.24207" lon="2.71673">
        <ele>116</ele>
        <time>2013-09-22T10:23:48.227Z</time>
      </trkpt>
      <trkpt lat="48.24207" lon="2.71672">
        <ele>116</ele>
        <time>2013-09-22T10:23:50.286Z</time>
      </trkpt>
      <trkpt lat="48.2421" lon="2.7168">
        <ele>116</ele>
        <time>2013-09-22T10:23:53.236Z</time>
      </trkpt>
      <trkpt lat="48.24211" lon="2.71681">
        <ele>116</ele>
        <time>2013-09-22T10:23:55.265Z</time>
      </trkpt>
      <trkpt lat="48.24211" lon="2.7168">
        <ele>116</ele>
        <time>2013-09-22T10:23:58.246Z</time>
      </trkpt>
      <trkpt lat="48.24212" lon="2.71682">
        <ele>116</ele>
        <time>2013-09-22T10:24:01.211Z</time>
      </trkpt>
      <trkpt lat="48.24216" lon="2.71689">
        <ele>117</ele>
        <time>2013-09-22T10:24:06.214Z</time>
      </trkpt>
      <trkpt lat="48.24215" lon="2.71689">
        <ele>116</ele>
        <time>2013-09-22T10:24:08.216Z</time>
      </trkpt>
      <trkpt lat="48.24218" lon="2.71691">
        <ele>117</ele>
        <time>2013-09-22T10:24:10.219Z</time>
      </trkpt>
      <trkpt lat="48.24221" lon="2.71695">
        <ele>117</ele>
        <time>2013-09-22T10:24:15.268Z</time>
      </trkpt>
      <trkpt lat="48.24221" lon="2.71695">
        <ele>117</ele>
        <time>2013-09-22T10:24:18.248Z</time>
      </trkpt>
      <trkpt lat="48.24224" lon="2.717">
        <ele>117</ele>
        <time>2013-09-22T10:24:21.257Z</time>
      </trkpt>
      <trkpt lat="48.24225" lon="2.71703">
        <ele>117</ele>
        <time>2013-09-22T10:24:24.247Z</time>
      </trkpt>
      <trkpt lat="48.24225" lon="2.71702">
        <ele>117</ele>
        <time>2013-09-22T10:24:26.265Z</time>
      </trkpt>
      <trkpt lat="48.24225" lon="2.71702">
        <ele>117</ele>
        <time>2013-09-22T10:24:29.254Z</time>
      </trkpt>
      <trkpt lat="48.24226" lon="2.71706">
        <ele>117</ele>
        <time>2013-09-22T10:24:32.225Z</time>
      </trkpt>
      <trkpt lat="48.24229" lon="2.71714">
        <ele>118</ele>
        <time>2013-09-22T10:24:40.223Z</time>
      </trkpt>
      <trkpt lat="48.24229" lon="2.71714">
        <ele>118</ele>
        <time>2013-09-22T10:24:43.223Z</time>
      </trkpt>
      <trkpt lat="48.24229" lon="2.71714">
        <ele>118</ele>
        <time>2013-09-22T10:24:45.241Z</time>
      </trkpt>
      <trkpt lat="48.24231" lon="2.71721">
        <ele>119</ele>
        <time>2013-09-22T10:24:47.254Z</time>
      </trkpt>
      <trkpt lat="48.24232" lon="2.71722">
        <ele>119</ele>
        <time>2013-09-22T10:24:51.269Z</time>
      </trkpt>
      <trkpt lat="48.24232" lon="2.71722">
        <ele>119</ele>
        <time>2013-09-22T10:24:53.270Z</time>
      </trkpt>
      <trkpt lat="48.24232" lon="2.71722">
        <ele>119</ele>
        <time>2013-09-22T10:25:01.235Z</time>
      </trkpt>
      <trkpt lat="48.24233" lon="2.71724">
        <ele>119</ele>
        <time>2013-09-22T10:25:03.240Z</time>
      </trkpt>
      <trkpt lat="48.24235" lon="2.71727">
        <ele>119</ele>
        <time>2013-09-22T10:25:06.222Z</time>
      </trkpt>
      <trkpt lat="48.24234" lon="2.71726">
        <ele>119</ele>
        <time>2013-09-22T10:25:08.227Z</time>
      </trkpt>
      <trkpt lat="48.24234" lon="2.71726">
        <ele>119</ele>
        <time>2013-09-22T10:26:06.222Z</time>
      </trkpt>
      <trkpt lat="48.24236" lon="2.71725">
        <ele>119</ele>
        <time>2013-09-22T10:26:08.232Z</time>
      </trkpt>
      <trkpt lat="48.2424" lon="2.71723">
        <ele>119</ele>
        <time>2013-09-22T10:26:11.220Z</time>
      </trkpt>
      <trkpt lat="48.24239" lon="2.71724">
        <ele>119</ele>
        <time>2013-09-22T10:26:13.225Z</time>
      </trkpt>
      <trkpt lat="48.24239" lon="2.71724">
        <ele>119</ele>
        <time>2013-09-22T10:26:20.257Z</time>
      </trkpt>
      <trkpt lat="48.2424" lon="2.71726">
        <ele>119</ele>
        <time>2013-09-22T10:26:23.245Z</time>
      </trkpt>
      <trkpt lat="48.24241" lon="2.7173">
        <ele>120</ele>
        <time>2013-09-22T10:26:28.235Z</time>
      </trkpt>
      <trkpt lat="48.24241" lon="2.7173">
        <ele>120</ele>
        <time>2013-09-22T10:26:31.245Z</time>
      </trkpt>
      <trkpt lat="48.24241" lon="2.7173">
        <ele>120</ele>
        <time>2013-09-22T10:27:38.234Z</time>
      </trkpt>
      <trkpt lat="48.24288" lon="2.71704">
        <ele>119</ele>
        <time>2013-09-22T10:54:13.683Z</time>
      </trkpt>
      <trkpt lat="48.24289" lon="2.71698">
        <ele>119</ele>
        <time>2013-09-22T10:54:21.597Z</time>
      </trkpt>
      <trkpt lat="48.24289" lon="2.71698">
        <ele>119</ele>
        <time>2013-09-22T10:54:23.605Z</time>
      </trkpt>
      <trkpt lat="48.24289" lon="2.717">
        <ele>119</ele>
        <time>2013-09-22T10:54:26.566Z</time>
      </trkpt>
      <trkpt lat="48.24291" lon="2.71708">
        <ele>119</ele>
        <time>2013-09-22T10:54:36.569Z</time>
      </trkpt>
      <trkpt lat="48.24291" lon="2.71708">
        <ele>119</ele>
        <time>2013-09-22T10:54:38.584Z</time>
      </trkpt>
      <trkpt lat="48.24291" lon="2.71708">
        <ele>119</ele>
        <time>2013-09-22T10:55:16.593Z</time>
      </trkpt>
      <trkpt lat="48.24289" lon="2.71711">
        <ele>120</ele>
        <time>2013-09-22T10:55:19.589Z</time>
      </trkpt>
      <trkpt lat="48.24289" lon="2.71711">
        <ele>120</ele>
        <time>2013-09-22T10:55:22.572Z</time>
      </trkpt>
      <trkpt lat="48.24289" lon="2.71711">
        <ele>120</ele>
        <time>2013-09-22T10:56:41.588Z</time>
      </trkpt>
      <trkpt lat="48.24292" lon="2.71712">
        <ele>120</ele>
        <time>2013-09-22T10:56:43.588Z</time>
      </trkpt>
      <trkpt lat="48.24292" lon="2.71712">
        <ele>120</ele>
        <time>2013-09-22T10:56:45.602Z</time>
      </trkpt>
      <trkpt lat="48.24292" lon="2.71712">
        <ele>120</ele>
        <time>2013-09-22T10:56:48.598Z</time>
      </trkpt>
      <trkpt lat="48.24292" lon="2.71712">
        <ele>120</ele>
        <time>2013-09-22T10:57:14.610Z</time>
      </trkpt>
      <trkpt lat="48.24297" lon="2.71707">
        <ele>120</ele>
        <time>2013-09-22T10:57:17.604Z</time>
      </trkpt>
      <trkpt lat="48.24303" lon="2.71707">
        <ele>120</ele>
        <time>2013-09-22T10:57:25.654Z</time>
      </trkpt>
      <trkpt lat="48.24307" lon="2.7171">
        <ele>120</ele>
        <time>2013-09-22T10:57:28.607Z</time>
      </trkpt>
      <trkpt lat="48.24314" lon="2.71712">
        <ele>120</ele>
        <time>2013-09-22T10:57:33.594Z</time>
      </trkpt>
      <trkpt lat="48.24318" lon="2.71713">
        <ele>120</ele>
        <time>2013-09-22T10:57:36.585Z</time>
      </trkpt>
      <trkpt lat="48.24327" lon="2.71715">
        <ele>121</ele>
        <time>2013-09-22T10:57:43.588Z</time>
      </trkpt>
      <trkpt lat="48.24329" lon="2.71716">
        <ele>121</ele>
        <time>2013-09-22T10:57:45.591Z</time>
      </trkpt>
      <trkpt lat="48.24338" lon="2.7172">
        <ele>123</ele>
        <time>2013-09-22T10:57:53.589Z</time>
      </trkpt>
      <trkpt lat="48.2434" lon="2.71721">
        <ele>123</ele>
        <time>2013-09-22T10:57:55.599Z</time>
      </trkpt>
      <trkpt lat="48.24347" lon="2.71725">
        <ele>123</ele>
        <time>2013-09-22T10:58:00.594Z</time>
      </trkpt>
      <trkpt lat="48.2435" lon="2.71727">
        <ele>123</ele>
        <time>2013-09-22T10:58:03.583Z</time>
      </trkpt>
      <trkpt lat="48.24356" lon="2.71735">
        <ele>123</ele>
        <time>2013-09-22T10:58:10.598Z</time>
      </trkpt>
      <trkpt lat="48.24359" lon="2.71736">
        <ele>123</ele>
        <time>2013-09-22T10:58:13.593Z</time>
      </trkpt>
      <trkpt lat="48.24365" lon="2.71733">
        <ele>123</ele>
        <time>2013-09-22T10:58:20.618Z</time>
      </trkpt>
      <trkpt lat="48.24367" lon="2.71731">
        <ele>123</ele>
        <time>2013-09-22T10:58:23.592Z</time>
      </trkpt>
      <trkpt lat="48.24374" lon="2.71726">
        <ele>123</ele>
        <time>2013-09-22T10:58:30.961Z</time>
      </trkpt>
      <trkpt lat="48.24376" lon="2.71725">
        <ele>123</ele>
        <time>2013-09-22T10:58:32.990Z</time>
      </trkpt>
      <trkpt lat="48.24384" lon="2.7172">
        <ele>123</ele>
        <time>2013-09-22T10:58:38.971Z</time>
      </trkpt>
      <trkpt lat="48.24387" lon="2.71717">
        <ele>123</ele>
        <time>2013-09-22T10:58:41.967Z</time>
      </trkpt>
      <trkpt lat="48.24393" lon="2.71711">
        <ele>124</ele>
        <time>2013-09-22T10:58:47.964Z</time>
      </trkpt>
      <trkpt lat="48.24395" lon="2.71709">
        <ele>124</ele>
        <time>2013-09-22T10:58:49.966Z</time>
      </trkpt>
      <trkpt lat="48.24402" lon="2.71711">
        <ele>124</ele>
        <time>2013-09-22T10:58:54.979Z</time>
      </trkpt>
      <trkpt lat="48.24404" lon="2.71711">
        <ele>124</ele>
        <time>2013-09-22T10:58:56.990Z</time>
      </trkpt>
      <trkpt lat="48.24411" lon="2.71713">
        <ele>124</ele>
        <time>2013-09-22T10:59:02.916Z</time>
      </trkpt>
      <trkpt lat="48.24413" lon="2.71714">
        <ele>124</ele>
        <time>2013-09-22T10:59:04.917Z</time>
      </trkpt>
      <trkpt lat="48.24419" lon="2.71712">
        <ele>124</ele>
        <time>2013-09-22T10:59:10.917Z</time>
      </trkpt>
      <trkpt lat="48.24422" lon="2.71712">
        <ele>124</ele>
        <time>2013-09-22T10:59:13.912Z</time>
      </trkpt>
      <trkpt lat="48.24429" lon="2.71709">
        <ele>124</ele>
        <time>2013-09-22T10:59:19.925Z</time>
      </trkpt>
      <trkpt lat="48.24432" lon="2.71708">
        <ele>124</ele>
        <time>2013-09-22T10:59:22.912Z</time>
      </trkpt>
      <trkpt lat="48.24432" lon="2.71708">
        <ele>124</ele>
        <time>2013-09-22T10:59:24.916Z</time>
      </trkpt>
      <trkpt lat="48.24432" lon="2.71709">
        <ele>124</ele>
        <time>2013-09-22T10:59:26.929Z</time>
      </trkpt>
      <trkpt lat="48.24432" lon="2.71708">
        <ele>124</ele>
        <time>2013-09-22T10:59:35.909Z</time>
      </trkpt>
      <trkpt lat="48.24434" lon="2.71711">
        <ele>124</ele>
        <time>2013-09-22T10:59:36.926Z</time>
      </trkpt>
      <trkpt lat="48.24436" lon="2.71713">
        <ele>124</ele>
        <time>2013-09-22T10:59:38.928Z</time>
      </trkpt>
      <trkpt lat="48.24435" lon="2.71713">
        <ele>124</ele>
        <time>2013-09-22T10:59:41.912Z</time>
      </trkpt>
      <trkpt lat="48.24435" lon="2.71713">
        <ele>124</ele>
        <time>2013-09-22T11:00:03.914Z</time>
      </trkpt>
      <trkpt lat="48.24435" lon="2.71705">
        <ele>124</ele>
        <time>2013-09-22T11:00:05.919Z</time>
      </trkpt>
      <trkpt lat="48.24437" lon="2.71693">
        <ele>124</ele>
        <time>2013-09-22T11:00:14.928Z</time>
      </trkpt>
      <trkpt lat="48.24437" lon="2.71691">
        <ele>124</ele>
        <time>2013-09-22T11:00:16.929Z</time>
      </trkpt>
      <trkpt lat="48.24432" lon="2.71684">
        <ele>124</ele>
        <time>2013-09-22T11:00:23.926Z</time>
      </trkpt>
      <trkpt lat="48.24432" lon="2.71683">
        <ele>124</ele>
        <time>2013-09-22T11:00:26.943Z</time>
      </trkpt>
      <trkpt lat="48.24431" lon="2.7168">
        <ele>124</ele>
        <time>2013-09-22T11:00:28.944Z</time>
      </trkpt>
      <trkpt lat="48.2443" lon="2.71667">
        <ele>124</ele>
        <time>2013-09-22T11:00:36.911Z</time>
      </trkpt>
      <trkpt lat="48.2443" lon="2.71665">
        <ele>124</ele>
        <time>2013-09-22T11:00:38.911Z</time>
      </trkpt>
      <trkpt lat="48.2443" lon="2.71665">
        <ele>124</ele>
        <time>2013-09-22T11:00:40.913Z</time>
      </trkpt>
      <trkpt lat="48.2443" lon="2.71666">
        <ele>124</ele>
        <time>2013-09-22T11:00:47.913Z</time>
      </trkpt>
      <trkpt lat="48.24428" lon="2.7166">
        <ele>124</ele>
        <time>2013-09-22T11:00:50.928Z</time>
      </trkpt>
      <trkpt lat="48.24428" lon="2.71656">
        <ele>124</ele>
        <time>2013-09-22T11:00:53.929Z</time>
      </trkpt>
      <trkpt lat="48.24428" lon="2.71657">
        <ele>124</ele>
        <time>2013-09-22T11:00:56.922Z</time>
      </trkpt>
      <trkpt lat="48.24428" lon="2.71657">
        <ele>124</ele>
        <time>2013-09-22T11:01:01.909Z</time>
      </trkpt>
      <trkpt lat="48.24429" lon="2.71651">
        <ele>124</ele>
        <time>2013-09-22T11:01:04.901Z</time>
      </trkpt>
      <trkpt lat="48.2443" lon="2.71648">
        <ele>124</ele>
        <time>2013-09-22T11:01:08.928Z</time>
      </trkpt>
      <trkpt lat="48.24429" lon="2.71649">
        <ele>124</ele>
        <time>2013-09-22T11:01:11.899Z</time>
      </trkpt>
      <trkpt lat="48.24429" lon="2.71649">
        <ele>124</ele>
        <time>2013-09-22T11:01:15.916Z</time>
      </trkpt>
      <trkpt lat="48.24427" lon="2.71643">
        <ele>124</ele>
        <time>2013-09-22T11:01:18.913Z</time>
      </trkpt>
      <trkpt lat="48.24426" lon="2.71636">
        <ele>124</ele>
        <time>2013-09-22T11:01:27.911Z</time>
      </trkpt>
      <trkpt lat="48.24426" lon="2.71635">
        <ele>124</ele>
        <time>2013-09-22T11:01:30.913Z</time>
      </trkpt>
      <trkpt lat="48.24426" lon="2.71636">
        <ele>124</ele>
        <time>2013-09-22T11:01:45.913Z</time>
      </trkpt>
      <trkpt lat="48.24427" lon="2.71632">
        <ele>123</ele>
        <time>2013-09-22T11:01:48.914Z</time>
      </trkpt>
      <trkpt lat="48.24427" lon="2.71626">
        <ele>123</ele>
        <time>2013-09-22T11:01:53.913Z</time>
      </trkpt>
      <trkpt lat="48.24427" lon="2.71627">
        <ele>123</ele>
        <time>2013-09-22T11:01:56.928Z</time>
      </trkpt>
      <trkpt lat="48.24427" lon="2.71627">
        <ele>123</ele>
        <time>2013-09-22T11:01:59.934Z</time>
      </trkpt>
      <trkpt lat="48.2443" lon="2.71622">
        <ele>123</ele>
        <time>2013-09-22T11:02:02.932Z</time>
      </trkpt>
      <trkpt lat="48.24432" lon="2.71619">
        <ele>123</ele>
        <time>2013-09-22T11:02:05.914Z</time>
      </trkpt>
      <trkpt lat="48.24432" lon="2.7162">
        <ele>123</ele>
        <time>2013-09-22T11:02:08.938Z</time>
      </trkpt>
      <trkpt lat="48.24433" lon="2.71617">
        <ele>123</ele>
        <time>2013-09-22T11:02:11.914Z</time>
      </trkpt>
      <trkpt lat="48.24436" lon="2.71612">
        <ele>123</ele>
        <time>2013-09-22T11:02:16.932Z</time>
      </trkpt>
      <trkpt lat="48.24436" lon="2.71612">
        <ele>123</ele>
        <time>2013-09-22T11:02:18.933Z</time>
      </trkpt>
      <trkpt lat="48.24436" lon="2.71612">
        <ele>123</ele>
        <time>2013-09-22T11:02:23.920Z</time>
      </trkpt>
      <trkpt lat="48.24438" lon="2.71606">
        <ele>123</ele>
        <time>2013-09-22T11:02:25.921Z</time>
      </trkpt>
      <trkpt lat="48.24439" lon="2.71604">
        <ele>123</ele>
        <time>2013-09-22T11:02:27.932Z</time>
      </trkpt>
      <trkpt lat="48.24439" lon="2.71604">
        <ele>123</ele>
        <time>2013-09-22T11:02:30.915Z</time>
      </trkpt>
      <trkpt lat="48.24438" lon="2.71605">
        <ele>123</ele>
        <time>2013-09-22T11:02:55.940Z</time>
      </trkpt>
      <trkpt lat="48.24439" lon="2.71599">
        <ele>123</ele>
        <time>2013-09-22T11:02:58.922Z</time>
      </trkpt>
      <trkpt lat="48.24439" lon="2.71597">
        <ele>123</ele>
        <time>2013-09-22T11:03:01.905Z</time>
      </trkpt>
      <trkpt lat="48.24439" lon="2.71598">
        <ele>123</ele>
        <time>2013-09-22T11:03:03.915Z</time>
      </trkpt>
      <trkpt lat="48.24439" lon="2.71598">
        <ele>123</ele>
        <time>2013-09-22T11:03:14.932Z</time>
      </trkpt>
      <trkpt lat="48.2444" lon="2.7159">
        <ele>123</ele>
        <time>2013-09-22T11:03:17.912Z</time>
      </trkpt>
      <trkpt lat="48.24439" lon="2.71583">
        <ele>122</ele>
        <time>2013-09-22T11:03:23.924Z</time>
      </trkpt>
      <trkpt lat="48.24439" lon="2.71583">
        <ele>122</ele>
        <time>2013-09-22T11:03:26.918Z</time>
      </trkpt>
      <trkpt lat="48.24439" lon="2.71583">
        <ele>122</ele>
        <time>2013-09-22T11:03:28.918Z</time>
      </trkpt>
      <trkpt lat="48.24436" lon="2.71576">
        <ele>122</ele>
        <time>2013-09-22T11:03:31.908Z</time>
      </trkpt>
      <trkpt lat="48.24432" lon="2.71565">
        <ele>122</ele>
        <time>2013-09-22T11:03:41.913Z</time>
      </trkpt>
      <trkpt lat="48.2443" lon="2.71562">
        <ele>122</ele>
        <time>2013-09-22T11:03:43.925Z</time>
      </trkpt>
      <trkpt lat="48.24426" lon="2.71553">
        <ele>122</ele>
        <time>2013-09-22T11:03:50.928Z</time>
      </trkpt>
      <trkpt lat="48.24428" lon="2.71549">
        <ele>122</ele>
        <time>2013-09-22T11:03:53.922Z</time>
      </trkpt>
      <trkpt lat="48.2443" lon="2.71543">
        <ele>122</ele>
        <time>2013-09-22T11:03:59.913Z</time>
      </trkpt>
      <trkpt lat="48.2443" lon="2.71543">
        <ele>122</ele>
        <time>2013-09-22T11:04:01.923Z</time>
      </trkpt>
      <trkpt lat="48.24431" lon="2.71537">
        <ele>122</ele>
        <time>2013-09-22T11:04:04.919Z</time>
      </trkpt>
      <trkpt lat="48.24432" lon="2.71525">
        <ele>121</ele>
        <time>2013-09-22T11:04:13.914Z</time>
      </trkpt>
      <trkpt lat="48.24432" lon="2.71521">
        <ele>121</ele>
        <time>2013-09-22T11:04:16.914Z</time>
      </trkpt>
      <trkpt lat="48.2443" lon="2.71513">
        <ele>121</ele>
        <time>2013-09-22T11:04:23.917Z</time>
      </trkpt>
      <trkpt lat="48.24431" lon="2.71513">
        <ele>121</ele>
        <time>2013-09-22T11:04:26.935Z</time>
      </trkpt>
      <trkpt lat="48.24432" lon="2.71507">
        <ele>121</ele>
        <time>2013-09-22T11:04:29.917Z</time>
      </trkpt>
      <trkpt lat="48.24434" lon="2.71498">
        <ele>121</ele>
        <time>2013-09-22T11:04:38.934Z</time>
      </trkpt>
      <trkpt lat="48.24434" lon="2.71499">
        <ele>121</ele>
        <time>2013-09-22T11:04:41.888Z</time>
      </trkpt>
      <trkpt lat="48.24434" lon="2.71499">
        <ele>121</ele>
        <time>2013-09-22T11:04:43.920Z</time>
      </trkpt>
      <trkpt lat="48.24434" lon="2.7149">
        <ele>120</ele>
        <time>2013-09-22T11:04:45.955Z</time>
      </trkpt>
      <trkpt lat="48.24432" lon="2.71482">
        <ele>120</ele>
        <time>2013-09-22T11:04:55.928Z</time>
      </trkpt>
      <trkpt lat="48.24432" lon="2.71483">
        <ele>120</ele>
        <time>2013-09-22T11:04:57.941Z</time>
      </trkpt>
      <trkpt lat="48.24434" lon="2.71481">
        <ele>120</ele>
        <time>2013-09-22T11:05:00.907Z</time>
      </trkpt>
      <trkpt lat="48.24439" lon="2.71477">
        <ele>120</ele>
        <time>2013-09-22T11:05:07.919Z</time>
      </trkpt>
      <trkpt lat="48.24441" lon="2.71473">
        <ele>120</ele>
        <time>2013-09-22T11:05:10.921Z</time>
      </trkpt>
      <trkpt lat="48.24443" lon="2.71461">
        <ele>120</ele>
        <time>2013-09-22T11:05:21.932Z</time>
      </trkpt>
      <trkpt lat="48.24442" lon="2.71456">
        <ele>120</ele>
        <time>2013-09-22T11:05:24.928Z</time>
      </trkpt>
      <trkpt lat="48.24438" lon="2.71451">
        <ele>120</ele>
        <time>2013-09-22T11:05:31.918Z</time>
      </trkpt>
      <trkpt lat="48.24438" lon="2.71451">
        <ele>120</ele>
        <time>2013-09-22T11:05:34.913Z</time>
      </trkpt>
      <trkpt lat="48.24438" lon="2.71451">
        <ele>120</ele>
        <time>2013-09-22T11:05:36.888Z</time>
      </trkpt>
      <trkpt lat="48.24438" lon="2.71447">
        <ele>120</ele>
        <time>2013-09-22T11:05:38.935Z</time>
      </trkpt>
      <trkpt lat="48.24438" lon="2.71441">
        <ele>120</ele>
        <time>2013-09-22T11:05:43.940Z</time>
      </trkpt>
      <trkpt lat="48.24438" lon="2.71442">
        <ele>120</ele>
        <time>2013-09-22T11:05:46.920Z</time>
      </trkpt>
      <trkpt lat="48.24438" lon="2.71437">
        <ele>119</ele>
        <time>2013-09-22T11:05:48.920Z</time>
      </trkpt>
      <trkpt lat="48.24434" lon="2.71426">
        <ele>119</ele>
        <time>2013-09-22T11:05:56.944Z</time>
      </trkpt>
      <trkpt lat="48.24436" lon="2.71419">
        <ele>119</ele>
        <time>2013-09-22T11:05:59.918Z</time>
      </trkpt>
      <trkpt lat="48.24438" lon="2.71415">
        <ele>118</ele>
        <time>2013-09-22T11:06:02.924Z</time>
      </trkpt>
      <trkpt lat="48.24438" lon="2.71415">
        <ele>118</ele>
        <time>2013-09-22T11:06:05.912Z</time>
      </trkpt>
      <trkpt lat="48.24441" lon="2.71409">
        <ele>118</ele>
        <time>2013-09-22T11:06:07.918Z</time>
      </trkpt>
      <trkpt lat="48.24445" lon="2.71406">
        <ele>118</ele>
        <time>2013-09-22T11:06:14.926Z</time>
      </trkpt>
      <trkpt lat="48.24444" lon="2.71406">
        <ele>118</ele>
        <time>2013-09-22T11:06:17.914Z</time>
      </trkpt>
      <trkpt lat="48.24444" lon="2.71406">
        <ele>118</ele>
        <time>2013-09-22T11:06:23.937Z</time>
      </trkpt>
      <trkpt lat="48.24446" lon="2.71399">
        <ele>118</ele>
        <time>2013-09-22T11:06:26.939Z</time>
      </trkpt>
      <trkpt lat="48.24446" lon="2.71398">
        <ele>118</ele>
        <time>2013-09-22T11:06:29.959Z</time>
      </trkpt>
      <trkpt lat="48.24446" lon="2.71399">
        <ele>118</ele>
        <time>2013-09-22T11:06:45.927Z</time>
      </trkpt>
      <trkpt lat="48.24444" lon="2.71394">
        <ele>118</ele>
        <time>2013-09-22T11:06:48.921Z</time>
      </trkpt>
      <trkpt lat="48.24444" lon="2.71391">
        <ele>118</ele>
        <time>2013-09-22T11:06:50.925Z</time>
      </trkpt>
      <trkpt lat="48.24444" lon="2.71392">
        <ele>118</ele>
        <time>2013-09-22T11:06:52.930Z</time>
      </trkpt>
      <trkpt lat="48.24444" lon="2.71392">
        <ele>118</ele>
        <time>2013-09-22T11:06:55.913Z</time>
      </trkpt>
      <trkpt lat="48.24446" lon="2.71385">
        <ele>118</ele>
        <time>2013-09-22T11:06:57.917Z</time>
      </trkpt>
      <trkpt lat="48.24446" lon="2.71375">
        <ele>118</ele>
        <time>2013-09-22T11:07:02.926Z</time>
      </trkpt>
      <trkpt lat="48.24446" lon="2.71369">
        <ele>118</ele>
        <time>2013-09-22T11:07:05.920Z</time>
      </trkpt>
      <trkpt lat="48.24442" lon="2.71357">
        <ele>118</ele>
        <time>2013-09-22T11:07:15.927Z</time>
      </trkpt>
      <trkpt lat="48.24442" lon="2.71354">
        <ele>118</ele>
        <time>2013-09-22T11:07:18.912Z</time>
      </trkpt>
      <trkpt lat="48.24442" lon="2.71354">
        <ele>118</ele>
        <time>2013-09-22T11:07:20.924Z</time>
      </trkpt>
      <trkpt lat="48.24442" lon="2.71354">
        <ele>118</ele>
        <time>2013-09-22T11:07:23.914Z</time>
      </trkpt>
      <trkpt lat="48.24442" lon="2.7135">
        <ele>117</ele>
        <time>2013-09-22T11:07:26.931Z</time>
      </trkpt>
      <trkpt lat="48.24438" lon="2.71341">
        <ele>117</ele>
        <time>2013-09-22T11:07:34.902Z</time>
      </trkpt>
      <trkpt lat="48.24436" lon="2.71339">
        <ele>117</ele>
        <time>2013-09-22T11:07:36.905Z</time>
      </trkpt>
      <trkpt lat="48.24434" lon="2.7133">
        <ele>116</ele>
        <time>2013-09-22T11:07:44.921Z</time>
      </trkpt>
      <trkpt lat="48.24434" lon="2.7133">
        <ele>116</ele>
        <time>2013-09-22T11:07:46.923Z</time>
      </trkpt>
      <trkpt lat="48.24434" lon="2.7133">
        <ele>116</ele>
        <time>2013-09-22T11:07:50.979Z</time>
      </trkpt>
      <trkpt lat="48.24432" lon="2.71322">
        <ele>116</ele>
        <time>2013-09-22T11:07:53.925Z</time>
      </trkpt>
      <trkpt lat="48.2443" lon="2.71309">
        <ele>117</ele>
        <time>2013-09-22T11:08:04.897Z</time>
      </trkpt>
      <trkpt lat="48.2443" lon="2.7131">
        <ele>117</ele>
        <time>2013-09-22T11:08:06.903Z</time>
      </trkpt>
      <trkpt lat="48.2443" lon="2.7131">
        <ele>117</ele>
        <time>2013-09-22T11:08:11.904Z</time>
      </trkpt>
      <trkpt lat="48.24429" lon="2.71303">
        <ele>117</ele>
        <time>2013-09-22T11:08:13.918Z</time>
      </trkpt>
      <trkpt lat="48.24428" lon="2.71291">
        <ele>117</ele>
        <time>2013-09-22T11:08:24.923Z</time>
      </trkpt>
      <trkpt lat="48.24428" lon="2.71291">
        <ele>117</ele>
        <time>2013-09-22T11:08:26.933Z</time>
      </trkpt>
      <trkpt lat="48.24428" lon="2.71291">
        <ele>117</ele>
        <time>2013-09-22T11:08:36.898Z</time>
      </trkpt>
      <trkpt lat="48.24429" lon="2.71284">
        <ele>117</ele>
        <time>2013-09-22T11:08:38.921Z</time>
      </trkpt>
      <trkpt lat="48.24429" lon="2.71281">
        <ele>117</ele>
        <time>2013-09-22T11:08:41.897Z</time>
      </trkpt>
      <trkpt lat="48.24429" lon="2.71281">
        <ele>117</ele>
        <time>2013-09-22T11:08:43.922Z</time>
      </trkpt>
      <trkpt lat="48.24429" lon="2.71282">
        <ele>117</ele>
        <time>2013-09-22T11:08:46.918Z</time>
      </trkpt>
      <trkpt lat="48.24429" lon="2.71274">
        <ele>116</ele>
        <time>2013-09-22T11:08:48.929Z</time>
      </trkpt>
      <trkpt lat="48.24429" lon="2.71264">
        <ele>116</ele>
        <time>2013-09-22T11:08:58.932Z</time>
      </trkpt>
      <trkpt lat="48.24429" lon="2.71264">
        <ele>116</ele>
        <time>2013-09-22T11:09:01.904Z</time>
      </trkpt>
      <trkpt lat="48.24429" lon="2.71264">
        <ele>116</ele>
        <time>2013-09-22T11:09:06.903Z</time>
      </trkpt>
      <trkpt lat="48.2443" lon="2.71257">
        <ele>116</ele>
        <time>2013-09-22T11:09:08.918Z</time>
      </trkpt>
      <trkpt lat="48.24434" lon="2.71248">
        <ele>116</ele>
        <time>2013-09-22T11:09:17.932Z</time>
      </trkpt>
      <trkpt lat="48.24437" lon="2.71246">
        <ele>116</ele>
        <time>2013-09-22T11:09:20.931Z</time>
      </trkpt>
      <trkpt lat="48.24443" lon="2.7125">
        <ele>117</ele>
        <time>2013-09-22T11:09:28.936Z</time>
      </trkpt>
      <trkpt lat="48.24445" lon="2.71252">
        <ele>117</ele>
        <time>2013-09-22T11:09:31.920Z</time>
      </trkpt>
      <trkpt lat="48.24447" lon="2.71253">
        <ele>117</ele>
        <time>2013-09-22T11:09:36.914Z</time>
      </trkpt>
      <trkpt lat="48.24447" lon="2.71252">
        <ele>117</ele>
        <time>2013-09-22T11:09:38.921Z</time>
      </trkpt>
      <trkpt lat="48.2445" lon="2.71246">
        <ele>118</ele>
        <time>2013-09-22T11:09:41.910Z</time>
      </trkpt>
      <trkpt lat="48.24451" lon="2.71243">
        <ele>118</ele>
        <time>2013-09-22T11:09:45.922Z</time>
      </trkpt>
      <trkpt lat="48.24451" lon="2.71243">
        <ele>118</ele>
        <time>2013-09-22T11:09:48.938Z</time>
      </trkpt>
      <trkpt lat="48.24454" lon="2.71238">
        <ele>118</ele>
        <time>2013-09-22T11:09:51.928Z</time>
      </trkpt>
      <trkpt lat="48.24458" lon="2.71235">
        <ele>118</ele>
        <time>2013-09-22T11:09:56.931Z</time>
      </trkpt>
      <trkpt lat="48.24458" lon="2.71235">
        <ele>118</ele>
        <time>2013-09-22T11:09:59.916Z</time>
      </trkpt>
      <trkpt lat="48.2446" lon="2.71234">
        <ele>118</ele>
        <time>2013-09-22T11:10:01.919Z</time>
      </trkpt>
      <trkpt lat="48.24466" lon="2.71229">
        <ele>119</ele>
        <time>2013-09-22T11:10:08.926Z</time>
      </trkpt>
      <trkpt lat="48.24468" lon="2.71227">
        <ele>119</ele>
        <time>2013-09-22T11:10:10.928Z</time>
      </trkpt>
      <trkpt lat="48.24469" lon="2.71226">
        <ele>119</ele>
        <time>2013-09-22T11:10:13.925Z</time>
      </trkpt>
      <trkpt lat="48.24469" lon="2.71225">
        <ele>119</ele>
        <time>2013-09-22T11:10:16.927Z</time>
      </trkpt>
      <trkpt lat="48.24469" lon="2.71226">
        <ele>119</ele>
        <time>2013-09-22T11:10:19.944Z</time>
      </trkpt>
      <trkpt lat="48.24474" lon="2.71217">
        <ele>119</ele>
        <time>2013-09-22T11:10:22.921Z</time>
      </trkpt>
      <trkpt lat="48.24475" lon="2.71216">
        <ele>119</ele>
        <time>2013-09-22T11:10:24.935Z</time>
      </trkpt>
      <trkpt lat="48.24475" lon="2.71217">
        <ele>119</ele>
        <time>2013-09-22T11:10:26.938Z</time>
      </trkpt>
      <trkpt lat="48.24474" lon="2.71217">
        <ele>119</ele>
        <time>2013-09-22T11:10:29.911Z</time>
      </trkpt>
      <trkpt lat="48.24479" lon="2.71213">
        <ele>119</ele>
        <time>2013-09-22T11:10:32.923Z</time>
      </trkpt>
      <trkpt lat="48.24479" lon="2.71213">
        <ele>119</ele>
        <time>2013-09-22T11:10:35.917Z</time>
      </trkpt>
      <trkpt lat="48.24479" lon="2.71213">
        <ele>119</ele>
        <time>2013-09-22T11:10:39.919Z</time>
      </trkpt>
      <trkpt lat="48.24483" lon="2.71211">
        <ele>119</ele>
        <time>2013-09-22T11:10:42.908Z</time>
      </trkpt>
      <trkpt lat="48.24484" lon="2.7121">
        <ele>119</ele>
        <time>2013-09-22T11:10:44.923Z</time>
      </trkpt>
      <trkpt lat="48.24483" lon="2.7121">
        <ele>119</ele>
        <time>2013-09-22T11:10:47.906Z</time>
      </trkpt>
      <trkpt lat="48.24483" lon="2.7121">
        <ele>119</ele>
        <time>2013-09-22T11:11:01.911Z</time>
      </trkpt>
      <trkpt lat="48.24482" lon="2.71204">
        <ele>119</ele>
        <time>2013-09-22T11:11:04.903Z</time>
      </trkpt>
      <trkpt lat="48.24478" lon="2.712">
        <ele>119</ele>
        <time>2013-09-22T11:11:10.927Z</time>
      </trkpt>
      <trkpt lat="48.24478" lon="2.71199">
        <ele>119</ele>
        <time>2013-09-22T11:11:13.908Z</time>
      </trkpt>
      <trkpt lat="48.24478" lon="2.712">
        <ele>119</ele>
        <time>2013-09-22T11:11:15.936Z</time>
      </trkpt>
      <trkpt lat="48.24479" lon="2.71196">
        <ele>119</ele>
        <time>2013-09-22T11:11:18.926Z</time>
      </trkpt>
      <trkpt lat="48.24484" lon="2.71191">
        <ele>120</ele>
        <time>2013-09-22T11:11:25.949Z</time>
      </trkpt>
      <trkpt lat="48.24484" lon="2.71191">
        <ele>120</ele>
        <time>2013-09-22T11:11:28.919Z</time>
      </trkpt>
      <trkpt lat="48.24484" lon="2.71184">
        <ele>120</ele>
        <time>2013-09-22T11:11:31.908Z</time>
      </trkpt>
      <trkpt lat="48.24484" lon="2.71183">
        <ele>120</ele>
        <time>2013-09-22T11:11:34.900Z</time>
      </trkpt>
      <trkpt lat="48.24483" lon="2.71183">
        <ele>120</ele>
        <time>2013-09-22T11:11:36.898Z</time>
      </trkpt>
      <trkpt lat="48.24483" lon="2.71184">
        <ele>120</ele>
        <time>2013-09-22T11:11:47.911Z</time>
      </trkpt>
      <trkpt lat="48.24485" lon="2.71181">
        <ele>120</ele>
        <time>2013-09-22T11:11:49.916Z</time>
      </trkpt>
      <trkpt lat="48.24487" lon="2.71176">
        <ele>121</ele>
        <time>2013-09-22T11:11:52.910Z</time>
      </trkpt>
      <trkpt lat="48.24486" lon="2.71177">
        <ele>121</ele>
        <time>2013-09-22T11:11:54.912Z</time>
      </trkpt>
      <trkpt lat="48.24486" lon="2.71177">
        <ele>121</ele>
        <time>2013-09-22T11:12:02.957Z</time>
      </trkpt>
      <trkpt lat="48.24488" lon="2.71174">
        <ele>121</ele>
        <time>2013-09-22T11:12:05.904Z</time>
      </trkpt>
      <trkpt lat="48.2449" lon="2.71169">
        <ele>121</ele>
        <time>2013-09-22T11:12:09.907Z</time>
      </trkpt>
      <trkpt lat="48.24489" lon="2.7117">
        <ele>121</ele>
        <time>2013-09-22T11:12:11.908Z</time>
      </trkpt>
      <trkpt lat="48.24489" lon="2.7117">
        <ele>121</ele>
        <time>2013-09-22T11:12:14.918Z</time>
      </trkpt>
      <trkpt lat="48.24486" lon="2.71167">
        <ele>121</ele>
        <time>2013-09-22T11:12:17.908Z</time>
      </trkpt>
      <trkpt lat="48.24483" lon="2.7116">
        <ele>120</ele>
        <time>2013-09-22T11:12:27.913Z</time>
      </trkpt>
      <trkpt lat="48.24482" lon="2.71155">
        <ele>120</ele>
        <time>2013-09-22T11:12:30.908Z</time>
      </trkpt>
      <trkpt lat="48.24478" lon="2.71145">
        <ele>119</ele>
        <time>2013-09-22T11:12:40.904Z</time>
      </trkpt>
      <trkpt lat="48.24475" lon="2.71142">
        <ele>119</ele>
        <time>2013-09-22T11:12:43.900Z</time>
      </trkpt>
      <trkpt lat="48.24468" lon="2.71135">
        <ele>118</ele>
        <time>2013-09-22T11:12:55.918Z</time>
      </trkpt>
      <trkpt lat="48.24467" lon="2.71134">
        <ele>118</ele>
        <time>2013-09-22T11:12:57.930Z</time>
      </trkpt>
      <trkpt lat="48.24466" lon="2.71134">
        <ele>118</ele>
        <time>2013-09-22T11:13:00.902Z</time>
      </trkpt>
      <trkpt lat="48.24466" lon="2.71134">
        <ele>118</ele>
        <time>2013-09-22T11:13:02.928Z</time>
      </trkpt>
      <trkpt lat="48.24462" lon="2.71132">
        <ele>118</ele>
        <time>2013-09-22T11:13:05.901Z</time>
      </trkpt>
      <trkpt lat="48.24454" lon="2.71127">
        <ele>117</ele>
        <time>2013-09-22T11:13:15.928Z</time>
      </trkpt>
      <trkpt lat="48.24453" lon="2.71125">
        <ele>117</ele>
        <time>2013-09-22T11:13:17.933Z</time>
      </trkpt>
      <trkpt lat="48.24452" lon="2.71113">
        <ele>117</ele>
        <time>2013-09-22T11:13:28.956Z</time>
      </trkpt>
      <trkpt lat="48.24452" lon="2.7111">
        <ele>117</ele>
        <time>2013-09-22T11:13:31.921Z</time>
      </trkpt>
      <trkpt lat="48.24452" lon="2.71111">
        <ele>117</ele>
        <time>2013-09-22T11:13:34.936Z</time>
      </trkpt>
      <trkpt lat="48.24455" lon="2.71108">
        <ele>117</ele>
        <time>2013-09-22T11:13:36.889Z</time>
      </trkpt>
      <trkpt lat="48.24462" lon="2.711">
        <ele>118</ele>
        <time>2013-09-22T11:13:50.927Z</time>
      </trkpt>
      <trkpt lat="48.24462" lon="2.711">
        <ele>118</ele>
        <time>2013-09-22T11:13:53.932Z</time>
      </trkpt>
      <trkpt lat="48.24462" lon="2.711">
        <ele>118</ele>
        <time>2013-09-22T11:13:56.938Z</time>
      </trkpt>
      <trkpt lat="48.24463" lon="2.71097">
        <ele>118</ele>
        <time>2013-09-22T11:13:59.927Z</time>
      </trkpt>
      <trkpt lat="48.24468" lon="2.71087">
        <ele>118</ele>
        <time>2013-09-22T11:14:07.919Z</time>
      </trkpt>
      <trkpt lat="48.24471" lon="2.71086">
        <ele>119</ele>
        <time>2013-09-22T11:14:10.910Z</time>
      </trkpt>
      <trkpt lat="48.24476" lon="2.71084">
        <ele>119</ele>
        <time>2013-09-22T11:14:18.918Z</time>
      </trkpt>
      <trkpt lat="48.24476" lon="2.71084">
        <ele>119</ele>
        <time>2013-09-22T11:14:20.922Z</time>
      </trkpt>
      <trkpt lat="48.24475" lon="2.71084">
        <ele>119</ele>
        <time>2013-09-22T11:14:23.917Z</time>
      </trkpt>
      <trkpt lat="48.2448" lon="2.71082">
        <ele>118</ele>
        <time>2013-09-22T11:14:26.925Z</time>
      </trkpt>
      <trkpt lat="48.24488" lon="2.71085">
        <ele>121</ele>
        <time>2013-09-22T11:14:38.922Z</time>
      </trkpt>
      <trkpt lat="48.2449" lon="2.71085">
        <ele>121</ele>
        <time>2013-09-22T11:14:41.906Z</time>
      </trkpt>
      <trkpt lat="48.2449" lon="2.71085">
        <ele>121</ele>
        <time>2013-09-22T11:14:43.912Z</time>
      </trkpt>
      <trkpt lat="48.2449" lon="2.71085">
        <ele>121</ele>
        <time>2013-09-22T11:14:45.921Z</time>
      </trkpt>
      <trkpt lat="48.24493" lon="2.71085">
        <ele>121</ele>
        <time>2013-09-22T11:14:48.923Z</time>
      </trkpt>
      <trkpt lat="48.24497" lon="2.71081">
        <ele>122</ele>
        <time>2013-09-22T11:14:53.910Z</time>
      </trkpt>
      <trkpt lat="48.24496" lon="2.71082">
        <ele>122</ele>
        <time>2013-09-22T11:14:55.912Z</time>
      </trkpt>
      <trkpt lat="48.24498" lon="2.7108">
        <ele>122</ele>
        <time>2013-09-22T11:14:57.917Z</time>
      </trkpt>
      <trkpt lat="48.24501" lon="2.71075">
        <ele>122</ele>
        <time>2013-09-22T11:15:02.921Z</time>
      </trkpt>
      <trkpt lat="48.24501" lon="2.71076">
        <ele>122</ele>
        <time>2013-09-22T11:15:05.906Z</time>
      </trkpt>
      <trkpt lat="48.24502" lon="2.71071">
        <ele>122</ele>
        <time>2013-09-22T11:15:08.931Z</time>
      </trkpt>
      <trkpt lat="48.24507" lon="2.71062">
        <ele>122</ele>
        <time>2013-09-22T11:15:15.911Z</time>
      </trkpt>
      <trkpt lat="48.2451" lon="2.71063">
        <ele>122</ele>
        <time>2013-09-22T11:15:18.917Z</time>
      </trkpt>
      <trkpt lat="48.24516" lon="2.7106">
        <ele>122</ele>
        <time>2013-09-22T11:15:25.981Z</time>
      </trkpt>
      <trkpt lat="48.2452" lon="2.71059">
        <ele>122</ele>
        <time>2013-09-22T11:15:28.944Z</time>
      </trkpt>
      <trkpt lat="48.24527" lon="2.71051">
        <ele>121</ele>
        <time>2013-09-22T11:15:35.920Z</time>
      </trkpt>
      <trkpt lat="48.24528" lon="2.7105">
        <ele>121</ele>
        <time>2013-09-22T11:15:36.917Z</time>
      </trkpt>
      <trkpt lat="48.24537" lon="2.71047">
        <ele>121</ele>
        <time>2013-09-22T11:15:45.933Z</time>
      </trkpt>
      <trkpt lat="48.24538" lon="2.71046">
        <ele>121</ele>
        <time>2013-09-22T11:15:48.939Z</time>
      </trkpt>
      <trkpt lat="48.24541" lon="2.71056">
        <ele>122</ele>
        <time>2013-09-22T11:16:02.928Z</time>
      </trkpt>
      <trkpt lat="48.24542" lon="2.71058">
        <ele>122</ele>
        <time>2013-09-22T11:16:05.906Z</time>
      </trkpt>
      <trkpt lat="48.24535" lon="2.71061">
        <ele>122</ele>
        <time>2013-09-22T11:16:18.941Z</time>
      </trkpt>
      <trkpt lat="48.24535" lon="2.71061">
        <ele>122</ele>
        <time>2013-09-22T11:16:20.943Z</time>
      </trkpt>
      <trkpt lat="48.24535" lon="2.71061">
        <ele>122</ele>
        <time>2013-09-22T11:16:34.914Z</time>
      </trkpt>
      <trkpt lat="48.24535" lon="2.71065">
        <ele>122</ele>
        <time>2013-09-22T11:16:36.902Z</time>
      </trkpt>
      <trkpt lat="48.24532" lon="2.71077">
        <ele>122</ele>
        <time>2013-09-22T11:16:50.938Z</time>
      </trkpt>
      <trkpt lat="48.24532" lon="2.71079">
        <ele>122</ele>
        <time>2013-09-22T11:16:52.940Z</time>
      </trkpt>
      <trkpt lat="48.24534" lon="2.71092">
        <ele>124</ele>
        <time>2013-09-22T11:17:06.922Z</time>
      </trkpt>
      <trkpt lat="48.24534" lon="2.71092">
        <ele>124</ele>
        <time>2013-09-22T11:17:08.925Z</time>
      </trkpt>
      <trkpt lat="48.24534" lon="2.71092">
        <ele>124</ele>
        <time>2013-09-22T11:17:13.927Z</time>
      </trkpt>
      <trkpt lat="48.24538" lon="2.7109">
        <ele>124</ele>
        <time>2013-09-22T11:17:16.940Z</time>
      </trkpt>
      <trkpt lat="48.24546" lon="2.71086">
        <ele>124</ele>
        <time>2013-09-22T11:17:26.922Z</time>
      </trkpt>
      <trkpt lat="48.24548" lon="2.71085">
        <ele>124</ele>
        <time>2013-09-22T11:17:29.928Z</time>
      </trkpt>
      <trkpt lat="48.24556" lon="2.71081">
        <ele>123</ele>
        <time>2013-09-22T11:17:34.919Z</time>
      </trkpt>
      <trkpt lat="48.24558" lon="2.7108">
        <ele>123</ele>
        <time>2013-09-22T11:17:36.915Z</time>
      </trkpt>
      <trkpt lat="48.24565" lon="2.71078">
        <ele>123</ele>
        <time>2013-09-22T11:17:43.920Z</time>
      </trkpt>
      <trkpt lat="48.24569" lon="2.71078">
        <ele>123</ele>
        <time>2013-09-22T11:17:46.940Z</time>
      </trkpt>
      <trkpt lat="48.24577" lon="2.71078">
        <ele>124</ele>
        <time>2013-09-22T11:17:57.930Z</time>
      </trkpt>
      <trkpt lat="48.24579" lon="2.71079">
        <ele>124</ele>
        <time>2013-09-22T11:18:00.923Z</time>
      </trkpt>
      <trkpt lat="48.24582" lon="2.71091">
        <ele>125</ele>
        <time>2013-09-22T11:18:10.911Z</time>
      </trkpt>
      <trkpt lat="48.24583" lon="2.71094">
        <ele>125</ele>
        <time>2013-09-22T11:18:12.915Z</time>
      </trkpt>
      <trkpt lat="48.24591" lon="2.71098">
        <ele>125</ele>
        <time>2013-09-22T11:18:26.930Z</time>
      </trkpt>
      <trkpt lat="48.24593" lon="2.71098">
        <ele>125</ele>
        <time>2013-09-22T11:18:29.911Z</time>
      </trkpt>
      <trkpt lat="48.24597" lon="2.71098">
        <ele>125</ele>
        <time>2013-09-22T11:18:36.927Z</time>
      </trkpt>
      <trkpt lat="48.24597" lon="2.71098">
        <ele>125</ele>
        <time>2013-09-22T11:18:39.910Z</time>
      </trkpt>
      <trkpt lat="48.24597" lon="2.71098">
        <ele>125</ele>
        <time>2013-09-22T11:18:41.921Z</time>
      </trkpt>
      <trkpt lat="48.246" lon="2.711">
        <ele>125</ele>
        <time>2013-09-22T11:18:44.926Z</time>
      </trkpt>
      <trkpt lat="48.24605" lon="2.711">
        <ele>124</ele>
        <time>2013-09-22T11:18:51.941Z</time>
      </trkpt>
      <trkpt lat="48.24605" lon="2.711">
        <ele>124</ele>
        <time>2013-09-22T11:18:54.933Z</time>
      </trkpt>
      <trkpt lat="48.24605" lon="2.711">
        <ele>124</ele>
        <time>2013-09-22T11:18:56.939Z</time>
      </trkpt>
      <trkpt lat="48.24604" lon="2.71094">
        <ele>124</ele>
        <time>2013-09-22T11:18:59.938Z</time>
      </trkpt>
      <trkpt lat="48.24602" lon="2.71081">
        <ele>123</ele>
        <time>2013-09-22T11:19:10.916Z</time>
      </trkpt>
      <trkpt lat="48.24601" lon="2.7108">
        <ele>123</ele>
        <time>2013-09-22T11:19:12.921Z</time>
      </trkpt>
      <trkpt lat="48.24601" lon="2.71079">
        <ele>123</ele>
        <time>2013-09-22T11:19:14.929Z</time>
      </trkpt>
      <trkpt lat="48.24601" lon="2.7108">
        <ele>123</ele>
        <time>2013-09-22T11:19:16.940Z</time>
      </trkpt>
      <trkpt lat="48.24601" lon="2.71077">
        <ele>123</ele>
        <time>2013-09-22T11:19:18.940Z</time>
      </trkpt>
      <trkpt lat="48.24604" lon="2.71066">
        <ele>123</ele>
        <time>2013-09-22T11:19:25.939Z</time>
      </trkpt>
      <trkpt lat="48.24607" lon="2.71064">
        <ele>123</ele>
        <time>2013-09-22T11:19:27.939Z</time>
      </trkpt>
      <trkpt lat="48.24613" lon="2.71058">
        <ele>122</ele>
        <time>2013-09-22T11:19:33.921Z</time>
      </trkpt>
      <trkpt lat="48.24615" lon="2.71056">
        <ele>122</ele>
        <time>2013-09-22T11:19:35.922Z</time>
      </trkpt>
      <trkpt lat="48.24621" lon="2.71048">
        <ele>122</ele>
        <time>2013-09-22T11:19:43.925Z</time>
      </trkpt>
      <trkpt lat="48.24623" lon="2.71047">
        <ele>122</ele>
        <time>2013-09-22T11:19:45.925Z</time>
      </trkpt>
      <trkpt lat="48.24631" lon="2.71051">
        <ele>122</ele>
        <time>2013-09-22T11:19:54.938Z</time>
      </trkpt>
      <trkpt lat="48.24632" lon="2.71052">
        <ele>122</ele>
        <time>2013-09-22T11:19:56.947Z</time>
      </trkpt>
      <trkpt lat="48.24635" lon="2.71054">
        <ele>122</ele>
        <time>2013-09-22T11:20:02.930Z</time>
      </trkpt>
      <trkpt lat="48.24635" lon="2.71054">
        <ele>122</ele>
        <time>2013-09-22T11:20:04.937Z</time>
      </trkpt>
      <trkpt lat="48.24635" lon="2.71054">
        <ele>122</ele>
        <time>2013-09-22T11:21:15.956Z</time>
      </trkpt>
      <trkpt lat="48.2464" lon="2.71059">
        <ele>122</ele>
        <time>2013-09-22T11:21:18.936Z</time>
      </trkpt>
      <trkpt lat="48.24641" lon="2.7106">
        <ele>122</ele>
        <time>2013-09-22T11:21:21.937Z</time>
      </trkpt>
      <trkpt lat="48.24641" lon="2.7106">
        <ele>122</ele>
        <time>2013-09-22T11:21:23.939Z</time>
      </trkpt>
      <trkpt lat="48.24642" lon="2.71059">
        <ele>122</ele>
        <time>2013-09-22T11:21:26.947Z</time>
      </trkpt>
      <trkpt lat="48.24647" lon="2.71055">
        <ele>122</ele>
        <time>2013-09-22T11:21:31.926Z</time>
      </trkpt>
      <trkpt lat="48.2465" lon="2.71052">
        <ele>122</ele>
        <time>2013-09-22T11:21:34.925Z</time>
      </trkpt>
      <trkpt lat="48.24658" lon="2.71046">
        <ele>122</ele>
        <time>2013-09-22T11:21:43.936Z</time>
      </trkpt>
      <trkpt lat="48.24659" lon="2.71045">
        <ele>122</ele>
        <time>2013-09-22T11:21:46.938Z</time>
      </trkpt>
      <trkpt lat="48.24667" lon="2.71043">
        <ele>122</ele>
        <time>2013-09-22T11:21:56.952Z</time>
      </trkpt>
      <trkpt lat="48.2467" lon="2.71043">
        <ele>122</ele>
        <time>2013-09-22T11:21:59.930Z</time>
      </trkpt>
      <trkpt lat="48.24675" lon="2.7105">
        <ele>122</ele>
        <time>2013-09-22T11:22:07.922Z</time>
      </trkpt>
      <trkpt lat="48.24677" lon="2.71053">
        <ele>122</ele>
        <time>2013-09-22T11:22:10.906Z</time>
      </trkpt>
      <trkpt lat="48.24684" lon="2.71057">
        <ele>122</ele>
        <time>2013-09-22T11:22:20.947Z</time>
      </trkpt>
      <trkpt lat="48.24687" lon="2.71059">
        <ele>122</ele>
        <time>2013-09-22T11:22:23.929Z</time>
      </trkpt>
      <trkpt lat="48.24692" lon="2.71067">
        <ele>122</ele>
        <time>2013-09-22T11:22:31.930Z</time>
      </trkpt>
      <trkpt lat="48.24694" lon="2.7107">
        <ele>122</ele>
        <time>2013-09-22T11:22:34.913Z</time>
      </trkpt>
      <trkpt lat="48.24701" lon="2.71065">
        <ele>122</ele>
        <time>2013-09-22T11:22:45.929Z</time>
      </trkpt>
      <trkpt lat="48.24702" lon="2.71061">
        <ele>122</ele>
        <time>2013-09-22T11:22:48.920Z</time>
      </trkpt>
      <trkpt lat="48.24702" lon="2.71048">
        <ele>122</ele>
        <time>2013-09-22T11:22:56.937Z</time>
      </trkpt>
      <trkpt lat="48.24702" lon="2.71043">
        <ele>122</ele>
        <time>2013-09-22T11:22:59.920Z</time>
      </trkpt>
      <trkpt lat="48.24703" lon="2.71033">
        <ele>122</ele>
        <time>2013-09-22T11:23:05.893Z</time>
      </trkpt>
      <trkpt lat="48.24702" lon="2.71028">
        <ele>122</ele>
        <time>2013-09-22T11:23:08.915Z</time>
      </trkpt>
      <trkpt lat="48.24701" lon="2.71015">
        <ele>122</ele>
        <time>2013-09-22T11:23:16.919Z</time>
      </trkpt>
      <trkpt lat="48.24702" lon="2.71012">
        <ele>122</ele>
        <time>2013-09-22T11:23:18.928Z</time>
      </trkpt>
      <trkpt lat="48.24701" lon="2.71002">
        <ele>122</ele>
        <time>2013-09-22T11:23:25.916Z</time>
      </trkpt>
      <trkpt lat="48.24699" lon="2.70999">
        <ele>120</ele>
        <time>2013-09-22T11:23:27.917Z</time>
      </trkpt>
      <trkpt lat="48.24696" lon="2.7099">
        <ele>120</ele>
        <time>2013-09-22T11:23:32.920Z</time>
      </trkpt>
      <trkpt lat="48.24696" lon="2.70984">
        <ele>120</ele>
        <time>2013-09-22T11:23:35.912Z</time>
      </trkpt>
      <trkpt lat="48.24694" lon="2.70974">
        <ele>119</ele>
        <time>2013-09-22T11:23:41.910Z</time>
      </trkpt>
      <trkpt lat="48.24692" lon="2.70971">
        <ele>119</ele>
        <time>2013-09-22T11:23:43.914Z</time>
      </trkpt>
      <trkpt lat="48.2469" lon="2.7096">
        <ele>119</ele>
        <time>2013-09-22T11:23:49.925Z</time>
      </trkpt>
      <trkpt lat="48.2469" lon="2.70955">
        <ele>119</ele>
        <time>2013-09-22T11:23:52.925Z</time>
      </trkpt>
      <trkpt lat="48.24689" lon="2.70946">
        <ele>118</ele>
        <time>2013-09-22T11:23:57.931Z</time>
      </trkpt>
      <trkpt lat="48.24688" lon="2.70941">
        <ele>118</ele>
        <time>2013-09-22T11:24:00.913Z</time>
      </trkpt>
      <trkpt lat="48.24683" lon="2.70931">
        <ele>117</ele>
        <time>2013-09-22T11:24:07.920Z</time>
      </trkpt>
      <trkpt lat="48.2468" lon="2.70928">
        <ele>116</ele>
        <time>2013-09-22T11:24:10.918Z</time>
      </trkpt>
      <trkpt lat="48.24673" lon="2.70924">
        <ele>115</ele>
        <time>2013-09-22T11:24:16.935Z</time>
      </trkpt>
      <trkpt lat="48.24669" lon="2.70922">
        <ele>114</ele>
        <time>2013-09-22T11:24:19.945Z</time>
      </trkpt>
      <trkpt lat="48.24664" lon="2.70916">
        <ele>113</ele>
        <time>2013-09-22T11:24:25.922Z</time>
      </trkpt>
      <trkpt lat="48.24662" lon="2.70912">
        <ele>113</ele>
        <time>2013-09-22T11:24:28.915Z</time>
      </trkpt>
      <trkpt lat="48.2466" lon="2.709">
        <ele>112</ele>
        <time>2013-09-22T11:24:35.911Z</time>
      </trkpt>
      <trkpt lat="48.24659" lon="2.70898">
        <ele>112</ele>
        <time>2013-09-22T11:24:36.890Z</time>
      </trkpt>
      <trkpt lat="48.24655" lon="2.70887">
        <ele>112</ele>
        <time>2013-09-22T11:24:43.910Z</time>
      </trkpt>
      <trkpt lat="48.24654" lon="2.70885">
        <ele>112</ele>
        <time>2013-09-22T11:24:45.921Z</time>
      </trkpt>
      <trkpt lat="48.2465" lon="2.70877">
        <ele>112</ele>
        <time>2013-09-22T11:24:52.923Z</time>
      </trkpt>
      <trkpt lat="48.24649" lon="2.70874">
        <ele>112</ele>
        <time>2013-09-22T11:24:54.939Z</time>
      </trkpt>
      <trkpt lat="48.24645" lon="2.70866">
        <ele>112</ele>
        <time>2013-09-22T11:24:59.921Z</time>
      </trkpt>
      <trkpt lat="48.24644" lon="2.70861">
        <ele>112</ele>
        <time>2013-09-22T11:25:02.919Z</time>
      </trkpt>
      <trkpt lat="48.24642" lon="2.7085">
        <ele>112</ele>
        <time>2013-09-22T11:25:10.912Z</time>
      </trkpt>
      <trkpt lat="48.24643" lon="2.70847">
        <ele>112</ele>
        <time>2013-09-22T11:25:13.910Z</time>
      </trkpt>
      <trkpt lat="48.24649" lon="2.70838">
        <ele>113</ele>
        <time>2013-09-22T11:25:25.913Z</time>
      </trkpt>
      <trkpt lat="48.2465" lon="2.70835">
        <ele>113</ele>
        <time>2013-09-22T11:25:27.918Z</time>
      </trkpt>
      <trkpt lat="48.24658" lon="2.70831">
        <ele>114</ele>
        <time>2013-09-22T11:25:36.914Z</time>
      </trkpt>
      <trkpt lat="48.24661" lon="2.70833">
        <ele>114</ele>
        <time>2013-09-22T11:25:39.909Z</time>
      </trkpt>
      <trkpt lat="48.24666" lon="2.70838">
        <ele>114</ele>
        <time>2013-09-22T11:25:46.903Z</time>
      </trkpt>
      <trkpt lat="48.24669" lon="2.70838">
        <ele>116</ele>
        <time>2013-09-22T11:25:48.919Z</time>
      </trkpt>
      <trkpt lat="48.24676" lon="2.70842">
        <ele>116</ele>
        <time>2013-09-22T11:25:55.914Z</time>
      </trkpt>
      <trkpt lat="48.24679" lon="2.70846">
        <ele>117</ele>
        <time>2013-09-22T11:25:58.912Z</time>
      </trkpt>
      <trkpt lat="48.24685" lon="2.70853">
        <ele>117</ele>
        <time>2013-09-22T11:26:05.894Z</time>
      </trkpt>
      <trkpt lat="48.24688" lon="2.70854">
        <ele>117</ele>
        <time>2013-09-22T11:26:07.905Z</time>
      </trkpt>
      <trkpt lat="48.24696" lon="2.70855">
        <ele>118</ele>
        <time>2013-09-22T11:26:20.915Z</time>
      </trkpt>
      <trkpt lat="48.24697" lon="2.70854">
        <ele>118</ele>
        <time>2013-09-22T11:26:23.904Z</time>
      </trkpt>
      <trkpt lat="48.24704" lon="2.70853">
        <ele>118</ele>
        <time>2013-09-22T11:26:28.902Z</time>
      </trkpt>
      <trkpt lat="48.24707" lon="2.70852">
        <ele>118</ele>
        <time>2013-09-22T11:26:31.912Z</time>
      </trkpt>
      <trkpt lat="48.24708" lon="2.70852">
        <ele>119</ele>
        <time>2013-09-22T11:26:34.907Z</time>
      </trkpt>
      <trkpt lat="48.24708" lon="2.70852">
        <ele>119</ele>
        <time>2013-09-22T11:26:36.875Z</time>
      </trkpt>
      <trkpt lat="48.24713" lon="2.7085">
        <ele>119</ele>
        <time>2013-09-22T11:26:38.906Z</time>
      </trkpt>
      <trkpt lat="48.24719" lon="2.70847">
        <ele>119</ele>
        <time>2013-09-22T11:26:44.910Z</time>
      </trkpt>
      <trkpt lat="48.24722" lon="2.70845">
        <ele>120</ele>
        <time>2013-09-22T11:26:47.905Z</time>
      </trkpt>
      <trkpt lat="48.24722" lon="2.70834">
        <ele>120</ele>
        <time>2013-09-22T11:26:57.943Z</time>
      </trkpt>
      <trkpt lat="48.24721" lon="2.70829">
        <ele>121</ele>
        <time>2013-09-22T11:27:00.906Z</time>
      </trkpt>
      <trkpt lat="48.24719" lon="2.70823">
        <ele>121</ele>
        <time>2013-09-22T11:27:06.912Z</time>
      </trkpt>
      <trkpt lat="48.2472" lon="2.70823">
        <ele>121</ele>
        <time>2013-09-22T11:27:09.899Z</time>
      </trkpt>
      <trkpt lat="48.24723" lon="2.70818">
        <ele>121</ele>
        <time>2013-09-22T11:27:11.914Z</time>
      </trkpt>
      <trkpt lat="48.24723" lon="2.7081">
        <ele>121</ele>
        <time>2013-09-22T11:27:16.904Z</time>
      </trkpt>
      <trkpt lat="48.24721" lon="2.70803">
        <ele>120</ele>
        <time>2013-09-22T11:27:19.913Z</time>
      </trkpt>
      <trkpt lat="48.2472" lon="2.7079">
        <ele>120</ele>
        <time>2013-09-22T11:27:25.908Z</time>
      </trkpt>
      <trkpt lat="48.2472" lon="2.70787">
        <ele>120</ele>
        <time>2013-09-22T11:27:27.914Z</time>
      </trkpt>
      <trkpt lat="48.24715" lon="2.70778">
        <ele>120</ele>
        <time>2013-09-22T11:27:36.892Z</time>
      </trkpt>
      <trkpt lat="48.24714" lon="2.70774">
        <ele>120</ele>
        <time>2013-09-22T11:27:38.912Z</time>
      </trkpt>
      <trkpt lat="48.24714" lon="2.70763">
        <ele>120</ele>
        <time>2013-09-22T11:27:46.908Z</time>
      </trkpt>
      <trkpt lat="48.24714" lon="2.70759">
        <ele>120</ele>
        <time>2013-09-22T11:27:48.911Z</time>
      </trkpt>
      <trkpt lat="48.24715" lon="2.70748">
        <ele>119</ele>
        <time>2013-09-22T11:27:58.905Z</time>
      </trkpt>
      <trkpt lat="48.24715" lon="2.70741">
        <ele>119</ele>
        <time>2013-09-22T11:28:00.906Z</time>
      </trkpt>
      <trkpt lat="48.24717" lon="2.70733">
        <ele>119</ele>
        <time>2013-09-22T11:28:07.937Z</time>
      </trkpt>
      <trkpt lat="48.24719" lon="2.70726">
        <ele>119</ele>
        <time>2013-09-22T11:28:10.909Z</time>
      </trkpt>
      <trkpt lat="48.24714" lon="2.70715">
        <ele>119</ele>
        <time>2013-09-22T11:28:17.907Z</time>
      </trkpt>
      <trkpt lat="48.24712" lon="2.70712">
        <ele>118</ele>
        <time>2013-09-22T11:28:19.924Z</time>
      </trkpt>
      <trkpt lat="48.24711" lon="2.70706">
        <ele>118</ele>
        <time>2013-09-22T11:28:26.915Z</time>
      </trkpt>
      <trkpt lat="48.24715" lon="2.70698">
        <ele>118</ele>
        <time>2013-09-22T11:28:29.898Z</time>
      </trkpt>
      <trkpt lat="48.24717" lon="2.70687">
        <ele>118</ele>
        <time>2013-09-22T11:28:36.874Z</time>
      </trkpt>
      <trkpt lat="48.24717" lon="2.70687">
        <ele>118</ele>
        <time>2013-09-22T11:28:38.907Z</time>
      </trkpt>
      <trkpt lat="48.24718" lon="2.70681">
        <ele>119</ele>
        <time>2013-09-22T11:28:40.907Z</time>
      </trkpt>
      <trkpt lat="48.24726" lon="2.70677">
        <ele>120</ele>
        <time>2013-09-22T11:28:47.937Z</time>
      </trkpt>
      <trkpt lat="48.24727" lon="2.70677">
        <ele>120</ele>
        <time>2013-09-22T11:28:50.906Z</time>
      </trkpt>
      <trkpt lat="48.24727" lon="2.70677">
        <ele>120</ele>
        <time>2013-09-22T11:28:53.906Z</time>
      </trkpt>
      <trkpt lat="48.24727" lon="2.70677">
        <ele>120</ele>
        <time>2013-09-22T11:28:55.923Z</time>
      </trkpt>
      <trkpt lat="48.24728" lon="2.7067">
        <ele>120</ele>
        <time>2013-09-22T11:28:58.908Z</time>
      </trkpt>
      <trkpt lat="48.24728" lon="2.70668">
        <ele>120</ele>
        <time>2013-09-22T11:29:01.926Z</time>
      </trkpt>
      <trkpt lat="48.24728" lon="2.70669">
        <ele>120</ele>
        <time>2013-09-22T11:29:04.907Z</time>
      </trkpt>
      <trkpt lat="48.24728" lon="2.70669">
        <ele>120</ele>
        <time>2013-09-22T11:29:40.917Z</time>
      </trkpt>
      <trkpt lat="48.24728" lon="2.70666">
        <ele>117</ele>
        <time>2013-09-22T11:29:43.921Z</time>
      </trkpt>
      <trkpt lat="48.24725" lon="2.70659">
        <ele>116</ele>
        <time>2013-09-22T11:29:48.913Z</time>
      </trkpt>
      <trkpt lat="48.24725" lon="2.70659">
        <ele>117</ele>
        <time>2013-09-22T11:29:50.916Z</time>
      </trkpt>
      <trkpt lat="48.24725" lon="2.7066">
        <ele>117</ele>
        <time>2013-09-22T11:30:13.922Z</time>
      </trkpt>
      <trkpt lat="48.2473" lon="2.70662">
        <ele>118</ele>
        <time>2013-09-22T11:30:16.943Z</time>
      </trkpt>
      <trkpt lat="48.24729" lon="2.70663">
        <ele>117</ele>
        <time>2013-09-22T11:30:19.932Z</time>
      </trkpt>
      <trkpt lat="48.24729" lon="2.70663">
        <ele>117</ele>
        <time>2013-09-22T11:31:04.713Z</time>
      </trkpt>
      <trkpt lat="48.2473" lon="2.70658">
        <ele>117</ele>
        <time>2013-09-22T11:31:06.715Z</time>
      </trkpt>
      <trkpt lat="48.2473" lon="2.70655">
        <ele>117</ele>
        <time>2013-09-22T11:31:08.730Z</time>
      </trkpt>
      <trkpt lat="48.2473" lon="2.70655">
        <ele>117</ele>
        <time>2013-09-22T11:31:11.716Z</time>
      </trkpt>
      <trkpt lat="48.2473" lon="2.70656">
        <ele>117</ele>
        <time>2013-09-22T11:31:40.732Z</time>
      </trkpt>
      <trkpt lat="48.24729" lon="2.70652">
        <ele>117</ele>
        <time>2013-09-22T11:31:43.739Z</time>
      </trkpt>
      <trkpt lat="48.24729" lon="2.70644">
        <ele>116</ele>
        <time>2013-09-22T11:31:50.730Z</time>
      </trkpt>
      <trkpt lat="48.24735" lon="2.70634">
        <ele>116</ele>
        <time>2013-09-22T11:31:53.734Z</time>
      </trkpt>
      <trkpt lat="48.24735" lon="2.70634">
        <ele>116</ele>
        <time>2013-09-22T11:31:55.739Z</time>
      </trkpt>
      <trkpt lat="48.24734" lon="2.70635">
        <ele>116</ele>
        <time>2013-09-22T11:31:58.728Z</time>
      </trkpt>
      <trkpt lat="48.24734" lon="2.70636">
        <ele>116</ele>
        <time>2013-09-22T11:32:12.716Z</time>
      </trkpt>
      <trkpt lat="48.24734" lon="2.70635">
        <ele>116</ele>
        <time>2013-09-22T11:32:14.720Z</time>
      </trkpt>
      <trkpt lat="48.24741" lon="2.70638">
        <ele>116</ele>
        <time>2013-09-22T11:32:20.725Z</time>
      </trkpt>
      <trkpt lat="48.24744" lon="2.70641">
        <ele>117</ele>
        <time>2013-09-22T11:32:23.726Z</time>
      </trkpt>
      <trkpt lat="48.2475" lon="2.70648">
        <ele>123</ele>
        <time>2013-09-22T11:32:30.721Z</time>
      </trkpt>
      <trkpt lat="48.24752" lon="2.7065">
        <ele>123</ele>
        <time>2013-09-22T11:32:32.721Z</time>
      </trkpt>
      <trkpt lat="48.24759" lon="2.70654">
        <ele>123</ele>
        <time>2013-09-22T11:32:38.718Z</time>
      </trkpt>
      <trkpt lat="48.24761" lon="2.70654">
        <ele>123</ele>
        <time>2013-09-22T11:32:40.727Z</time>
      </trkpt>
      <trkpt lat="48.24766" lon="2.70661">
        <ele>123</ele>
        <time>2013-09-22T11:32:46.720Z</time>
      </trkpt>
      <trkpt lat="48.24767" lon="2.70665">
        <ele>123</ele>
        <time>2013-09-22T11:32:48.721Z</time>
      </trkpt>
      <trkpt lat="48.24767" lon="2.70669">
        <ele>125</ele>
        <time>2013-09-22T11:32:54.762Z</time>
      </trkpt>
      <trkpt lat="48.24767" lon="2.70669">
        <ele>125</ele>
        <time>2013-09-22T11:32:56.764Z</time>
      </trkpt>
      <trkpt lat="48.24767" lon="2.70669">
        <ele>125</ele>
        <time>2013-09-22T11:33:02.733Z</time>
      </trkpt>
      <trkpt lat="48.24773" lon="2.70674">
        <ele>126</ele>
        <time>2013-09-22T11:33:05.721Z</time>
      </trkpt>
      <trkpt lat="48.24781" lon="2.70679">
        <ele>126</ele>
        <time>2013-09-22T11:33:14.740Z</time>
      </trkpt>
      <trkpt lat="48.24783" lon="2.70681">
        <ele>126</ele>
        <time>2013-09-22T11:33:16.752Z</time>
      </trkpt>
      <trkpt lat="48.24791" lon="2.70683">
        <ele>126</ele>
        <time>2013-09-22T11:33:24.730Z</time>
      </trkpt>
      <trkpt lat="48.24794" lon="2.70683">
        <ele>126</ele>
        <time>2013-09-22T11:33:27.719Z</time>
      </trkpt>
      <trkpt lat="48.24801" lon="2.7068">
        <ele>127</ele>
        <time>2013-09-22T11:33:34.716Z</time>
      </trkpt>
      <trkpt lat="48.24802" lon="2.70678">
        <ele>127</ele>
        <time>2013-09-22T11:33:36.714Z</time>
      </trkpt>
      <trkpt lat="48.24809" lon="2.70678">
        <ele>127</ele>
        <time>2013-09-22T11:33:46.731Z</time>
      </trkpt>
      <trkpt lat="48.24812" lon="2.70678">
        <ele>127</ele>
        <time>2013-09-22T11:33:49.720Z</time>
      </trkpt>
      <trkpt lat="48.24812" lon="2.70678">
        <ele>127</ele>
        <time>2013-09-22T11:33:51.722Z</time>
      </trkpt>
      <trkpt lat="48.24812" lon="2.70678">
        <ele>127</ele>
        <time>2013-09-22T11:33:53.727Z</time>
      </trkpt>
      <trkpt lat="48.24812" lon="2.70678">
        <ele>127</ele>
        <time>2013-09-22T11:34:01.725Z</time>
      </trkpt>
      <trkpt lat="48.24814" lon="2.70676">
        <ele>127</ele>
        <time>2013-09-22T11:34:03.726Z</time>
      </trkpt>
      <trkpt lat="48.2482" lon="2.70673">
        <ele>127</ele>
        <time>2013-09-22T11:34:10.710Z</time>
      </trkpt>
      <trkpt lat="48.24822" lon="2.70673">
        <ele>127</ele>
        <time>2013-09-22T11:34:12.710Z</time>
      </trkpt>
      <trkpt lat="48.2483" lon="2.70669">
        <ele>128</ele>
        <time>2013-09-22T11:34:22.713Z</time>
      </trkpt>
      <trkpt lat="48.24832" lon="2.70668">
        <ele>128</ele>
        <time>2013-09-22T11:34:24.723Z</time>
      </trkpt>
      <trkpt lat="48.24835" lon="2.70656">
        <ele>125</ele>
        <time>2013-09-22T11:34:35.720Z</time>
      </trkpt>
      <trkpt lat="48.24834" lon="2.70655">
        <ele>125</ele>
        <time>2013-09-22T11:34:36.692Z</time>
      </trkpt>
      <trkpt lat="48.24826" lon="2.7065">
        <ele>125</ele>
        <time>2013-09-22T11:34:49.752Z</time>
      </trkpt>
      <trkpt lat="48.24824" lon="2.7065">
        <ele>125</ele>
        <time>2013-09-22T11:34:52.737Z</time>
      </trkpt>
      <trkpt lat="48.24817" lon="2.70644">
        <ele>124</ele>
        <time>2013-09-22T11:35:05.719Z</time>
      </trkpt>
      <trkpt lat="48.24816" lon="2.70642">
        <ele>124</ele>
        <time>2013-09-22T11:35:07.734Z</time>
      </trkpt>
      <trkpt lat="48.24809" lon="2.70635">
        <ele>123</ele>
        <time>2013-09-22T11:35:19.748Z</time>
      </trkpt>
      <trkpt lat="48.24806" lon="2.70633">
        <ele>123</ele>
        <time>2013-09-22T11:35:22.723Z</time>
      </trkpt>
      <trkpt lat="48.248" lon="2.7063">
        <ele>123</ele>
        <time>2013-09-22T11:35:28.740Z</time>
      </trkpt>
      <trkpt lat="48.24798" lon="2.70623">
        <ele>122</ele>
        <time>2013-09-22T11:35:31.732Z</time>
      </trkpt>
      <trkpt lat="48.24796" lon="2.70612">
        <ele>122</ele>
        <time>2013-09-22T11:35:38.722Z</time>
      </trkpt>
      <trkpt lat="48.24796" lon="2.7061">
        <ele>122</ele>
        <time>2013-09-22T11:35:40.738Z</time>
      </trkpt>
      <trkpt lat="48.24791" lon="2.70604">
        <ele>121</ele>
        <time>2013-09-22T11:35:47.738Z</time>
      </trkpt>
      <trkpt lat="48.24788" lon="2.70601">
        <ele>121</ele>
        <time>2013-09-22T11:35:50.724Z</time>
      </trkpt>
      <trkpt lat="48.24785" lon="2.70599">
        <ele>121</ele>
        <time>2013-09-22T11:35:55.736Z</time>
      </trkpt>
      <trkpt lat="48.24785" lon="2.70599">
        <ele>121</ele>
        <time>2013-09-22T11:35:58.727Z</time>
      </trkpt>
      <trkpt lat="48.24784" lon="2.70596">
        <ele>121</ele>
        <time>2013-09-22T11:36:00.726Z</time>
      </trkpt>
      <trkpt lat="48.2478" lon="2.7059">
        <ele>120</ele>
        <time>2013-09-22T11:36:08.733Z</time>
      </trkpt>
      <trkpt lat="48.2478" lon="2.7059">
        <ele>121</ele>
        <time>2013-09-22T11:36:11.712Z</time>
      </trkpt>
      <trkpt lat="48.2478" lon="2.70591">
        <ele>121</ele>
        <time>2013-09-22T11:36:13.724Z</time>
      </trkpt>
      <trkpt lat="48.24779" lon="2.7059">
        <ele>120</ele>
        <time>2013-09-22T11:36:15.746Z</time>
      </trkpt>
      <trkpt lat="48.24772" lon="2.70586">
        <ele>120</ele>
        <time>2013-09-22T11:36:21.726Z</time>
      </trkpt>
      <trkpt lat="48.24769" lon="2.70584">
        <ele>120</ele>
        <time>2013-09-22T11:36:24.718Z</time>
      </trkpt>
      <trkpt lat="48.24767" lon="2.70582">
        <ele>114</ele>
        <time>2013-09-22T11:36:28.730Z</time>
      </trkpt>
      <trkpt lat="48.24767" lon="2.70582">
        <ele>114</ele>
        <time>2013-09-22T11:36:31.717Z</time>
      </trkpt>
      <trkpt lat="48.24767" lon="2.70582">
        <ele>114</ele>
        <time>2013-09-22T11:37:00.727Z</time>
      </trkpt>
      <trkpt lat="48.2477" lon="2.70577">
        <ele>113</ele>
        <time>2013-09-22T11:37:02.727Z</time>
      </trkpt>
      <trkpt lat="48.24772" lon="2.70576">
        <ele>113</ele>
        <time>2013-09-22T11:37:04.728Z</time>
      </trkpt>
      <trkpt lat="48.24771" lon="2.70577">
        <ele>113</ele>
        <time>2013-09-22T11:37:06.729Z</time>
      </trkpt>
      <trkpt lat="48.24771" lon="2.70577">
        <ele>113</ele>
        <time>2013-09-22T11:37:24.744Z</time>
      </trkpt>
      <trkpt lat="48.24776" lon="2.70574">
        <ele>112</ele>
        <time>2013-09-22T11:37:27.724Z</time>
      </trkpt>
      <trkpt lat="48.24776" lon="2.70573">
        <ele>112</ele>
        <time>2013-09-22T11:37:29.724Z</time>
      </trkpt>
      <trkpt lat="48.24776" lon="2.70574">
        <ele>112</ele>
        <time>2013-09-22T11:37:31.732Z</time>
      </trkpt>
      <trkpt lat="48.24776" lon="2.70574">
        <ele>112</ele>
        <time>2013-09-22T11:37:38.723Z</time>
      </trkpt>
      <trkpt lat="48.2478" lon="2.70572">
        <ele>112</ele>
        <time>2013-09-22T11:37:40.724Z</time>
      </trkpt>
      <trkpt lat="48.24783" lon="2.70571">
        <ele>112</ele>
        <time>2013-09-22T11:37:45.734Z</time>
      </trkpt>
      <trkpt lat="48.24783" lon="2.70571">
        <ele>112</ele>
        <time>2013-09-22T11:37:47.747Z</time>
      </trkpt>
      <trkpt lat="48.24783" lon="2.70571">
        <ele>112</ele>
        <time>2013-09-22T11:37:52.729Z</time>
      </trkpt>
      <trkpt lat="48.24785" lon="2.70572">
        <ele>112</ele>
        <time>2013-09-22T11:37:54.736Z</time>
      </trkpt>
      <trkpt lat="48.24788" lon="2.70573">
        <ele>112</ele>
        <time>2013-09-22T11:37:57.718Z</time>
      </trkpt>
      <trkpt lat="48.24788" lon="2.70572">
        <ele>112</ele>
        <time>2013-09-22T11:37:59.724Z</time>
      </trkpt>
      <trkpt lat="48.24787" lon="2.70572">
        <ele>112</ele>
        <time>2013-09-22T11:38:01.731Z</time>
      </trkpt>
      <trkpt lat="48.24788" lon="2.70574">
        <ele>112</ele>
        <time>2013-09-22T11:38:04.712Z</time>
      </trkpt>
      <trkpt lat="48.24788" lon="2.70586">
        <ele>121</ele>
        <time>2013-09-22T11:38:15.754Z</time>
      </trkpt>
      <trkpt lat="48.24789" lon="2.70589">
        <ele>121</ele>
        <time>2013-09-22T11:38:18.730Z</time>
      </trkpt>
      <trkpt lat="48.24792" lon="2.706">
        <ele>121</ele>
        <time>2013-09-22T11:38:30.730Z</time>
      </trkpt>
      <trkpt lat="48.24794" lon="2.70601">
        <ele>121</ele>
        <time>2013-09-22T11:38:33.732Z</time>
      </trkpt>
      <trkpt lat="48.24794" lon="2.70601">
        <ele>121</ele>
        <time>2013-09-22T11:38:36.709Z</time>
      </trkpt>
      <trkpt lat="48.24796" lon="2.70601">
        <ele>121</ele>
        <time>2013-09-22T11:38:38.717Z</time>
      </trkpt>
      <trkpt lat="48.24804" lon="2.706">
        <ele>121</ele>
        <time>2013-09-22T11:38:48.734Z</time>
      </trkpt>
      <trkpt lat="48.24805" lon="2.70601">
        <ele>121</ele>
        <time>2013-09-22T11:38:50.760Z</time>
      </trkpt>
      <trkpt lat="48.24813" lon="2.70603">
        <ele>122</ele>
        <time>2013-09-22T11:38:58.720Z</time>
      </trkpt>
      <trkpt lat="48.24815" lon="2.70604">
        <ele>122</ele>
        <time>2013-09-22T11:39:01.737Z</time>
      </trkpt>
      <trkpt lat="48.24816" lon="2.70605">
        <ele>122</ele>
        <time>2013-09-22T11:39:04.711Z</time>
      </trkpt>
      <trkpt lat="48.24816" lon="2.70604">
        <ele>122</ele>
        <time>2013-09-22T11:39:06.713Z</time>
      </trkpt>
      <trkpt lat="48.24815" lon="2.70604">
        <ele>122</ele>
        <time>2013-09-22T11:39:09.709Z</time>
      </trkpt>
      <trkpt lat="48.2482" lon="2.70604">
        <ele>122</ele>
        <time>2013-09-22T11:39:11.712Z</time>
      </trkpt>
      <trkpt lat="48.24827" lon="2.70604">
        <ele>122</ele>
        <time>2013-09-22T11:39:19.731Z</time>
      </trkpt>
      <trkpt lat="48.24829" lon="2.70605">
        <ele>122</ele>
        <time>2013-09-22T11:39:22.724Z</time>
      </trkpt>
      <trkpt lat="48.2483" lon="2.70605">
        <ele>122</ele>
        <time>2013-09-22T11:39:24.728Z</time>
      </trkpt>
      <trkpt lat="48.24831" lon="2.70605">
        <ele>122</ele>
        <time>2013-09-22T11:39:27.723Z</time>
      </trkpt>
      <trkpt lat="48.24832" lon="2.70609">
        <ele>122</ele>
        <time>2013-09-22T11:39:30.713Z</time>
      </trkpt>
      <trkpt lat="48.24828" lon="2.70621">
        <ele>123</ele>
        <time>2013-09-22T11:39:46.721Z</time>
      </trkpt>
      <trkpt lat="48.24828" lon="2.70621">
        <ele>123</ele>
        <time>2013-09-22T11:39:48.725Z</time>
      </trkpt>
      <trkpt lat="48.24828" lon="2.70621">
        <ele>123</ele>
        <time>2013-09-22T11:39:51.719Z</time>
      </trkpt>
      <trkpt lat="48.24827" lon="2.70622">
        <ele>123</ele>
        <time>2013-09-22T11:39:53.718Z</time>
      </trkpt>
      <trkpt lat="48.24821" lon="2.70622">
        <ele>123</ele>
        <time>2013-09-22T11:40:01.727Z</time>
      </trkpt>
      <trkpt lat="48.24821" lon="2.70622">
        <ele>123</ele>
        <time>2013-09-22T11:40:04.720Z</time>
      </trkpt>
      <trkpt lat="48.24821" lon="2.70622">
        <ele>123</ele>
        <time>2013-09-22T11:40:19.737Z</time>
      </trkpt>
      <trkpt lat="48.24818" lon="2.70625">
        <ele>123</ele>
        <time>2013-09-22T11:40:22.714Z</time>
      </trkpt>
      <trkpt lat="48.24819" lon="2.70637">
        <ele>124</ele>
        <time>2013-09-22T11:40:34.711Z</time>
      </trkpt>
      <trkpt lat="48.24821" lon="2.70639">
        <ele>124</ele>
        <time>2013-09-22T11:40:36.700Z</time>
      </trkpt>
      <trkpt lat="48.24824" lon="2.7065">
        <ele>125</ele>
        <time>2013-09-22T11:40:46.722Z</time>
      </trkpt>
      <trkpt lat="48.24824" lon="2.70653">
        <ele>125</ele>
        <time>2013-09-22T11:40:48.723Z</time>
      </trkpt>
      <trkpt lat="48.24827" lon="2.70665">
        <ele>127</ele>
        <time>2013-09-22T11:40:55.740Z</time>
      </trkpt>
      <trkpt lat="48.24828" lon="2.70669">
        <ele>128</ele>
        <time>2013-09-22T11:40:58.724Z</time>
      </trkpt>
      <trkpt lat="48.2483" lon="2.70676">
        <ele>128</ele>
        <time>2013-09-22T11:41:07.733Z</time>
      </trkpt>
      <trkpt lat="48.2483" lon="2.70676">
        <ele>128</ele>
        <time>2013-09-22T11:41:10.721Z</time>
      </trkpt>
      <trkpt lat="48.24835" lon="2.70683">
        <ele>126</ele>
        <time>2013-09-22T11:41:13.731Z</time>
      </trkpt>
      <trkpt lat="48.2484" lon="2.7069">
        <ele>126</ele>
        <time>2013-09-22T11:41:22.710Z</time>
      </trkpt>
      <trkpt lat="48.2484" lon="2.70689">
        <ele>126</ele>
        <time>2013-09-22T11:41:24.719Z</time>
      </trkpt>
      <trkpt lat="48.2484" lon="2.70689">
        <ele>126</ele>
        <time>2013-09-22T11:41:36.703Z</time>
      </trkpt>
      <trkpt lat="48.24843" lon="2.70693">
        <ele>125</ele>
        <time>2013-09-22T11:41:38.739Z</time>
      </trkpt>
      <trkpt lat="48.24845" lon="2.70695">
        <ele>125</ele>
        <time>2013-09-22T11:41:41.710Z</time>
      </trkpt>
      <trkpt lat="48.24844" lon="2.70695">
        <ele>125</ele>
        <time>2013-09-22T11:41:43.739Z</time>
      </trkpt>
      <trkpt lat="48.24844" lon="2.70695">
        <ele>125</ele>
        <time>2013-09-22T11:41:46.733Z</time>
      </trkpt>
      <trkpt lat="48.24846" lon="2.70698">
        <ele>125</ele>
        <time>2013-09-22T11:41:48.732Z</time>
      </trkpt>
      <trkpt lat="48.24848" lon="2.70706">
        <ele>125</ele>
        <time>2013-09-22T11:41:54.735Z</time>
      </trkpt>
      <trkpt lat="48.24848" lon="2.70706">
        <ele>125</ele>
        <time>2013-09-22T11:41:56.738Z</time>
      </trkpt>
      <trkpt lat="48.24847" lon="2.70711">
        <ele>125</ele>
        <time>2013-09-22T11:41:59.729Z</time>
      </trkpt>
      <trkpt lat="48.24848" lon="2.70721">
        <ele>125</ele>
        <time>2013-09-22T11:42:06.718Z</time>
      </trkpt>
      <trkpt lat="48.24848" lon="2.70725">
        <ele>125</ele>
        <time>2013-09-22T11:42:08.718Z</time>
      </trkpt>
      <trkpt lat="48.24848" lon="2.70736">
        <ele>126</ele>
        <time>2013-09-22T11:42:18.734Z</time>
      </trkpt>
      <trkpt lat="48.24848" lon="2.70736">
        <ele>126</ele>
        <time>2013-09-22T11:42:20.735Z</time>
      </trkpt>
      <trkpt lat="48.24849" lon="2.7074">
        <ele>126</ele>
        <time>2013-09-22T11:42:23.735Z</time>
      </trkpt>
      <trkpt lat="48.24851" lon="2.70747">
        <ele>126</ele>
        <time>2013-09-22T11:42:28.736Z</time>
      </trkpt>
      <trkpt lat="48.24851" lon="2.70746">
        <ele>126</ele>
        <time>2013-09-22T11:42:31.726Z</time>
      </trkpt>
      <trkpt lat="48.24853" lon="2.70752">
        <ele>126</ele>
        <time>2013-09-22T11:42:34.713Z</time>
      </trkpt>
      <trkpt lat="48.24853" lon="2.70756">
        <ele>126</ele>
        <time>2013-09-22T11:42:38.723Z</time>
      </trkpt>
      <trkpt lat="48.24853" lon="2.70755">
        <ele>126</ele>
        <time>2013-09-22T11:42:41.711Z</time>
      </trkpt>
      <trkpt lat="48.24853" lon="2.70755">
        <ele>126</ele>
        <time>2013-09-22T11:42:51.727Z</time>
      </trkpt>
      <trkpt lat="48.24853" lon="2.70758">
        <ele>126</ele>
        <time>2013-09-22T11:42:53.727Z</time>
      </trkpt>
      <trkpt lat="48.24854" lon="2.70763">
        <ele>126</ele>
        <time>2013-09-22T11:42:57.747Z</time>
      </trkpt>
      <trkpt lat="48.24854" lon="2.70762">
        <ele>126</ele>
        <time>2013-09-22T11:43:00.718Z</time>
      </trkpt>
      <trkpt lat="48.24853" lon="2.70762">
        <ele>126</ele>
        <time>2013-09-22T11:43:06.724Z</time>
      </trkpt>
      <trkpt lat="48.2486" lon="2.70764">
        <ele>125</ele>
        <time>2013-09-22T11:43:09.708Z</time>
      </trkpt>
      <trkpt lat="48.24868" lon="2.70768">
        <ele>124</ele>
        <time>2013-09-22T11:43:16.716Z</time>
      </trkpt>
      <trkpt lat="48.24869" lon="2.70769">
        <ele>124</ele>
        <time>2013-09-22T11:43:18.723Z</time>
      </trkpt>
      <trkpt lat="48.24873" lon="2.70771">
        <ele>124</ele>
        <time>2013-09-22T11:43:25.738Z</time>
      </trkpt>
      <trkpt lat="48.24873" lon="2.70771">
        <ele>124</ele>
        <time>2013-09-22T11:43:28.716Z</time>
      </trkpt>
      <trkpt lat="48.24876" lon="2.7077">
        <ele>124</ele>
        <time>2013-09-22T11:43:31.739Z</time>
      </trkpt>
      <trkpt lat="48.24883" lon="2.70771">
        <ele>123</ele>
        <time>2013-09-22T11:43:40.716Z</time>
      </trkpt>
      <trkpt lat="48.24887" lon="2.70775">
        <ele>123</ele>
        <time>2013-09-22T11:43:43.721Z</time>
      </trkpt>
      <trkpt lat="48.24892" lon="2.70785">
        <ele>123</ele>
        <time>2013-09-22T11:43:49.721Z</time>
      </trkpt>
      <trkpt lat="48.24896" lon="2.70787">
        <ele>123</ele>
        <time>2013-09-22T11:43:52.720Z</time>
      </trkpt>
      <trkpt lat="48.24902" lon="2.7079">
        <ele>123</ele>
        <time>2013-09-22T11:43:58.721Z</time>
      </trkpt>
      <trkpt lat="48.24905" lon="2.70791">
        <ele>123</ele>
        <time>2013-09-22T11:44:01.722Z</time>
      </trkpt>
      <trkpt lat="48.24905" lon="2.70791">
        <ele>123</ele>
        <time>2013-09-22T11:44:04.715Z</time>
      </trkpt>
      <trkpt lat="48.24905" lon="2.70791">
        <ele>123</ele>
        <time>2013-09-22T11:44:06.725Z</time>
      </trkpt>
      <trkpt lat="48.2491" lon="2.70792">
        <ele>122</ele>
        <time>2013-09-22T11:44:09.706Z</time>
      </trkpt>
      <trkpt lat="48.24912" lon="2.70792">
        <ele>122</ele>
        <time>2013-09-22T11:44:13.724Z</time>
      </trkpt>
      <trkpt lat="48.24912" lon="2.70792">
        <ele>122</ele>
        <time>2013-09-22T11:44:16.726Z</time>
      </trkpt>
      <trkpt lat="48.24911" lon="2.70792">
        <ele>122</ele>
        <time>2013-09-22T11:44:19.744Z</time>
      </trkpt>
      <trkpt lat="48.24917" lon="2.70792">
        <ele>117</ele>
        <time>2013-09-22T11:44:22.725Z</time>
      </trkpt>
      <trkpt lat="48.24919" lon="2.70796">
        <ele>117</ele>
        <time>2013-09-22T11:44:27.717Z</time>
      </trkpt>
      <trkpt lat="48.24919" lon="2.70796">
        <ele>117</ele>
        <time>2013-09-22T11:44:29.719Z</time>
      </trkpt>
      <trkpt lat="48.2492" lon="2.70798">
        <ele>117</ele>
        <time>2013-09-22T11:44:31.748Z</time>
      </trkpt>
      <trkpt lat="48.24924" lon="2.70803">
        <ele>117</ele>
        <time>2013-09-22T11:44:36.707Z</time>
      </trkpt>
      <trkpt lat="48.24923" lon="2.70802">
        <ele>117</ele>
        <time>2013-09-22T11:44:39.712Z</time>
      </trkpt>
      <trkpt lat="48.24923" lon="2.70802">
        <ele>117</ele>
        <time>2013-09-22T11:44:41.712Z</time>
      </trkpt>
      <trkpt lat="48.24927" lon="2.70807">
        <ele>117</ele>
        <time>2013-09-22T11:44:43.730Z</time>
      </trkpt>
      <trkpt lat="48.24926" lon="2.70813">
        <ele>117</ele>
        <time>2013-09-22T11:44:48.723Z</time>
      </trkpt>
      <trkpt lat="48.24926" lon="2.70813">
        <ele>117</ele>
        <time>2013-09-22T11:44:50.724Z</time>
      </trkpt>
      <trkpt lat="48.24926" lon="2.70813">
        <ele>117</ele>
        <time>2013-09-22T11:44:55.720Z</time>
      </trkpt>
      <trkpt lat="48.24929" lon="2.70814">
        <ele>117</ele>
        <time>2013-09-22T11:44:57.726Z</time>
      </trkpt>
      <trkpt lat="48.24929" lon="2.70815">
        <ele>117</ele>
        <time>2013-09-22T11:45:00.713Z</time>
      </trkpt>
      <trkpt lat="48.24929" lon="2.70816">
        <ele>117</ele>
        <time>2013-09-22T11:45:02.715Z</time>
      </trkpt>
      <trkpt lat="48.24929" lon="2.70815">
        <ele>117</ele>
        <time>2013-09-22T11:45:13.731Z</time>
      </trkpt>
      <trkpt lat="48.2493" lon="2.70819">
        <ele>117</ele>
        <time>2013-09-22T11:45:16.731Z</time>
      </trkpt>
      <trkpt lat="48.24931" lon="2.70822">
        <ele>117</ele>
        <time>2013-09-22T11:45:18.757Z</time>
      </trkpt>
      <trkpt lat="48.24931" lon="2.70822">
        <ele>117</ele>
        <time>2013-09-22T11:45:21.744Z</time>
      </trkpt>
      <trkpt lat="48.24931" lon="2.70822">
        <ele>117</ele>
        <time>2013-09-22T11:45:56.733Z</time>
      </trkpt>
      <trkpt lat="48.24933" lon="2.70828">
        <ele>117</ele>
        <time>2013-09-22T11:45:58.732Z</time>
      </trkpt>
      <trkpt lat="48.24934" lon="2.7083">
        <ele>117</ele>
        <time>2013-09-22T11:46:01.741Z</time>
      </trkpt>
      <trkpt lat="48.24933" lon="2.70829">
        <ele>117</ele>
        <time>2013-09-22T11:46:04.768Z</time>
      </trkpt>
      <trkpt lat="48.24933" lon="2.70829">
        <ele>117</ele>
        <time>2013-09-22T11:46:22.723Z</time>
      </trkpt>
      <trkpt lat="48.24934" lon="2.70836">
        <ele>117</ele>
        <time>2013-09-22T11:46:25.728Z</time>
      </trkpt>
      <trkpt lat="48.24935" lon="2.70838">
        <ele>117</ele>
        <time>2013-09-22T11:46:28.720Z</time>
      </trkpt>
      <trkpt lat="48.24935" lon="2.70837">
        <ele>117</ele>
        <time>2013-09-22T11:46:31.723Z</time>
      </trkpt>
      <trkpt lat="48.24934" lon="2.70837">
        <ele>117</ele>
        <time>2013-09-22T11:46:47.739Z</time>
      </trkpt>
      <trkpt lat="48.24935" lon="2.7084">
        <ele>117</ele>
        <time>2013-09-22T11:46:49.782Z</time>
      </trkpt>
      <trkpt lat="48.24941" lon="2.70845">
        <ele>116</ele>
        <time>2013-09-22T11:46:56.733Z</time>
      </trkpt>
      <trkpt lat="48.24943" lon="2.70846">
        <ele>116</ele>
        <time>2013-09-22T11:46:59.725Z</time>
      </trkpt>
      <trkpt lat="48.24939" lon="2.70857">
        <ele>116</ele>
        <time>2013-09-22T11:47:10.716Z</time>
      </trkpt>
      <trkpt lat="48.24937" lon="2.70859">
        <ele>116</ele>
        <time>2013-09-22T11:47:12.720Z</time>
      </trkpt>
      <trkpt lat="48.24935" lon="2.70871">
        <ele>116</ele>
        <time>2013-09-22T11:47:23.732Z</time>
      </trkpt>
      <trkpt lat="48.24936" lon="2.70873">
        <ele>116</ele>
        <time>2013-09-22T11:47:25.737Z</time>
      </trkpt>
      <trkpt lat="48.24936" lon="2.70875">
        <ele>116</ele>
        <time>2013-09-22T11:47:28.713Z</time>
      </trkpt>
      <trkpt lat="48.24936" lon="2.70875">
        <ele>116</ele>
        <time>2013-09-22T11:47:30.720Z</time>
      </trkpt>
      <trkpt lat="48.24936" lon="2.70875">
        <ele>116</ele>
        <time>2013-09-22T11:47:54.725Z</time>
      </trkpt>
      <trkpt lat="48.24941" lon="2.70878">
        <ele>116</ele>
        <time>2013-09-22T11:47:57.719Z</time>
      </trkpt>
      <trkpt lat="48.24948" lon="2.70877">
        <ele>115</ele>
        <time>2013-09-22T11:48:04.725Z</time>
      </trkpt>
      <trkpt lat="48.24951" lon="2.70877">
        <ele>115</ele>
        <time>2013-09-22T11:48:07.734Z</time>
      </trkpt>
      <trkpt lat="48.24957" lon="2.70875">
        <ele>115</ele>
        <time>2013-09-22T11:48:12.738Z</time>
      </trkpt>
      <trkpt lat="48.2496" lon="2.70874">
        <ele>115</ele>
        <time>2013-09-22T11:48:15.739Z</time>
      </trkpt>
      <trkpt lat="48.24966" lon="2.70871">
        <ele>114</ele>
        <time>2013-09-22T11:48:20.738Z</time>
      </trkpt>
      <trkpt lat="48.24969" lon="2.7087">
        <ele>114</ele>
        <time>2013-09-22T11:48:23.730Z</time>
      </trkpt>
      <trkpt lat="48.24977" lon="2.70866">
        <ele>114</ele>
        <time>2013-09-22T11:48:36.722Z</time>
      </trkpt>
      <trkpt lat="48.24979" lon="2.70864">
        <ele>114</ele>
        <time>2013-09-22T11:48:38.734Z</time>
      </trkpt>
      <trkpt lat="48.24982" lon="2.70854">
        <ele>113</ele>
        <time>2013-09-22T11:48:48.722Z</time>
      </trkpt>
      <trkpt lat="48.24984" lon="2.70851">
        <ele>113</ele>
        <time>2013-09-22T11:48:51.721Z</time>
      </trkpt>
      <trkpt lat="48.24992" lon="2.70845">
        <ele>113</ele>
        <time>2013-09-22T11:49:01.732Z</time>
      </trkpt>
      <trkpt lat="48.24996" lon="2.70843">
        <ele>112</ele>
        <time>2013-09-22T11:49:04.709Z</time>
      </trkpt>
      <trkpt lat="48.25004" lon="2.70841">
        <ele>109</ele>
        <time>2013-09-22T11:49:10.743Z</time>
      </trkpt>
      <trkpt lat="48.25008" lon="2.70839">
        <ele>109</ele>
        <time>2013-09-22T11:49:13.746Z</time>
      </trkpt>
      <trkpt lat="48.25017" lon="2.70837">
        <ele>108</ele>
        <time>2013-09-22T11:49:19.734Z</time>
      </trkpt>
      <trkpt lat="48.25019" lon="2.70836">
        <ele>107</ele>
        <time>2013-09-22T11:49:22.724Z</time>
      </trkpt>
      <trkpt lat="48.25025" lon="2.70831">
        <ele>106</ele>
        <time>2013-09-22T11:49:31.732Z</time>
      </trkpt>
      <trkpt lat="48.25025" lon="2.70831">
        <ele>106</ele>
        <time>2013-09-22T11:49:34.719Z</time>
      </trkpt>
      <trkpt lat="48.25026" lon="2.7083">
        <ele>106</ele>
        <time>2013-09-22T11:49:36.709Z</time>
      </trkpt>
      <trkpt lat="48.2503" lon="2.7083">
        <ele>106</ele>
        <time>2013-09-22T11:49:40.723Z</time>
      </trkpt>
      <trkpt lat="48.25029" lon="2.70831">
        <ele>106</ele>
        <time>2013-09-22T11:49:43.731Z</time>
      </trkpt>
      <trkpt lat="48.25029" lon="2.7083">
        <ele>106</ele>
        <time>2013-09-22T11:49:53.739Z</time>
      </trkpt>
      <trkpt lat="48.25034" lon="2.70828">
        <ele>105</ele>
        <time>2013-09-22T11:49:55.757Z</time>
      </trkpt>
      <trkpt lat="48.25034" lon="2.70827">
        <ele>105</ele>
        <time>2013-09-22T11:49:58.731Z</time>
      </trkpt>
      <trkpt lat="48.25033" lon="2.70828">
        <ele>105</ele>
        <time>2013-09-22T11:50:01.740Z</time>
      </trkpt>
      <trkpt lat="48.25033" lon="2.70828">
        <ele>105</ele>
        <time>2013-09-22T11:50:06.731Z</time>
      </trkpt>
      <trkpt lat="48.25034" lon="2.70826">
        <ele>105</ele>
        <time>2013-09-22T11:50:09.715Z</time>
      </trkpt>
      <trkpt lat="48.25037" lon="2.70823">
        <ele>105</ele>
        <time>2013-09-22T11:50:13.731Z</time>
      </trkpt>
      <trkpt lat="48.25037" lon="2.70823">
        <ele>105</ele>
        <time>2013-09-22T11:50:16.744Z</time>
      </trkpt>
      <trkpt lat="48.25043" lon="2.70822">
        <ele>104</ele>
        <time>2013-09-22T11:50:19.732Z</time>
      </trkpt>
      <trkpt lat="48.25049" lon="2.70817">
        <ele>104</ele>
        <time>2013-09-22T11:50:26.728Z</time>
      </trkpt>
      <trkpt lat="48.25052" lon="2.70816">
        <ele>104</ele>
        <time>2013-09-22T11:50:28.730Z</time>
      </trkpt>
      <trkpt lat="48.2505" lon="2.70826">
        <ele>104</ele>
        <time>2013-09-22T11:50:55.727Z</time>
      </trkpt>
      <trkpt lat="48.25051" lon="2.70829">
        <ele>104</ele>
        <time>2013-09-22T11:50:57.727Z</time>
      </trkpt>
      <trkpt lat="48.25055" lon="2.7084">
        <ele>103</ele>
        <time>2013-09-22T11:51:12.715Z</time>
      </trkpt>
      <trkpt lat="48.25055" lon="2.70842">
        <ele>103</ele>
        <time>2013-09-22T11:51:14.717Z</time>
      </trkpt>
      <trkpt lat="48.25054" lon="2.70852">
        <ele>104</ele>
        <time>2013-09-22T11:51:24.721Z</time>
      </trkpt>
      <trkpt lat="48.25056" lon="2.70856">
        <ele>104</ele>
        <time>2013-09-22T11:51:27.717Z</time>
      </trkpt>
      <trkpt lat="48.25058" lon="2.70867">
        <ele>104</ele>
        <time>2013-09-22T11:51:36.712Z</time>
      </trkpt>
      <trkpt lat="48.25057" lon="2.70871">
        <ele>104</ele>
        <time>2013-09-22T11:51:38.724Z</time>
      </trkpt>
      <trkpt lat="48.25059" lon="2.70882">
        <ele>104</ele>
        <time>2013-09-22T11:51:45.758Z</time>
      </trkpt>
      <trkpt lat="48.25062" lon="2.70886">
        <ele>104</ele>
        <time>2013-09-22T11:51:48.732Z</time>
      </trkpt>
      <trkpt lat="48.25066" lon="2.70896">
        <ele>103</ele>
        <time>2013-09-22T11:51:54.721Z</time>
      </trkpt>
      <trkpt lat="48.25068" lon="2.709">
        <ele>103</ele>
        <time>2013-09-22T11:51:56.730Z</time>
      </trkpt>
      <trkpt lat="48.2507" lon="2.70907">
        <ele>103</ele>
        <time>2013-09-22T11:51:59.709Z</time>
      </trkpt>
      <trkpt lat="48.25073" lon="2.70912">
        <ele>102</ele>
        <time>2013-09-22T11:52:01.740Z</time>
      </trkpt>
      <trkpt lat="48.25078" lon="2.70918">
        <ele>102</ele>
        <time>2013-09-22T11:52:04.718Z</time>
      </trkpt>
      <trkpt lat="48.25082" lon="2.70921">
        <ele>102</ele>
        <time>2013-09-22T11:52:06.718Z</time>
      </trkpt>
      <trkpt lat="48.25087" lon="2.70926">
        <ele>102</ele>
        <time>2013-09-22T11:52:10.729Z</time>
      </trkpt>
      <trkpt lat="48.25092" lon="2.7093">
        <ele>102</ele>
        <time>2013-09-22T11:52:13.725Z</time>
      </trkpt>
      <trkpt lat="48.25099" lon="2.70937">
        <ele>103</ele>
        <time>2013-09-22T11:52:22.728Z</time>
      </trkpt>
      <trkpt lat="48.25104" lon="2.7094">
        <ele>103</ele>
        <time>2013-09-22T11:52:24.736Z</time>
      </trkpt>
      <trkpt lat="48.25107" lon="2.70943">
        <ele>103</ele>
        <time>2013-09-22T11:52:27.724Z</time>
      </trkpt>
      <trkpt lat="48.25106" lon="2.70943">
        <ele>103</ele>
        <time>2013-09-22T11:52:30.705Z</time>
      </trkpt>
      <trkpt lat="48.25108" lon="2.70945">
        <ele>104</ele>
        <time>2013-09-22T11:52:32.707Z</time>
      </trkpt>
      <trkpt lat="48.25111" lon="2.7095">
        <ele>104</ele>
        <time>2013-09-22T11:52:36.711Z</time>
      </trkpt>
      <trkpt lat="48.25111" lon="2.7095">
        <ele>104</ele>
        <time>2013-09-22T11:52:38.714Z</time>
      </trkpt>
      <trkpt lat="48.25111" lon="2.70949">
        <ele>104</ele>
        <time>2013-09-22T11:52:40.714Z</time>
      </trkpt>
      <trkpt lat="48.25115" lon="2.70954">
        <ele>104</ele>
        <time>2013-09-22T11:52:42.715Z</time>
      </trkpt>
      <trkpt lat="48.25118" lon="2.70958">
        <ele>104</ele>
        <time>2013-09-22T11:52:46.732Z</time>
      </trkpt>
      <trkpt lat="48.25117" lon="2.70957">
        <ele>104</ele>
        <time>2013-09-22T11:52:48.732Z</time>
      </trkpt>
      <trkpt lat="48.2512" lon="2.70961">
        <ele>104</ele>
        <time>2013-09-22T11:52:50.734Z</time>
      </trkpt>
      <trkpt lat="48.25126" lon="2.70967">
        <ele>105</ele>
        <time>2013-09-22T11:52:56.729Z</time>
      </trkpt>
      <trkpt lat="48.25129" lon="2.70969">
        <ele>105</ele>
        <time>2013-09-22T11:52:58.728Z</time>
      </trkpt>
      <trkpt lat="48.25134" lon="2.70979">
        <ele>105</ele>
        <time>2013-09-22T11:53:08.721Z</time>
      </trkpt>
      <trkpt lat="48.25134" lon="2.7098">
        <ele>105</ele>
        <time>2013-09-22T11:53:10.721Z</time>
      </trkpt>
      <trkpt lat="48.25131" lon="2.70986">
        <ele>105</ele>
        <time>2013-09-22T11:53:19.744Z</time>
      </trkpt>
      <trkpt lat="48.25131" lon="2.70986">
        <ele>105</ele>
        <time>2013-09-22T11:53:22.728Z</time>
      </trkpt>
      <trkpt lat="48.2513" lon="2.70986">
        <ele>105</ele>
        <time>2013-09-22T11:53:25.719Z</time>
      </trkpt>
      <trkpt lat="48.25129" lon="2.70986">
        <ele>105</ele>
        <time>2013-09-22T11:53:28.720Z</time>
      </trkpt>
      <trkpt lat="48.2513" lon="2.70986">
        <ele>105</ele>
        <time>2013-09-22T11:53:42.722Z</time>
      </trkpt>
      <trkpt lat="48.25129" lon="2.7099">
        <ele>105</ele>
        <time>2013-09-22T11:53:44.723Z</time>
      </trkpt>
      <trkpt lat="48.25128" lon="2.70994">
        <ele>105</ele>
        <time>2013-09-22T11:53:49.726Z</time>
      </trkpt>
      <trkpt lat="48.25128" lon="2.70994">
        <ele>105</ele>
        <time>2013-09-22T11:53:51.745Z</time>
      </trkpt>
      <trkpt lat="48.25128" lon="2.70994">
        <ele>105</ele>
        <time>2013-09-22T11:53:54.730Z</time>
      </trkpt>
      <trkpt lat="48.25126" lon="2.70999">
        <ele>105</ele>
        <time>2013-09-22T11:53:56.751Z</time>
      </trkpt>
      <trkpt lat="48.25126" lon="2.71002">
        <ele>108</ele>
        <time>2013-09-22T11:53:59.726Z</time>
      </trkpt>
      <trkpt lat="48.25126" lon="2.71002">
        <ele>108</ele>
        <time>2013-09-22T11:54:01.746Z</time>
      </trkpt>
      <trkpt lat="48.25126" lon="2.71002">
        <ele>108</ele>
        <time>2013-09-22T11:54:06.726Z</time>
      </trkpt>
      <trkpt lat="48.25126" lon="2.71006">
        <ele>108</ele>
        <time>2013-09-22T11:54:08.732Z</time>
      </trkpt>
      <trkpt lat="48.25126" lon="2.7101">
        <ele>108</ele>
        <time>2013-09-22T11:54:10.737Z</time>
      </trkpt>
      <trkpt lat="48.25126" lon="2.71011">
        <ele>108</ele>
        <time>2013-09-22T11:54:13.748Z</time>
      </trkpt>
      <trkpt lat="48.25126" lon="2.7101">
        <ele>108</ele>
        <time>2013-09-22T11:54:25.744Z</time>
      </trkpt>
      <trkpt lat="48.2512" lon="2.7101">
        <ele>108</ele>
        <time>2013-09-22T11:54:28.736Z</time>
      </trkpt>
      <trkpt lat="48.25115" lon="2.71015">
        <ele>108</ele>
        <time>2013-09-22T11:54:40.724Z</time>
      </trkpt>
      <trkpt lat="48.25115" lon="2.71015">
        <ele>108</ele>
        <time>2013-09-22T11:54:43.738Z</time>
      </trkpt>
      <trkpt lat="48.25115" lon="2.71015">
        <ele>108</ele>
        <time>2013-09-22T11:54:52.738Z</time>
      </trkpt>
      <trkpt lat="48.25112" lon="2.71021">
        <ele>108</ele>
        <time>2013-09-22T11:54:55.747Z</time>
      </trkpt>
      <trkpt lat="48.25112" lon="2.71021">
        <ele>108</ele>
        <time>2013-09-22T11:54:58.739Z</time>
      </trkpt>
      <trkpt lat="48.25112" lon="2.7102">
        <ele>108</ele>
        <time>2013-09-22T11:55:36.715Z</time>
      </trkpt>
      <trkpt lat="48.2511" lon="2.71022">
        <ele>108</ele>
        <time>2013-09-22T11:55:38.724Z</time>
      </trkpt>
      <trkpt lat="48.2511" lon="2.71023">
        <ele>108</ele>
        <time>2013-09-22T11:55:41.713Z</time>
      </trkpt>
      <trkpt lat="48.2511" lon="2.71023">
        <ele>108</ele>
        <time>2013-09-22T11:55:43.732Z</time>
      </trkpt>
      <trkpt lat="48.2511" lon="2.71023">
        <ele>108</ele>
        <time>2013-09-22T11:55:51.724Z</time>
      </trkpt>
      <trkpt lat="48.25109" lon="2.71025">
        <ele>108</ele>
        <time>2013-09-22T11:55:54.756Z</time>
      </trkpt>
      <trkpt lat="48.25107" lon="2.71033">
        <ele>108</ele>
        <time>2013-09-22T11:56:07.737Z</time>
      </trkpt>
      <trkpt lat="48.25107" lon="2.71033">
        <ele>108</ele>
        <time>2013-09-22T11:56:10.722Z</time>
      </trkpt>
      <trkpt lat="48.25106" lon="2.71033">
        <ele>108</ele>
        <time>2013-09-22T11:56:18.722Z</time>
      </trkpt>
      <trkpt lat="48.25105" lon="2.71033">
        <ele>108</ele>
        <time>2013-09-22T11:56:20.722Z</time>
      </trkpt>
      <trkpt lat="48.25104" lon="2.71034">
        <ele>108</ele>
        <time>2013-09-22T11:56:22.723Z</time>
      </trkpt>
      <trkpt lat="48.25104" lon="2.71034">
        <ele>108</ele>
        <time>2013-09-22T11:56:25.734Z</time>
      </trkpt>
      <trkpt lat="48.25105" lon="2.71034">
        <ele>108</ele>
        <time>2013-09-22T11:56:30.722Z</time>
      </trkpt>
      <trkpt lat="48.25105" lon="2.71039">
        <ele>108</ele>
        <time>2013-09-22T11:56:32.722Z</time>
      </trkpt>
      <trkpt lat="48.25105" lon="2.71051">
        <ele>109</ele>
        <time>2013-09-22T11:56:42.712Z</time>
      </trkpt>
      <trkpt lat="48.25105" lon="2.71051">
        <ele>109</ele>
        <time>2013-09-22T11:56:45.718Z</time>
      </trkpt>
      <trkpt lat="48.25105" lon="2.71051">
        <ele>109</ele>
        <time>2013-09-22T11:56:58.737Z</time>
      </trkpt>
      <trkpt lat="48.25108" lon="2.7106">
        <ele>109</ele>
        <time>2013-09-22T11:57:01.735Z</time>
      </trkpt>
      <trkpt lat="48.25108" lon="2.7106">
        <ele>109</ele>
        <time>2013-09-22T11:57:04.716Z</time>
      </trkpt>
      <trkpt lat="48.25108" lon="2.7106">
        <ele>109</ele>
        <time>2013-09-22T11:57:06.718Z</time>
      </trkpt>
      <trkpt lat="48.25108" lon="2.7106">
        <ele>109</ele>
        <time>2013-09-22T11:57:08.718Z</time>
      </trkpt>
      <trkpt lat="48.25108" lon="2.71064">
        <ele>109</ele>
        <time>2013-09-22T11:57:10.719Z</time>
      </trkpt>
      <trkpt lat="48.25111" lon="2.71074">
        <ele>109</ele>
        <time>2013-09-22T11:57:13.736Z</time>
      </trkpt>
      <trkpt lat="48.25113" lon="2.71079">
        <ele>109</ele>
        <time>2013-09-22T11:57:16.724Z</time>
      </trkpt>
      <trkpt lat="48.25107" lon="2.71086">
        <ele>110</ele>
        <time>2013-09-22T11:57:28.715Z</time>
      </trkpt>
      <trkpt lat="48.25105" lon="2.71088">
        <ele>110</ele>
        <time>2013-09-22T11:57:30.718Z</time>
      </trkpt>
      <trkpt lat="48.251" lon="2.71099">
        <ele>110</ele>
        <time>2013-09-22T11:57:38.721Z</time>
      </trkpt>
      <trkpt lat="48.251" lon="2.71102">
        <ele>110</ele>
        <time>2013-09-22T11:57:40.721Z</time>
      </trkpt>
      <trkpt lat="48.25095" lon="2.71112">
        <ele>110</ele>
        <time>2013-09-22T11:57:51.732Z</time>
      </trkpt>
      <trkpt lat="48.25094" lon="2.71113">
        <ele>110</ele>
        <time>2013-09-22T11:57:53.734Z</time>
      </trkpt>
      <trkpt lat="48.25092" lon="2.71116">
        <ele>110</ele>
        <time>2013-09-22T11:58:00.722Z</time>
      </trkpt>
      <trkpt lat="48.25092" lon="2.71116">
        <ele>110</ele>
        <time>2013-09-22T11:58:02.722Z</time>
      </trkpt>
      <trkpt lat="48.2509" lon="2.71123">
        <ele>110</ele>
        <time>2013-09-22T11:58:05.723Z</time>
      </trkpt>
      <trkpt lat="48.25086" lon="2.71134">
        <ele>110</ele>
        <time>2013-09-22T11:58:12.743Z</time>
      </trkpt>
      <trkpt lat="48.25085" lon="2.71138">
        <ele>110</ele>
        <time>2013-09-22T11:58:15.725Z</time>
      </trkpt>
      <trkpt lat="48.25086" lon="2.71143">
        <ele>111</ele>
        <time>2013-09-22T11:58:20.725Z</time>
      </trkpt>
      <trkpt lat="48.25086" lon="2.71142">
        <ele>111</ele>
        <time>2013-09-22T11:58:23.724Z</time>
      </trkpt>
      <trkpt lat="48.25086" lon="2.71142">
        <ele>111</ele>
        <time>2013-09-22T11:58:25.739Z</time>
      </trkpt>
      <trkpt lat="48.25086" lon="2.71149">
        <ele>111</ele>
        <time>2013-09-22T11:58:28.720Z</time>
      </trkpt>
      <trkpt lat="48.25084" lon="2.71154">
        <ele>111</ele>
        <time>2013-09-22T11:58:33.723Z</time>
      </trkpt>
      <trkpt lat="48.25084" lon="2.71154">
        <ele>111</ele>
        <time>2013-09-22T11:58:35.724Z</time>
      </trkpt>
      <trkpt lat="48.25084" lon="2.71154">
        <ele>111</ele>
        <time>2013-09-22T11:58:38.732Z</time>
      </trkpt>
      <trkpt lat="48.25084" lon="2.71161">
        <ele>112</ele>
        <time>2013-09-22T11:58:40.735Z</time>
      </trkpt>
      <trkpt lat="48.25083" lon="2.71163">
        <ele>113</ele>
        <time>2013-09-22T11:58:43.745Z</time>
      </trkpt>
      <trkpt lat="48.25083" lon="2.71162">
        <ele>113</ele>
        <time>2013-09-22T11:58:45.745Z</time>
      </trkpt>
      <trkpt lat="48.25084" lon="2.71162">
        <ele>112</ele>
        <time>2013-09-22T11:58:48.729Z</time>
      </trkpt>
      <trkpt lat="48.25084" lon="2.71163">
        <ele>112</ele>
        <time>2013-09-22T11:58:50.732Z</time>
      </trkpt>
      <trkpt lat="48.25084" lon="2.71164">
        <ele>113</ele>
        <time>2013-09-22T11:58:53.726Z</time>
      </trkpt>
      <trkpt lat="48.25084" lon="2.71164">
        <ele>113</ele>
        <time>2013-09-22T11:58:55.751Z</time>
      </trkpt>
      <trkpt lat="48.25084" lon="2.71164">
        <ele>113</ele>
        <time>2013-09-22T11:59:02.730Z</time>
      </trkpt>
      <trkpt lat="48.25083" lon="2.71168">
        <ele>113</ele>
        <time>2013-09-22T11:59:04.732Z</time>
      </trkpt>
      <trkpt lat="48.25083" lon="2.71171">
        <ele>114</ele>
        <time>2013-09-22T11:59:08.732Z</time>
      </trkpt>
      <trkpt lat="48.25083" lon="2.71171">
        <ele>114</ele>
        <time>2013-09-22T11:59:10.736Z</time>
      </trkpt>
      <trkpt lat="48.25083" lon="2.7117">
        <ele>114</ele>
        <time>2013-09-22T11:59:18.744Z</time>
      </trkpt>
      <trkpt lat="48.25086" lon="2.71174">
        <ele>112</ele>
        <time>2013-09-22T11:59:21.726Z</time>
      </trkpt>
      <trkpt lat="48.25092" lon="2.7118">
        <ele>112</ele>
        <time>2013-09-22T11:59:30.726Z</time>
      </trkpt>
      <trkpt lat="48.25094" lon="2.71181">
        <ele>112</ele>
        <time>2013-09-22T11:59:33.724Z</time>
      </trkpt>
      <trkpt lat="48.25102" lon="2.71181">
        <ele>111</ele>
        <time>2013-09-22T11:59:44.730Z</time>
      </trkpt>
      <trkpt lat="48.25102" lon="2.7118">
        <ele>111</ele>
        <time>2013-09-22T11:59:47.724Z</time>
      </trkpt>
      <trkpt lat="48.25101" lon="2.71181">
        <ele>111</ele>
        <time>2013-09-22T12:00:03.764Z</time>
      </trkpt>
      <trkpt lat="48.25101" lon="2.71177">
        <ele>112</ele>
        <time>2013-09-22T12:00:06.745Z</time>
      </trkpt>
      <trkpt lat="48.251" lon="2.71173">
        <ele>112</ele>
        <time>2013-09-22T12:00:09.723Z</time>
      </trkpt>
      <trkpt lat="48.25101" lon="2.71174">
        <ele>112</ele>
        <time>2013-09-22T12:00:11.734Z</time>
      </trkpt>
      <trkpt lat="48.25101" lon="2.71174">
        <ele>112</ele>
        <time>2013-09-22T12:00:18.733Z</time>
      </trkpt>
      <trkpt lat="48.25104" lon="2.71172">
        <ele>111</ele>
        <time>2013-09-22T12:00:20.744Z</time>
      </trkpt>
      <trkpt lat="48.25106" lon="2.71171">
        <ele>111</ele>
        <time>2013-09-22T12:00:23.728Z</time>
      </trkpt>
      <trkpt lat="48.25105" lon="2.71171">
        <ele>111</ele>
        <time>2013-09-22T12:00:25.745Z</time>
      </trkpt>
      <trkpt lat="48.25106" lon="2.71172">
        <ele>111</ele>
        <time>2013-09-22T12:00:28.727Z</time>
      </trkpt>
      <trkpt lat="48.25108" lon="2.71173">
        <ele>111</ele>
        <time>2013-09-22T12:00:31.738Z</time>
      </trkpt>
      <trkpt lat="48.25108" lon="2.71173">
        <ele>111</ele>
        <time>2013-09-22T12:00:34.719Z</time>
      </trkpt>
      <trkpt lat="48.25107" lon="2.71173">
        <ele>111</ele>
        <time>2013-09-22T12:00:36.757Z</time>
      </trkpt>
      <trkpt lat="48.25113" lon="2.71171">
        <ele>111</ele>
        <time>2013-09-22T12:00:39.724Z</time>
      </trkpt>
      <trkpt lat="48.25119" lon="2.71172">
        <ele>110</ele>
        <time>2013-09-22T12:00:43.746Z</time>
      </trkpt>
      <trkpt lat="48.25123" lon="2.71171">
        <ele>110</ele>
        <time>2013-09-22T12:00:46.731Z</time>
      </trkpt>
      <trkpt lat="48.25132" lon="2.71172">
        <ele>109</ele>
        <time>2013-09-22T12:00:52.734Z</time>
      </trkpt>
      <trkpt lat="48.25135" lon="2.71173">
        <ele>109</ele>
        <time>2013-09-22T12:00:54.735Z</time>
      </trkpt>
      <trkpt lat="48.25142" lon="2.71176">
        <ele>109</ele>
        <time>2013-09-22T12:01:01.747Z</time>
      </trkpt>
      <trkpt lat="48.25145" lon="2.71176">
        <ele>108</ele>
        <time>2013-09-22T12:01:04.727Z</time>
      </trkpt>
      <trkpt lat="48.25153" lon="2.71176">
        <ele>108</ele>
        <time>2013-09-22T12:01:11.743Z</time>
      </trkpt>
      <trkpt lat="48.25157" lon="2.71176">
        <ele>107</ele>
        <time>2013-09-22T12:01:14.735Z</time>
      </trkpt>
      <trkpt lat="48.25165" lon="2.71172">
        <ele>106</ele>
        <time>2013-09-22T12:01:24.728Z</time>
      </trkpt>
      <trkpt lat="48.25166" lon="2.71172">
        <ele>106</ele>
        <time>2013-09-22T12:01:26.734Z</time>
      </trkpt>
      <trkpt lat="48.25169" lon="2.71173">
        <ele>104</ele>
        <time>2013-09-22T12:01:31.753Z</time>
      </trkpt>
      <trkpt lat="48.25169" lon="2.71173">
        <ele>104</ele>
        <time>2013-09-22T12:01:34.727Z</time>
      </trkpt>
      <trkpt lat="48.25169" lon="2.71173">
        <ele>104</ele>
        <time>2013-09-22T12:01:36.745Z</time>
      </trkpt>
      <trkpt lat="48.25165" lon="2.71172">
        <ele>106</ele>
        <time>2013-09-22T12:01:39.728Z</time>
      </trkpt>
      <trkpt lat="48.25157" lon="2.7117">
        <ele>107</ele>
        <time>2013-09-22T12:01:49.748Z</time>
      </trkpt>
      <trkpt lat="48.25157" lon="2.7117">
        <ele>107</ele>
        <time>2013-09-22T12:01:52.719Z</time>
      </trkpt>
      <trkpt lat="48.25157" lon="2.7117">
        <ele>107</ele>
        <time>2013-09-22T12:02:00.743Z</time>
      </trkpt>
      <trkpt lat="48.25159" lon="2.71168">
        <ele>106</ele>
        <time>2013-09-22T12:02:03.722Z</time>
      </trkpt>
      <trkpt lat="48.2516" lon="2.71168">
        <ele>106</ele>
        <time>2013-09-22T12:02:06.718Z</time>
      </trkpt>
      <trkpt lat="48.25159" lon="2.71168">
        <ele>106</ele>
        <time>2013-09-22T12:02:22.723Z</time>
      </trkpt>
      <trkpt lat="48.25162" lon="2.71166">
        <ele>106</ele>
        <time>2013-09-22T12:02:24.725Z</time>
      </trkpt>
      <trkpt lat="48.25163" lon="2.71165">
        <ele>106</ele>
        <time>2013-09-22T12:02:27.714Z</time>
      </trkpt>
      <trkpt lat="48.25163" lon="2.71165">
        <ele>106</ele>
        <time>2013-09-22T12:02:29.748Z</time>
      </trkpt>
      <trkpt lat="48.25163" lon="2.71165">
        <ele>106</ele>
        <time>2013-09-22T12:02:39.723Z</time>
      </trkpt>
      <trkpt lat="48.25162" lon="2.71164">
        <ele>106</ele>
        <time>2013-09-22T12:02:42.724Z</time>
      </trkpt>
      <trkpt lat="48.25162" lon="2.71161">
        <ele>106</ele>
        <time>2013-09-22T12:02:45.723Z</time>
      </trkpt>
      <trkpt lat="48.25162" lon="2.7116">
        <ele>106</ele>
        <time>2013-09-22T12:02:48.715Z</time>
      </trkpt>
      <trkpt lat="48.2516" lon="2.7116">
        <ele>106</ele>
        <time>2013-09-22T12:02:50.719Z</time>
      </trkpt>
      <trkpt lat="48.25159" lon="2.71159">
        <ele>107</ele>
        <time>2013-09-22T12:02:52.724Z</time>
      </trkpt>
      <trkpt lat="48.25159" lon="2.71159">
        <ele>107</ele>
        <time>2013-09-22T12:02:54.726Z</time>
      </trkpt>
      <trkpt lat="48.25159" lon="2.71159">
        <ele>107</ele>
        <time>2013-09-22T12:03:08.728Z</time>
      </trkpt>
      <trkpt lat="48.25162" lon="2.71158">
        <ele>106</ele>
        <time>2013-09-22T12:03:10.736Z</time>
      </trkpt>
      <trkpt lat="48.2517" lon="2.71157">
        <ele>104</ele>
        <time>2013-09-22T12:03:20.721Z</time>
      </trkpt>
      <trkpt lat="48.25172" lon="2.71158">
        <ele>104</ele>
        <time>2013-09-22T12:03:22.725Z</time>
      </trkpt>
      <trkpt lat="48.25177" lon="2.71164">
        <ele>104</ele>
        <time>2013-09-22T12:03:31.745Z</time>
      </trkpt>
      <trkpt lat="48.25179" lon="2.71168">
        <ele>104</ele>
        <time>2013-09-22T12:03:34.743Z</time>
      </trkpt>
      <trkpt lat="48.25185" lon="2.71175">
        <ele>104</ele>
        <time>2013-09-22T12:03:39.735Z</time>
      </trkpt>
      <trkpt lat="48.25188" lon="2.71179">
        <ele>103</ele>
        <time>2013-09-22T12:03:42.737Z</time>
      </trkpt>
      <trkpt lat="48.25193" lon="2.71187">
        <ele>103</ele>
        <time>2013-09-22T12:03:48.719Z</time>
      </trkpt>
      <trkpt lat="48.25196" lon="2.71189">
        <ele>103</ele>
        <time>2013-09-22T12:03:50.720Z</time>
      </trkpt>
      <trkpt lat="48.252" lon="2.71195">
        <ele>103</ele>
        <time>2013-09-22T12:03:57.722Z</time>
      </trkpt>
      <trkpt lat="48.252" lon="2.71195">
        <ele>103</ele>
        <time>2013-09-22T12:04:00.720Z</time>
      </trkpt>
      <trkpt lat="48.252" lon="2.71195">
        <ele>103</ele>
        <time>2013-09-22T12:04:02.723Z</time>
      </trkpt>
      <trkpt lat="48.25205" lon="2.71197">
        <ele>103</ele>
        <time>2013-09-22T12:04:05.717Z</time>
      </trkpt>
      <trkpt lat="48.25207" lon="2.71197">
        <ele>103</ele>
        <time>2013-09-22T12:04:07.736Z</time>
      </trkpt>
      <trkpt lat="48.25207" lon="2.71196">
        <ele>103</ele>
        <time>2013-09-22T12:04:10.730Z</time>
      </trkpt>
      <trkpt lat="48.25207" lon="2.71196">
        <ele>103</ele>
        <time>2013-09-22T12:04:13.721Z</time>
      </trkpt>
      <trkpt lat="48.25208" lon="2.71194">
        <ele>103</ele>
        <time>2013-09-22T12:04:15.723Z</time>
      </trkpt>
      <trkpt lat="48.25215" lon="2.71191">
        <ele>102</ele>
        <time>2013-09-22T12:04:22.731Z</time>
      </trkpt>
      <trkpt lat="48.25218" lon="2.71192">
        <ele>102</ele>
        <time>2013-09-22T12:04:24.731Z</time>
      </trkpt>
      <trkpt lat="48.25226" lon="2.71192">
        <ele>102</ele>
        <time>2013-09-22T12:04:31.729Z</time>
      </trkpt>
      <trkpt lat="48.25227" lon="2.71192">
        <ele>102</ele>
        <time>2013-09-22T12:04:34.714Z</time>
      </trkpt>
      <trkpt lat="48.25227" lon="2.71192">
        <ele>102</ele>
        <time>2013-09-22T12:04:36.742Z</time>
      </trkpt>
      <trkpt lat="48.25231" lon="2.71191">
        <ele>101</ele>
        <time>2013-09-22T12:04:39.740Z</time>
      </trkpt>
      <trkpt lat="48.25233" lon="2.71189">
        <ele>101</ele>
        <time>2013-09-22T12:04:44.722Z</time>
      </trkpt>
      <trkpt lat="48.25233" lon="2.71189">
        <ele>101</ele>
        <time>2013-09-22T12:04:46.728Z</time>
      </trkpt>
      <trkpt lat="48.25236" lon="2.71187">
        <ele>101</ele>
        <time>2013-09-22T12:04:48.730Z</time>
      </trkpt>
      <trkpt lat="48.25237" lon="2.71185">
        <ele>101</ele>
        <time>2013-09-22T12:04:50.733Z</time>
      </trkpt>
      <trkpt lat="48.25237" lon="2.71184">
        <ele>101</ele>
        <time>2013-09-22T12:04:53.734Z</time>
      </trkpt>
      <trkpt lat="48.25237" lon="2.71185">
        <ele>101</ele>
        <time>2013-09-22T12:04:58.734Z</time>
      </trkpt>
      <trkpt lat="48.25243" lon="2.71185">
        <ele>100</ele>
        <time>2013-09-22T12:05:00.734Z</time>
      </trkpt>
      <trkpt lat="48.25251" lon="2.71186">
        <ele>98</ele>
        <time>2013-09-22T12:05:11.723Z</time>
      </trkpt>
      <trkpt lat="48.25251" lon="2.71186">
        <ele>98</ele>
        <time>2013-09-22T12:05:13.751Z</time>
      </trkpt>
      <trkpt lat="48.25254" lon="2.71185">
        <ele>98</ele>
        <time>2013-09-22T12:05:15.760Z</time>
      </trkpt>
      <trkpt lat="48.25261" lon="2.71185">
        <ele>98</ele>
        <time>2013-09-22T12:05:22.724Z</time>
      </trkpt>
      <trkpt lat="48.25263" lon="2.71185">
        <ele>98</ele>
        <time>2013-09-22T12:05:24.729Z</time>
      </trkpt>
      <trkpt lat="48.2527" lon="2.71184">
        <ele>98</ele>
        <time>2013-09-22T12:05:30.718Z</time>
      </trkpt>
      <trkpt lat="48.25273" lon="2.71183">
        <ele>98</ele>
        <time>2013-09-22T12:05:33.718Z</time>
      </trkpt>
      <trkpt lat="48.25282" lon="2.71182">
        <ele>98</ele>
        <time>2013-09-22T12:05:41.736Z</time>
      </trkpt>
      <trkpt lat="48.25283" lon="2.71181">
        <ele>98</ele>
        <time>2013-09-22T12:05:43.742Z</time>
      </trkpt>
      <trkpt lat="48.25291" lon="2.7118">
        <ele>98</ele>
        <time>2013-09-22T12:05:50.730Z</time>
      </trkpt>
      <trkpt lat="48.25295" lon="2.7118">
        <ele>98</ele>
        <time>2013-09-22T12:05:52.731Z</time>
      </trkpt>
      <trkpt lat="48.25302" lon="2.71181">
        <ele>98</ele>
        <time>2013-09-22T12:05:55.741Z</time>
      </trkpt>
      <trkpt lat="48.25308" lon="2.71182">
        <ele>98</ele>
        <time>2013-09-22T12:05:58.720Z</time>
      </trkpt>
      <trkpt lat="48.25316" lon="2.71182">
        <ele>98</ele>
        <time>2013-09-22T12:06:04.725Z</time>
      </trkpt>
      <trkpt lat="48.25319" lon="2.71182">
        <ele>98</ele>
        <time>2013-09-22T12:06:06.728Z</time>
      </trkpt>
      <trkpt lat="48.25323" lon="2.71182">
        <ele>98</ele>
        <time>2013-09-22T12:06:11.726Z</time>
      </trkpt>
      <trkpt lat="48.25323" lon="2.71182">
        <ele>98</ele>
        <time>2013-09-22T12:06:13.751Z</time>
      </trkpt>
      <trkpt lat="48.25326" lon="2.71182">
        <ele>98</ele>
        <time>2013-09-22T12:06:16.729Z</time>
      </trkpt>
      <trkpt lat="48.25334" lon="2.71183">
        <ele>98</ele>
        <time>2013-09-22T12:06:20.734Z</time>
      </trkpt>
      <trkpt lat="48.25336" lon="2.71183">
        <ele>98</ele>
        <time>2013-09-22T12:06:23.735Z</time>
      </trkpt>
      <trkpt lat="48.25343" lon="2.71178">
        <ele>98</ele>
        <time>2013-09-22T12:06:31.739Z</time>
      </trkpt>
      <trkpt lat="48.25345" lon="2.71174">
        <ele>98</ele>
        <time>2013-09-22T12:06:34.735Z</time>
      </trkpt>
      <trkpt lat="48.2535" lon="2.71163">
        <ele>98</ele>
        <time>2013-09-22T12:06:43.742Z</time>
      </trkpt>
      <trkpt lat="48.25352" lon="2.71159">
        <ele>98</ele>
        <time>2013-09-22T12:06:46.737Z</time>
      </trkpt>
      <trkpt lat="48.25359" lon="2.71152">
        <ele>98</ele>
        <time>2013-09-22T12:07:01.735Z</time>
      </trkpt>
      <trkpt lat="48.25361" lon="2.71152">
        <ele>98</ele>
        <time>2013-09-22T12:07:04.731Z</time>
      </trkpt>
      <trkpt lat="48.25363" lon="2.71151">
        <ele>98</ele>
        <time>2013-09-22T12:07:07.750Z</time>
      </trkpt>
      <trkpt lat="48.25363" lon="2.7115">
        <ele>98</ele>
        <time>2013-09-22T12:07:10.717Z</time>
      </trkpt>
      <trkpt lat="48.25363" lon="2.7115">
        <ele>98</ele>
        <time>2013-09-22T12:07:12.723Z</time>
      </trkpt>
      <trkpt lat="48.25366" lon="2.71149">
        <ele>98</ele>
        <time>2013-09-22T12:07:14.727Z</time>
      </trkpt>
      <trkpt lat="48.25374" lon="2.71149">
        <ele>98</ele>
        <time>2013-09-22T12:07:21.726Z</time>
      </trkpt>
      <trkpt lat="48.25377" lon="2.7115">
        <ele>98</ele>
        <time>2013-09-22T12:07:24.723Z</time>
      </trkpt>
      <trkpt lat="48.25383" lon="2.7115">
        <ele>98</ele>
        <time>2013-09-22T12:07:30.737Z</time>
      </trkpt>
      <trkpt lat="48.25387" lon="2.71151">
        <ele>98</ele>
        <time>2013-09-22T12:07:33.735Z</time>
      </trkpt>
      <trkpt lat="48.25396" lon="2.71151">
        <ele>98</ele>
        <time>2013-09-22T12:07:41.729Z</time>
      </trkpt>
      <trkpt lat="48.25398" lon="2.7115">
        <ele>98</ele>
        <time>2013-09-22T12:07:43.736Z</time>
      </trkpt>
      <trkpt lat="48.25399" lon="2.7115">
        <ele>98</ele>
        <time>2013-09-22T12:07:46.725Z</time>
      </trkpt>
      <trkpt lat="48.25399" lon="2.7115">
        <ele>98</ele>
        <time>2013-09-22T12:07:48.734Z</time>
      </trkpt>
      <trkpt lat="48.25399" lon="2.7115">
        <ele>98</ele>
        <time>2013-09-22T12:07:53.729Z</time>
      </trkpt>
      <trkpt lat="48.25401" lon="2.71149">
        <ele>98</ele>
        <time>2013-09-22T12:07:55.738Z</time>
      </trkpt>
      <trkpt lat="48.25407" lon="2.71145">
        <ele>98</ele>
        <time>2013-09-22T12:08:02.732Z</time>
      </trkpt>
      <trkpt lat="48.25411" lon="2.71144">
        <ele>98</ele>
        <time>2013-09-22T12:08:05.725Z</time>
      </trkpt>
      <trkpt lat="48.2542" lon="2.71144">
        <ele>98</ele>
        <time>2013-09-22T12:08:15.725Z</time>
      </trkpt>
      <trkpt lat="48.25423" lon="2.71143">
        <ele>98</ele>
        <time>2013-09-22T12:08:18.729Z</time>
      </trkpt>
      <trkpt lat="48.2543" lon="2.7114">
        <ele>98</ele>
        <time>2013-09-22T12:08:25.745Z</time>
      </trkpt>
      <trkpt lat="48.25433" lon="2.71139">
        <ele>98</ele>
        <time>2013-09-22T12:08:28.725Z</time>
      </trkpt>
      <trkpt lat="48.2544" lon="2.71138">
        <ele>98</ele>
        <time>2013-09-22T12:08:36.779Z</time>
      </trkpt>
      <trkpt lat="48.25443" lon="2.71139">
        <ele>98</ele>
        <time>2013-09-22T12:08:39.725Z</time>
      </trkpt>
      <trkpt lat="48.2545" lon="2.71135">
        <ele>97</ele>
        <time>2013-09-22T12:08:46.706Z</time>
      </trkpt>
      <trkpt lat="48.25452" lon="2.71134">
        <ele>97</ele>
        <time>2013-09-22T12:08:48.714Z</time>
      </trkpt>
      <trkpt lat="48.2546" lon="2.71133">
        <ele>97</ele>
        <time>2013-09-22T12:08:56.748Z</time>
      </trkpt>
      <trkpt lat="48.25464" lon="2.7113">
        <ele>97</ele>
        <time>2013-09-22T12:08:59.732Z</time>
      </trkpt>
      <trkpt lat="48.25471" lon="2.71125">
        <ele>97</ele>
        <time>2013-09-22T12:09:06.737Z</time>
      </trkpt>
      <trkpt lat="48.25473" lon="2.71124">
        <ele>97</ele>
        <time>2013-09-22T12:09:09.716Z</time>
      </trkpt>
      <trkpt lat="48.25481" lon="2.71124">
        <ele>97</ele>
        <time>2013-09-22T12:09:16.724Z</time>
      </trkpt>
      <trkpt lat="48.25484" lon="2.71123">
        <ele>97</ele>
        <time>2013-09-22T12:09:18.725Z</time>
      </trkpt>
      <trkpt lat="48.2549" lon="2.71124">
        <ele>97</ele>
        <time>2013-09-22T12:09:22.731Z</time>
      </trkpt>
      <trkpt lat="48.25495" lon="2.71125">
        <ele>97</ele>
        <time>2013-09-22T12:09:25.763Z</time>
      </trkpt>
      <trkpt lat="48.25502" lon="2.71128">
        <ele>96</ele>
        <time>2013-09-22T12:09:30.737Z</time>
      </trkpt>
      <trkpt lat="48.25506" lon="2.71129">
        <ele>96</ele>
        <time>2013-09-22T12:09:33.732Z</time>
      </trkpt>
      <trkpt lat="48.25513" lon="2.71134">
        <ele>96</ele>
        <time>2013-09-22T12:09:43.743Z</time>
      </trkpt>
      <trkpt lat="48.25513" lon="2.71134">
        <ele>96</ele>
        <time>2013-09-22T12:09:46.723Z</time>
      </trkpt>
      <trkpt lat="48.25518" lon="2.71137">
        <ele>96</ele>
        <time>2013-09-22T12:09:48.724Z</time>
      </trkpt>
      <trkpt lat="48.25527" lon="2.71138">
        <ele>96</ele>
        <time>2013-09-22T12:09:55.738Z</time>
      </trkpt>
      <trkpt lat="48.25529" lon="2.71138">
        <ele>96</ele>
        <time>2013-09-22T12:09:58.723Z</time>
      </trkpt>
      <trkpt lat="48.25532" lon="2.71137">
        <ele>96</ele>
        <time>2013-09-22T12:10:03.734Z</time>
      </trkpt>
      <trkpt lat="48.25532" lon="2.71137">
        <ele>96</ele>
        <time>2013-09-22T12:10:06.725Z</time>
      </trkpt>
      <trkpt lat="48.25532" lon="2.71137">
        <ele>96</ele>
        <time>2013-09-22T12:10:09.713Z</time>
      </trkpt>
      <trkpt lat="48.25536" lon="2.71135">
        <ele>96</ele>
        <time>2013-09-22T12:10:11.714Z</time>
      </trkpt>
      <trkpt lat="48.25544" lon="2.71134">
        <ele>96</ele>
        <time>2013-09-22T12:10:22.712Z</time>
      </trkpt>
      <trkpt lat="48.25548" lon="2.71133">
        <ele>96</ele>
        <time>2013-09-22T12:10:24.734Z</time>
      </trkpt>
      <trkpt lat="48.25557" lon="2.71136">
        <ele>96</ele>
        <time>2013-09-22T12:10:33.734Z</time>
      </trkpt>
      <trkpt lat="48.25559" lon="2.71138">
        <ele>96</ele>
        <time>2013-09-22T12:10:36.763Z</time>
      </trkpt>
      <trkpt lat="48.25559" lon="2.71138">
        <ele>96</ele>
        <time>2013-09-22T12:10:39.714Z</time>
      </trkpt>
      <trkpt lat="48.25559" lon="2.71138">
        <ele>96</ele>
        <time>2013-09-22T12:10:42.711Z</time>
      </trkpt>
      <trkpt lat="48.25561" lon="2.71139">
        <ele>96</ele>
        <time>2013-09-22T12:10:44.724Z</time>
      </trkpt>
      <trkpt lat="48.25569" lon="2.71145">
        <ele>96</ele>
        <time>2013-09-22T12:10:49.721Z</time>
      </trkpt>
      <trkpt lat="48.2557" lon="2.71146">
        <ele>96</ele>
        <time>2013-09-22T12:10:52.623Z</time>
      </trkpt>
      <trkpt lat="48.25578" lon="2.71152">
        <ele>96</ele>
        <time>2013-09-22T12:10:58.729Z</time>
      </trkpt>
      <trkpt lat="48.25583" lon="2.71155">
        <ele>96</ele>
        <time>2013-09-22T12:11:01.730Z</time>
      </trkpt>
      <trkpt lat="48.25587" lon="2.71159">
        <ele>97</ele>
        <time>2013-09-22T12:11:04.721Z</time>
      </trkpt>
      <trkpt lat="48.25591" lon="2.71162">
        <ele>97</ele>
        <time>2013-09-22T12:11:06.726Z</time>
      </trkpt>
      <trkpt lat="48.25596" lon="2.71171">
        <ele>98</ele>
        <time>2013-09-22T12:11:11.736Z</time>
      </trkpt>
      <trkpt lat="48.25598" lon="2.71175">
        <ele>99</ele>
        <time>2013-09-22T12:11:13.751Z</time>
      </trkpt>
      <trkpt lat="48.25601" lon="2.71181">
        <ele>100</ele>
        <time>2013-09-22T12:11:16.731Z</time>
      </trkpt>
      <trkpt lat="48.25605" lon="2.71186">
        <ele>100</ele>
        <time>2013-09-22T12:11:19.741Z</time>
      </trkpt>
      <trkpt lat="48.25609" lon="2.71197">
        <ele>101</ele>
        <time>2013-09-22T12:11:25.741Z</time>
      </trkpt>
      <trkpt lat="48.25611" lon="2.71202">
        <ele>101</ele>
        <time>2013-09-22T12:11:28.722Z</time>
      </trkpt>
      <trkpt lat="48.25612" lon="2.71214">
        <ele>102</ele>
        <time>2013-09-22T12:11:35.716Z</time>
      </trkpt>
      <trkpt lat="48.25612" lon="2.71216">
        <ele>102</ele>
        <time>2013-09-22T12:11:36.761Z</time>
      </trkpt>
      <trkpt lat="48.25616" lon="2.71225">
        <ele>102</ele>
        <time>2013-09-22T12:11:41.730Z</time>
      </trkpt>
      <trkpt lat="48.25617" lon="2.71228">
        <ele>102</ele>
        <time>2013-09-22T12:11:43.736Z</time>
      </trkpt>
      <trkpt lat="48.25619" lon="2.71237">
        <ele>102</ele>
        <time>2013-09-22T12:11:48.734Z</time>
      </trkpt>
      <trkpt lat="48.25621" lon="2.7124">
        <ele>103</ele>
        <time>2013-09-22T12:11:50.754Z</time>
      </trkpt>
      <trkpt lat="48.25623" lon="2.7125">
        <ele>103</ele>
        <time>2013-09-22T12:11:55.756Z</time>
      </trkpt>
      <trkpt lat="48.25624" lon="2.71255">
        <ele>107</ele>
        <time>2013-09-22T12:11:58.723Z</time>
      </trkpt>
      <trkpt lat="48.25623" lon="2.71266">
        <ele>107</ele>
        <time>2013-09-22T12:12:07.742Z</time>
      </trkpt>
      <trkpt lat="48.25621" lon="2.71269">
        <ele>107</ele>
        <time>2013-09-22T12:12:10.734Z</time>
      </trkpt>
      <trkpt lat="48.25621" lon="2.7128">
        <ele>108</ele>
        <time>2013-09-22T12:12:17.744Z</time>
      </trkpt>
      <trkpt lat="48.25623" lon="2.71285">
        <ele>108</ele>
        <time>2013-09-22T12:12:20.658Z</time>
      </trkpt>
      <trkpt lat="48.25624" lon="2.71295">
        <ele>109</ele>
        <time>2013-09-22T12:12:28.740Z</time>
      </trkpt>
      <trkpt lat="48.25623" lon="2.71298">
        <ele>109</ele>
        <time>2013-09-22T12:12:31.629Z</time>
      </trkpt>
      <trkpt lat="48.25623" lon="2.71302">
        <ele>109</ele>
        <time>2013-09-22T12:12:36.632Z</time>
      </trkpt>
      <trkpt lat="48.25623" lon="2.71301">
        <ele>109</ele>
        <time>2013-09-22T12:12:37.634Z</time>
      </trkpt>
      <trkpt lat="48.2562" lon="2.71303">
        <ele>109</ele>
        <time>2013-09-22T12:12:40.630Z</time>
      </trkpt>
      <trkpt lat="48.25615" lon="2.71303">
        <ele>108</ele>
        <time>2013-09-22T12:12:47.634Z</time>
      </trkpt>
      <trkpt lat="48.25615" lon="2.71303">
        <ele>108</ele>
        <time>2013-09-22T12:12:50.645Z</time>
      </trkpt>
      <trkpt lat="48.25615" lon="2.71303">
        <ele>108</ele>
        <time>2013-09-22T12:13:03.626Z</time>
      </trkpt>
      <trkpt lat="48.25613" lon="2.71304">
        <ele>108</ele>
        <time>2013-09-22T12:13:05.633Z</time>
      </trkpt>
      <trkpt lat="48.25611" lon="2.71305">
        <ele>108</ele>
        <time>2013-09-22T12:13:08.646Z</time>
      </trkpt>
      <trkpt lat="48.25611" lon="2.71305">
        <ele>108</ele>
        <time>2013-09-22T12:13:11.634Z</time>
      </trkpt>
      <trkpt lat="48.25611" lon="2.71305">
        <ele>108</ele>
        <time>2013-09-22T12:13:19.636Z</time>
      </trkpt>
      <trkpt lat="48.25614" lon="2.71305">
        <ele>108</ele>
        <time>2013-09-22T12:13:22.638Z</time>
      </trkpt>
      <trkpt lat="48.25618" lon="2.71305">
        <ele>109</ele>
        <time>2013-09-22T12:13:27.737Z</time>
      </trkpt>
      <trkpt lat="48.25618" lon="2.71305">
        <ele>109</ele>
        <time>2013-09-22T12:13:30.631Z</time>
      </trkpt>
      <trkpt lat="48.25618" lon="2.71305">
        <ele>109</ele>
        <time>2013-09-22T12:13:32.642Z</time>
      </trkpt>
      <trkpt lat="48.25621" lon="2.71309">
        <ele>109</ele>
        <time>2013-09-22T12:13:35.633Z</time>
      </trkpt>
      <trkpt lat="48.25625" lon="2.7132">
        <ele>110</ele>
        <time>2013-09-22T12:13:44.670Z</time>
      </trkpt>
      <trkpt lat="48.25626" lon="2.7132">
        <ele>110</ele>
        <time>2013-09-22T12:13:47.650Z</time>
      </trkpt>
      <trkpt lat="48.25628" lon="2.71325">
        <ele>110</ele>
        <time>2013-09-22T12:13:50.642Z</time>
      </trkpt>
      <trkpt lat="48.25633" lon="2.71336">
        <ele>113</ele>
        <time>2013-09-22T12:13:57.733Z</time>
      </trkpt>
      <trkpt lat="48.25635" lon="2.7134">
        <ele>113</ele>
        <time>2013-09-22T12:14:00.630Z</time>
      </trkpt>
      <trkpt lat="48.25638" lon="2.71351">
        <ele>114</ele>
        <time>2013-09-22T12:14:07.632Z</time>
      </trkpt>
      <trkpt lat="48.25639" lon="2.71355">
        <ele>114</ele>
        <time>2013-09-22T12:14:10.625Z</time>
      </trkpt>
      <trkpt lat="48.25637" lon="2.71366">
        <ele>113</ele>
        <time>2013-09-22T12:14:21.638Z</time>
      </trkpt>
      <trkpt lat="48.25637" lon="2.71368">
        <ele>113</ele>
        <time>2013-09-22T12:14:23.734Z</time>
      </trkpt>
      <trkpt lat="48.25641" lon="2.71377">
        <ele>113</ele>
        <time>2013-09-22T12:14:29.629Z</time>
      </trkpt>
      <trkpt lat="48.25642" lon="2.7138">
        <ele>113</ele>
        <time>2013-09-22T12:14:31.632Z</time>
      </trkpt>
      <trkpt lat="48.25648" lon="2.71389">
        <ele>114</ele>
        <time>2013-09-22T12:14:37.633Z</time>
      </trkpt>
      <trkpt lat="48.25649" lon="2.71392">
        <ele>114</ele>
        <time>2013-09-22T12:14:39.632Z</time>
      </trkpt>
      <trkpt lat="48.25651" lon="2.71402">
        <ele>114</ele>
        <time>2013-09-22T12:14:45.640Z</time>
      </trkpt>
      <trkpt lat="48.25651" lon="2.71407">
        <ele>114</ele>
        <time>2013-09-22T12:14:48.630Z</time>
      </trkpt>
      <trkpt lat="48.25648" lon="2.71419">
        <ele>114</ele>
        <time>2013-09-22T12:14:58.636Z</time>
      </trkpt>
      <trkpt lat="48.25646" lon="2.71421">
        <ele>114</ele>
        <time>2013-09-22T12:15:01.632Z</time>
      </trkpt>
      <trkpt lat="48.25642" lon="2.71423">
        <ele>114</ele>
        <time>2013-09-22T12:15:10.633Z</time>
      </trkpt>
      <trkpt lat="48.25641" lon="2.71423">
        <ele>114</ele>
        <time>2013-09-22T12:15:13.626Z</time>
      </trkpt>
      <trkpt lat="48.25642" lon="2.71423">
        <ele>114</ele>
        <time>2013-09-22T12:15:20.645Z</time>
      </trkpt>
      <trkpt lat="48.25644" lon="2.7142">
        <ele>114</ele>
        <time>2013-09-22T12:15:23.640Z</time>
      </trkpt>
      <trkpt lat="48.25645" lon="2.7142">
        <ele>114</ele>
        <time>2013-09-22T12:15:25.642Z</time>
      </trkpt>
      <trkpt lat="48.25645" lon="2.71421">
        <ele>114</ele>
        <time>2013-09-22T12:15:28.662Z</time>
      </trkpt>
      <trkpt lat="48.25645" lon="2.71421">
        <ele>114</ele>
        <time>2013-09-22T12:15:31.622Z</time>
      </trkpt>
      <trkpt lat="48.25643" lon="2.71421">
        <ele>114</ele>
        <time>2013-09-22T12:15:34.624Z</time>
      </trkpt>
      <trkpt lat="48.25638" lon="2.71419">
        <ele>114</ele>
        <time>2013-09-22T12:15:43.747Z</time>
      </trkpt>
      <trkpt lat="48.25638" lon="2.71419">
        <ele>114</ele>
        <time>2013-09-22T12:15:46.630Z</time>
      </trkpt>
      <trkpt lat="48.25638" lon="2.71419">
        <ele>114</ele>
        <time>2013-09-22T12:15:51.641Z</time>
      </trkpt>
      <trkpt lat="48.25641" lon="2.7142">
        <ele>114</ele>
        <time>2013-09-22T12:15:54.635Z</time>
      </trkpt>
      <trkpt lat="48.2564" lon="2.7142">
        <ele>114</ele>
        <time>2013-09-22T12:15:56.645Z</time>
      </trkpt>
      <trkpt lat="48.25639" lon="2.71421">
        <ele>114</ele>
        <time>2013-09-22T12:15:59.630Z</time>
      </trkpt>
      <trkpt lat="48.25639" lon="2.71421">
        <ele>114</ele>
        <time>2013-09-22T12:16:02.632Z</time>
      </trkpt>
      <trkpt lat="48.25637" lon="2.71422">
        <ele>114</ele>
        <time>2013-09-22T12:16:05.621Z</time>
      </trkpt>
      <trkpt lat="48.25637" lon="2.71422">
        <ele>114</ele>
        <time>2013-09-22T12:16:07.626Z</time>
      </trkpt>
      <trkpt lat="48.25637" lon="2.71421">
        <ele>114</ele>
        <time>2013-09-22T12:16:10.634Z</time>
      </trkpt>
      <trkpt lat="48.25636" lon="2.71421">
        <ele>114</ele>
        <time>2013-09-22T12:16:13.625Z</time>
      </trkpt>
      <trkpt lat="48.25638" lon="2.71424">
        <ele>114</ele>
        <time>2013-09-22T12:16:17.628Z</time>
      </trkpt>
      <trkpt lat="48.25638" lon="2.71424">
        <ele>114</ele>
        <time>2013-09-22T12:16:19.628Z</time>
      </trkpt>
      <trkpt lat="48.25638" lon="2.71423">
        <ele>114</ele>
        <time>2013-09-22T12:16:26.638Z</time>
      </trkpt>
      <trkpt lat="48.25636" lon="2.71432">
        <ele>114</ele>
        <time>2013-09-22T12:16:29.707Z</time>
      </trkpt>
      <trkpt lat="48.2563" lon="2.71442">
        <ele>113</ele>
        <time>2013-09-22T12:16:42.609Z</time>
      </trkpt>
      <trkpt lat="48.2563" lon="2.71445">
        <ele>113</ele>
        <time>2013-09-22T12:16:44.624Z</time>
      </trkpt>
      <trkpt lat="48.25625" lon="2.71456">
        <ele>113</ele>
        <time>2013-09-22T12:16:54.607Z</time>
      </trkpt>
      <trkpt lat="48.25625" lon="2.71456">
        <ele>113</ele>
        <time>2013-09-22T12:16:56.626Z</time>
      </trkpt>
      <trkpt lat="48.25625" lon="2.71455">
        <ele>113</ele>
        <time>2013-09-22T12:17:08.647Z</time>
      </trkpt>
      <trkpt lat="48.25626" lon="2.71453">
        <ele>113</ele>
        <time>2013-09-22T12:17:11.633Z</time>
      </trkpt>
      <trkpt lat="48.25625" lon="2.7144">
        <ele>113</ele>
        <time>2013-09-22T12:17:26.653Z</time>
      </trkpt>
      <trkpt lat="48.25623" lon="2.71439">
        <ele>113</ele>
        <time>2013-09-22T12:17:29.705Z</time>
      </trkpt>
      <trkpt lat="48.25617" lon="2.71434">
        <ele>113</ele>
        <time>2013-09-22T12:17:39.639Z</time>
      </trkpt>
      <trkpt lat="48.25618" lon="2.71434">
        <ele>113</ele>
        <time>2013-09-22T12:17:42.663Z</time>
      </trkpt>
      <trkpt lat="48.25618" lon="2.71434">
        <ele>113</ele>
        <time>2013-09-22T12:17:50.852Z</time>
      </trkpt>
      <trkpt lat="48.25616" lon="2.71431">
        <ele>113</ele>
        <time>2013-09-22T12:17:53.856Z</time>
      </trkpt>
      <trkpt lat="48.25611" lon="2.71422">
        <ele>113</ele>
        <time>2013-09-22T12:18:02.901Z</time>
      </trkpt>
      <trkpt lat="48.25609" lon="2.71418">
        <ele>113</ele>
        <time>2013-09-22T12:18:05.798Z</time>
      </trkpt>
      <trkpt lat="48.25605" lon="2.71406">
        <ele>112</ele>
        <time>2013-09-22T12:18:17.832Z</time>
      </trkpt>
      <trkpt lat="48.25603" lon="2.71406">
        <ele>112</ele>
        <time>2013-09-22T12:18:19.832Z</time>
      </trkpt>
      <trkpt lat="48.256" lon="2.71406">
        <ele>112</ele>
        <time>2013-09-22T12:18:23.834Z</time>
      </trkpt>
      <trkpt lat="48.256" lon="2.71406">
        <ele>112</ele>
        <time>2013-09-22T12:18:26.848Z</time>
      </trkpt>
      <trkpt lat="48.25596" lon="2.71403">
        <ele>112</ele>
        <time>2013-09-22T12:18:29.821Z</time>
      </trkpt>
      <trkpt lat="48.2559" lon="2.71398">
        <ele>112</ele>
        <time>2013-09-22T12:18:36.829Z</time>
      </trkpt>
      <trkpt lat="48.2559" lon="2.71398">
        <ele>112</ele>
        <time>2013-09-22T12:18:37.816Z</time>
      </trkpt>
      <trkpt lat="48.2559" lon="2.71398">
        <ele>112</ele>
        <time>2013-09-22T12:19:31.818Z</time>
      </trkpt>
      <trkpt lat="48.25591" lon="2.71395">
        <ele>112</ele>
        <time>2013-09-22T12:19:34.805Z</time>
      </trkpt>
      <trkpt lat="48.25591" lon="2.71389">
        <ele>112</ele>
        <time>2013-09-22T12:19:37.814Z</time>
      </trkpt>
      <trkpt lat="48.25591" lon="2.71389">
        <ele>112</ele>
        <time>2013-09-22T12:19:39.815Z</time>
      </trkpt>
      <trkpt lat="48.25591" lon="2.7139">
        <ele>112</ele>
        <time>2013-09-22T12:19:56.839Z</time>
      </trkpt>
      <trkpt lat="48.25589" lon="2.71388">
        <ele>112</ele>
        <time>2013-09-22T12:19:59.819Z</time>
      </trkpt>
      <trkpt lat="48.25582" lon="2.7139">
        <ele>110</ele>
        <time>2013-09-22T12:20:07.818Z</time>
      </trkpt>
      <trkpt lat="48.25579" lon="2.71393">
        <ele>110</ele>
        <time>2013-09-22T12:20:10.818Z</time>
      </trkpt>
      <trkpt lat="48.25574" lon="2.71397">
        <ele>110</ele>
        <time>2013-09-22T12:20:17.835Z</time>
      </trkpt>
      <trkpt lat="48.25571" lon="2.714">
        <ele>110</ele>
        <time>2013-09-22T12:20:20.841Z</time>
      </trkpt>
      <trkpt lat="48.25564" lon="2.71401">
        <ele>110</ele>
        <time>2013-09-22T12:20:29.806Z</time>
      </trkpt>
      <trkpt lat="48.25561" lon="2.714">
        <ele>110</ele>
        <time>2013-09-22T12:20:31.828Z</time>
      </trkpt>
      <trkpt lat="48.25555" lon="2.71397">
        <ele>110</ele>
        <time>2013-09-22T12:20:37.818Z</time>
      </trkpt>
      <trkpt lat="48.25552" lon="2.71398">
        <ele>110</ele>
        <time>2013-09-22T12:20:40.810Z</time>
      </trkpt>
      <trkpt lat="48.25544" lon="2.71401">
        <ele>110</ele>
        <time>2013-09-22T12:20:48.833Z</time>
      </trkpt>
      <trkpt lat="48.25542" lon="2.71402">
        <ele>110</ele>
        <time>2013-09-22T12:20:50.838Z</time>
      </trkpt>
      <trkpt lat="48.25533" lon="2.71402">
        <ele>110</ele>
        <time>2013-09-22T12:20:59.828Z</time>
      </trkpt>
      <trkpt lat="48.25531" lon="2.71401">
        <ele>110</ele>
        <time>2013-09-22T12:21:02.842Z</time>
      </trkpt>
      <trkpt lat="48.25524" lon="2.71398">
        <ele>110</ele>
        <time>2013-09-22T12:21:08.823Z</time>
      </trkpt>
      <trkpt lat="48.25521" lon="2.71396">
        <ele>110</ele>
        <time>2013-09-22T12:21:11.819Z</time>
      </trkpt>
      <trkpt lat="48.25514" lon="2.71397">
        <ele>110</ele>
        <time>2013-09-22T12:21:20.826Z</time>
      </trkpt>
      <trkpt lat="48.2551" lon="2.71397">
        <ele>110</ele>
        <time>2013-09-22T12:21:23.818Z</time>
      </trkpt>
      <trkpt lat="48.25502" lon="2.71397">
        <ele>110</ele>
        <time>2013-09-22T12:21:33.817Z</time>
      </trkpt>
      <trkpt lat="48.25499" lon="2.71396">
        <ele>108</ele>
        <time>2013-09-22T12:21:35.820Z</time>
      </trkpt>
      <trkpt lat="48.25492" lon="2.71394">
        <ele>108</ele>
        <time>2013-09-22T12:21:41.817Z</time>
      </trkpt>
      <trkpt lat="48.25489" lon="2.71393">
        <ele>107</ele>
        <time>2013-09-22T12:21:44.829Z</time>
      </trkpt>
      <trkpt lat="48.25489" lon="2.71393">
        <ele>107</ele>
        <time>2013-09-22T12:21:47.823Z</time>
      </trkpt>
      <trkpt lat="48.2549" lon="2.71393">
        <ele>108</ele>
        <time>2013-09-22T12:21:50.836Z</time>
      </trkpt>
      <trkpt lat="48.25487" lon="2.71394">
        <ele>107</ele>
        <time>2013-09-22T12:21:53.813Z</time>
      </trkpt>
      <trkpt lat="48.2548" lon="2.71388">
        <ele>107</ele>
        <time>2013-09-22T12:22:02.839Z</time>
      </trkpt>
      <trkpt lat="48.25478" lon="2.71385">
        <ele>106</ele>
        <time>2013-09-22T12:22:05.824Z</time>
      </trkpt>
      <trkpt lat="48.25472" lon="2.71378">
        <ele>105</ele>
        <time>2013-09-22T12:22:12.820Z</time>
      </trkpt>
      <trkpt lat="48.2547" lon="2.71376">
        <ele>105</ele>
        <time>2013-09-22T12:22:14.838Z</time>
      </trkpt>
      <trkpt lat="48.25464" lon="2.71367">
        <ele>105</ele>
        <time>2013-09-22T12:22:22.844Z</time>
      </trkpt>
      <trkpt lat="48.25463" lon="2.71364">
        <ele>104</ele>
        <time>2013-09-22T12:22:25.833Z</time>
      </trkpt>
      <trkpt lat="48.25459" lon="2.71355">
        <ele>104</ele>
        <time>2013-09-22T12:22:37.818Z</time>
      </trkpt>
      <trkpt lat="48.25457" lon="2.71352">
        <ele>104</ele>
        <time>2013-09-22T12:22:39.818Z</time>
      </trkpt>
      <trkpt lat="48.25453" lon="2.71344">
        <ele>103</ele>
        <time>2013-09-22T12:22:46.872Z</time>
      </trkpt>
      <trkpt lat="48.25451" lon="2.71341">
        <ele>103</ele>
        <time>2013-09-22T12:22:49.829Z</time>
      </trkpt>
      <trkpt lat="48.25447" lon="2.71333">
        <ele>100</ele>
        <time>2013-09-22T12:22:56.837Z</time>
      </trkpt>
      <trkpt lat="48.25444" lon="2.71329">
        <ele>100</ele>
        <time>2013-09-22T12:22:59.837Z</time>
      </trkpt>
      <trkpt lat="48.25442" lon="2.71319">
        <ele>100</ele>
        <time>2013-09-22T12:23:07.823Z</time>
      </trkpt>
      <trkpt lat="48.25441" lon="2.71317">
        <ele>100</ele>
        <time>2013-09-22T12:23:09.841Z</time>
      </trkpt>
      <trkpt lat="48.25441" lon="2.71313">
        <ele>100</ele>
        <time>2013-09-22T12:23:14.841Z</time>
      </trkpt>
      <trkpt lat="48.25441" lon="2.71313">
        <ele>100</ele>
        <time>2013-09-22T12:23:17.829Z</time>
      </trkpt>
      <trkpt lat="48.25439" lon="2.7131">
        <ele>99</ele>
        <time>2013-09-22T12:23:19.836Z</time>
      </trkpt>
      <trkpt lat="48.25435" lon="2.71299">
        <ele>99</ele>
        <time>2013-09-22T12:23:24.830Z</time>
      </trkpt>
      <trkpt lat="48.25434" lon="2.71298">
        <ele>99</ele>
        <time>2013-09-22T12:23:26.842Z</time>
      </trkpt>
      <trkpt lat="48.25427" lon="2.71294">
        <ele>99</ele>
        <time>2013-09-22T12:23:35.833Z</time>
      </trkpt>
      <trkpt lat="48.25426" lon="2.71291">
        <ele>99</ele>
        <time>2013-09-22T12:23:37.826Z</time>
      </trkpt>
      <trkpt lat="48.2542" lon="2.71284">
        <ele>99</ele>
        <time>2013-09-22T12:23:42.820Z</time>
      </trkpt>
      <trkpt lat="48.25418" lon="2.71281">
        <ele>99</ele>
        <time>2013-09-22T12:23:44.833Z</time>
      </trkpt>
      <trkpt lat="48.25414" lon="2.71271">
        <ele>98</ele>
        <time>2013-09-22T12:23:52.840Z</time>
      </trkpt>
      <trkpt lat="48.25412" lon="2.71265">
        <ele>98</ele>
        <time>2013-09-22T12:23:55.836Z</time>
      </trkpt>
      <trkpt lat="48.25409" lon="2.71254">
        <ele>98</ele>
        <time>2013-09-22T12:24:02.855Z</time>
      </trkpt>
      <trkpt lat="48.25407" lon="2.7125">
        <ele>98</ele>
        <time>2013-09-22T12:24:05.821Z</time>
      </trkpt>
      <trkpt lat="48.25402" lon="2.71241">
        <ele>98</ele>
        <time>2013-09-22T12:24:15.839Z</time>
      </trkpt>
      <trkpt lat="48.25402" lon="2.71241">
        <ele>98</ele>
        <time>2013-09-22T12:24:17.860Z</time>
      </trkpt>
      <trkpt lat="48.25402" lon="2.71241">
        <ele>98</ele>
        <time>2013-09-22T12:24:20.848Z</time>
      </trkpt>
      <trkpt lat="48.25399" lon="2.71233">
        <ele>98</ele>
        <time>2013-09-22T12:24:23.839Z</time>
      </trkpt>
      <trkpt lat="48.25398" lon="2.71233">
        <ele>98</ele>
        <time>2013-09-22T12:24:26.847Z</time>
      </trkpt>
      <trkpt lat="48.25398" lon="2.71233">
        <ele>98</ele>
        <time>2013-09-22T12:24:29.817Z</time>
      </trkpt>
      <trkpt lat="48.25398" lon="2.71233">
        <ele>98</ele>
        <time>2013-09-22T12:24:32.827Z</time>
      </trkpt>
      <trkpt lat="48.25397" lon="2.7123">
        <ele>98</ele>
        <time>2013-09-22T12:24:35.821Z</time>
      </trkpt>
      <trkpt lat="48.25396" lon="2.71226">
        <ele>98</ele>
        <time>2013-09-22T12:24:39.822Z</time>
      </trkpt>
      <trkpt lat="48.25396" lon="2.71227">
        <ele>98</ele>
        <time>2013-09-22T12:24:42.818Z</time>
      </trkpt>
      <trkpt lat="48.25396" lon="2.71227">
        <ele>98</ele>
        <time>2013-09-22T12:24:57.834Z</time>
      </trkpt>
      <trkpt lat="48.25398" lon="2.71226">
        <ele>98</ele>
        <time>2013-09-22T12:25:00.832Z</time>
      </trkpt>
      <trkpt lat="48.25399" lon="2.71226">
        <ele>98</ele>
        <time>2013-09-22T12:25:02.835Z</time>
      </trkpt>
      <trkpt lat="48.25398" lon="2.71226">
        <ele>98</ele>
        <time>2013-09-22T12:25:05.810Z</time>
      </trkpt>
      <trkpt lat="48.25397" lon="2.71226">
        <ele>98</ele>
        <time>2013-09-22T12:25:07.818Z</time>
      </trkpt>
      <trkpt lat="48.25396" lon="2.71226">
        <ele>98</ele>
        <time>2013-09-22T12:25:10.810Z</time>
      </trkpt>
      <trkpt lat="48.25397" lon="2.71226">
        <ele>98</ele>
        <time>2013-09-22T12:25:20.850Z</time>
      </trkpt>
      <trkpt lat="48.25396" lon="2.71235">
        <ele>98</ele>
        <time>2013-09-22T12:25:23.828Z</time>
      </trkpt>
      <trkpt lat="48.25391" lon="2.71245">
        <ele>98</ele>
        <time>2013-09-22T12:25:31.806Z</time>
      </trkpt>
      <trkpt lat="48.2539" lon="2.71248">
        <ele>98</ele>
        <time>2013-09-22T12:25:33.809Z</time>
      </trkpt>
      <trkpt lat="48.25386" lon="2.71257">
        <ele>98</ele>
        <time>2013-09-22T12:25:39.811Z</time>
      </trkpt>
      <trkpt lat="48.25385" lon="2.71262">
        <ele>98</ele>
        <time>2013-09-22T12:25:41.813Z</time>
      </trkpt>
      <trkpt lat="48.25387" lon="2.7127">
        <ele>98</ele>
        <time>2013-09-22T12:25:44.827Z</time>
      </trkpt>
      <trkpt lat="48.25386" lon="2.71277">
        <ele>98</ele>
        <time>2013-09-22T12:25:47.817Z</time>
      </trkpt>
      <trkpt lat="48.25385" lon="2.71284">
        <ele>98</ele>
        <time>2013-09-22T12:25:50.837Z</time>
      </trkpt>
      <trkpt lat="48.25384" lon="2.7129">
        <ele>98</ele>
        <time>2013-09-22T12:25:53.805Z</time>
      </trkpt>
      <trkpt lat="48.25378" lon="2.71299">
        <ele>99</ele>
        <time>2013-09-22T12:25:58.819Z</time>
      </trkpt>
      <trkpt lat="48.25375" lon="2.71302">
        <ele>99</ele>
        <time>2013-09-22T12:26:00.824Z</time>
      </trkpt>
      <trkpt lat="48.25372" lon="2.71311">
        <ele>99</ele>
        <time>2013-09-22T12:26:05.811Z</time>
      </trkpt>
      <trkpt lat="48.25371" lon="2.71314">
        <ele>99</ele>
        <time>2013-09-22T12:26:07.810Z</time>
      </trkpt>
      <trkpt lat="48.25367" lon="2.71326">
        <ele>99</ele>
        <time>2013-09-22T12:26:13.805Z</time>
      </trkpt>
      <trkpt lat="48.25365" lon="2.7133">
        <ele>99</ele>
        <time>2013-09-22T12:26:15.818Z</time>
      </trkpt>
      <trkpt lat="48.25361" lon="2.71337">
        <ele>100</ele>
        <time>2013-09-22T12:26:19.822Z</time>
      </trkpt>
      <trkpt lat="48.25359" lon="2.7134">
        <ele>100</ele>
        <time>2013-09-22T12:26:21.822Z</time>
      </trkpt>
      <trkpt lat="48.25355" lon="2.7135">
        <ele>100</ele>
        <time>2013-09-22T12:26:26.828Z</time>
      </trkpt>
      <trkpt lat="48.25354" lon="2.71357">
        <ele>100</ele>
        <time>2013-09-22T12:26:29.806Z</time>
      </trkpt>
      <trkpt lat="48.25354" lon="2.71368">
        <ele>100</ele>
        <time>2013-09-22T12:26:34.809Z</time>
      </trkpt>
      <trkpt lat="48.25353" lon="2.71376">
        <ele>100</ele>
        <time>2013-09-22T12:26:37.808Z</time>
      </trkpt>
      <trkpt lat="48.25352" lon="2.71385">
        <ele>100</ele>
        <time>2013-09-22T12:26:41.811Z</time>
      </trkpt>
      <trkpt lat="48.25352" lon="2.71391">
        <ele>100</ele>
        <time>2013-09-22T12:26:44.796Z</time>
      </trkpt>
      <trkpt lat="48.25352" lon="2.71402">
        <ele>100</ele>
        <time>2013-09-22T12:26:51.847Z</time>
      </trkpt>
      <trkpt lat="48.25352" lon="2.71407">
        <ele>100</ele>
        <time>2013-09-22T12:26:54.813Z</time>
      </trkpt>
      <trkpt lat="48.25354" lon="2.71418">
        <ele>101</ele>
        <time>2013-09-22T12:26:59.825Z</time>
      </trkpt>
      <trkpt lat="48.25354" lon="2.71426">
        <ele>101</ele>
        <time>2013-09-22T12:27:02.823Z</time>
      </trkpt>
      <trkpt lat="48.25353" lon="2.71438">
        <ele>101</ele>
        <time>2013-09-22T12:27:07.809Z</time>
      </trkpt>
      <trkpt lat="48.25352" lon="2.71445">
        <ele>101</ele>
        <time>2013-09-22T12:27:10.810Z</time>
      </trkpt>
      <trkpt lat="48.25351" lon="2.71457">
        <ele>100</ele>
        <time>2013-09-22T12:27:16.813Z</time>
      </trkpt>
      <trkpt lat="48.25352" lon="2.71462">
        <ele>100</ele>
        <time>2013-09-22T12:27:18.816Z</time>
      </trkpt>
      <trkpt lat="48.25354" lon="2.71467">
        <ele>100</ele>
        <time>2013-09-22T12:27:20.832Z</time>
      </trkpt>
      <trkpt lat="48.25356" lon="2.71474">
        <ele>100</ele>
        <time>2013-09-22T12:27:23.810Z</time>
      </trkpt>
      <trkpt lat="48.25358" lon="2.71481">
        <ele>100</ele>
        <time>2013-09-22T12:27:26.835Z</time>
      </trkpt>
      <trkpt lat="48.25359" lon="2.71487">
        <ele>100</ele>
        <time>2013-09-22T12:27:29.802Z</time>
      </trkpt>
      <trkpt lat="48.2536" lon="2.71497">
        <ele>100</ele>
        <time>2013-09-22T12:27:33.836Z</time>
      </trkpt>
      <trkpt lat="48.25361" lon="2.71504">
        <ele>99</ele>
        <time>2013-09-22T12:27:36.836Z</time>
      </trkpt>
      <trkpt lat="48.25364" lon="2.71511">
        <ele>99</ele>
        <time>2013-09-22T12:27:39.819Z</time>
      </trkpt>
      <trkpt lat="48.25366" lon="2.71516">
        <ele>99</ele>
        <time>2013-09-22T12:27:41.828Z</time>
      </trkpt>
      <trkpt lat="48.25368" lon="2.71525">
        <ele>100</ele>
        <time>2013-09-22T12:27:45.834Z</time>
      </trkpt>
      <trkpt lat="48.25369" lon="2.71532">
        <ele>100</ele>
        <time>2013-09-22T12:27:48.833Z</time>
      </trkpt>
      <trkpt lat="48.25371" lon="2.71544">
        <ele>100</ele>
        <time>2013-09-22T12:27:53.829Z</time>
      </trkpt>
      <trkpt lat="48.25372" lon="2.71549">
        <ele>100</ele>
        <time>2013-09-22T12:27:55.832Z</time>
      </trkpt>
      <trkpt lat="48.25376" lon="2.71558">
        <ele>100</ele>
        <time>2013-09-22T12:27:59.839Z</time>
      </trkpt>
      <trkpt lat="48.25379" lon="2.71565">
        <ele>100</ele>
        <time>2013-09-22T12:28:02.828Z</time>
      </trkpt>
      <trkpt lat="48.25383" lon="2.71574">
        <ele>100</ele>
        <time>2013-09-22T12:28:05.823Z</time>
      </trkpt>
      <trkpt lat="48.25387" lon="2.71581">
        <ele>100</ele>
        <time>2013-09-22T12:28:08.827Z</time>
      </trkpt>
      <trkpt lat="48.25391" lon="2.71592">
        <ele>100</ele>
        <time>2013-09-22T12:28:13.821Z</time>
      </trkpt>
      <trkpt lat="48.25394" lon="2.71597">
        <ele>100</ele>
        <time>2013-09-22T12:28:15.825Z</time>
      </trkpt>
      <trkpt lat="48.25397" lon="2.71602">
        <ele>100</ele>
        <time>2013-09-22T12:28:17.827Z</time>
      </trkpt>
      <trkpt lat="48.25399" lon="2.71608">
        <ele>100</ele>
        <time>2013-09-22T12:28:19.829Z</time>
      </trkpt>
      <trkpt lat="48.25401" lon="2.71621">
        <ele>100</ele>
        <time>2013-09-22T12:28:25.847Z</time>
      </trkpt>
      <trkpt lat="48.25402" lon="2.71628">
        <ele>100</ele>
        <time>2013-09-22T12:28:28.813Z</time>
      </trkpt>
      <trkpt lat="48.25403" lon="2.71637">
        <ele>100</ele>
        <time>2013-09-22T12:28:32.836Z</time>
      </trkpt>
      <trkpt lat="48.25405" lon="2.71641">
        <ele>100</ele>
        <time>2013-09-22T12:28:34.843Z</time>
      </trkpt>
      <trkpt lat="48.25407" lon="2.71648">
        <ele>100</ele>
        <time>2013-09-22T12:28:37.823Z</time>
      </trkpt>
      <trkpt lat="48.25409" lon="2.71656">
        <ele>99</ele>
        <time>2013-09-22T12:28:40.827Z</time>
      </trkpt>
      <trkpt lat="48.25414" lon="2.71666">
        <ele>98</ele>
        <time>2013-09-22T12:28:44.848Z</time>
      </trkpt>
      <trkpt lat="48.25417" lon="2.71674">
        <ele>99</ele>
        <time>2013-09-22T12:28:47.836Z</time>
      </trkpt>
      <trkpt lat="48.2542" lon="2.71682">
        <ele>99</ele>
        <time>2013-09-22T12:28:50.803Z</time>
      </trkpt>
      <trkpt lat="48.25422" lon="2.71687">
        <ele>99</ele>
        <time>2013-09-22T12:28:52.830Z</time>
      </trkpt>
      <trkpt lat="48.25426" lon="2.71695">
        <ele>100</ele>
        <time>2013-09-22T12:28:55.830Z</time>
      </trkpt>
      <trkpt lat="48.25428" lon="2.71703">
        <ele>100</ele>
        <time>2013-09-22T12:28:58.824Z</time>
      </trkpt>
      <trkpt lat="48.25429" lon="2.71711">
        <ele>100</ele>
        <time>2013-09-22T12:29:02.841Z</time>
      </trkpt>
      <trkpt lat="48.25431" lon="2.71716">
        <ele>100</ele>
        <time>2013-09-22T12:29:05.831Z</time>
      </trkpt>
      <trkpt lat="48.25434" lon="2.71722">
        <ele>100</ele>
        <time>2013-09-22T12:29:10.827Z</time>
      </trkpt>
      <trkpt lat="48.25433" lon="2.71721">
        <ele>100</ele>
        <time>2013-09-22T12:29:12.836Z</time>
      </trkpt>
      <trkpt lat="48.25432" lon="2.71721">
        <ele>100</ele>
        <time>2013-09-22T12:29:23.831Z</time>
      </trkpt>
      <trkpt lat="48.25434" lon="2.71728">
        <ele>100</ele>
        <time>2013-09-22T12:29:25.831Z</time>
      </trkpt>
      <trkpt lat="48.25435" lon="2.7173">
        <ele>100</ele>
        <time>2013-09-22T12:29:27.832Z</time>
      </trkpt>
      <trkpt lat="48.25435" lon="2.7173">
        <ele>100</ele>
        <time>2013-09-22T12:29:30.829Z</time>
      </trkpt>
      <trkpt lat="48.25434" lon="2.71729">
        <ele>100</ele>
        <time>2013-09-22T12:29:35.821Z</time>
      </trkpt>
      <trkpt lat="48.25437" lon="2.71732">
        <ele>100</ele>
        <time>2013-09-22T12:29:37.833Z</time>
      </trkpt>
      <trkpt lat="48.25441" lon="2.71737">
        <ele>100</ele>
        <time>2013-09-22T12:29:44.830Z</time>
      </trkpt>
      <trkpt lat="48.25441" lon="2.71737">
        <ele>100</ele>
        <time>2013-09-22T12:29:47.820Z</time>
      </trkpt>
      <trkpt lat="48.25441" lon="2.71737">
        <ele>100</ele>
        <time>2013-09-22T12:29:54.824Z</time>
      </trkpt>
      <trkpt lat="48.25443" lon="2.71739">
        <ele>100</ele>
        <time>2013-09-22T12:29:56.841Z</time>
      </trkpt>
      <trkpt lat="48.2544" lon="2.7174">
        <ele>100</ele>
        <time>2013-09-22T12:30:10.825Z</time>
      </trkpt>
      <trkpt lat="48.2544" lon="2.71739">
        <ele>100</ele>
        <time>2013-09-22T12:30:12.834Z</time>
      </trkpt>
      <trkpt lat="48.2544" lon="2.71739">
        <ele>100</ele>
        <time>2013-09-22T12:30:14.860Z</time>
      </trkpt>
      <trkpt lat="48.25441" lon="2.71741">
        <ele>100</ele>
        <time>2013-09-22T12:30:17.823Z</time>
      </trkpt>
      <trkpt lat="48.25441" lon="2.71741">
        <ele>100</ele>
        <time>2013-09-22T12:30:19.827Z</time>
      </trkpt>
      <trkpt lat="48.25441" lon="2.71741">
        <ele>100</ele>
        <time>2013-09-22T12:30:26.829Z</time>
      </trkpt>
      <trkpt lat="48.25443" lon="2.71747">
        <ele>100</ele>
        <time>2013-09-22T12:30:29.812Z</time>
      </trkpt>
      <trkpt lat="48.25439" lon="2.71758">
        <ele>100</ele>
        <time>2013-09-22T12:30:37.822Z</time>
      </trkpt>
      <trkpt lat="48.25438" lon="2.71763">
        <ele>100</ele>
        <time>2013-09-22T12:30:40.819Z</time>
      </trkpt>
      <trkpt lat="48.25439" lon="2.71772">
        <ele>100</ele>
        <time>2013-09-22T12:30:45.829Z</time>
      </trkpt>
      <trkpt lat="48.25439" lon="2.71779">
        <ele>100</ele>
        <time>2013-09-22T12:30:48.826Z</time>
      </trkpt>
      <trkpt lat="48.25439" lon="2.71789">
        <ele>100</ele>
        <time>2013-09-22T12:30:53.818Z</time>
      </trkpt>
      <trkpt lat="48.25439" lon="2.71794">
        <ele>100</ele>
        <time>2013-09-22T12:30:55.821Z</time>
      </trkpt>
      <trkpt lat="48.25438" lon="2.71804">
        <ele>100</ele>
        <time>2013-09-22T12:31:00.836Z</time>
      </trkpt>
      <trkpt lat="48.25437" lon="2.71809">
        <ele>100</ele>
        <time>2013-09-22T12:31:03.811Z</time>
      </trkpt>
      <trkpt lat="48.25433" lon="2.71816">
        <ele>100</ele>
        <time>2013-09-22T12:31:08.823Z</time>
      </trkpt>
      <trkpt lat="48.25432" lon="2.71822">
        <ele>100</ele>
        <time>2013-09-22T12:31:11.820Z</time>
      </trkpt>
      <trkpt lat="48.25431" lon="2.71831">
        <ele>100</ele>
        <time>2013-09-22T12:31:17.843Z</time>
      </trkpt>
      <trkpt lat="48.2543" lon="2.71836">
        <ele>101</ele>
        <time>2013-09-22T12:31:20.831Z</time>
      </trkpt>
      <trkpt lat="48.25425" lon="2.71846">
        <ele>101</ele>
        <time>2013-09-22T12:31:28.819Z</time>
      </trkpt>
      <trkpt lat="48.25422" lon="2.7185">
        <ele>101</ele>
        <time>2013-09-22T12:31:31.813Z</time>
      </trkpt>
      <trkpt lat="48.25417" lon="2.7186">
        <ele>101</ele>
        <time>2013-09-22T12:31:37.815Z</time>
      </trkpt>
      <trkpt lat="48.25415" lon="2.71863">
        <ele>105</ele>
        <time>2013-09-22T12:31:39.817Z</time>
      </trkpt>
      <trkpt lat="48.25411" lon="2.71874">
        <ele>105</ele>
        <time>2013-09-22T12:31:47.829Z</time>
      </trkpt>
      <trkpt lat="48.25409" lon="2.71878">
        <ele>105</ele>
        <time>2013-09-22T12:31:50.844Z</time>
      </trkpt>
      <trkpt lat="48.25408" lon="2.7188">
        <ele>105</ele>
        <time>2013-09-22T12:31:53.835Z</time>
      </trkpt>
      <trkpt lat="48.25408" lon="2.71879">
        <ele>105</ele>
        <time>2013-09-22T12:31:56.832Z</time>
      </trkpt>
      <trkpt lat="48.25408" lon="2.71879">
        <ele>105</ele>
        <time>2013-09-22T12:32:02.835Z</time>
      </trkpt>
      <trkpt lat="48.25406" lon="2.71882">
        <ele>105</ele>
        <time>2013-09-22T12:32:05.821Z</time>
      </trkpt>
      <trkpt lat="48.254" lon="2.71887">
        <ele>106</ele>
        <time>2013-09-22T12:32:12.826Z</time>
      </trkpt>
      <trkpt lat="48.25398" lon="2.71888">
        <ele>106</ele>
        <time>2013-09-22T12:32:14.828Z</time>
      </trkpt>
      <trkpt lat="48.2539" lon="2.7189">
        <ele>106</ele>
        <time>2013-09-22T12:32:21.829Z</time>
      </trkpt>
      <trkpt lat="48.25388" lon="2.7189">
        <ele>106</ele>
        <time>2013-09-22T12:32:23.830Z</time>
      </trkpt>
      <trkpt lat="48.25381" lon="2.71887">
        <ele>106</ele>
        <time>2013-09-22T12:32:31.817Z</time>
      </trkpt>
      <trkpt lat="48.25379" lon="2.71885">
        <ele>106</ele>
        <time>2013-09-22T12:32:33.824Z</time>
      </trkpt>
      <trkpt lat="48.25372" lon="2.71879">
        <ele>107</ele>
        <time>2013-09-22T12:32:39.821Z</time>
      </trkpt>
      <trkpt lat="48.25371" lon="2.71878">
        <ele>107</ele>
        <time>2013-09-22T12:32:41.820Z</time>
      </trkpt>
      <trkpt lat="48.2537" lon="2.71878">
        <ele>107</ele>
        <time>2013-09-22T12:32:43.821Z</time>
      </trkpt>
      <trkpt lat="48.25371" lon="2.71878">
        <ele>107</ele>
        <time>2013-09-22T12:32:45.835Z</time>
      </trkpt>
      <trkpt lat="48.25371" lon="2.71878">
        <ele>107</ele>
        <time>2013-09-22T12:32:50.846Z</time>
      </trkpt>
      <trkpt lat="48.25365" lon="2.71878">
        <ele>107</ele>
        <time>2013-09-22T12:32:53.815Z</time>
      </trkpt>
      <trkpt lat="48.25365" lon="2.71878">
        <ele>107</ele>
        <time>2013-09-22T12:32:55.815Z</time>
      </trkpt>
      <trkpt lat="48.25366" lon="2.71878">
        <ele>107</ele>
        <time>2013-09-22T12:32:57.821Z</time>
      </trkpt>
      <trkpt lat="48.25366" lon="2.71878">
        <ele>107</ele>
        <time>2013-09-22T12:32:59.826Z</time>
      </trkpt>
      <trkpt lat="48.25362" lon="2.7188">
        <ele>107</ele>
        <time>2013-09-22T12:33:01.826Z</time>
      </trkpt>
      <trkpt lat="48.25354" lon="2.71876">
        <ele>107</ele>
        <time>2013-09-22T12:33:12.844Z</time>
      </trkpt>
      <trkpt lat="48.25354" lon="2.71877">
        <ele>107</ele>
        <time>2013-09-22T12:33:15.823Z</time>
      </trkpt>
      <trkpt lat="48.25354" lon="2.71877">
        <ele>107</ele>
        <time>2013-09-22T12:33:29.821Z</time>
      </trkpt>
      <trkpt lat="48.25352" lon="2.71878">
        <ele>108</ele>
        <time>2013-09-22T12:33:32.841Z</time>
      </trkpt>
      <trkpt lat="48.25353" lon="2.71878">
        <ele>108</ele>
        <time>2013-09-22T12:33:35.857Z</time>
      </trkpt>
      <trkpt lat="48.25353" lon="2.71878">
        <ele>108</ele>
        <time>2013-09-22T12:34:20.850Z</time>
      </trkpt>
      <trkpt lat="48.25352" lon="2.71878">
        <ele>108</ele>
        <time>2013-09-22T12:34:23.823Z</time>
      </trkpt>
      <trkpt lat="48.25345" lon="2.71872">
        <ele>108</ele>
        <time>2013-09-22T12:34:30.823Z</time>
      </trkpt>
      <trkpt lat="48.25343" lon="2.7187">
        <ele>108</ele>
        <time>2013-09-22T12:34:32.832Z</time>
      </trkpt>
      <trkpt lat="48.25338" lon="2.71865">
        <ele>108</ele>
        <time>2013-09-22T12:34:37.835Z</time>
      </trkpt>
      <trkpt lat="48.25334" lon="2.71863">
        <ele>108</ele>
        <time>2013-09-22T12:34:40.822Z</time>
      </trkpt>
      <trkpt lat="48.25328" lon="2.71861">
        <ele>112</ele>
        <time>2013-09-22T12:34:45.845Z</time>
      </trkpt>
      <trkpt lat="48.25325" lon="2.7186">
        <ele>112</ele>
        <time>2013-09-22T12:34:48.818Z</time>
      </trkpt>
      <trkpt lat="48.25318" lon="2.71863">
        <ele>112</ele>
        <time>2013-09-22T12:34:53.826Z</time>
      </trkpt>
      <trkpt lat="48.25315" lon="2.71868">
        <ele>112</ele>
        <time>2013-09-22T12:34:56.851Z</time>
      </trkpt>
      <trkpt lat="48.25309" lon="2.71876">
        <ele>113</ele>
        <time>2013-09-22T12:35:01.818Z</time>
      </trkpt>
      <trkpt lat="48.25307" lon="2.7188">
        <ele>113</ele>
        <time>2013-09-22T12:35:03.824Z</time>
      </trkpt>
      <trkpt lat="48.25302" lon="2.71888">
        <ele>113</ele>
        <time>2013-09-22T12:35:08.842Z</time>
      </trkpt>
      <trkpt lat="48.25299" lon="2.71893">
        <ele>113</ele>
        <time>2013-09-22T12:35:11.818Z</time>
      </trkpt>
      <trkpt lat="48.25296" lon="2.71899">
        <ele>113</ele>
        <time>2013-09-22T12:35:15.839Z</time>
      </trkpt>
      <trkpt lat="48.25293" lon="2.71903">
        <ele>113</ele>
        <time>2013-09-22T12:35:18.838Z</time>
      </trkpt>
      <trkpt lat="48.25287" lon="2.71912">
        <ele>113</ele>
        <time>2013-09-22T12:35:25.827Z</time>
      </trkpt>
      <trkpt lat="48.25285" lon="2.71917">
        <ele>112</ele>
        <time>2013-09-22T12:35:27.827Z</time>
      </trkpt>
      <trkpt lat="48.25282" lon="2.71923">
        <ele>112</ele>
        <time>2013-09-22T12:35:29.827Z</time>
      </trkpt>
      <trkpt lat="48.25279" lon="2.71929">
        <ele>112</ele>
        <time>2013-09-22T12:35:32.840Z</time>
      </trkpt>
      <trkpt lat="48.25275" lon="2.7194">
        <ele>112</ele>
        <time>2013-09-22T12:35:37.823Z</time>
      </trkpt>
      <trkpt lat="48.25272" lon="2.71944">
        <ele>112</ele>
        <time>2013-09-22T12:35:39.837Z</time>
      </trkpt>
      <trkpt lat="48.25269" lon="2.71951">
        <ele>112</ele>
        <time>2013-09-22T12:35:42.840Z</time>
      </trkpt>
      <trkpt lat="48.25267" lon="2.71955">
        <ele>112</ele>
        <time>2013-09-22T12:35:44.849Z</time>
      </trkpt>
      <trkpt lat="48.25262" lon="2.71961">
        <ele>112</ele>
        <time>2013-09-22T12:35:49.837Z</time>
      </trkpt>
      <trkpt lat="48.25259" lon="2.71962">
        <ele>112</ele>
        <time>2013-09-22T12:35:52.832Z</time>
      </trkpt>
      <trkpt lat="48.25253" lon="2.71962">
        <ele>112</ele>
        <time>2013-09-22T12:35:58.852Z</time>
      </trkpt>
      <trkpt lat="48.25249" lon="2.71963">
        <ele>110</ele>
        <time>2013-09-22T12:36:01.813Z</time>
      </trkpt>
      <trkpt lat="48.25243" lon="2.71963">
        <ele>110</ele>
        <time>2013-09-22T12:36:06.823Z</time>
      </trkpt>
      <trkpt lat="48.2524" lon="2.71962">
        <ele>110</ele>
        <time>2013-09-22T12:36:08.827Z</time>
      </trkpt>
      <trkpt lat="48.25232" lon="2.71957">
        <ele>110</ele>
        <time>2013-09-22T12:36:13.841Z</time>
      </trkpt>
      <trkpt lat="48.25229" lon="2.71955">
        <ele>110</ele>
        <time>2013-09-22T12:36:15.842Z</time>
      </trkpt>
      <trkpt lat="48.25222" lon="2.7195">
        <ele>110</ele>
        <time>2013-09-22T12:36:20.846Z</time>
      </trkpt>
      <trkpt lat="48.25221" lon="2.71947">
        <ele>110</ele>
        <time>2013-09-22T12:36:23.828Z</time>
      </trkpt>
      <trkpt lat="48.25219" lon="2.71938">
        <ele>110</ele>
        <time>2013-09-22T12:36:27.831Z</time>
      </trkpt>
      <trkpt lat="48.25217" lon="2.7193">
        <ele>110</ele>
        <time>2013-09-22T12:36:30.830Z</time>
      </trkpt>
      <trkpt lat="48.25215" lon="2.71923">
        <ele>110</ele>
        <time>2013-09-22T12:36:32.854Z</time>
      </trkpt>
      <trkpt lat="48.25212" lon="2.71914">
        <ele>113</ele>
        <time>2013-09-22T12:36:35.824Z</time>
      </trkpt>
      <trkpt lat="48.25208" lon="2.71903">
        <ele>113</ele>
        <time>2013-09-22T12:36:40.826Z</time>
      </trkpt>
      <trkpt lat="48.25206" lon="2.71899">
        <ele>113</ele>
        <time>2013-09-22T12:36:43.832Z</time>
      </trkpt>
      <trkpt lat="48.25201" lon="2.71897">
        <ele>113</ele>
        <time>2013-09-22T12:36:46.826Z</time>
      </trkpt>
      <trkpt lat="48.25197" lon="2.71893">
        <ele>113</ele>
        <time>2013-09-22T12:36:49.831Z</time>
      </trkpt>
      <trkpt lat="48.25189" lon="2.7189">
        <ele>113</ele>
        <time>2013-09-22T12:36:56.849Z</time>
      </trkpt>
      <trkpt lat="48.25184" lon="2.71889">
        <ele>113</ele>
        <time>2013-09-22T12:36:59.813Z</time>
      </trkpt>
      <trkpt lat="48.25178" lon="2.71891">
        <ele>113</ele>
        <time>2013-09-22T12:37:06.846Z</time>
      </trkpt>
      <trkpt lat="48.25172" lon="2.71888">
        <ele>113</ele>
        <time>2013-09-22T12:37:09.830Z</time>
      </trkpt>
      <trkpt lat="48.25164" lon="2.71887">
        <ele>112</ele>
        <time>2013-09-22T12:37:12.834Z</time>
      </trkpt>
      <trkpt lat="48.25162" lon="2.71885">
        <ele>112</ele>
        <time>2013-09-22T12:37:14.844Z</time>
      </trkpt>
      <trkpt lat="48.25154" lon="2.71886">
        <ele>112</ele>
        <time>2013-09-22T12:37:24.792Z</time>
      </trkpt>
      <trkpt lat="48.25152" lon="2.71888">
        <ele>112</ele>
        <time>2013-09-22T12:37:26.842Z</time>
      </trkpt>
      <trkpt lat="48.25145" lon="2.71893">
        <ele>112</ele>
        <time>2013-09-22T12:37:32.825Z</time>
      </trkpt>
      <trkpt lat="48.25141" lon="2.71894">
        <ele>112</ele>
        <time>2013-09-22T12:37:35.816Z</time>
      </trkpt>
      <trkpt lat="48.25136" lon="2.71896">
        <ele>112</ele>
        <time>2013-09-22T12:37:39.826Z</time>
      </trkpt>
      <trkpt lat="48.25132" lon="2.71897">
        <ele>112</ele>
        <time>2013-09-22T12:37:42.821Z</time>
      </trkpt>
      <trkpt lat="48.25125" lon="2.71903">
        <ele>112</ele>
        <time>2013-09-22T12:37:51.822Z</time>
      </trkpt>
      <trkpt lat="48.25125" lon="2.71903">
        <ele>112</ele>
        <time>2013-09-22T12:37:53.838Z</time>
      </trkpt>
      <trkpt lat="48.25125" lon="2.71902">
        <ele>112</ele>
        <time>2013-09-22T12:37:56.846Z</time>
      </trkpt>
      <trkpt lat="48.25124" lon="2.71904">
        <ele>111</ele>
        <time>2013-09-22T12:37:59.843Z</time>
      </trkpt>
      <trkpt lat="48.25119" lon="2.71915">
        <ele>111</ele>
        <time>2013-09-22T12:38:05.841Z</time>
      </trkpt>
      <trkpt lat="48.25112" lon="2.71918">
        <ele>106</ele>
        <time>2013-09-22T12:38:08.832Z</time>
      </trkpt>
      <trkpt lat="48.25104" lon="2.7192">
        <ele>106</ele>
        <time>2013-09-22T12:38:15.825Z</time>
      </trkpt>
      <trkpt lat="48.25103" lon="2.71921">
        <ele>106</ele>
        <time>2013-09-22T12:38:17.830Z</time>
      </trkpt>
      <trkpt lat="48.25095" lon="2.71921">
        <ele>106</ele>
        <time>2013-09-22T12:38:23.826Z</time>
      </trkpt>
      <trkpt lat="48.25092" lon="2.71921">
        <ele>106</ele>
        <time>2013-09-22T12:38:25.828Z</time>
      </trkpt>
      <trkpt lat="48.25085" lon="2.71927">
        <ele>106</ele>
        <time>2013-09-22T12:38:37.826Z</time>
      </trkpt>
      <trkpt lat="48.25084" lon="2.7193">
        <ele>106</ele>
        <time>2013-09-22T12:38:40.830Z</time>
      </trkpt>
      <trkpt lat="48.25084" lon="2.71943">
        <ele>106</ele>
        <time>2013-09-22T12:38:47.823Z</time>
      </trkpt>
      <trkpt lat="48.25083" lon="2.71947">
        <ele>107</ele>
        <time>2013-09-22T12:38:49.824Z</time>
      </trkpt>
      <trkpt lat="48.25082" lon="2.71959">
        <ele>106</ele>
        <time>2013-09-22T12:38:55.834Z</time>
      </trkpt>
      <trkpt lat="48.25081" lon="2.71965">
        <ele>106</ele>
        <time>2013-09-22T12:38:58.820Z</time>
      </trkpt>
      <trkpt lat="48.2508" lon="2.71975">
        <ele>105</ele>
        <time>2013-09-22T12:39:03.818Z</time>
      </trkpt>
      <trkpt lat="48.2508" lon="2.71978">
        <ele>105</ele>
        <time>2013-09-22T12:39:05.820Z</time>
      </trkpt>
      <trkpt lat="48.25087" lon="2.71985">
        <ele>103</ele>
        <time>2013-09-22T12:39:21.827Z</time>
      </trkpt>
      <trkpt lat="48.25089" lon="2.71985">
        <ele>103</ele>
        <time>2013-09-22T12:39:24.825Z</time>
      </trkpt>
      <trkpt lat="48.25098" lon="2.71987">
        <ele>103</ele>
        <time>2013-09-22T12:39:36.814Z</time>
      </trkpt>
      <trkpt lat="48.25098" lon="2.71987">
        <ele>103</ele>
        <time>2013-09-22T12:39:37.855Z</time>
      </trkpt>
      <trkpt lat="48.25097" lon="2.71987">
        <ele>103</ele>
        <time>2013-09-22T12:39:44.844Z</time>
      </trkpt>
      <trkpt lat="48.25095" lon="2.71997">
        <ele>103</ele>
        <time>2013-09-22T12:39:46.848Z</time>
      </trkpt>
      <trkpt lat="48.25093" lon="2.72008">
        <ele>101</ele>
        <time>2013-09-22T12:39:49.827Z</time>
      </trkpt>
      <trkpt lat="48.25091" lon="2.72014">
        <ele>101</ele>
        <time>2013-09-22T12:39:52.820Z</time>
      </trkpt>
      <trkpt lat="48.2509" lon="2.72017">
        <ele>102</ele>
        <time>2013-09-22T12:39:56.842Z</time>
      </trkpt>
      <trkpt lat="48.25091" lon="2.72016">
        <ele>102</ele>
        <time>2013-09-22T12:39:59.817Z</time>
      </trkpt>
      <trkpt lat="48.25091" lon="2.72019">
        <ele>102</ele>
        <time>2013-09-22T12:40:01.827Z</time>
      </trkpt>
      <trkpt lat="48.25094" lon="2.72019">
        <ele>102</ele>
        <time>2013-09-22T12:40:06.829Z</time>
      </trkpt>
      <trkpt lat="48.25101" lon="2.72026">
        <ele>102</ele>
        <time>2013-09-22T12:40:08.835Z</time>
      </trkpt>
      <trkpt lat="48.25105" lon="2.72034">
        <ele>102</ele>
        <time>2013-09-22T12:40:11.819Z</time>
      </trkpt>
      <trkpt lat="48.2511" lon="2.7204">
        <ele>102</ele>
        <time>2013-09-22T12:40:13.820Z</time>
      </trkpt>
      <trkpt lat="48.25115" lon="2.72049">
        <ele>102</ele>
        <time>2013-09-22T12:40:15.840Z</time>
      </trkpt>
      <trkpt lat="48.25115" lon="2.72055">
        <ele>102</ele>
        <time>2013-09-22T12:40:18.824Z</time>
      </trkpt>
      <trkpt lat="48.25114" lon="2.72055">
        <ele>102</ele>
        <time>2013-09-22T12:40:20.829Z</time>
      </trkpt>
      <trkpt lat="48.25114" lon="2.72053">
        <ele>102</ele>
        <time>2013-09-22T12:40:22.830Z</time>
      </trkpt>
      <trkpt lat="48.25115" lon="2.72053">
        <ele>102</ele>
        <time>2013-09-22T12:40:24.839Z</time>
      </trkpt>
      <trkpt lat="48.25118" lon="2.72065">
        <ele>102</ele>
        <time>2013-09-22T12:40:33.830Z</time>
      </trkpt>
      <trkpt lat="48.25118" lon="2.72072">
        <ele>102</ele>
        <time>2013-09-22T12:40:36.843Z</time>
      </trkpt>
      <trkpt lat="48.25118" lon="2.72074">
        <ele>102</ele>
        <time>2013-09-22T12:40:37.797Z</time>
      </trkpt>
      <trkpt lat="48.25124" lon="2.72084">
        <ele>102</ele>
        <time>2013-09-22T12:40:39.797Z</time>
      </trkpt>
      <trkpt lat="48.25131" lon="2.72093">
        <ele>102</ele>
        <time>2013-09-22T12:40:41.824Z</time>
      </trkpt>
      <trkpt lat="48.25143" lon="2.72106">
        <ele>102</ele>
        <time>2013-09-22T12:40:44.806Z</time>
      </trkpt>
      <trkpt lat="48.25152" lon="2.72117">
        <ele>102</ele>
        <time>2013-09-22T12:40:47.813Z</time>
      </trkpt>
      <trkpt lat="48.25161" lon="2.72125">
        <ele>102</ele>
        <time>2013-09-22T12:40:50.829Z</time>
      </trkpt>
      <trkpt lat="48.25169" lon="2.72138">
        <ele>103</ele>
        <time>2013-09-22T12:40:53.815Z</time>
      </trkpt>
      <trkpt lat="48.25174" lon="2.7215">
        <ele>103</ele>
        <time>2013-09-22T12:40:55.821Z</time>
      </trkpt>
      <trkpt lat="48.25178" lon="2.72159">
        <ele>103</ele>
        <time>2013-09-22T12:40:57.833Z</time>
      </trkpt>
      <trkpt lat="48.25182" lon="2.72171">
        <ele>103</ele>
        <time>2013-09-22T12:41:00.819Z</time>
      </trkpt>
      <trkpt lat="48.25184" lon="2.72178">
        <ele>103</ele>
        <time>2013-09-22T12:41:02.838Z</time>
      </trkpt>
      <trkpt lat="48.25188" lon="2.72188">
        <ele>104</ele>
        <time>2013-09-22T12:41:05.815Z</time>
      </trkpt>
      <trkpt lat="48.25192" lon="2.72195">
        <ele>104</ele>
        <time>2013-09-22T12:41:07.815Z</time>
      </trkpt>
      <trkpt lat="48.25194" lon="2.72201">
        <ele>104</ele>
        <time>2013-09-22T12:41:09.816Z</time>
      </trkpt>
      <trkpt lat="48.25199" lon="2.7221">
        <ele>105</ele>
        <time>2013-09-22T12:41:13.818Z</time>
      </trkpt>
      <trkpt lat="48.25201" lon="2.72215">
        <ele>105</ele>
        <time>2013-09-22T12:41:15.837Z</time>
      </trkpt>
      <trkpt lat="48.25205" lon="2.72222">
        <ele>105</ele>
        <time>2013-09-22T12:41:18.830Z</time>
      </trkpt>
      <trkpt lat="48.25208" lon="2.72227">
        <ele>105</ele>
        <time>2013-09-22T12:41:20.843Z</time>
      </trkpt>
      <trkpt lat="48.25213" lon="2.72236">
        <ele>105</ele>
        <time>2013-09-22T12:41:23.824Z</time>
      </trkpt>
      <trkpt lat="48.25216" lon="2.72242">
        <ele>106</ele>
        <time>2013-09-22T12:41:25.837Z</time>
      </trkpt>
      <trkpt lat="48.25217" lon="2.72245">
        <ele>106</ele>
        <time>2013-09-22T12:41:27.848Z</time>
      </trkpt>
      <trkpt lat="48.25215" lon="2.72263">
        <ele>108</ele>
        <time>2013-09-22T12:41:30.814Z</time>
      </trkpt>
      <trkpt lat="48.25211" lon="2.72282">
        <ele>108</ele>
        <time>2013-09-22T12:41:32.823Z</time>
      </trkpt>
      <trkpt lat="48.25208" lon="2.72294">
        <ele>108</ele>
        <time>2013-09-22T12:41:34.831Z</time>
      </trkpt>
      <trkpt lat="48.25203" lon="2.72311">
        <ele>108</ele>
        <time>2013-09-22T12:41:37.819Z</time>
      </trkpt>
      <trkpt lat="48.252" lon="2.72319">
        <ele>108</ele>
        <time>2013-09-22T12:41:39.820Z</time>
      </trkpt>
      <trkpt lat="48.25198" lon="2.72327">
        <ele>108</ele>
        <time>2013-09-22T12:41:41.828Z</time>
      </trkpt>
      <trkpt lat="48.25195" lon="2.72335">
        <ele>110</ele>
        <time>2013-09-22T12:41:43.828Z</time>
      </trkpt>
      <trkpt lat="48.25192" lon="2.72343">
        <ele>110</ele>
        <time>2013-09-22T12:41:45.838Z</time>
      </trkpt>
      <trkpt lat="48.25186" lon="2.72353">
        <ele>110</ele>
        <time>2013-09-22T12:41:50.852Z</time>
      </trkpt>
      <trkpt lat="48.25184" lon="2.72353">
        <ele>109</ele>
        <time>2013-09-22T12:41:53.819Z</time>
      </trkpt>
      <trkpt lat="48.2518" lon="2.72356">
        <ele>109</ele>
        <time>2013-09-22T12:41:58.816Z</time>
      </trkpt>
      <trkpt lat="48.25177" lon="2.72363">
        <ele>109</ele>
        <time>2013-09-22T12:42:01.814Z</time>
      </trkpt>
      <trkpt lat="48.25175" lon="2.7237">
        <ele>110</ele>
        <time>2013-09-22T12:42:03.831Z</time>
      </trkpt>
      <trkpt lat="48.25172" lon="2.7238">
        <ele>110</ele>
        <time>2013-09-22T12:42:06.840Z</time>
      </trkpt>
      <trkpt lat="48.2517" lon="2.72386">
        <ele>110</ele>
        <time>2013-09-22T12:42:08.848Z</time>
      </trkpt>
      <trkpt lat="48.25167" lon="2.72393">
        <ele>109</ele>
        <time>2013-09-22T12:42:11.816Z</time>
      </trkpt>
      <trkpt lat="48.25166" lon="2.72399">
        <ele>107</ele>
        <time>2013-09-22T12:42:13.835Z</time>
      </trkpt>
      <trkpt lat="48.25163" lon="2.72407">
        <ele>108</ele>
        <time>2013-09-22T12:42:16.822Z</time>
      </trkpt>
      <trkpt lat="48.25161" lon="2.72418">
        <ele>108</ele>
        <time>2013-09-22T12:42:20.876Z</time>
      </trkpt>
      <trkpt lat="48.25159" lon="2.72428">
        <ele>109</ele>
        <time>2013-09-22T12:42:23.835Z</time>
      </trkpt>
      <trkpt lat="48.25158" lon="2.72437">
        <ele>109</ele>
        <time>2013-09-22T12:42:26.838Z</time>
      </trkpt>
      <trkpt lat="48.25156" lon="2.72446">
        <ele>109</ele>
        <time>2013-09-22T12:42:29.828Z</time>
      </trkpt>
      <trkpt lat="48.25155" lon="2.72454">
        <ele>109</ele>
        <time>2013-09-22T12:42:32.831Z</time>
      </trkpt>
      <trkpt lat="48.25154" lon="2.72462">
        <ele>110</ele>
        <time>2013-09-22T12:42:35.819Z</time>
      </trkpt>
      <trkpt lat="48.25152" lon="2.72471">
        <ele>110</ele>
        <time>2013-09-22T12:42:39.820Z</time>
      </trkpt>
      <trkpt lat="48.25151" lon="2.72476">
        <ele>110</ele>
        <time>2013-09-22T12:42:41.820Z</time>
      </trkpt>
      <trkpt lat="48.25149" lon="2.72483">
        <ele>111</ele>
        <time>2013-09-22T12:42:44.839Z</time>
      </trkpt>
      <trkpt lat="48.25146" lon="2.72488">
        <ele>111</ele>
        <time>2013-09-22T12:42:47.826Z</time>
      </trkpt>
      <trkpt lat="48.25142" lon="2.72492">
        <ele>111</ele>
        <time>2013-09-22T12:42:50.835Z</time>
      </trkpt>
      <trkpt lat="48.25137" lon="2.72497">
        <ele>111</ele>
        <time>2013-09-22T12:42:53.821Z</time>
      </trkpt>
      <trkpt lat="48.25134" lon="2.72501">
        <ele>114</ele>
        <time>2013-09-22T12:42:55.824Z</time>
      </trkpt>
      <trkpt lat="48.25129" lon="2.72508">
        <ele>114</ele>
        <time>2013-09-22T12:42:58.836Z</time>
      </trkpt>
      <trkpt lat="48.25123" lon="2.72514">
        <ele>114</ele>
        <time>2013-09-22T12:43:01.810Z</time>
      </trkpt>
      <trkpt lat="48.2512" lon="2.7252">
        <ele>114</ele>
        <time>2013-09-22T12:43:03.814Z</time>
      </trkpt>
      <trkpt lat="48.25116" lon="2.72524">
        <ele>114</ele>
        <time>2013-09-22T12:43:05.824Z</time>
      </trkpt>
      <trkpt lat="48.25111" lon="2.72527">
        <ele>114</ele>
        <time>2013-09-22T12:43:08.827Z</time>
      </trkpt>
      <trkpt lat="48.25104" lon="2.72532">
        <ele>114</ele>
        <time>2013-09-22T12:43:13.819Z</time>
      </trkpt>
      <trkpt lat="48.25102" lon="2.72535">
        <ele>114</ele>
        <time>2013-09-22T12:43:15.822Z</time>
      </trkpt>
      <trkpt lat="48.25096" lon="2.72538">
        <ele>114</ele>
        <time>2013-09-22T12:43:19.838Z</time>
      </trkpt>
      <trkpt lat="48.2509" lon="2.72539">
        <ele>114</ele>
        <time>2013-09-22T12:43:22.823Z</time>
      </trkpt>
      <trkpt lat="48.25085" lon="2.72541">
        <ele>114</ele>
        <time>2013-09-22T12:43:25.819Z</time>
      </trkpt>
      <trkpt lat="48.25081" lon="2.72543">
        <ele>114</ele>
        <time>2013-09-22T12:43:27.823Z</time>
      </trkpt>
      <trkpt lat="48.25074" lon="2.72546">
        <ele>114</ele>
        <time>2013-09-22T12:43:32.833Z</time>
      </trkpt>
      <trkpt lat="48.25071" lon="2.72549">
        <ele>115</ele>
        <time>2013-09-22T12:43:35.816Z</time>
      </trkpt>
      <trkpt lat="48.25064" lon="2.72552">
        <ele>115</ele>
        <time>2013-09-22T12:43:39.819Z</time>
      </trkpt>
      <trkpt lat="48.25059" lon="2.72553">
        <ele>115</ele>
        <time>2013-09-22T12:43:42.816Z</time>
      </trkpt>
      <trkpt lat="48.25051" lon="2.72555">
        <ele>115</ele>
        <time>2013-09-22T12:43:47.824Z</time>
      </trkpt>
      <trkpt lat="48.25048" lon="2.72556">
        <ele>115</ele>
        <time>2013-09-22T12:43:49.826Z</time>
      </trkpt>
      <trkpt lat="48.25042" lon="2.72559">
        <ele>115</ele>
        <time>2013-09-22T12:43:54.825Z</time>
      </trkpt>
      <trkpt lat="48.25039" lon="2.7256">
        <ele>115</ele>
        <time>2013-09-22T12:43:56.837Z</time>
      </trkpt>
      <trkpt lat="48.25033" lon="2.7256">
        <ele>115</ele>
        <time>2013-09-22T12:44:01.832Z</time>
      </trkpt>
      <trkpt lat="48.25029" lon="2.72559">
        <ele>115</ele>
        <time>2013-09-22T12:44:04.819Z</time>
      </trkpt>
      <trkpt lat="48.25021" lon="2.72567">
        <ele>115</ele>
        <time>2013-09-22T12:44:14.838Z</time>
      </trkpt>
      <trkpt lat="48.25017" lon="2.7257">
        <ele>116</ele>
        <time>2013-09-22T12:44:17.819Z</time>
      </trkpt>
      <trkpt lat="48.25012" lon="2.72572">
        <ele>116</ele>
        <time>2013-09-22T12:44:21.824Z</time>
      </trkpt>
      <trkpt lat="48.25009" lon="2.72575">
        <ele>116</ele>
        <time>2013-09-22T12:44:23.825Z</time>
      </trkpt>
      <trkpt lat="48.25002" lon="2.7258">
        <ele>117</ele>
        <time>2013-09-22T12:44:27.826Z</time>
      </trkpt>
      <trkpt lat="48.24997" lon="2.72581">
        <ele>117</ele>
        <time>2013-09-22T12:44:30.812Z</time>
      </trkpt>
      <trkpt lat="48.24991" lon="2.72587">
        <ele>118</ele>
        <time>2013-09-22T12:44:40.818Z</time>
      </trkpt>
      <trkpt lat="48.24988" lon="2.7259">
        <ele>118</ele>
        <time>2013-09-22T12:44:43.818Z</time>
      </trkpt>
      <trkpt lat="48.24988" lon="2.7259">
        <ele>118</ele>
        <time>2013-09-22T12:44:45.820Z</time>
      </trkpt>
      <trkpt lat="48.24988" lon="2.72589">
        <ele>118</ele>
        <time>2013-09-22T12:44:47.832Z</time>
      </trkpt>
      <trkpt lat="48.24982" lon="2.72592">
        <ele>119</ele>
        <time>2013-09-22T12:44:50.841Z</time>
      </trkpt>
      <trkpt lat="48.24976" lon="2.72602">
        <ele>119</ele>
        <time>2013-09-22T12:44:59.811Z</time>
      </trkpt>
      <trkpt lat="48.24976" lon="2.72604">
        <ele>119</ele>
        <time>2013-09-22T12:45:01.813Z</time>
      </trkpt>
      <trkpt lat="48.24972" lon="2.72613">
        <ele>120</ele>
        <time>2013-09-22T12:45:09.823Z</time>
      </trkpt>
      <trkpt lat="48.24972" lon="2.72613">
        <ele>120</ele>
        <time>2013-09-22T12:45:12.801Z</time>
      </trkpt>
      <trkpt lat="48.24973" lon="2.72612">
        <ele>120</ele>
        <time>2013-09-22T12:45:55.831Z</time>
      </trkpt>
      <trkpt lat="48.24972" lon="2.72612">
        <ele>120</ele>
        <time>2013-09-22T12:45:58.829Z</time>
      </trkpt>
      <trkpt lat="48.24971" lon="2.72611">
        <ele>120</ele>
        <time>2013-09-22T12:46:01.825Z</time>
      </trkpt>
      <trkpt lat="48.24971" lon="2.7261">
        <ele>120</ele>
        <time>2013-09-22T12:46:04.819Z</time>
      </trkpt>
      <trkpt lat="48.24971" lon="2.72611">
        <ele>120</ele>
        <time>2013-09-22T12:46:07.824Z</time>
      </trkpt>
      <trkpt lat="48.24969" lon="2.7261">
        <ele>120</ele>
        <time>2013-09-22T12:46:10.821Z</time>
      </trkpt>
      <trkpt lat="48.24966" lon="2.72606">
        <ele>119</ele>
        <time>2013-09-22T12:46:15.820Z</time>
      </trkpt>
      <trkpt lat="48.24966" lon="2.72607">
        <ele>119</ele>
        <time>2013-09-22T12:46:17.822Z</time>
      </trkpt>
      <trkpt lat="48.24966" lon="2.72607">
        <ele>119</ele>
        <time>2013-09-22T12:46:44.838Z</time>
      </trkpt>
      <trkpt lat="48.24961" lon="2.72608">
        <ele>119</ele>
        <time>2013-09-22T12:46:47.824Z</time>
      </trkpt>
      <trkpt lat="48.24959" lon="2.72608">
        <ele>119</ele>
        <time>2013-09-22T12:46:53.809Z</time>
      </trkpt>
      <trkpt lat="48.24959" lon="2.72608">
        <ele>119</ele>
        <time>2013-09-22T12:46:55.809Z</time>
      </trkpt>
      <trkpt lat="48.2496" lon="2.72608">
        <ele>119</ele>
        <time>2013-09-22T12:47:02.821Z</time>
      </trkpt>
      <trkpt lat="48.24957" lon="2.72605">
        <ele>119</ele>
        <time>2013-09-22T12:47:05.810Z</time>
      </trkpt>
      <trkpt lat="48.2495" lon="2.72603">
        <ele>119</ele>
        <time>2013-09-22T12:47:13.818Z</time>
      </trkpt>
      <trkpt lat="48.24948" lon="2.72602">
        <ele>119</ele>
        <time>2013-09-22T12:47:15.820Z</time>
      </trkpt>
      <trkpt lat="48.2494" lon="2.72601">
        <ele>119</ele>
        <time>2013-09-22T12:47:22.838Z</time>
      </trkpt>
      <trkpt lat="48.24937" lon="2.72602">
        <ele>119</ele>
        <time>2013-09-22T12:47:25.825Z</time>
      </trkpt>
      <trkpt lat="48.24934" lon="2.72613">
        <ele>119</ele>
        <time>2013-09-22T12:47:32.819Z</time>
      </trkpt>
      <trkpt lat="48.24933" lon="2.72618">
        <ele>119</ele>
        <time>2013-09-22T12:47:35.823Z</time>
      </trkpt>
      <trkpt lat="48.2493" lon="2.72625">
        <ele>120</ele>
        <time>2013-09-22T12:47:40.828Z</time>
      </trkpt>
      <trkpt lat="48.24927" lon="2.72628">
        <ele>120</ele>
        <time>2013-09-22T12:47:43.825Z</time>
      </trkpt>
      <trkpt lat="48.24924" lon="2.72637">
        <ele>120</ele>
        <time>2013-09-22T12:47:50.844Z</time>
      </trkpt>
      <trkpt lat="48.24922" lon="2.72641">
        <ele>120</ele>
        <time>2013-09-22T12:47:53.821Z</time>
      </trkpt>
      <trkpt lat="48.24922" lon="2.72653">
        <ele>120</ele>
        <time>2013-09-22T12:48:02.843Z</time>
      </trkpt>
      <trkpt lat="48.24923" lon="2.72657">
        <ele>120</ele>
        <time>2013-09-22T12:48:05.808Z</time>
      </trkpt>
      <trkpt lat="48.24922" lon="2.72658">
        <ele>120</ele>
        <time>2013-09-22T12:48:09.824Z</time>
      </trkpt>
      <trkpt lat="48.24922" lon="2.72658">
        <ele>120</ele>
        <time>2013-09-22T12:48:12.822Z</time>
      </trkpt>
      <trkpt lat="48.24922" lon="2.72657">
        <ele>120</ele>
        <time>2013-09-22T12:48:14.828Z</time>
      </trkpt>
      <trkpt lat="48.24919" lon="2.72658">
        <ele>120</ele>
        <time>2013-09-22T12:48:17.822Z</time>
      </trkpt>
      <trkpt lat="48.24916" lon="2.72659">
        <ele>119</ele>
        <time>2013-09-22T12:48:23.847Z</time>
      </trkpt>
      <trkpt lat="48.24916" lon="2.72659">
        <ele>119</ele>
        <time>2013-09-22T12:48:26.837Z</time>
      </trkpt>
      <trkpt lat="48.24911" lon="2.72663">
        <ele>119</ele>
        <time>2013-09-22T12:48:29.842Z</time>
      </trkpt>
      <trkpt lat="48.2491" lon="2.72663">
        <ele>119</ele>
        <time>2013-09-22T12:48:35.821Z</time>
      </trkpt>
      <trkpt lat="48.2491" lon="2.72663">
        <ele>119</ele>
        <time>2013-09-22T12:48:37.816Z</time>
      </trkpt>
      <trkpt lat="48.2491" lon="2.72663">
        <ele>119</ele>
        <time>2013-09-22T12:48:44.843Z</time>
      </trkpt>
      <trkpt lat="48.24909" lon="2.72664">
        <ele>119</ele>
        <time>2013-09-22T12:48:47.815Z</time>
      </trkpt>
      <trkpt lat="48.24901" lon="2.7267">
        <ele>118</ele>
        <time>2013-09-22T12:48:55.820Z</time>
      </trkpt>
      <trkpt lat="48.249" lon="2.72672">
        <ele>118</ele>
        <time>2013-09-22T12:48:57.828Z</time>
      </trkpt>
      <trkpt lat="48.24894" lon="2.72681">
        <ele>118</ele>
        <time>2013-09-22T12:49:10.837Z</time>
      </trkpt>
      <trkpt lat="48.2489" lon="2.72679">
        <ele>117</ele>
        <time>2013-09-22T12:49:13.814Z</time>
      </trkpt>
      <trkpt lat="48.24886" lon="2.72678">
        <ele>117</ele>
        <time>2013-09-22T12:49:20.831Z</time>
      </trkpt>
      <trkpt lat="48.24887" lon="2.72679">
        <ele>117</ele>
        <time>2013-09-22T12:49:23.818Z</time>
      </trkpt>
      <trkpt lat="48.24887" lon="2.72679">
        <ele>117</ele>
        <time>2013-09-22T12:49:27.827Z</time>
      </trkpt>
      <trkpt lat="48.24892" lon="2.72679">
        <ele>118</ele>
        <time>2013-09-22T12:49:30.813Z</time>
      </trkpt>
      <trkpt lat="48.24898" lon="2.72677">
        <ele>118</ele>
        <time>2013-09-22T12:49:32.826Z</time>
      </trkpt>
      <trkpt lat="48.24904" lon="2.72676">
        <ele>118</ele>
        <time>2013-09-22T12:49:35.811Z</time>
      </trkpt>
      <trkpt lat="48.24905" lon="2.72676">
        <ele>118</ele>
        <time>2013-09-22T12:49:40.813Z</time>
      </trkpt>
      <trkpt lat="48.24905" lon="2.72676">
        <ele>118</ele>
        <time>2013-09-22T12:49:43.816Z</time>
      </trkpt>
      <trkpt lat="48.24905" lon="2.72676">
        <ele>118</ele>
        <time>2013-09-22T12:49:59.818Z</time>
      </trkpt>
      <trkpt lat="48.24907" lon="2.72671">
        <ele>119</ele>
        <time>2013-09-22T12:50:02.833Z</time>
      </trkpt>
      <trkpt lat="48.24908" lon="2.72668">
        <ele>119</ele>
        <time>2013-09-22T12:50:08.822Z</time>
      </trkpt>
      <trkpt lat="48.24908" lon="2.72669">
        <ele>119</ele>
        <time>2013-09-22T12:50:11.815Z</time>
      </trkpt>
      <trkpt lat="48.24907" lon="2.72669">
        <ele>119</ele>
        <time>2013-09-22T12:50:19.843Z</time>
      </trkpt>
      <trkpt lat="48.24896" lon="2.72662">
        <ele>118</ele>
        <time>2013-09-22T12:50:22.815Z</time>
      </trkpt>
      <trkpt lat="48.24876" lon="2.72655">
        <ele>116</ele>
        <time>2013-09-22T12:50:25.807Z</time>
      </trkpt>
      <trkpt lat="48.24871" lon="2.72663">
        <ele>116</ele>
        <time>2013-09-22T12:50:31.810Z</time>
      </trkpt>
      <trkpt lat="48.24871" lon="2.72667">
        <ele>116</ele>
        <time>2013-09-22T12:50:34.801Z</time>
      </trkpt>
      <trkpt lat="48.24866" lon="2.72669">
        <ele>116</ele>
        <time>2013-09-22T12:50:37.817Z</time>
      </trkpt>
      <trkpt lat="48.24862" lon="2.7267">
        <ele>116</ele>
        <time>2013-09-22T12:50:39.818Z</time>
      </trkpt>
      <trkpt lat="48.24858" lon="2.72671">
        <ele>115</ele>
        <time>2013-09-22T12:50:41.823Z</time>
      </trkpt>
      <trkpt lat="48.24853" lon="2.72672">
        <ele>115</ele>
        <time>2013-09-22T12:50:43.824Z</time>
      </trkpt>
      <trkpt lat="48.24846" lon="2.72674">
        <ele>115</ele>
        <time>2013-09-22T12:50:47.834Z</time>
      </trkpt>
      <trkpt lat="48.2484" lon="2.72672">
        <ele>114</ele>
        <time>2013-09-22T12:50:50.833Z</time>
      </trkpt>
      <trkpt lat="48.24833" lon="2.72666">
        <ele>113</ele>
        <time>2013-09-22T12:50:53.819Z</time>
      </trkpt>
      <trkpt lat="48.24828" lon="2.72665">
        <ele>113</ele>
        <time>2013-09-22T12:50:55.825Z</time>
      </trkpt>
      <trkpt lat="48.24823" lon="2.72666">
        <ele>113</ele>
        <time>2013-09-22T12:50:58.818Z</time>
      </trkpt>
      <trkpt lat="48.24819" lon="2.72668">
        <ele>113</ele>
        <time>2013-09-22T12:51:01.809Z</time>
      </trkpt>
      <trkpt lat="48.24815" lon="2.72678">
        <ele>114</ele>
        <time>2013-09-22T12:51:07.830Z</time>
      </trkpt>
      <trkpt lat="48.24813" lon="2.72686">
        <ele>114</ele>
        <time>2013-09-22T12:51:10.812Z</time>
      </trkpt>
      <trkpt lat="48.24809" lon="2.72695">
        <ele>114</ele>
        <time>2013-09-22T12:51:15.824Z</time>
      </trkpt>
      <trkpt lat="48.24808" lon="2.72699">
        <ele>114</ele>
        <time>2013-09-22T12:51:18.802Z</time>
      </trkpt>
      <trkpt lat="48.24804" lon="2.72709">
        <ele>114</ele>
        <time>2013-09-22T12:51:23.812Z</time>
      </trkpt>
      <trkpt lat="48.24802" lon="2.72715">
        <ele>114</ele>
        <time>2013-09-22T12:51:26.818Z</time>
      </trkpt>
      <trkpt lat="48.24796" lon="2.7272">
        <ele>114</ele>
        <time>2013-09-22T12:51:29.817Z</time>
      </trkpt>
      <trkpt lat="48.2479" lon="2.72723">
        <ele>114</ele>
        <time>2013-09-22T12:51:31.817Z</time>
      </trkpt>
      <trkpt lat="48.24782" lon="2.72726">
        <ele>115</ele>
        <time>2013-09-22T12:51:35.833Z</time>
      </trkpt>
      <trkpt lat="48.2478" lon="2.72726">
        <ele>115</ele>
        <time>2013-09-22T12:51:37.822Z</time>
      </trkpt>
      <trkpt lat="48.24772" lon="2.7273">
        <ele>115</ele>
        <time>2013-09-22T12:51:43.817Z</time>
      </trkpt>
      <trkpt lat="48.24769" lon="2.72733">
        <ele>115</ele>
        <time>2013-09-22T12:51:45.820Z</time>
      </trkpt>
      <trkpt lat="48.24762" lon="2.72731">
        <ele>116</ele>
        <time>2013-09-22T12:51:50.841Z</time>
      </trkpt>
      <trkpt lat="48.24758" lon="2.7273">
        <ele>116</ele>
        <time>2013-09-22T12:51:53.815Z</time>
      </trkpt>
      <trkpt lat="48.24749" lon="2.72731">
        <ele>116</ele>
        <time>2013-09-22T12:51:58.805Z</time>
      </trkpt>
      <trkpt lat="48.24747" lon="2.72731">
        <ele>116</ele>
        <time>2013-09-22T12:52:00.806Z</time>
      </trkpt>
      <trkpt lat="48.2474" lon="2.72736">
        <ele>116</ele>
        <time>2013-09-22T12:52:05.804Z</time>
      </trkpt>
      <trkpt lat="48.24737" lon="2.72738">
        <ele>116</ele>
        <time>2013-09-22T12:52:07.806Z</time>
      </trkpt>
      <trkpt lat="48.24731" lon="2.72745">
        <ele>116</ele>
        <time>2013-09-22T12:52:13.817Z</time>
      </trkpt>
      <trkpt lat="48.24728" lon="2.72746">
        <ele>116</ele>
        <time>2013-09-22T12:52:16.803Z</time>
      </trkpt>
      <trkpt lat="48.24723" lon="2.72746">
        <ele>116</ele>
        <time>2013-09-22T12:52:20.835Z</time>
      </trkpt>
      <trkpt lat="48.24718" lon="2.72746">
        <ele>116</ele>
        <time>2013-09-22T12:52:23.817Z</time>
      </trkpt>
      <trkpt lat="48.2471" lon="2.7275">
        <ele>118</ele>
        <time>2013-09-22T12:52:31.785Z</time>
      </trkpt>
      <trkpt lat="48.24711" lon="2.7275">
        <ele>118</ele>
        <time>2013-09-22T12:52:33.804Z</time>
      </trkpt>
      <trkpt lat="48.24709" lon="2.72753">
        <ele>118</ele>
        <time>2013-09-22T12:52:35.829Z</time>
      </trkpt>
      <trkpt lat="48.24703" lon="2.72759">
        <ele>118</ele>
        <time>2013-09-22T12:52:40.823Z</time>
      </trkpt>
      <trkpt lat="48.24699" lon="2.72762">
        <ele>118</ele>
        <time>2013-09-22T12:52:43.811Z</time>
      </trkpt>
      <trkpt lat="48.24695" lon="2.7277">
        <ele>118</ele>
        <time>2013-09-22T12:52:50.837Z</time>
      </trkpt>
      <trkpt lat="48.24691" lon="2.7278">
        <ele>118</ele>
        <time>2013-09-22T12:52:53.822Z</time>
      </trkpt>
      <trkpt lat="48.24683" lon="2.72782">
        <ele>118</ele>
        <time>2013-09-22T12:52:59.843Z</time>
      </trkpt>
      <trkpt lat="48.24678" lon="2.72783">
        <ele>118</ele>
        <time>2013-09-22T12:53:02.833Z</time>
      </trkpt>
      <trkpt lat="48.24672" lon="2.72789">
        <ele>118</ele>
        <time>2013-09-22T12:53:07.810Z</time>
      </trkpt>
      <trkpt lat="48.2467" lon="2.72791">
        <ele>118</ele>
        <time>2013-09-22T12:53:09.817Z</time>
      </trkpt>
      <trkpt lat="48.24664" lon="2.728">
        <ele>117</ele>
        <time>2013-09-22T12:53:16.818Z</time>
      </trkpt>
      <trkpt lat="48.24663" lon="2.72804">
        <ele>117</ele>
        <time>2013-09-22T12:53:18.825Z</time>
      </trkpt>
      <trkpt lat="48.24656" lon="2.72812">
        <ele>117</ele>
        <time>2013-09-22T12:53:25.815Z</time>
      </trkpt>
      <trkpt lat="48.24652" lon="2.72815">
        <ele>117</ele>
        <time>2013-09-22T12:53:28.816Z</time>
      </trkpt>
      <trkpt lat="48.24645" lon="2.72823">
        <ele>117</ele>
        <time>2013-09-22T12:53:35.822Z</time>
      </trkpt>
      <trkpt lat="48.24644" lon="2.72825">
        <ele>117</ele>
        <time>2013-09-22T12:53:37.821Z</time>
      </trkpt>
      <trkpt lat="48.24636" lon="2.7283">
        <ele>117</ele>
        <time>2013-09-22T12:53:44.827Z</time>
      </trkpt>
      <trkpt lat="48.24633" lon="2.72834">
        <ele>119</ele>
        <time>2013-09-22T12:53:47.812Z</time>
      </trkpt>
      <trkpt lat="48.24628" lon="2.7284">
        <ele>119</ele>
        <time>2013-09-22T12:53:51.833Z</time>
      </trkpt>
      <trkpt lat="48.24625" lon="2.72843">
        <ele>119</ele>
        <time>2013-09-22T12:53:54.820Z</time>
      </trkpt>
      <trkpt lat="48.24617" lon="2.72844">
        <ele>119</ele>
        <time>2013-09-22T12:54:05.835Z</time>
      </trkpt>
      <trkpt lat="48.24614" lon="2.72845">
        <ele>118</ele>
        <time>2013-09-22T12:54:08.826Z</time>
      </trkpt>
      <trkpt lat="48.24609" lon="2.7285">
        <ele>118</ele>
        <time>2013-09-22T12:54:14.825Z</time>
      </trkpt>
      <trkpt lat="48.24606" lon="2.72854">
        <ele>118</ele>
        <time>2013-09-22T12:54:17.817Z</time>
      </trkpt>
      <trkpt lat="48.24601" lon="2.7286">
        <ele>118</ele>
        <time>2013-09-22T12:54:21.843Z</time>
      </trkpt>
      <trkpt lat="48.24598" lon="2.72864">
        <ele>118</ele>
        <time>2013-09-22T12:54:24.818Z</time>
      </trkpt>
      <trkpt lat="48.24595" lon="2.72871">
        <ele>118</ele>
        <time>2013-09-22T12:54:28.828Z</time>
      </trkpt>
      <trkpt lat="48.24591" lon="2.72875">
        <ele>118</ele>
        <time>2013-09-22T12:54:31.818Z</time>
      </trkpt>
      <trkpt lat="48.24585" lon="2.72883">
        <ele>118</ele>
        <time>2013-09-22T12:54:37.814Z</time>
      </trkpt>
      <trkpt lat="48.24583" lon="2.72885">
        <ele>115</ele>
        <time>2013-09-22T12:54:39.818Z</time>
      </trkpt>
      <trkpt lat="48.24579" lon="2.72892">
        <ele>115</ele>
        <time>2013-09-22T12:54:44.831Z</time>
      </trkpt>
      <trkpt lat="48.24576" lon="2.72895">
        <ele>115</ele>
        <time>2013-09-22T12:54:47.830Z</time>
      </trkpt>
      <trkpt lat="48.24573" lon="2.72904">
        <ele>115</ele>
        <time>2013-09-22T12:54:55.820Z</time>
      </trkpt>
      <trkpt lat="48.24574" lon="2.72903">
        <ele>115</ele>
        <time>2013-09-22T12:54:57.821Z</time>
      </trkpt>
      <trkpt lat="48.24574" lon="2.72903">
        <ele>115</ele>
        <time>2013-09-22T12:55:07.804Z</time>
      </trkpt>
      <trkpt lat="48.24573" lon="2.72909">
        <ele>115</ele>
        <time>2013-09-22T12:55:09.806Z</time>
      </trkpt>
      <trkpt lat="48.24572" lon="2.72912">
        <ele>115</ele>
        <time>2013-09-22T12:55:11.818Z</time>
      </trkpt>
      <trkpt lat="48.24572" lon="2.72911">
        <ele>115</ele>
        <time>2013-09-22T12:55:14.819Z</time>
      </trkpt>
      <trkpt lat="48.24571" lon="2.72914">
        <ele>115</ele>
        <time>2013-09-22T12:55:16.817Z</time>
      </trkpt>
      <trkpt lat="48.24571" lon="2.7292">
        <ele>116</ele>
        <time>2013-09-22T12:55:20.832Z</time>
      </trkpt>
      <trkpt lat="48.24571" lon="2.72919">
        <ele>116</ele>
        <time>2013-09-22T12:55:23.806Z</time>
      </trkpt>
      <trkpt lat="48.24571" lon="2.72919">
        <ele>116</ele>
        <time>2013-09-22T12:55:51.824Z</time>
      </trkpt>
      <trkpt lat="48.24574" lon="2.72919">
        <ele>116</ele>
        <time>2013-09-22T12:55:53.838Z</time>
      </trkpt>
      <trkpt lat="48.24578" lon="2.72919">
        <ele>116</ele>
        <time>2013-09-22T12:55:56.840Z</time>
      </trkpt>
      <trkpt lat="48.24577" lon="2.72919">
        <ele>116</ele>
        <time>2013-09-22T12:55:59.828Z</time>
      </trkpt>
      <trkpt lat="48.24577" lon="2.72919">
        <ele>116</ele>
        <time>2013-09-22T12:56:02.829Z</time>
      </trkpt>
      <trkpt lat="48.24573" lon="2.72924">
        <ele>116</ele>
        <time>2013-09-22T12:56:05.828Z</time>
      </trkpt>
      <trkpt lat="48.24571" lon="2.72926">
        <ele>116</ele>
        <time>2013-09-22T12:56:08.822Z</time>
      </trkpt>
      <trkpt lat="48.24572" lon="2.72925">
        <ele>116</ele>
        <time>2013-09-22T12:56:11.817Z</time>
      </trkpt>
      <trkpt lat="48.2457" lon="2.72928">
        <ele>116</ele>
        <time>2013-09-22T12:56:14.828Z</time>
      </trkpt>
      <trkpt lat="48.24566" lon="2.72937">
        <ele>116</ele>
        <time>2013-09-22T12:56:20.865Z</time>
      </trkpt>
      <trkpt lat="48.24564" lon="2.72941">
        <ele>116</ele>
        <time>2013-09-22T12:56:23.818Z</time>
      </trkpt>
      <trkpt lat="48.24556" lon="2.72947">
        <ele>115</ele>
        <time>2013-09-22T12:56:32.854Z</time>
      </trkpt>
      <trkpt lat="48.24554" lon="2.72945">
        <ele>115</ele>
        <time>2013-09-22T12:56:34.854Z</time>
      </trkpt>
      <trkpt lat="48.24547" lon="2.72941">
        <ele>114</ele>
        <time>2013-09-22T12:56:42.819Z</time>
      </trkpt>
      <trkpt lat="48.24545" lon="2.7294">
        <ele>114</ele>
        <time>2013-09-22T12:56:44.826Z</time>
      </trkpt>
      <trkpt lat="48.2454" lon="2.72936">
        <ele>114</ele>
        <time>2013-09-22T12:56:48.831Z</time>
      </trkpt>
      <trkpt lat="48.24536" lon="2.72934">
        <ele>114</ele>
        <time>2013-09-22T12:56:51.837Z</time>
      </trkpt>
      <trkpt lat="48.24531" lon="2.72931">
        <ele>113</ele>
        <time>2013-09-22T12:56:56.830Z</time>
      </trkpt>
      <trkpt lat="48.24527" lon="2.72929">
        <ele>113</ele>
        <time>2013-09-22T12:56:59.824Z</time>
      </trkpt>
      <trkpt lat="48.24518" lon="2.72929">
        <ele>112</ele>
        <time>2013-09-22T12:57:06.807Z</time>
      </trkpt>
      <trkpt lat="48.24516" lon="2.7293">
        <ele>112</ele>
        <time>2013-09-22T12:57:08.829Z</time>
      </trkpt>
      <trkpt lat="48.24509" lon="2.72931">
        <ele>111</ele>
        <time>2013-09-22T12:57:13.820Z</time>
      </trkpt>
      <trkpt lat="48.24506" lon="2.72932">
        <ele>111</ele>
        <time>2013-09-22T12:57:15.821Z</time>
      </trkpt>
      <trkpt lat="48.24501" lon="2.72935">
        <ele>111</ele>
        <time>2013-09-22T12:57:19.832Z</time>
      </trkpt>
      <trkpt lat="48.24499" lon="2.72941">
        <ele>108</ele>
        <time>2013-09-22T12:57:22.843Z</time>
      </trkpt>
      <trkpt lat="48.24497" lon="2.72947">
        <ele>108</ele>
        <time>2013-09-22T12:57:25.857Z</time>
      </trkpt>
      <trkpt lat="48.24495" lon="2.72955">
        <ele>108</ele>
        <time>2013-09-22T12:57:28.829Z</time>
      </trkpt>
      <trkpt lat="48.24492" lon="2.72964">
        <ele>108</ele>
        <time>2013-09-22T12:57:32.845Z</time>
      </trkpt>
      <trkpt lat="48.2449" lon="2.72971">
        <ele>108</ele>
        <time>2013-09-22T12:57:35.827Z</time>
      </trkpt>
      <trkpt lat="48.24487" lon="2.72981">
        <ele>108</ele>
        <time>2013-09-22T12:57:40.827Z</time>
      </trkpt>
      <trkpt lat="48.24485" lon="2.72985">
        <ele>109</ele>
        <time>2013-09-22T12:57:43.822Z</time>
      </trkpt>
      <trkpt lat="48.24483" lon="2.7299">
        <ele>109</ele>
        <time>2013-09-22T12:57:47.845Z</time>
      </trkpt>
      <trkpt lat="48.24483" lon="2.7299">
        <ele>109</ele>
        <time>2013-09-22T12:57:50.834Z</time>
      </trkpt>
      <trkpt lat="48.24483" lon="2.72989">
        <ele>109</ele>
        <time>2013-09-22T12:58:09.839Z</time>
      </trkpt>
      <trkpt lat="48.24483" lon="2.72993">
        <ele>109</ele>
        <time>2013-09-22T12:58:11.845Z</time>
      </trkpt>
      <trkpt lat="48.24481" lon="2.73005">
        <ele>109</ele>
        <time>2013-09-22T12:58:16.830Z</time>
      </trkpt>
      <trkpt lat="48.2448" lon="2.73009">
        <ele>109</ele>
        <time>2013-09-22T12:58:18.833Z</time>
      </trkpt>
      <trkpt lat="48.2448" lon="2.73017">
        <ele>110</ele>
        <time>2013-09-22T12:58:23.834Z</time>
      </trkpt>
      <trkpt lat="48.2448" lon="2.73016">
        <ele>110</ele>
        <time>2013-09-22T12:58:25.835Z</time>
      </trkpt>
      <trkpt lat="48.2448" lon="2.73016">
        <ele>110</ele>
        <time>2013-09-22T12:58:29.836Z</time>
      </trkpt>
      <trkpt lat="48.24478" lon="2.73017">
        <ele>110</ele>
        <time>2013-09-22T12:58:32.846Z</time>
      </trkpt>
      <trkpt lat="48.24476" lon="2.73017">
        <ele>110</ele>
        <time>2013-09-22T12:58:35.818Z</time>
      </trkpt>
      <trkpt lat="48.24476" lon="2.73017">
        <ele>110</ele>
        <time>2013-09-22T12:58:37.820Z</time>
      </trkpt>
      <trkpt lat="48.24476" lon="2.73018">
        <ele>110</ele>
        <time>2013-09-22T13:01:32.852Z</time>
      </trkpt>
      <trkpt lat="48.24475" lon="2.73017">
        <ele>110</ele>
        <time>2013-09-22T13:01:35.825Z</time>
      </trkpt>
      <trkpt lat="48.24475" lon="2.73017">
        <ele>110</ele>
        <time>2013-09-22T13:01:37.821Z</time>
      </trkpt>
      <trkpt lat="48.24475" lon="2.73017">
        <ele>110</ele>
        <time>2013-09-22T13:02:35.834Z</time>
      </trkpt>
      <trkpt lat="48.24473" lon="2.73017">
        <ele>110</ele>
        <time>2013-09-22T13:02:37.808Z</time>
      </trkpt>
      <trkpt lat="48.24473" lon="2.73018">
        <ele>110</ele>
        <time>2013-09-22T13:02:39.829Z</time>
      </trkpt>
      <trkpt lat="48.24473" lon="2.73017">
        <ele>110</ele>
        <time>2013-09-22T13:02:42.835Z</time>
      </trkpt>
      <trkpt lat="48.24473" lon="2.73017">
        <ele>110</ele>
        <time>2013-09-22T13:04:13.825Z</time>
      </trkpt>
      <trkpt lat="48.2447" lon="2.73018">
        <ele>110</ele>
        <time>2013-09-22T13:04:15.827Z</time>
      </trkpt>
      <trkpt lat="48.2447" lon="2.73018">
        <ele>110</ele>
        <time>2013-09-22T13:04:18.824Z</time>
      </trkpt>
      <trkpt lat="48.2447" lon="2.73018">
        <ele>110</ele>
        <time>2013-09-22T13:04:20.834Z</time>
      </trkpt>
      <trkpt lat="48.2447" lon="2.73018">
        <ele>110</ele>
        <time>2013-09-22T13:06:18.837Z</time>
      </trkpt>
      <trkpt lat="48.2447" lon="2.7302">
        <ele>110</ele>
        <time>2013-09-22T13:06:21.836Z</time>
      </trkpt>
      <trkpt lat="48.24469" lon="2.73021">
        <ele>110</ele>
        <time>2013-09-22T13:06:23.837Z</time>
      </trkpt>
      <trkpt lat="48.24469" lon="2.73021">
        <ele>110</ele>
        <time>2013-09-22T13:06:26.843Z</time>
      </trkpt>
      <trkpt lat="48.24469" lon="2.73021">
        <ele>110</ele>
        <time>2013-09-22T13:09:33.488Z</time>
      </trkpt>
      <trkpt lat="48.24468" lon="2.73022">
        <ele>110</ele>
        <time>2013-09-22T13:09:36.478Z</time>
      </trkpt>
      <trkpt lat="48.24467" lon="2.73023">
        <ele>110</ele>
        <time>2013-09-22T13:09:39.482Z</time>
      </trkpt>
      <trkpt lat="48.24467" lon="2.73023">
        <ele>110</ele>
        <time>2013-09-22T13:09:41.483Z</time>
      </trkpt>
      <trkpt lat="48.24467" lon="2.73023">
        <ele>110</ele>
        <time>2013-09-22T13:11:21.477Z</time>
      </trkpt>
      <trkpt lat="48.24467" lon="2.73023">
        <ele>110</ele>
        <time>2013-09-22T13:11:23.500Z</time>
      </trkpt>
      <trkpt lat="48.24466" lon="2.73024">
        <ele>110</ele>
        <time>2013-09-22T13:11:26.494Z</time>
      </trkpt>
      <trkpt lat="48.24467" lon="2.73024">
        <ele>110</ele>
        <time>2013-09-22T13:12:15.491Z</time>
      </trkpt>
      <trkpt lat="48.24467" lon="2.7302">
        <ele>109</ele>
        <time>2013-09-22T13:12:18.483Z</time>
      </trkpt>
      <trkpt lat="48.24467" lon="2.7302">
        <ele>109</ele>
        <time>2013-09-22T13:12:20.490Z</time>
      </trkpt>
      <trkpt lat="48.24467" lon="2.7302">
        <ele>109</ele>
        <time>2013-09-22T13:14:13.482Z</time>
      </trkpt>
      <trkpt lat="48.24465" lon="2.73021">
        <ele>109</ele>
        <time>2013-09-22T13:14:16.469Z</time>
      </trkpt>
      <trkpt lat="48.24465" lon="2.73021">
        <ele>109</ele>
        <time>2013-09-22T13:14:18.479Z</time>
      </trkpt>
      <trkpt lat="48.24465" lon="2.73021">
        <ele>109</ele>
        <time>2013-09-22T13:14:20.495Z</time>
      </trkpt>
      <trkpt lat="48.24465" lon="2.73021">
        <ele>109</ele>
        <time>2013-09-22T13:16:30.463Z</time>
      </trkpt>
      <trkpt lat="48.24464" lon="2.73022">
        <ele>109</ele>
        <time>2013-09-22T13:16:32.477Z</time>
      </trkpt>
      <trkpt lat="48.24464" lon="2.73023">
        <ele>109</ele>
        <time>2013-09-22T13:16:35.442Z</time>
      </trkpt>
      <trkpt lat="48.24464" lon="2.73023">
        <ele>109</ele>
        <time>2013-09-22T13:16:37.462Z</time>
      </trkpt>
      <trkpt lat="48.24464" lon="2.73023">
        <ele>109</ele>
        <time>2013-09-22T13:16:43.432Z</time>
      </trkpt>
    </trkseg>
  </trk>
</gpx>